<?xml version="1.0" encoding="UTF-8" standalone="no" ?>
<gpx xmlns="http://www.topografix.com/GPX/1/1" xmlns:xsi="http://www.w3.org/2001/XMLSchema-instance" xsi:schemaLocation="http://www.topografix.com/GPX/1/1 http://www.topografix.com/GPX/1/1/gpx.xsd" version="1.1" creator="VisuGPX - https://www.visugpx.com">
  <metadata>
    <name>Pass\'porte du soleil 2015</name>
    <desc><![CDATA[Parcours de la pass\'porte du soleil 2015 avec remontée en télésiège.]]></desc>
  </metadata>
  <trk>
    <name><![CDATA[26-JUIN-15 18:22:48]]></name>
    <trkseg>
      <trkpt lat="46.15639" lon="6.66656">
        <ele>1182.08</ele>
        <time>2015-06-26T06:42:00Z</time>
      </trkpt>
      <trkpt lat="46.15639" lon="6.66656">
        <ele>1182.08</ele>
        <time>2015-06-26T06:42:29Z</time>
      </trkpt>
      <trkpt lat="46.15639" lon="6.66656">
        <ele>1182.08</ele>
        <time>2015-06-26T06:42:44Z</time>
      </trkpt>
      <trkpt lat="46.15638" lon="6.6666">
        <ele>1182.08</ele>
        <time>2015-06-26T06:43:01Z</time>
      </trkpt>
      <trkpt lat="46.15632" lon="6.66671">
        <ele>1183.52</ele>
        <time>2015-06-26T06:43:14Z</time>
      </trkpt>
      <trkpt lat="46.15635" lon="6.66669">
        <ele>1183.52</ele>
        <time>2015-06-26T06:43:23Z</time>
      </trkpt>
      <trkpt lat="46.15638" lon="6.66668">
        <ele>1183.52</ele>
        <time>2015-06-26T06:43:36Z</time>
      </trkpt>
      <trkpt lat="46.15638" lon="6.66668">
        <ele>1183.52</ele>
        <time>2015-06-26T06:44:17Z</time>
      </trkpt>
      <trkpt lat="46.15638" lon="6.66668">
        <ele>1183.52</ele>
        <time>2015-06-26T06:44:52Z</time>
      </trkpt>
      <trkpt lat="46.15638" lon="6.66668">
        <ele>1183.52</ele>
        <time>2015-06-26T06:45:24Z</time>
      </trkpt>
      <trkpt lat="46.15637" lon="6.66668">
        <ele>1183.52</ele>
        <time>2015-06-26T06:45:53Z</time>
      </trkpt>
      <trkpt lat="46.15638" lon="6.66668">
        <ele>1183.52</ele>
        <time>2015-06-26T06:46:24Z</time>
      </trkpt>
      <trkpt lat="46.15637" lon="6.66668">
        <ele>1183.52</ele>
        <time>2015-06-26T06:46:48Z</time>
      </trkpt>
      <trkpt lat="46.15637" lon="6.66668">
        <ele>1183.52</ele>
        <time>2015-06-26T06:46:52Z</time>
      </trkpt>
      <trkpt lat="46.15633" lon="6.66669">
        <ele>1183.52</ele>
        <time>2015-06-26T06:46:56Z</time>
      </trkpt>
      <trkpt lat="46.15632" lon="6.66672">
        <ele>1183.52</ele>
        <time>2015-06-26T06:46:58Z</time>
      </trkpt>
      <trkpt lat="46.15617" lon="6.6669">
        <ele>1184.48</ele>
        <time>2015-06-26T06:47:12Z</time>
      </trkpt>
      <trkpt lat="46.15617" lon="6.66692">
        <ele>1184.48</ele>
        <time>2015-06-26T06:47:13Z</time>
      </trkpt>
      <trkpt lat="46.15622" lon="6.66705">
        <ele>1184.96</ele>
        <time>2015-06-26T06:47:19Z</time>
      </trkpt>
      <trkpt lat="46.15633" lon="6.66724">
        <ele>1184.96</ele>
        <time>2015-06-26T06:47:25Z</time>
      </trkpt>
      <trkpt lat="46.15638" lon="6.6676">
        <ele>1184.96</ele>
        <time>2015-06-26T06:47:34Z</time>
      </trkpt>
      <trkpt lat="46.15643" lon="6.6677">
        <ele>1184.96</ele>
        <time>2015-06-26T06:47:37Z</time>
      </trkpt>
      <trkpt lat="46.15673" lon="6.66815">
        <ele>1185.44</ele>
        <time>2015-06-26T06:47:52Z</time>
      </trkpt>
      <trkpt lat="46.15693" lon="6.66832">
        <ele>1185.92</ele>
        <time>2015-06-26T06:48:00Z</time>
      </trkpt>
      <trkpt lat="46.15695" lon="6.66845">
        <ele>1185.44</ele>
        <time>2015-06-26T06:48:08Z</time>
      </trkpt>
      <trkpt lat="46.15694" lon="6.66845">
        <ele>1185.44</ele>
        <time>2015-06-26T06:48:24Z</time>
      </trkpt>
      <trkpt lat="46.15694" lon="6.66844">
        <ele>1185.92</ele>
        <time>2015-06-26T06:48:47Z</time>
      </trkpt>
      <trkpt lat="46.15694" lon="6.66844">
        <ele>1185.92</ele>
        <time>2015-06-26T06:49:05Z</time>
      </trkpt>
      <trkpt lat="46.15693" lon="6.66841">
        <ele>1185.92</ele>
        <time>2015-06-26T06:49:24Z</time>
      </trkpt>
      <trkpt lat="46.15692" lon="6.66838">
        <ele>1185.92</ele>
        <time>2015-06-26T06:49:41Z</time>
      </trkpt>
      <trkpt lat="46.15692" lon="6.66838">
        <ele>1185.92</ele>
        <time>2015-06-26T06:50:01Z</time>
      </trkpt>
      <trkpt lat="46.1569" lon="6.66831">
        <ele>1185.92</ele>
        <time>2015-06-26T06:50:21Z</time>
      </trkpt>
      <trkpt lat="46.15688" lon="6.66831">
        <ele>1185.92</ele>
        <time>2015-06-26T06:50:25Z</time>
      </trkpt>
      <trkpt lat="46.15673" lon="6.66853">
        <ele>1186.88</ele>
        <time>2015-06-26T06:50:36Z</time>
      </trkpt>
      <trkpt lat="46.15669" lon="6.66864">
        <ele>1191.21</ele>
        <time>2015-06-26T06:50:39Z</time>
      </trkpt>
      <trkpt lat="46.15666" lon="6.6687">
        <ele>1195.06</ele>
        <time>2015-06-26T06:50:41Z</time>
      </trkpt>
      <trkpt lat="46.15662" lon="6.66877">
        <ele>1198.9</ele>
        <time>2015-06-26T06:50:43Z</time>
      </trkpt>
      <trkpt lat="46.1566" lon="6.66883">
        <ele>1201.3</ele>
        <time>2015-06-26T06:50:45Z</time>
      </trkpt>
      <trkpt lat="46.15658" lon="6.66889">
        <ele>1204.67</ele>
        <time>2015-06-26T06:50:47Z</time>
      </trkpt>
      <trkpt lat="46.1565" lon="6.66905">
        <ele>1208.03</ele>
        <time>2015-06-26T06:50:52Z</time>
      </trkpt>
      <trkpt lat="46.15628" lon="6.66949">
        <ele>1211.88</ele>
        <time>2015-06-26T06:51:05Z</time>
      </trkpt>
      <trkpt lat="46.15625" lon="6.66956">
        <ele>1214.76</ele>
        <time>2015-06-26T06:51:07Z</time>
      </trkpt>
      <trkpt lat="46.15621" lon="6.66963">
        <ele>1218.13</ele>
        <time>2015-06-26T06:51:09Z</time>
      </trkpt>
      <trkpt lat="46.15619" lon="6.66967">
        <ele>1218.13</ele>
        <time>2015-06-26T06:51:10Z</time>
      </trkpt>
      <trkpt lat="46.15614" lon="6.66977">
        <ele>1221.97</ele>
        <time>2015-06-26T06:51:13Z</time>
      </trkpt>
      <trkpt lat="46.15608" lon="6.6699">
        <ele>1224.86</ele>
        <time>2015-06-26T06:51:17Z</time>
      </trkpt>
      <trkpt lat="46.15601" lon="6.67007">
        <ele>1228.22</ele>
        <time>2015-06-26T06:51:22Z</time>
      </trkpt>
      <trkpt lat="46.15596" lon="6.6702">
        <ele>1232.07</ele>
        <time>2015-06-26T06:51:26Z</time>
      </trkpt>
      <trkpt lat="46.15591" lon="6.67029">
        <ele>1235.91</ele>
        <time>2015-06-26T06:51:29Z</time>
      </trkpt>
      <trkpt lat="46.15587" lon="6.67038">
        <ele>1239.76</ele>
        <time>2015-06-26T06:51:32Z</time>
      </trkpt>
      <trkpt lat="46.15583" lon="6.67046">
        <ele>1243.6</ele>
        <time>2015-06-26T06:51:35Z</time>
      </trkpt>
      <trkpt lat="46.15582" lon="6.67049">
        <ele>1243.6</ele>
        <time>2015-06-26T06:51:36Z</time>
      </trkpt>
      <trkpt lat="46.15559" lon="6.67095">
        <ele>1244.56</ele>
        <time>2015-06-26T06:51:51Z</time>
      </trkpt>
      <trkpt lat="46.15543" lon="6.67126">
        <ele>1247.93</ele>
        <time>2015-06-26T06:52:01Z</time>
      </trkpt>
      <trkpt lat="46.15537" lon="6.67139">
        <ele>1251.29</ele>
        <time>2015-06-26T06:52:05Z</time>
      </trkpt>
      <trkpt lat="46.15531" lon="6.67151">
        <ele>1254.66</ele>
        <time>2015-06-26T06:52:09Z</time>
      </trkpt>
      <trkpt lat="46.15517" lon="6.67184">
        <ele>1257.06</ele>
        <time>2015-06-26T06:52:21Z</time>
      </trkpt>
      <trkpt lat="46.15497" lon="6.67241">
        <ele>1257.06</ele>
        <time>2015-06-26T06:52:38Z</time>
      </trkpt>
      <trkpt lat="46.15472" lon="6.6729">
        <ele>1260.91</ele>
        <time>2015-06-26T06:52:53Z</time>
      </trkpt>
      <trkpt lat="46.15466" lon="6.67302">
        <ele>1264.27</ele>
        <time>2015-06-26T06:52:57Z</time>
      </trkpt>
      <trkpt lat="46.15421" lon="6.67387">
        <ele>1265.71</ele>
        <time>2015-06-26T06:53:22Z</time>
      </trkpt>
      <trkpt lat="46.15405" lon="6.67422">
        <ele>1269.08</ele>
        <time>2015-06-26T06:53:32Z</time>
      </trkpt>
      <trkpt lat="46.15399" lon="6.67435">
        <ele>1272.92</ele>
        <time>2015-06-26T06:53:36Z</time>
      </trkpt>
      <trkpt lat="46.1539" lon="6.67452">
        <ele>1275.81</ele>
        <time>2015-06-26T06:53:42Z</time>
      </trkpt>
      <trkpt lat="46.15363" lon="6.67515">
        <ele>1276.29</ele>
        <time>2015-06-26T06:54:01Z</time>
      </trkpt>
      <trkpt lat="46.15343" lon="6.67558">
        <ele>1280.61</ele>
        <time>2015-06-26T06:54:14Z</time>
      </trkpt>
      <trkpt lat="46.15339" lon="6.67566">
        <ele>1283.5</ele>
        <time>2015-06-26T06:54:17Z</time>
      </trkpt>
      <trkpt lat="46.15335" lon="6.67578">
        <ele>1286.38</ele>
        <time>2015-06-26T06:54:21Z</time>
      </trkpt>
      <trkpt lat="46.1532" lon="6.67607">
        <ele>1287.82</ele>
        <time>2015-06-26T06:54:33Z</time>
      </trkpt>
      <trkpt lat="46.15311" lon="6.67621">
        <ele>1290.71</ele>
        <time>2015-06-26T06:54:40Z</time>
      </trkpt>
      <trkpt lat="46.15308" lon="6.67627">
        <ele>1294.07</ele>
        <time>2015-06-26T06:54:43Z</time>
      </trkpt>
      <trkpt lat="46.15304" lon="6.67636">
        <ele>1297.92</ele>
        <time>2015-06-26T06:54:46Z</time>
      </trkpt>
      <trkpt lat="46.15302" lon="6.67641">
        <ele>1298.4</ele>
        <time>2015-06-26T06:54:48Z</time>
      </trkpt>
      <trkpt lat="46.15295" lon="6.67657">
        <ele>1302.24</ele>
        <time>2015-06-26T06:54:55Z</time>
      </trkpt>
      <trkpt lat="46.15288" lon="6.67669">
        <ele>1305.61</ele>
        <time>2015-06-26T06:55:01Z</time>
      </trkpt>
      <trkpt lat="46.15283" lon="6.67677">
        <ele>1308.97</ele>
        <time>2015-06-26T06:55:05Z</time>
      </trkpt>
      <trkpt lat="46.15276" lon="6.67686">
        <ele>1312.82</ele>
        <time>2015-06-26T06:55:10Z</time>
      </trkpt>
      <trkpt lat="46.15269" lon="6.67706">
        <ele>1315.22</ele>
        <time>2015-06-26T06:55:15Z</time>
      </trkpt>
      <trkpt lat="46.15262" lon="6.67725">
        <ele>1319.07</ele>
        <time>2015-06-26T06:55:20Z</time>
      </trkpt>
      <trkpt lat="46.15257" lon="6.67737">
        <ele>1322.43</ele>
        <time>2015-06-26T06:55:24Z</time>
      </trkpt>
      <trkpt lat="46.15252" lon="6.67748">
        <ele>1326.76</ele>
        <time>2015-06-26T06:55:28Z</time>
      </trkpt>
      <trkpt lat="46.15247" lon="6.6776">
        <ele>1330.12</ele>
        <time>2015-06-26T06:55:32Z</time>
      </trkpt>
      <trkpt lat="46.15243" lon="6.67772">
        <ele>1333.97</ele>
        <time>2015-06-26T06:55:36Z</time>
      </trkpt>
      <trkpt lat="46.15239" lon="6.67786">
        <ele>1337.33</ele>
        <time>2015-06-26T06:55:40Z</time>
      </trkpt>
      <trkpt lat="46.15226" lon="6.67816">
        <ele>1340.7</ele>
        <time>2015-06-26T06:55:49Z</time>
      </trkpt>
      <trkpt lat="46.1522" lon="6.67832">
        <ele>1344.06</ele>
        <time>2015-06-26T06:55:54Z</time>
      </trkpt>
      <trkpt lat="46.15215" lon="6.67846">
        <ele>1347.43</ele>
        <time>2015-06-26T06:55:58Z</time>
      </trkpt>
      <trkpt lat="46.15209" lon="6.6786">
        <ele>1350.79</ele>
        <time>2015-06-26T06:56:02Z</time>
      </trkpt>
      <trkpt lat="46.15204" lon="6.67871">
        <ele>1353.67</ele>
        <time>2015-06-26T06:56:05Z</time>
      </trkpt>
      <trkpt lat="46.15197" lon="6.67884">
        <ele>1357.04</ele>
        <time>2015-06-26T06:56:10Z</time>
      </trkpt>
      <trkpt lat="46.15191" lon="6.67892">
        <ele>1360.4</ele>
        <time>2015-06-26T06:56:14Z</time>
      </trkpt>
      <trkpt lat="46.15185" lon="6.67901">
        <ele>1363.77</ele>
        <time>2015-06-26T06:56:18Z</time>
      </trkpt>
      <trkpt lat="46.15179" lon="6.6791">
        <ele>1367.61</ele>
        <time>2015-06-26T06:56:22Z</time>
      </trkpt>
      <trkpt lat="46.15174" lon="6.67917">
        <ele>1371.46</ele>
        <time>2015-06-26T06:56:26Z</time>
      </trkpt>
      <trkpt lat="46.15171" lon="6.67925">
        <ele>1374.82</ele>
        <time>2015-06-26T06:56:29Z</time>
      </trkpt>
      <trkpt lat="46.15167" lon="6.67935">
        <ele>1377.71</ele>
        <time>2015-06-26T06:56:32Z</time>
      </trkpt>
      <trkpt lat="46.15163" lon="6.67944">
        <ele>1381.07</ele>
        <time>2015-06-26T06:56:35Z</time>
      </trkpt>
      <trkpt lat="46.15158" lon="6.67958">
        <ele>1384.92</ele>
        <time>2015-06-26T06:56:39Z</time>
      </trkpt>
      <trkpt lat="46.15154" lon="6.67967">
        <ele>1388.28</ele>
        <time>2015-06-26T06:56:42Z</time>
      </trkpt>
      <trkpt lat="46.1515" lon="6.67978">
        <ele>1391.65</ele>
        <time>2015-06-26T06:56:45Z</time>
      </trkpt>
      <trkpt lat="46.15146" lon="6.67987">
        <ele>1395.01</ele>
        <time>2015-06-26T06:56:48Z</time>
      </trkpt>
      <trkpt lat="46.15141" lon="6.67996">
        <ele>1398.37</ele>
        <time>2015-06-26T06:56:51Z</time>
      </trkpt>
      <trkpt lat="46.15135" lon="6.68011">
        <ele>1401.74</ele>
        <time>2015-06-26T06:56:55Z</time>
      </trkpt>
      <trkpt lat="46.15123" lon="6.6804">
        <ele>1405.1</ele>
        <time>2015-06-26T06:57:01Z</time>
      </trkpt>
      <trkpt lat="46.15118" lon="6.68051">
        <ele>1407.03</ele>
        <time>2015-06-26T06:57:04Z</time>
      </trkpt>
      <trkpt lat="46.15111" lon="6.68065">
        <ele>1410.87</ele>
        <time>2015-06-26T06:57:08Z</time>
      </trkpt>
      <trkpt lat="46.15106" lon="6.68077">
        <ele>1413.76</ele>
        <time>2015-06-26T06:57:11Z</time>
      </trkpt>
      <trkpt lat="46.15102" lon="6.68088">
        <ele>1417.12</ele>
        <time>2015-06-26T06:57:14Z</time>
      </trkpt>
      <trkpt lat="46.15097" lon="6.68098">
        <ele>1420</ele>
        <time>2015-06-26T06:57:17Z</time>
      </trkpt>
      <trkpt lat="46.15092" lon="6.68109">
        <ele>1423.85</ele>
        <time>2015-06-26T06:57:21Z</time>
      </trkpt>
      <trkpt lat="46.15088" lon="6.68119">
        <ele>1427.21</ele>
        <time>2015-06-26T06:57:24Z</time>
      </trkpt>
      <trkpt lat="46.15084" lon="6.68128">
        <ele>1430.1</ele>
        <time>2015-06-26T06:57:27Z</time>
      </trkpt>
      <trkpt lat="46.15078" lon="6.68139">
        <ele>1433.94</ele>
        <time>2015-06-26T06:57:31Z</time>
      </trkpt>
      <trkpt lat="46.15073" lon="6.68147">
        <ele>1437.31</ele>
        <time>2015-06-26T06:57:34Z</time>
      </trkpt>
      <trkpt lat="46.15068" lon="6.68157">
        <ele>1441.15</ele>
        <time>2015-06-26T06:57:37Z</time>
      </trkpt>
      <trkpt lat="46.15063" lon="6.68166">
        <ele>1444.52</ele>
        <time>2015-06-26T06:57:40Z</time>
      </trkpt>
      <trkpt lat="46.15059" lon="6.68178">
        <ele>1447.88</ele>
        <time>2015-06-26T06:57:43Z</time>
      </trkpt>
      <trkpt lat="46.15055" lon="6.68186">
        <ele>1451.25</ele>
        <time>2015-06-26T06:57:46Z</time>
      </trkpt>
      <trkpt lat="46.15031" lon="6.68234">
        <ele>1454.13</ele>
        <time>2015-06-26T06:58:00Z</time>
      </trkpt>
      <trkpt lat="46.15025" lon="6.68249">
        <ele>1457.98</ele>
        <time>2015-06-26T06:58:04Z</time>
      </trkpt>
      <trkpt lat="46.1502" lon="6.68258">
        <ele>1461.82</ele>
        <time>2015-06-26T06:58:07Z</time>
      </trkpt>
      <trkpt lat="46.15017" lon="6.68267">
        <ele>1465.19</ele>
        <time>2015-06-26T06:58:10Z</time>
      </trkpt>
      <trkpt lat="46.15009" lon="6.68286">
        <ele>1468.55</ele>
        <time>2015-06-26T06:58:15Z</time>
      </trkpt>
      <trkpt lat="46.14998" lon="6.68309">
        <ele>1471.92</ele>
        <time>2015-06-26T06:58:22Z</time>
      </trkpt>
      <trkpt lat="46.14991" lon="6.6832">
        <ele>1475.28</ele>
        <time>2015-06-26T06:58:26Z</time>
      </trkpt>
      <trkpt lat="46.14986" lon="6.68332">
        <ele>1479.13</ele>
        <time>2015-06-26T06:58:30Z</time>
      </trkpt>
      <trkpt lat="46.14963" lon="6.68375">
        <ele>1481.53</ele>
        <time>2015-06-26T06:58:45Z</time>
      </trkpt>
      <trkpt lat="46.1495" lon="6.68402">
        <ele>1484.89</ele>
        <time>2015-06-26T06:58:52Z</time>
      </trkpt>
      <trkpt lat="46.14945" lon="6.68416">
        <ele>1488.26</ele>
        <time>2015-06-26T06:58:55Z</time>
      </trkpt>
      <trkpt lat="46.14938" lon="6.6843">
        <ele>1491.62</ele>
        <time>2015-06-26T06:58:59Z</time>
      </trkpt>
      <trkpt lat="46.14925" lon="6.68463">
        <ele>1494.99</ele>
        <time>2015-06-26T06:59:07Z</time>
      </trkpt>
      <trkpt lat="46.14915" lon="6.68482">
        <ele>1498.83</ele>
        <time>2015-06-26T06:59:13Z</time>
      </trkpt>
      <trkpt lat="46.14908" lon="6.68496">
        <ele>1502.68</ele>
        <time>2015-06-26T06:59:17Z</time>
      </trkpt>
      <trkpt lat="46.14905" lon="6.68503">
        <ele>1503.16</ele>
        <time>2015-06-26T06:59:19Z</time>
      </trkpt>
      <trkpt lat="46.14875" lon="6.68563">
        <ele>1505.56</ele>
        <time>2015-06-26T06:59:37Z</time>
      </trkpt>
      <trkpt lat="46.14868" lon="6.68576">
        <ele>1508.93</ele>
        <time>2015-06-26T06:59:41Z</time>
      </trkpt>
      <trkpt lat="46.14863" lon="6.68586">
        <ele>1512.29</ele>
        <time>2015-06-26T06:59:44Z</time>
      </trkpt>
      <trkpt lat="46.14862" lon="6.68589">
        <ele>1512.77</ele>
        <time>2015-06-26T06:59:45Z</time>
      </trkpt>
      <trkpt lat="46.14856" lon="6.68603">
        <ele>1515.66</ele>
        <time>2015-06-26T06:59:49Z</time>
      </trkpt>
      <trkpt lat="46.14843" lon="6.6863">
        <ele>1519.02</ele>
        <time>2015-06-26T06:59:57Z</time>
      </trkpt>
      <trkpt lat="46.14834" lon="6.68649">
        <ele>1522.39</ele>
        <time>2015-06-26T07:00:03Z</time>
      </trkpt>
      <trkpt lat="46.14829" lon="6.68663">
        <ele>1526.23</ele>
        <time>2015-06-26T07:00:07Z</time>
      </trkpt>
      <trkpt lat="46.14823" lon="6.68676">
        <ele>1529.59</ele>
        <time>2015-06-26T07:00:11Z</time>
      </trkpt>
      <trkpt lat="46.1482" lon="6.68683">
        <ele>1530.56</ele>
        <time>2015-06-26T07:00:13Z</time>
      </trkpt>
      <trkpt lat="46.14811" lon="6.68703">
        <ele>1533.44</ele>
        <time>2015-06-26T07:00:19Z</time>
      </trkpt>
      <trkpt lat="46.14794" lon="6.68741">
        <ele>1537.29</ele>
        <time>2015-06-26T07:00:30Z</time>
      </trkpt>
      <trkpt lat="46.14787" lon="6.68757">
        <ele>1540.17</ele>
        <time>2015-06-26T07:00:35Z</time>
      </trkpt>
      <trkpt lat="46.14783" lon="6.68767">
        <ele>1542.09</ele>
        <time>2015-06-26T07:00:38Z</time>
      </trkpt>
      <trkpt lat="46.1478" lon="6.68774">
        <ele>1543.05</ele>
        <time>2015-06-26T07:00:40Z</time>
      </trkpt>
      <trkpt lat="46.14769" lon="6.68798">
        <ele>1546.9</ele>
        <time>2015-06-26T07:00:47Z</time>
      </trkpt>
      <trkpt lat="46.14762" lon="6.68814">
        <ele>1550.26</ele>
        <time>2015-06-26T07:00:52Z</time>
      </trkpt>
      <trkpt lat="46.14755" lon="6.6883">
        <ele>1553.63</ele>
        <time>2015-06-26T07:00:57Z</time>
      </trkpt>
      <trkpt lat="46.14749" lon="6.68843">
        <ele>1556.99</ele>
        <time>2015-06-26T07:01:01Z</time>
      </trkpt>
      <trkpt lat="46.14746" lon="6.6885">
        <ele>1557.47</ele>
        <time>2015-06-26T07:01:03Z</time>
      </trkpt>
      <trkpt lat="46.14715" lon="6.68918">
        <ele>1560.84</ele>
        <time>2015-06-26T07:01:24Z</time>
      </trkpt>
      <trkpt lat="46.1471" lon="6.68928">
        <ele>1564.2</ele>
        <time>2015-06-26T07:01:27Z</time>
      </trkpt>
      <trkpt lat="46.14705" lon="6.68937">
        <ele>1567.09</ele>
        <time>2015-06-26T07:01:30Z</time>
      </trkpt>
      <trkpt lat="46.147" lon="6.68947">
        <ele>1569.01</ele>
        <time>2015-06-26T07:01:33Z</time>
      </trkpt>
      <trkpt lat="46.14667" lon="6.69019">
        <ele>1571.89</ele>
        <time>2015-06-26T07:01:55Z</time>
      </trkpt>
      <trkpt lat="46.14651" lon="6.69056">
        <ele>1574.78</ele>
        <time>2015-06-26T07:02:06Z</time>
      </trkpt>
      <trkpt lat="46.14645" lon="6.69069">
        <ele>1578.14</ele>
        <time>2015-06-26T07:02:10Z</time>
      </trkpt>
      <trkpt lat="46.14637" lon="6.69085">
        <ele>1581.51</ele>
        <time>2015-06-26T07:02:15Z</time>
      </trkpt>
      <trkpt lat="46.14616" lon="6.69131">
        <ele>1584.87</ele>
        <time>2015-06-26T07:02:30Z</time>
      </trkpt>
      <trkpt lat="46.14611" lon="6.69139">
        <ele>1587.75</ele>
        <time>2015-06-26T07:02:33Z</time>
      </trkpt>
      <trkpt lat="46.14607" lon="6.69149">
        <ele>1591.12</ele>
        <time>2015-06-26T07:02:36Z</time>
      </trkpt>
      <trkpt lat="46.14577" lon="6.69216">
        <ele>1594.48</ele>
        <time>2015-06-26T07:02:56Z</time>
      </trkpt>
      <trkpt lat="46.14569" lon="6.69237">
        <ele>1598.33</ele>
        <time>2015-06-26T07:03:02Z</time>
      </trkpt>
      <trkpt lat="46.14564" lon="6.69246">
        <ele>1601.69</ele>
        <time>2015-06-26T07:03:05Z</time>
      </trkpt>
      <trkpt lat="46.14558" lon="6.69259">
        <ele>1605.06</ele>
        <time>2015-06-26T07:03:09Z</time>
      </trkpt>
      <trkpt lat="46.14544" lon="6.69291">
        <ele>1607.94</ele>
        <time>2015-06-26T07:03:19Z</time>
      </trkpt>
      <trkpt lat="46.14539" lon="6.69304">
        <ele>1611.31</ele>
        <time>2015-06-26T07:03:23Z</time>
      </trkpt>
      <trkpt lat="46.14532" lon="6.69319">
        <ele>1614.67</ele>
        <time>2015-06-26T07:03:28Z</time>
      </trkpt>
      <trkpt lat="46.14504" lon="6.69379">
        <ele>1615.63</ele>
        <time>2015-06-26T07:03:48Z</time>
      </trkpt>
      <trkpt lat="46.14502" lon="6.69383">
        <ele>1615.63</ele>
        <time>2015-06-26T07:03:59Z</time>
      </trkpt>
      <trkpt lat="46.14501" lon="6.69385">
        <ele>1615.63</ele>
        <time>2015-06-26T07:04:10Z</time>
      </trkpt>
      <trkpt lat="46.14499" lon="6.69391">
        <ele>1615.63</ele>
        <time>2015-06-26T07:04:13Z</time>
      </trkpt>
      <trkpt lat="46.14494" lon="6.69406">
        <ele>1614.67</ele>
        <time>2015-06-26T07:04:27Z</time>
      </trkpt>
      <trkpt lat="46.14486" lon="6.69427">
        <ele>1614.67</ele>
        <time>2015-06-26T07:04:35Z</time>
      </trkpt>
      <trkpt lat="46.14488" lon="6.69433">
        <ele>1613.23</ele>
        <time>2015-06-26T07:04:45Z</time>
      </trkpt>
      <trkpt lat="46.14488" lon="6.69433">
        <ele>1612.75</ele>
        <time>2015-06-26T07:05:10Z</time>
      </trkpt>
      <trkpt lat="46.14499" lon="6.69442">
        <ele>1612.27</ele>
        <time>2015-06-26T07:05:29Z</time>
      </trkpt>
      <trkpt lat="46.14534" lon="6.69435">
        <ele>1611.79</ele>
        <time>2015-06-26T07:05:36Z</time>
      </trkpt>
      <trkpt lat="46.1456" lon="6.69424">
        <ele>1610.35</ele>
        <time>2015-06-26T07:05:40Z</time>
      </trkpt>
      <trkpt lat="46.14592" lon="6.69403">
        <ele>1609.38</ele>
        <time>2015-06-26T07:05:46Z</time>
      </trkpt>
      <trkpt lat="46.1461" lon="6.69373">
        <ele>1606.02</ele>
        <time>2015-06-26T07:05:50Z</time>
      </trkpt>
      <trkpt lat="46.14632" lon="6.69341">
        <ele>1600.73</ele>
        <time>2015-06-26T07:05:54Z</time>
      </trkpt>
      <trkpt lat="46.14638" lon="6.69333">
        <ele>1599.77</ele>
        <time>2015-06-26T07:05:55Z</time>
      </trkpt>
      <trkpt lat="46.1466" lon="6.6932">
        <ele>1597.37</ele>
        <time>2015-06-26T07:05:58Z</time>
      </trkpt>
      <trkpt lat="46.14699" lon="6.69315">
        <ele>1600.25</ele>
        <time>2015-06-26T07:06:05Z</time>
      </trkpt>
      <trkpt lat="46.1475" lon="6.69316">
        <ele>1600.73</ele>
        <time>2015-06-26T07:06:13Z</time>
      </trkpt>
      <trkpt lat="46.14776" lon="6.69311">
        <ele>1597.85</ele>
        <time>2015-06-26T07:06:17Z</time>
      </trkpt>
      <trkpt lat="46.148" lon="6.69302">
        <ele>1594.48</ele>
        <time>2015-06-26T07:06:20Z</time>
      </trkpt>
      <trkpt lat="46.14814" lon="6.69298">
        <ele>1591.12</ele>
        <time>2015-06-26T07:06:22Z</time>
      </trkpt>
      <trkpt lat="46.14837" lon="6.69292">
        <ele>1585.83</ele>
        <time>2015-06-26T07:06:26Z</time>
      </trkpt>
      <trkpt lat="46.14866" lon="6.69301">
        <ele>1580.06</ele>
        <time>2015-06-26T07:06:32Z</time>
      </trkpt>
      <trkpt lat="46.14878" lon="6.6931">
        <ele>1578.62</ele>
        <time>2015-06-26T07:06:34Z</time>
      </trkpt>
      <trkpt lat="46.14893" lon="6.69327">
        <ele>1576.7</ele>
        <time>2015-06-26T07:06:37Z</time>
      </trkpt>
      <trkpt lat="46.1491" lon="6.69362">
        <ele>1572.37</ele>
        <time>2015-06-26T07:06:41Z</time>
      </trkpt>
      <trkpt lat="46.14921" lon="6.69389">
        <ele>1566.61</ele>
        <time>2015-06-26T07:06:44Z</time>
      </trkpt>
      <trkpt lat="46.1493" lon="6.69409">
        <ele>1562.28</ele>
        <time>2015-06-26T07:06:46Z</time>
      </trkpt>
      <trkpt lat="46.14947" lon="6.69431">
        <ele>1557.47</ele>
        <time>2015-06-26T07:06:49Z</time>
      </trkpt>
      <trkpt lat="46.14986" lon="6.6943">
        <ele>1556.51</ele>
        <time>2015-06-26T07:06:55Z</time>
      </trkpt>
      <trkpt lat="46.14994" lon="6.69435">
        <ele>1556.51</ele>
        <time>2015-06-26T07:06:57Z</time>
      </trkpt>
      <trkpt lat="46.14996" lon="6.69437">
        <ele>1555.55</ele>
        <time>2015-06-26T07:07:09Z</time>
      </trkpt>
      <trkpt lat="46.14996" lon="6.69437">
        <ele>1555.55</ele>
        <time>2015-06-26T07:07:23Z</time>
      </trkpt>
      <trkpt lat="46.14996" lon="6.69437">
        <ele>1555.07</ele>
        <time>2015-06-26T07:07:53Z</time>
      </trkpt>
      <trkpt lat="46.14996" lon="6.69437">
        <ele>1555.07</ele>
        <time>2015-06-26T07:08:23Z</time>
      </trkpt>
      <trkpt lat="46.14996" lon="6.69437">
        <ele>1555.07</ele>
        <time>2015-06-26T07:08:54Z</time>
      </trkpt>
      <trkpt lat="46.14995" lon="6.69437">
        <ele>1555.07</ele>
        <time>2015-06-26T07:09:02Z</time>
      </trkpt>
      <trkpt lat="46.15025" lon="6.69449">
        <ele>1554.11</ele>
        <time>2015-06-26T07:09:09Z</time>
      </trkpt>
      <trkpt lat="46.15056" lon="6.69457">
        <ele>1553.15</ele>
        <time>2015-06-26T07:09:13Z</time>
      </trkpt>
      <trkpt lat="46.1507" lon="6.69459">
        <ele>1550.74</ele>
        <time>2015-06-26T07:09:15Z</time>
      </trkpt>
      <trkpt lat="46.15093" lon="6.69454">
        <ele>1547.86</ele>
        <time>2015-06-26T07:09:18Z</time>
      </trkpt>
      <trkpt lat="46.15114" lon="6.69441">
        <ele>1544.5</ele>
        <time>2015-06-26T07:09:21Z</time>
      </trkpt>
      <trkpt lat="46.1513" lon="6.6942">
        <ele>1540.65</ele>
        <time>2015-06-26T07:09:24Z</time>
      </trkpt>
      <trkpt lat="46.15147" lon="6.69402">
        <ele>1537.29</ele>
        <time>2015-06-26T07:09:27Z</time>
      </trkpt>
      <trkpt lat="46.1517" lon="6.69388">
        <ele>1531.04</ele>
        <time>2015-06-26T07:09:31Z</time>
      </trkpt>
      <trkpt lat="46.15183" lon="6.69383">
        <ele>1528.15</ele>
        <time>2015-06-26T07:09:33Z</time>
      </trkpt>
      <trkpt lat="46.15188" lon="6.69381">
        <ele>1526.23</ele>
        <time>2015-06-26T07:09:34Z</time>
      </trkpt>
      <trkpt lat="46.15206" lon="6.69373">
        <ele>1521.9</ele>
        <time>2015-06-26T07:09:37Z</time>
      </trkpt>
      <trkpt lat="46.15225" lon="6.69382">
        <ele>1518.54</ele>
        <time>2015-06-26T07:09:40Z</time>
      </trkpt>
      <trkpt lat="46.1523" lon="6.69387">
        <ele>1518.06</ele>
        <time>2015-06-26T07:09:41Z</time>
      </trkpt>
      <trkpt lat="46.15245" lon="6.69402">
        <ele>1518.06</ele>
        <time>2015-06-26T07:09:44Z</time>
      </trkpt>
      <trkpt lat="46.15264" lon="6.69411">
        <ele>1518.06</ele>
        <time>2015-06-26T07:09:48Z</time>
      </trkpt>
      <trkpt lat="46.15283" lon="6.6941">
        <ele>1517.1</ele>
        <time>2015-06-26T07:09:54Z</time>
      </trkpt>
      <trkpt lat="46.15297" lon="6.69419">
        <ele>1517.1</ele>
        <time>2015-06-26T07:09:58Z</time>
      </trkpt>
      <trkpt lat="46.15347" lon="6.69433">
        <ele>1518.54</ele>
        <time>2015-06-26T07:10:11Z</time>
      </trkpt>
      <trkpt lat="46.1535" lon="6.69433">
        <ele>1518.54</ele>
        <time>2015-06-26T07:10:12Z</time>
      </trkpt>
      <trkpt lat="46.15382" lon="6.69437">
        <ele>1521.9</ele>
        <time>2015-06-26T07:10:21Z</time>
      </trkpt>
      <trkpt lat="46.15406" lon="6.69432">
        <ele>1524.79</ele>
        <time>2015-06-26T07:10:27Z</time>
      </trkpt>
      <trkpt lat="46.15422" lon="6.69431">
        <ele>1524.79</ele>
        <time>2015-06-26T07:10:30Z</time>
      </trkpt>
      <trkpt lat="46.15438" lon="6.69425">
        <ele>1524.79</ele>
        <time>2015-06-26T07:10:33Z</time>
      </trkpt>
      <trkpt lat="46.15454" lon="6.69421">
        <ele>1524.79</ele>
        <time>2015-06-26T07:10:37Z</time>
      </trkpt>
      <trkpt lat="46.15468" lon="6.69422">
        <ele>1524.79</ele>
        <time>2015-06-26T07:10:41Z</time>
      </trkpt>
      <trkpt lat="46.15513" lon="6.69422">
        <ele>1523.35</ele>
        <time>2015-06-26T07:10:48Z</time>
      </trkpt>
      <trkpt lat="46.1552" lon="6.69418">
        <ele>1523.35</ele>
        <time>2015-06-26T07:10:49Z</time>
      </trkpt>
      <trkpt lat="46.15568" lon="6.69387">
        <ele>1522.39</ele>
        <time>2015-06-26T07:10:59Z</time>
      </trkpt>
      <trkpt lat="46.156" lon="6.69358">
        <ele>1523.83</ele>
        <time>2015-06-26T07:11:10Z</time>
      </trkpt>
      <trkpt lat="46.1563" lon="6.69352">
        <ele>1525.75</ele>
        <time>2015-06-26T07:11:20Z</time>
      </trkpt>
      <trkpt lat="46.15632" lon="6.69352">
        <ele>1526.23</ele>
        <time>2015-06-26T07:11:21Z</time>
      </trkpt>
      <trkpt lat="46.15642" lon="6.6935">
        <ele>1530.56</ele>
        <time>2015-06-26T07:11:26Z</time>
      </trkpt>
      <trkpt lat="46.15645" lon="6.6935">
        <ele>1531.52</ele>
        <time>2015-06-26T07:11:27Z</time>
      </trkpt>
      <trkpt lat="46.1567" lon="6.69353">
        <ele>1529.11</ele>
        <time>2015-06-26T07:11:33Z</time>
      </trkpt>
      <trkpt lat="46.15685" lon="6.69355">
        <ele>1523.35</ele>
        <time>2015-06-26T07:11:36Z</time>
      </trkpt>
      <trkpt lat="46.15693" lon="6.69348">
        <ele>1518.54</ele>
        <time>2015-06-26T07:11:38Z</time>
      </trkpt>
      <trkpt lat="46.15698" lon="6.69335">
        <ele>1514.21</ele>
        <time>2015-06-26T07:11:40Z</time>
      </trkpt>
      <trkpt lat="46.15701" lon="6.69327">
        <ele>1514.21</ele>
        <time>2015-06-26T07:11:41Z</time>
      </trkpt>
      <trkpt lat="46.15714" lon="6.693">
        <ele>1508.45</ele>
        <time>2015-06-26T07:11:45Z</time>
      </trkpt>
      <trkpt lat="46.15752" lon="6.69283">
        <ele>1504.12</ele>
        <time>2015-06-26T07:11:50Z</time>
      </trkpt>
      <trkpt lat="46.15777" lon="6.69269">
        <ele>1502.2</ele>
        <time>2015-06-26T07:11:54Z</time>
      </trkpt>
      <trkpt lat="46.158" lon="6.69259">
        <ele>1499.31</ele>
        <time>2015-06-26T07:11:58Z</time>
      </trkpt>
      <trkpt lat="46.15815" lon="6.69266">
        <ele>1496.43</ele>
        <time>2015-06-26T07:12:00Z</time>
      </trkpt>
      <trkpt lat="46.15823" lon="6.69267">
        <ele>1494.51</ele>
        <time>2015-06-26T07:12:01Z</time>
      </trkpt>
      <trkpt lat="46.15844" lon="6.69265">
        <ele>1489.7</ele>
        <time>2015-06-26T07:12:05Z</time>
      </trkpt>
      <trkpt lat="46.15873" lon="6.6928">
        <ele>1490.18</ele>
        <time>2015-06-26T07:12:10Z</time>
      </trkpt>
      <trkpt lat="46.15909" lon="6.69304">
        <ele>1494.99</ele>
        <time>2015-06-26T07:12:17Z</time>
      </trkpt>
      <trkpt lat="46.15918" lon="6.69316">
        <ele>1495.95</ele>
        <time>2015-06-26T07:12:23Z</time>
      </trkpt>
      <trkpt lat="46.15925" lon="6.69324">
        <ele>1499.31</ele>
        <time>2015-06-26T07:12:33Z</time>
      </trkpt>
      <trkpt lat="46.15931" lon="6.69332">
        <ele>1503.16</ele>
        <time>2015-06-26T07:12:44Z</time>
      </trkpt>
      <trkpt lat="46.15943" lon="6.69342">
        <ele>1505.08</ele>
        <time>2015-06-26T07:12:57Z</time>
      </trkpt>
      <trkpt lat="46.15945" lon="6.69342">
        <ele>1505.08</ele>
        <time>2015-06-26T07:13:05Z</time>
      </trkpt>
      <trkpt lat="46.15961" lon="6.69348">
        <ele>1505.08</ele>
        <time>2015-06-26T07:13:20Z</time>
      </trkpt>
      <trkpt lat="46.15962" lon="6.69348">
        <ele>1505.08</ele>
        <time>2015-06-26T07:13:21Z</time>
      </trkpt>
      <trkpt lat="46.15976" lon="6.6935">
        <ele>1505.08</ele>
        <time>2015-06-26T07:13:33Z</time>
      </trkpt>
      <trkpt lat="46.15994" lon="6.69356">
        <ele>1505.08</ele>
        <time>2015-06-26T07:13:44Z</time>
      </trkpt>
      <trkpt lat="46.16006" lon="6.69366">
        <ele>1505.08</ele>
        <time>2015-06-26T07:13:48Z</time>
      </trkpt>
      <trkpt lat="46.16018" lon="6.69391">
        <ele>1509.41</ele>
        <time>2015-06-26T07:13:56Z</time>
      </trkpt>
      <trkpt lat="46.16025" lon="6.69402">
        <ele>1513.25</ele>
        <time>2015-06-26T07:14:00Z</time>
      </trkpt>
      <trkpt lat="46.16028" lon="6.69405">
        <ele>1514.21</ele>
        <time>2015-06-26T07:14:01Z</time>
      </trkpt>
      <trkpt lat="46.16042" lon="6.69434">
        <ele>1516.62</ele>
        <time>2015-06-26T07:14:12Z</time>
      </trkpt>
      <trkpt lat="46.16053" lon="6.69454">
        <ele>1518.54</ele>
        <time>2015-06-26T07:14:22Z</time>
      </trkpt>
      <trkpt lat="46.16057" lon="6.69464">
        <ele>1521.9</ele>
        <time>2015-06-26T07:14:28Z</time>
      </trkpt>
      <trkpt lat="46.16058" lon="6.69471">
        <ele>1524.79</ele>
        <time>2015-06-26T07:14:32Z</time>
      </trkpt>
      <trkpt lat="46.16066" lon="6.69474">
        <ele>1526.23</ele>
        <time>2015-06-26T07:14:42Z</time>
      </trkpt>
      <trkpt lat="46.16067" lon="6.69472">
        <ele>1526.23</ele>
        <time>2015-06-26T07:14:44Z</time>
      </trkpt>
      <trkpt lat="46.16072" lon="6.69455">
        <ele>1528.15</ele>
        <time>2015-06-26T07:14:56Z</time>
      </trkpt>
      <trkpt lat="46.16081" lon="6.69453">
        <ele>1530.56</ele>
        <time>2015-06-26T07:15:07Z</time>
      </trkpt>
      <trkpt lat="46.16086" lon="6.69454">
        <ele>1531.52</ele>
        <time>2015-06-26T07:15:11Z</time>
      </trkpt>
      <trkpt lat="46.16095" lon="6.69459">
        <ele>1532.96</ele>
        <time>2015-06-26T07:15:17Z</time>
      </trkpt>
      <trkpt lat="46.16101" lon="6.6946">
        <ele>1533.44</ele>
        <time>2015-06-26T07:15:21Z</time>
      </trkpt>
      <trkpt lat="46.16106" lon="6.69461">
        <ele>1534.4</ele>
        <time>2015-06-26T07:15:26Z</time>
      </trkpt>
      <trkpt lat="46.16128" lon="6.69467">
        <ele>1538.25</ele>
        <time>2015-06-26T07:15:41Z</time>
      </trkpt>
      <trkpt lat="46.16132" lon="6.69469">
        <ele>1541.13</ele>
        <time>2015-06-26T07:15:45Z</time>
      </trkpt>
      <trkpt lat="46.16153" lon="6.69472">
        <ele>1544.01</ele>
        <time>2015-06-26T07:16:01Z</time>
      </trkpt>
      <trkpt lat="46.16159" lon="6.69475">
        <ele>1544.98</ele>
        <time>2015-06-26T07:16:05Z</time>
      </trkpt>
      <trkpt lat="46.16168" lon="6.69487">
        <ele>1546.42</ele>
        <time>2015-06-26T07:16:14Z</time>
      </trkpt>
      <trkpt lat="46.16177" lon="6.69492">
        <ele>1547.38</ele>
        <time>2015-06-26T07:16:20Z</time>
      </trkpt>
      <trkpt lat="46.16206" lon="6.69488">
        <ele>1548.82</ele>
        <time>2015-06-26T07:16:33Z</time>
      </trkpt>
      <trkpt lat="46.16217" lon="6.69484">
        <ele>1548.82</ele>
        <time>2015-06-26T07:16:38Z</time>
      </trkpt>
      <trkpt lat="46.16223" lon="6.69477">
        <ele>1548.82</ele>
        <time>2015-06-26T07:16:51Z</time>
      </trkpt>
      <trkpt lat="46.16223" lon="6.69477">
        <ele>1548.82</ele>
        <time>2015-06-26T07:17:09Z</time>
      </trkpt>
      <trkpt lat="46.16223" lon="6.69477">
        <ele>1548.82</ele>
        <time>2015-06-26T07:17:33Z</time>
      </trkpt>
      <trkpt lat="46.16223" lon="6.69477">
        <ele>1548.82</ele>
        <time>2015-06-26T07:18:03Z</time>
      </trkpt>
      <trkpt lat="46.16223" lon="6.69477">
        <ele>1548.82</ele>
        <time>2015-06-26T07:18:23Z</time>
      </trkpt>
      <trkpt lat="46.16223" lon="6.69477">
        <ele>1548.82</ele>
        <time>2015-06-26T07:18:41Z</time>
      </trkpt>
      <trkpt lat="46.16223" lon="6.69477">
        <ele>1548.82</ele>
        <time>2015-06-26T07:18:49Z</time>
      </trkpt>
      <trkpt lat="46.16233" lon="6.69473">
        <ele>1548.82</ele>
        <time>2015-06-26T07:18:54Z</time>
      </trkpt>
      <trkpt lat="46.16267" lon="6.69446">
        <ele>1548.82</ele>
        <time>2015-06-26T07:19:06Z</time>
      </trkpt>
      <trkpt lat="46.16275" lon="6.69437">
        <ele>1548.82</ele>
        <time>2015-06-26T07:19:09Z</time>
      </trkpt>
      <trkpt lat="46.1629" lon="6.69419">
        <ele>1548.82</ele>
        <time>2015-06-26T07:19:13Z</time>
      </trkpt>
      <trkpt lat="46.16316" lon="6.69383">
        <ele>1547.38</ele>
        <time>2015-06-26T07:19:21Z</time>
      </trkpt>
      <trkpt lat="46.16325" lon="6.69374">
        <ele>1546.42</ele>
        <time>2015-06-26T07:19:23Z</time>
      </trkpt>
      <trkpt lat="46.16346" lon="6.69361">
        <ele>1543.53</ele>
        <time>2015-06-26T07:19:27Z</time>
      </trkpt>
      <trkpt lat="46.16414" lon="6.6932">
        <ele>1540.17</ele>
        <time>2015-06-26T07:19:39Z</time>
      </trkpt>
      <trkpt lat="46.16485" lon="6.69303">
        <ele>1538.73</ele>
        <time>2015-06-26T07:19:51Z</time>
      </trkpt>
      <trkpt lat="46.16512" lon="6.69306">
        <ele>1538.25</ele>
        <time>2015-06-26T07:19:56Z</time>
      </trkpt>
      <trkpt lat="46.16549" lon="6.69307">
        <ele>1537.77</ele>
        <time>2015-06-26T07:20:02Z</time>
      </trkpt>
      <trkpt lat="46.16596" lon="6.69304">
        <ele>1536.32</ele>
        <time>2015-06-26T07:20:11Z</time>
      </trkpt>
      <trkpt lat="46.16615" lon="6.69303">
        <ele>1535.36</ele>
        <time>2015-06-26T07:20:15Z</time>
      </trkpt>
      <trkpt lat="46.16637" lon="6.69296">
        <ele>1534.88</ele>
        <time>2015-06-26T07:20:20Z</time>
      </trkpt>
      <trkpt lat="46.16652" lon="6.69288">
        <ele>1534.4</ele>
        <time>2015-06-26T07:20:23Z</time>
      </trkpt>
      <trkpt lat="46.16719" lon="6.69272">
        <ele>1531.04</ele>
        <time>2015-06-26T07:20:33Z</time>
      </trkpt>
      <trkpt lat="46.16742" lon="6.69261">
        <ele>1528.15</ele>
        <time>2015-06-26T07:20:36Z</time>
      </trkpt>
      <trkpt lat="46.16766" lon="6.69248">
        <ele>1524.79</ele>
        <time>2015-06-26T07:20:39Z</time>
      </trkpt>
      <trkpt lat="46.16792" lon="6.69235">
        <ele>1521.42</ele>
        <time>2015-06-26T07:20:42Z</time>
      </trkpt>
      <trkpt lat="46.16831" lon="6.69225">
        <ele>1516.14</ele>
        <time>2015-06-26T07:20:46Z</time>
      </trkpt>
      <trkpt lat="46.16851" lon="6.69224">
        <ele>1513.25</ele>
        <time>2015-06-26T07:20:48Z</time>
      </trkpt>
      <trkpt lat="46.16869" lon="6.69222">
        <ele>1511.81</ele>
        <time>2015-06-26T07:20:50Z</time>
      </trkpt>
      <trkpt lat="46.16877" lon="6.69222">
        <ele>1510.85</ele>
        <time>2015-06-26T07:20:51Z</time>
      </trkpt>
      <trkpt lat="46.16907" lon="6.69217">
        <ele>1508.45</ele>
        <time>2015-06-26T07:20:55Z</time>
      </trkpt>
      <trkpt lat="46.16945" lon="6.69212">
        <ele>1504.6</ele>
        <time>2015-06-26T07:21:00Z</time>
      </trkpt>
      <trkpt lat="46.1697" lon="6.69199">
        <ele>1500.27</ele>
        <time>2015-06-26T07:21:03Z</time>
      </trkpt>
      <trkpt lat="46.16979" lon="6.69194">
        <ele>1498.35</ele>
        <time>2015-06-26T07:21:04Z</time>
      </trkpt>
      <trkpt lat="46.17007" lon="6.69168">
        <ele>1493.55</ele>
        <time>2015-06-26T07:21:08Z</time>
      </trkpt>
      <trkpt lat="46.17014" lon="6.69161">
        <ele>1493.06</ele>
        <time>2015-06-26T07:21:09Z</time>
      </trkpt>
      <trkpt lat="46.17043" lon="6.69144">
        <ele>1489.22</ele>
        <time>2015-06-26T07:21:14Z</time>
      </trkpt>
      <trkpt lat="46.17051" lon="6.69135">
        <ele>1487.78</ele>
        <time>2015-06-26T07:21:16Z</time>
      </trkpt>
      <trkpt lat="46.17071" lon="6.69104">
        <ele>1484.89</ele>
        <time>2015-06-26T07:21:21Z</time>
      </trkpt>
      <trkpt lat="46.17098" lon="6.69087">
        <ele>1481.53</ele>
        <time>2015-06-26T07:21:25Z</time>
      </trkpt>
      <trkpt lat="46.1713" lon="6.69086">
        <ele>1477.68</ele>
        <time>2015-06-26T07:21:29Z</time>
      </trkpt>
      <trkpt lat="46.17164" lon="6.691">
        <ele>1473.36</ele>
        <time>2015-06-26T07:21:34Z</time>
      </trkpt>
      <trkpt lat="46.17176" lon="6.69107">
        <ele>1469.51</ele>
        <time>2015-06-26T07:21:39Z</time>
      </trkpt>
      <trkpt lat="46.17176" lon="6.69107">
        <ele>1468.55</ele>
        <time>2015-06-26T07:21:43Z</time>
      </trkpt>
      <trkpt lat="46.17168" lon="6.69097">
        <ele>1470.47</ele>
        <time>2015-06-26T07:21:50Z</time>
      </trkpt>
      <trkpt lat="46.17167" lon="6.69092">
        <ele>1470.95</ele>
        <time>2015-06-26T07:21:53Z</time>
      </trkpt>
      <trkpt lat="46.17166" lon="6.69087">
        <ele>1471.44</ele>
        <time>2015-06-26T07:21:56Z</time>
      </trkpt>
      <trkpt lat="46.17167" lon="6.69086">
        <ele>1472.4</ele>
        <time>2015-06-26T07:22:00Z</time>
      </trkpt>
      <trkpt lat="46.1718" lon="6.69082">
        <ele>1473.36</ele>
        <time>2015-06-26T07:22:07Z</time>
      </trkpt>
      <trkpt lat="46.17181" lon="6.69054">
        <ele>1473.84</ele>
        <time>2015-06-26T07:22:14Z</time>
      </trkpt>
      <trkpt lat="46.17178" lon="6.69043">
        <ele>1473.84</ele>
        <time>2015-06-26T07:22:17Z</time>
      </trkpt>
      <trkpt lat="46.17164" lon="6.69029">
        <ele>1469.03</ele>
        <time>2015-06-26T07:22:23Z</time>
      </trkpt>
      <trkpt lat="46.17159" lon="6.69004">
        <ele>1466.63</ele>
        <time>2015-06-26T07:22:27Z</time>
      </trkpt>
      <trkpt lat="46.17174" lon="6.69001">
        <ele>1462.78</ele>
        <time>2015-06-26T07:22:33Z</time>
      </trkpt>
      <trkpt lat="46.17182" lon="6.68983">
        <ele>1457.98</ele>
        <time>2015-06-26T07:22:39Z</time>
      </trkpt>
      <trkpt lat="46.1718" lon="6.6897">
        <ele>1456.53</ele>
        <time>2015-06-26T07:22:41Z</time>
      </trkpt>
      <trkpt lat="46.17172" lon="6.68961">
        <ele>1452.21</ele>
        <time>2015-06-26T07:22:45Z</time>
      </trkpt>
      <trkpt lat="46.1717" lon="6.68961">
        <ele>1451.73</ele>
        <time>2015-06-26T07:22:46Z</time>
      </trkpt>
      <trkpt lat="46.1717" lon="6.68952">
        <ele>1449.81</ele>
        <time>2015-06-26T07:22:50Z</time>
      </trkpt>
      <trkpt lat="46.17168" lon="6.68927">
        <ele>1444.52</ele>
        <time>2015-06-26T07:22:57Z</time>
      </trkpt>
      <trkpt lat="46.17168" lon="6.68924">
        <ele>1444.04</ele>
        <time>2015-06-26T07:22:58Z</time>
      </trkpt>
      <trkpt lat="46.17175" lon="6.68917">
        <ele>1441.63</ele>
        <time>2015-06-26T07:23:00Z</time>
      </trkpt>
      <trkpt lat="46.17189" lon="6.68888">
        <ele>1437.31</ele>
        <time>2015-06-26T07:23:05Z</time>
      </trkpt>
      <trkpt lat="46.17187" lon="6.6888">
        <ele>1436.83</ele>
        <time>2015-06-26T07:23:06Z</time>
      </trkpt>
      <trkpt lat="46.1718" lon="6.68816">
        <ele>1439.23</ele>
        <time>2015-06-26T07:23:18Z</time>
      </trkpt>
      <trkpt lat="46.17167" lon="6.68783">
        <ele>1440.67</ele>
        <time>2015-06-26T07:23:29Z</time>
      </trkpt>
      <trkpt lat="46.17168" lon="6.68784">
        <ele>1440.67</ele>
        <time>2015-06-26T07:23:32Z</time>
      </trkpt>
      <trkpt lat="46.17175" lon="6.68795">
        <ele>1441.15</ele>
        <time>2015-06-26T07:23:38Z</time>
      </trkpt>
      <trkpt lat="46.17179" lon="6.68813">
        <ele>1441.15</ele>
        <time>2015-06-26T07:23:42Z</time>
      </trkpt>
      <trkpt lat="46.17185" lon="6.68817">
        <ele>1441.15</ele>
        <time>2015-06-26T07:23:53Z</time>
      </trkpt>
      <trkpt lat="46.17199" lon="6.6881">
        <ele>1439.71</ele>
        <time>2015-06-26T07:24:03Z</time>
      </trkpt>
      <trkpt lat="46.17207" lon="6.68829">
        <ele>1435.87</ele>
        <time>2015-06-26T07:24:09Z</time>
      </trkpt>
      <trkpt lat="46.17211" lon="6.68822">
        <ele>1432.02</ele>
        <time>2015-06-26T07:24:12Z</time>
      </trkpt>
      <trkpt lat="46.17213" lon="6.6882">
        <ele>1430.1</ele>
        <time>2015-06-26T07:24:14Z</time>
      </trkpt>
      <trkpt lat="46.17222" lon="6.68847">
        <ele>1428.66</ele>
        <time>2015-06-26T07:24:19Z</time>
      </trkpt>
      <trkpt lat="46.17231" lon="6.68862">
        <ele>1428.66</ele>
        <time>2015-06-26T07:24:24Z</time>
      </trkpt>
      <trkpt lat="46.1724" lon="6.68842">
        <ele>1428.18</ele>
        <time>2015-06-26T07:24:27Z</time>
      </trkpt>
      <trkpt lat="46.17253" lon="6.6882">
        <ele>1424.81</ele>
        <time>2015-06-26T07:24:31Z</time>
      </trkpt>
      <trkpt lat="46.17249" lon="6.68808">
        <ele>1419.52</ele>
        <time>2015-06-26T07:24:35Z</time>
      </trkpt>
      <trkpt lat="46.17255" lon="6.68804">
        <ele>1415.68</ele>
        <time>2015-06-26T07:24:38Z</time>
      </trkpt>
      <trkpt lat="46.17265" lon="6.68809">
        <ele>1412.79</ele>
        <time>2015-06-26T07:24:41Z</time>
      </trkpt>
      <trkpt lat="46.17276" lon="6.68821">
        <ele>1410.87</ele>
        <time>2015-06-26T07:24:44Z</time>
      </trkpt>
      <trkpt lat="46.17288" lon="6.68839">
        <ele>1410.87</ele>
        <time>2015-06-26T07:24:50Z</time>
      </trkpt>
      <trkpt lat="46.17297" lon="6.68829">
        <ele>1409.43</ele>
        <time>2015-06-26T07:24:56Z</time>
      </trkpt>
      <trkpt lat="46.17298" lon="6.68822">
        <ele>1406.55</ele>
        <time>2015-06-26T07:24:58Z</time>
      </trkpt>
      <trkpt lat="46.17303" lon="6.68822">
        <ele>1402.22</ele>
        <time>2015-06-26T07:25:02Z</time>
      </trkpt>
      <trkpt lat="46.17311" lon="6.6884">
        <ele>1398.37</ele>
        <time>2015-06-26T07:25:07Z</time>
      </trkpt>
      <trkpt lat="46.17324" lon="6.68844">
        <ele>1396.93</ele>
        <time>2015-06-26T07:25:11Z</time>
      </trkpt>
      <trkpt lat="46.17328" lon="6.68841">
        <ele>1395.49</ele>
        <time>2015-06-26T07:25:13Z</time>
      </trkpt>
      <trkpt lat="46.17339" lon="6.68844">
        <ele>1391.17</ele>
        <time>2015-06-26T07:25:17Z</time>
      </trkpt>
      <trkpt lat="46.17352" lon="6.6885">
        <ele>1386.36</ele>
        <time>2015-06-26T07:25:20Z</time>
      </trkpt>
      <trkpt lat="46.17359" lon="6.68863">
        <ele>1382.99</ele>
        <time>2015-06-26T07:25:23Z</time>
      </trkpt>
      <trkpt lat="46.17371" lon="6.68857">
        <ele>1381.07</ele>
        <time>2015-06-26T07:25:29Z</time>
      </trkpt>
      <trkpt lat="46.17376" lon="6.68847">
        <ele>1379.15</ele>
        <time>2015-06-26T07:25:33Z</time>
      </trkpt>
      <trkpt lat="46.17376" lon="6.68821">
        <ele>1376.75</ele>
        <time>2015-06-26T07:25:38Z</time>
      </trkpt>
      <trkpt lat="46.17397" lon="6.68826">
        <ele>1371.94</ele>
        <time>2015-06-26T07:25:44Z</time>
      </trkpt>
      <trkpt lat="46.17408" lon="6.6885">
        <ele>1368.57</ele>
        <time>2015-06-26T07:25:50Z</time>
      </trkpt>
      <trkpt lat="46.17415" lon="6.68841">
        <ele>1366.65</ele>
        <time>2015-06-26T07:25:54Z</time>
      </trkpt>
      <trkpt lat="46.17418" lon="6.68828">
        <ele>1365.21</ele>
        <time>2015-06-26T07:25:57Z</time>
      </trkpt>
      <trkpt lat="46.17418" lon="6.68819">
        <ele>1364.73</ele>
        <time>2015-06-26T07:25:59Z</time>
      </trkpt>
      <trkpt lat="46.17416" lon="6.688">
        <ele>1362.33</ele>
        <time>2015-06-26T07:26:04Z</time>
      </trkpt>
      <trkpt lat="46.17408" lon="6.68784">
        <ele>1358.96</ele>
        <time>2015-06-26T07:26:08Z</time>
      </trkpt>
      <trkpt lat="46.17403" lon="6.68761">
        <ele>1357.04</ele>
        <time>2015-06-26T07:26:12Z</time>
      </trkpt>
      <trkpt lat="46.17409" lon="6.68758">
        <ele>1353.67</ele>
        <time>2015-06-26T07:26:19Z</time>
      </trkpt>
      <trkpt lat="46.1741" lon="6.68756">
        <ele>1352.23</ele>
        <time>2015-06-26T07:26:22Z</time>
      </trkpt>
      <trkpt lat="46.17429" lon="6.68758">
        <ele>1348.39</ele>
        <time>2015-06-26T07:26:29Z</time>
      </trkpt>
      <trkpt lat="46.17452" lon="6.68771">
        <ele>1344.54</ele>
        <time>2015-06-26T07:26:34Z</time>
      </trkpt>
      <trkpt lat="46.17461" lon="6.68774">
        <ele>1341.18</ele>
        <time>2015-06-26T07:26:40Z</time>
      </trkpt>
      <trkpt lat="46.17461" lon="6.68774">
        <ele>1341.66</ele>
        <time>2015-06-26T07:26:57Z</time>
      </trkpt>
      <trkpt lat="46.17462" lon="6.68775">
        <ele>1342.62</ele>
        <time>2015-06-26T07:27:27Z</time>
      </trkpt>
      <trkpt lat="46.17462" lon="6.68774">
        <ele>1342.62</ele>
        <time>2015-06-26T07:28:02Z</time>
      </trkpt>
      <trkpt lat="46.17462" lon="6.68774">
        <ele>1342.62</ele>
        <time>2015-06-26T07:28:34Z</time>
      </trkpt>
      <trkpt lat="46.17463" lon="6.68774">
        <ele>1342.62</ele>
        <time>2015-06-26T07:28:59Z</time>
      </trkpt>
      <trkpt lat="46.17466" lon="6.68776">
        <ele>1342.62</ele>
        <time>2015-06-26T07:29:10Z</time>
      </trkpt>
      <trkpt lat="46.17473" lon="6.68786">
        <ele>1342.62</ele>
        <time>2015-06-26T07:29:14Z</time>
      </trkpt>
      <trkpt lat="46.1749" lon="6.68819">
        <ele>1339.73</ele>
        <time>2015-06-26T07:29:21Z</time>
      </trkpt>
      <trkpt lat="46.17489" lon="6.6883">
        <ele>1335.41</ele>
        <time>2015-06-26T07:29:24Z</time>
      </trkpt>
      <trkpt lat="46.17489" lon="6.68832">
        <ele>1333.01</ele>
        <time>2015-06-26T07:29:26Z</time>
      </trkpt>
      <trkpt lat="46.17502" lon="6.68846">
        <ele>1335.41</ele>
        <time>2015-06-26T07:29:34Z</time>
      </trkpt>
      <trkpt lat="46.1751" lon="6.68851">
        <ele>1338.77</ele>
        <time>2015-06-26T07:29:38Z</time>
      </trkpt>
      <trkpt lat="46.17526" lon="6.68865">
        <ele>1334.93</ele>
        <time>2015-06-26T07:29:44Z</time>
      </trkpt>
      <trkpt lat="46.17535" lon="6.68872">
        <ele>1330.6</ele>
        <time>2015-06-26T07:29:47Z</time>
      </trkpt>
      <trkpt lat="46.17549" lon="6.6888">
        <ele>1326.76</ele>
        <time>2015-06-26T07:29:50Z</time>
      </trkpt>
      <trkpt lat="46.17562" lon="6.68889">
        <ele>1325.8</ele>
        <time>2015-06-26T07:29:54Z</time>
      </trkpt>
      <trkpt lat="46.17589" lon="6.68891">
        <ele>1325.31</ele>
        <time>2015-06-26T07:30:01Z</time>
      </trkpt>
      <trkpt lat="46.1761" lon="6.6888">
        <ele>1325.31</ele>
        <time>2015-06-26T07:30:05Z</time>
      </trkpt>
      <trkpt lat="46.17627" lon="6.68865">
        <ele>1319.07</ele>
        <time>2015-06-26T07:30:10Z</time>
      </trkpt>
      <trkpt lat="46.17635" lon="6.68864">
        <ele>1316.18</ele>
        <time>2015-06-26T07:30:12Z</time>
      </trkpt>
      <trkpt lat="46.1765" lon="6.68869">
        <ele>1312.82</ele>
        <time>2015-06-26T07:30:15Z</time>
      </trkpt>
      <trkpt lat="46.17678" lon="6.68881">
        <ele>1309.45</ele>
        <time>2015-06-26T07:30:20Z</time>
      </trkpt>
      <trkpt lat="46.17691" lon="6.68883">
        <ele>1307.53</ele>
        <time>2015-06-26T07:30:23Z</time>
      </trkpt>
      <trkpt lat="46.17707" lon="6.68894">
        <ele>1302.72</ele>
        <time>2015-06-26T07:30:27Z</time>
      </trkpt>
      <trkpt lat="46.17717" lon="6.68908">
        <ele>1299.36</ele>
        <time>2015-06-26T07:30:30Z</time>
      </trkpt>
      <trkpt lat="46.17742" lon="6.68941">
        <ele>1295.99</ele>
        <time>2015-06-26T07:30:35Z</time>
      </trkpt>
      <trkpt lat="46.17758" lon="6.68991">
        <ele>1292.63</ele>
        <time>2015-06-26T07:30:41Z</time>
      </trkpt>
      <trkpt lat="46.17755" lon="6.69013">
        <ele>1290.23</ele>
        <time>2015-06-26T07:30:43Z</time>
      </trkpt>
      <trkpt lat="46.17752" lon="6.69035">
        <ele>1285.42</ele>
        <time>2015-06-26T07:30:46Z</time>
      </trkpt>
      <trkpt lat="46.17754" lon="6.69041">
        <ele>1282.06</ele>
        <time>2015-06-26T07:30:48Z</time>
      </trkpt>
      <trkpt lat="46.17755" lon="6.69043">
        <ele>1282.06</ele>
        <time>2015-06-26T07:30:49Z</time>
      </trkpt>
      <trkpt lat="46.17755" lon="6.69045">
        <ele>1279.65</ele>
        <time>2015-06-26T07:30:53Z</time>
      </trkpt>
      <trkpt lat="46.17757" lon="6.69065">
        <ele>1282.54</ele>
        <time>2015-06-26T07:30:59Z</time>
      </trkpt>
      <trkpt lat="46.17783" lon="6.69061">
        <ele>1281.09</ele>
        <time>2015-06-26T07:31:04Z</time>
      </trkpt>
      <trkpt lat="46.17799" lon="6.69047">
        <ele>1275.33</ele>
        <time>2015-06-26T07:31:07Z</time>
      </trkpt>
      <trkpt lat="46.17804" lon="6.69043">
        <ele>1273.4</ele>
        <time>2015-06-26T07:31:08Z</time>
      </trkpt>
      <trkpt lat="46.17818" lon="6.69021">
        <ele>1266.67</ele>
        <time>2015-06-26T07:31:11Z</time>
      </trkpt>
      <trkpt lat="46.1782" lon="6.69011">
        <ele>1264.27</ele>
        <time>2015-06-26T07:31:12Z</time>
      </trkpt>
      <trkpt lat="46.17828" lon="6.68972">
        <ele>1258.98</ele>
        <time>2015-06-26T07:31:16Z</time>
      </trkpt>
      <trkpt lat="46.17839" lon="6.68958">
        <ele>1257.06</ele>
        <time>2015-06-26T07:31:18Z</time>
      </trkpt>
      <trkpt lat="46.17847" lon="6.68935">
        <ele>1253.22</ele>
        <time>2015-06-26T07:31:23Z</time>
      </trkpt>
      <trkpt lat="46.17852" lon="6.68902">
        <ele>1252.25</ele>
        <time>2015-06-26T07:31:28Z</time>
      </trkpt>
      <trkpt lat="46.17878" lon="6.68885">
        <ele>1249.37</ele>
        <time>2015-06-26T07:31:35Z</time>
      </trkpt>
      <trkpt lat="46.1789" lon="6.68873">
        <ele>1245.53</ele>
        <time>2015-06-26T07:31:39Z</time>
      </trkpt>
      <trkpt lat="46.17908" lon="6.68854">
        <ele>1237.83</ele>
        <time>2015-06-26T07:31:44Z</time>
      </trkpt>
      <trkpt lat="46.17909" lon="6.68842">
        <ele>1233.03</ele>
        <time>2015-06-26T07:31:47Z</time>
      </trkpt>
      <trkpt lat="46.17905" lon="6.68839">
        <ele>1231.59</ele>
        <time>2015-06-26T07:31:48Z</time>
      </trkpt>
      <trkpt lat="46.17887" lon="6.68815">
        <ele>1229.18</ele>
        <time>2015-06-26T07:31:54Z</time>
      </trkpt>
      <trkpt lat="46.17882" lon="6.68811">
        <ele>1229.18</ele>
        <time>2015-06-26T07:31:55Z</time>
      </trkpt>
      <trkpt lat="46.17841" lon="6.68804">
        <ele>1228.7</ele>
        <time>2015-06-26T07:32:04Z</time>
      </trkpt>
      <trkpt lat="46.17838" lon="6.688">
        <ele>1227.26</ele>
        <time>2015-06-26T07:32:05Z</time>
      </trkpt>
      <trkpt lat="46.17835" lon="6.6878">
        <ele>1222.45</ele>
        <time>2015-06-26T07:32:09Z</time>
      </trkpt>
      <trkpt lat="46.17831" lon="6.68765">
        <ele>1218.13</ele>
        <time>2015-06-26T07:32:12Z</time>
      </trkpt>
      <trkpt lat="46.1783" lon="6.6876">
        <ele>1216.69</ele>
        <time>2015-06-26T07:32:13Z</time>
      </trkpt>
      <trkpt lat="46.17815" lon="6.68717">
        <ele>1216.21</ele>
        <time>2015-06-26T07:32:22Z</time>
      </trkpt>
      <trkpt lat="46.17813" lon="6.68712">
        <ele>1216.21</ele>
        <time>2015-06-26T07:32:23Z</time>
      </trkpt>
      <trkpt lat="46.17812" lon="6.68707">
        <ele>1216.21</ele>
        <time>2015-06-26T07:32:24Z</time>
      </trkpt>
      <trkpt lat="46.17809" lon="6.68686">
        <ele>1212.84</ele>
        <time>2015-06-26T07:32:27Z</time>
      </trkpt>
      <trkpt lat="46.17808" lon="6.68672">
        <ele>1209</ele>
        <time>2015-06-26T07:32:29Z</time>
      </trkpt>
      <trkpt lat="46.17806" lon="6.6866">
        <ele>1204.67</ele>
        <time>2015-06-26T07:32:31Z</time>
      </trkpt>
      <trkpt lat="46.17803" lon="6.68649">
        <ele>1199.86</ele>
        <time>2015-06-26T07:32:33Z</time>
      </trkpt>
      <trkpt lat="46.17801" lon="6.6864">
        <ele>1195.54</ele>
        <time>2015-06-26T07:32:35Z</time>
      </trkpt>
      <trkpt lat="46.17802" lon="6.68638">
        <ele>1194.09</ele>
        <time>2015-06-26T07:32:36Z</time>
      </trkpt>
      <trkpt lat="46.17807" lon="6.68638">
        <ele>1192.17</ele>
        <time>2015-06-26T07:32:38Z</time>
      </trkpt>
      <trkpt lat="46.17844" lon="6.68641">
        <ele>1195.06</ele>
        <time>2015-06-26T07:32:43Z</time>
      </trkpt>
      <trkpt lat="46.1787" lon="6.68644">
        <ele>1196.5</ele>
        <time>2015-06-26T07:32:47Z</time>
      </trkpt>
      <trkpt lat="46.1791" lon="6.68635">
        <ele>1193.61</ele>
        <time>2015-06-26T07:32:53Z</time>
      </trkpt>
      <trkpt lat="46.17933" lon="6.68635">
        <ele>1188.81</ele>
        <time>2015-06-26T07:32:56Z</time>
      </trkpt>
      <trkpt lat="46.17946" lon="6.68646">
        <ele>1185.44</ele>
        <time>2015-06-26T07:32:58Z</time>
      </trkpt>
      <trkpt lat="46.17957" lon="6.68661">
        <ele>1182.08</ele>
        <time>2015-06-26T07:33:00Z</time>
      </trkpt>
      <trkpt lat="46.17968" lon="6.68671">
        <ele>1178.71</ele>
        <time>2015-06-26T07:33:02Z</time>
      </trkpt>
      <trkpt lat="46.17982" lon="6.68674">
        <ele>1176.31</ele>
        <time>2015-06-26T07:33:04Z</time>
      </trkpt>
      <trkpt lat="46.18016" lon="6.68687">
        <ele>1176.31</ele>
        <time>2015-06-26T07:33:09Z</time>
      </trkpt>
      <trkpt lat="46.18034" lon="6.68699">
        <ele>1179.67</ele>
        <time>2015-06-26T07:33:12Z</time>
      </trkpt>
      <trkpt lat="46.18058" lon="6.6872">
        <ele>1183.52</ele>
        <time>2015-06-26T07:33:19Z</time>
      </trkpt>
      <trkpt lat="46.18079" lon="6.68719">
        <ele>1183.52</ele>
        <time>2015-06-26T07:33:23Z</time>
      </trkpt>
      <trkpt lat="46.18127" lon="6.68715">
        <ele>1183.52</ele>
        <time>2015-06-26T07:33:34Z</time>
      </trkpt>
      <trkpt lat="46.18142" lon="6.68714">
        <ele>1183.04</ele>
        <time>2015-06-26T07:33:38Z</time>
      </trkpt>
      <trkpt lat="46.18161" lon="6.68723">
        <ele>1183.04</ele>
        <time>2015-06-26T07:33:42Z</time>
      </trkpt>
      <trkpt lat="46.18185" lon="6.6874">
        <ele>1182.08</ele>
        <time>2015-06-26T07:33:46Z</time>
      </trkpt>
      <trkpt lat="46.18198" lon="6.68765">
        <ele>1181.6</ele>
        <time>2015-06-26T07:33:51Z</time>
      </trkpt>
      <trkpt lat="46.18211" lon="6.68789">
        <ele>1181.6</ele>
        <time>2015-06-26T07:33:56Z</time>
      </trkpt>
      <trkpt lat="46.18231" lon="6.68817">
        <ele>1181.6</ele>
        <time>2015-06-26T07:34:07Z</time>
      </trkpt>
      <trkpt lat="46.18231" lon="6.68817">
        <ele>1181.6</ele>
        <time>2015-06-26T07:34:21Z</time>
      </trkpt>
      <trkpt lat="46.18232" lon="6.68819">
        <ele>1181.6</ele>
        <time>2015-06-26T07:34:25Z</time>
      </trkpt>
      <trkpt lat="46.18231" lon="6.6883">
        <ele>1182.56</ele>
        <time>2015-06-26T07:34:40Z</time>
      </trkpt>
      <trkpt lat="46.18231" lon="6.6883">
        <ele>1183.04</ele>
        <time>2015-06-26T07:35:06Z</time>
      </trkpt>
      <trkpt lat="46.1823" lon="6.6883">
        <ele>1183.04</ele>
        <time>2015-06-26T07:35:43Z</time>
      </trkpt>
      <trkpt lat="46.1823" lon="6.68831">
        <ele>1183.04</ele>
        <time>2015-06-26T07:36:24Z</time>
      </trkpt>
      <trkpt lat="46.1823" lon="6.6883">
        <ele>1183.04</ele>
        <time>2015-06-26T07:36:59Z</time>
      </trkpt>
      <trkpt lat="46.18229" lon="6.6883">
        <ele>1183.04</ele>
        <time>2015-06-26T07:37:19Z</time>
      </trkpt>
      <trkpt lat="46.18229" lon="6.6883">
        <ele>1183.04</ele>
        <time>2015-06-26T07:37:46Z</time>
      </trkpt>
      <trkpt lat="46.1823" lon="6.68831">
        <ele>1183.04</ele>
        <time>2015-06-26T07:38:16Z</time>
      </trkpt>
      <trkpt lat="46.1823" lon="6.68831">
        <ele>1183.04</ele>
        <time>2015-06-26T07:38:46Z</time>
      </trkpt>
      <trkpt lat="46.1823" lon="6.68832">
        <ele>1183.04</ele>
        <time>2015-06-26T07:39:14Z</time>
      </trkpt>
      <trkpt lat="46.1823" lon="6.68832">
        <ele>1183.04</ele>
        <time>2015-06-26T07:39:46Z</time>
      </trkpt>
      <trkpt lat="46.1823" lon="6.68833">
        <ele>1183.04</ele>
        <time>2015-06-26T07:40:07Z</time>
      </trkpt>
      <trkpt lat="46.1823" lon="6.68833">
        <ele>1183.04</ele>
        <time>2015-06-26T07:40:38Z</time>
      </trkpt>
      <trkpt lat="46.1823" lon="6.68833">
        <ele>1183.04</ele>
        <time>2015-06-26T07:41:07Z</time>
      </trkpt>
      <trkpt lat="46.18229" lon="6.68833">
        <ele>1183.04</ele>
        <time>2015-06-26T07:41:34Z</time>
      </trkpt>
      <trkpt lat="46.1823" lon="6.68832">
        <ele>1183.04</ele>
        <time>2015-06-26T07:42:10Z</time>
      </trkpt>
      <trkpt lat="46.1823" lon="6.68832">
        <ele>1183.52</ele>
        <time>2015-06-26T07:42:45Z</time>
      </trkpt>
      <trkpt lat="46.18229" lon="6.68831">
        <ele>1183.52</ele>
        <time>2015-06-26T07:43:18Z</time>
      </trkpt>
      <trkpt lat="46.1823" lon="6.68832">
        <ele>1183.52</ele>
        <time>2015-06-26T07:43:55Z</time>
      </trkpt>
      <trkpt lat="46.1823" lon="6.68832">
        <ele>1183.52</ele>
        <time>2015-06-26T07:44:21Z</time>
      </trkpt>
      <trkpt lat="46.1823" lon="6.68831">
        <ele>1183.52</ele>
        <time>2015-06-26T07:44:59Z</time>
      </trkpt>
      <trkpt lat="46.1823" lon="6.68831">
        <ele>1183.52</ele>
        <time>2015-06-26T07:45:44Z</time>
      </trkpt>
      <trkpt lat="46.18229" lon="6.68831">
        <ele>1183.52</ele>
        <time>2015-06-26T07:46:15Z</time>
      </trkpt>
      <trkpt lat="46.18229" lon="6.68831">
        <ele>1183.52</ele>
        <time>2015-06-26T07:46:52Z</time>
      </trkpt>
      <trkpt lat="46.18228" lon="6.68831">
        <ele>1183.52</ele>
        <time>2015-06-26T07:47:28Z</time>
      </trkpt>
      <trkpt lat="46.18228" lon="6.68831">
        <ele>1183.52</ele>
        <time>2015-06-26T07:48:10Z</time>
      </trkpt>
      <trkpt lat="46.18228" lon="6.68831">
        <ele>1183.52</ele>
        <time>2015-06-26T07:48:28Z</time>
      </trkpt>
      <trkpt lat="46.18228" lon="6.68831">
        <ele>1183.52</ele>
        <time>2015-06-26T07:48:29Z</time>
      </trkpt>
      <trkpt lat="46.1823" lon="6.68832">
        <ele>1183.52</ele>
        <time>2015-06-26T07:48:31Z</time>
      </trkpt>
      <trkpt lat="46.18237" lon="6.68849">
        <ele>1183.52</ele>
        <time>2015-06-26T07:48:40Z</time>
      </trkpt>
      <trkpt lat="46.18276" lon="6.68866">
        <ele>1184</ele>
        <time>2015-06-26T07:48:55Z</time>
      </trkpt>
      <trkpt lat="46.18288" lon="6.68872">
        <ele>1184</ele>
        <time>2015-06-26T07:48:58Z</time>
      </trkpt>
      <trkpt lat="46.18305" lon="6.68887">
        <ele>1184</ele>
        <time>2015-06-26T07:49:02Z</time>
      </trkpt>
      <trkpt lat="46.18316" lon="6.68899">
        <ele>1182.56</ele>
        <time>2015-06-26T07:49:05Z</time>
      </trkpt>
      <trkpt lat="46.18329" lon="6.68885">
        <ele>1178.71</ele>
        <time>2015-06-26T07:49:09Z</time>
      </trkpt>
      <trkpt lat="46.18348" lon="6.68865">
        <ele>1174.39</ele>
        <time>2015-06-26T07:49:13Z</time>
      </trkpt>
      <trkpt lat="46.18387" lon="6.6887">
        <ele>1172.95</ele>
        <time>2015-06-26T07:49:20Z</time>
      </trkpt>
      <trkpt lat="46.18393" lon="6.68878">
        <ele>1172.47</ele>
        <time>2015-06-26T07:49:21Z</time>
      </trkpt>
      <trkpt lat="46.18413" lon="6.68902">
        <ele>1168.62</ele>
        <time>2015-06-26T07:49:24Z</time>
      </trkpt>
      <trkpt lat="46.18423" lon="6.68916">
        <ele>1163.81</ele>
        <time>2015-06-26T07:49:26Z</time>
      </trkpt>
      <trkpt lat="46.18439" lon="6.6893">
        <ele>1155.16</ele>
        <time>2015-06-26T07:49:29Z</time>
      </trkpt>
      <trkpt lat="46.18446" lon="6.68932">
        <ele>1152.28</ele>
        <time>2015-06-26T07:49:30Z</time>
      </trkpt>
      <trkpt lat="46.18465" lon="6.68935">
        <ele>1147.95</ele>
        <time>2015-06-26T07:49:33Z</time>
      </trkpt>
      <trkpt lat="46.18482" lon="6.68939">
        <ele>1144.59</ele>
        <time>2015-06-26T07:49:35Z</time>
      </trkpt>
      <trkpt lat="46.18499" lon="6.68939">
        <ele>1141.7</ele>
        <time>2015-06-26T07:49:37Z</time>
      </trkpt>
      <trkpt lat="46.18532" lon="6.68949">
        <ele>1135.94</ele>
        <time>2015-06-26T07:49:41Z</time>
      </trkpt>
      <trkpt lat="46.18558" lon="6.68967">
        <ele>1130.17</ele>
        <time>2015-06-26T07:49:45Z</time>
      </trkpt>
      <trkpt lat="46.1857" lon="6.68971">
        <ele>1126.32</ele>
        <time>2015-06-26T07:49:48Z</time>
      </trkpt>
      <trkpt lat="46.1858" lon="6.68974">
        <ele>1122.96</ele>
        <time>2015-06-26T07:49:52Z</time>
      </trkpt>
      <trkpt lat="46.18591" lon="6.68988">
        <ele>1122</ele>
        <time>2015-06-26T07:49:57Z</time>
      </trkpt>
      <trkpt lat="46.18588" lon="6.69011">
        <ele>1118.63</ele>
        <time>2015-06-26T07:50:02Z</time>
      </trkpt>
      <trkpt lat="46.18567" lon="6.69041">
        <ele>1115.27</ele>
        <time>2015-06-26T07:50:07Z</time>
      </trkpt>
      <trkpt lat="46.18557" lon="6.69067">
        <ele>1111.9</ele>
        <time>2015-06-26T07:50:10Z</time>
      </trkpt>
      <trkpt lat="46.18553" lon="6.69088">
        <ele>1108.54</ele>
        <time>2015-06-26T07:50:12Z</time>
      </trkpt>
      <trkpt lat="46.18547" lon="6.69108">
        <ele>1105.65</ele>
        <time>2015-06-26T07:50:14Z</time>
      </trkpt>
      <trkpt lat="46.18527" lon="6.6915">
        <ele>1099.89</ele>
        <time>2015-06-26T07:50:18Z</time>
      </trkpt>
      <trkpt lat="46.1851" lon="6.69182">
        <ele>1096.04</ele>
        <time>2015-06-26T07:50:21Z</time>
      </trkpt>
      <trkpt lat="46.18488" lon="6.69221">
        <ele>1091.71</ele>
        <time>2015-06-26T07:50:25Z</time>
      </trkpt>
      <trkpt lat="46.1847" lon="6.69249">
        <ele>1088.83</ele>
        <time>2015-06-26T07:50:28Z</time>
      </trkpt>
      <trkpt lat="46.18456" lon="6.69266">
        <ele>1086.91</ele>
        <time>2015-06-26T07:50:30Z</time>
      </trkpt>
      <trkpt lat="46.1843" lon="6.69287">
        <ele>1082.58</ele>
        <time>2015-06-26T07:50:33Z</time>
      </trkpt>
      <trkpt lat="46.18413" lon="6.693">
        <ele>1079.22</ele>
        <time>2015-06-26T07:50:35Z</time>
      </trkpt>
      <trkpt lat="46.18399" lon="6.69312">
        <ele>1075.85</ele>
        <time>2015-06-26T07:50:37Z</time>
      </trkpt>
      <trkpt lat="46.18385" lon="6.69324">
        <ele>1072.49</ele>
        <time>2015-06-26T07:50:39Z</time>
      </trkpt>
      <trkpt lat="46.18361" lon="6.69339">
        <ele>1068.64</ele>
        <time>2015-06-26T07:50:42Z</time>
      </trkpt>
      <trkpt lat="46.18338" lon="6.69357">
        <ele>1065.28</ele>
        <time>2015-06-26T07:50:45Z</time>
      </trkpt>
      <trkpt lat="46.18331" lon="6.69365">
        <ele>1064.32</ele>
        <time>2015-06-26T07:50:46Z</time>
      </trkpt>
      <trkpt lat="46.18306" lon="6.69401">
        <ele>1059.51</ele>
        <time>2015-06-26T07:50:50Z</time>
      </trkpt>
      <trkpt lat="46.18276" lon="6.69437">
        <ele>1054.7</ele>
        <time>2015-06-26T07:50:55Z</time>
      </trkpt>
      <trkpt lat="46.18269" lon="6.69444">
        <ele>1053.74</ele>
        <time>2015-06-26T07:50:56Z</time>
      </trkpt>
      <trkpt lat="46.18244" lon="6.69483">
        <ele>1052.3</ele>
        <time>2015-06-26T07:51:00Z</time>
      </trkpt>
      <trkpt lat="46.18199" lon="6.69549">
        <ele>1048.45</ele>
        <time>2015-06-26T07:51:07Z</time>
      </trkpt>
      <trkpt lat="46.18176" lon="6.69588">
        <ele>1045.09</ele>
        <time>2015-06-26T07:51:11Z</time>
      </trkpt>
      <trkpt lat="46.18159" lon="6.6962">
        <ele>1041.73</ele>
        <time>2015-06-26T07:51:14Z</time>
      </trkpt>
      <trkpt lat="46.18124" lon="6.69683">
        <ele>1038.84</ele>
        <time>2015-06-26T07:51:20Z</time>
      </trkpt>
      <trkpt lat="46.18096" lon="6.69735">
        <ele>1038.36</ele>
        <time>2015-06-26T07:51:25Z</time>
      </trkpt>
      <trkpt lat="46.18053" lon="6.69787">
        <ele>1033.55</ele>
        <time>2015-06-26T07:51:31Z</time>
      </trkpt>
      <trkpt lat="46.18047" lon="6.69796">
        <ele>1032.59</ele>
        <time>2015-06-26T07:51:32Z</time>
      </trkpt>
      <trkpt lat="46.18022" lon="6.69856">
        <ele>1027.79</ele>
        <time>2015-06-26T07:51:38Z</time>
      </trkpt>
      <trkpt lat="46.18013" lon="6.69873">
        <ele>1024.9</ele>
        <time>2015-06-26T07:51:41Z</time>
      </trkpt>
      <trkpt lat="46.18003" lon="6.69899">
        <ele>1022.5</ele>
        <time>2015-06-26T07:51:45Z</time>
      </trkpt>
      <trkpt lat="46.17997" lon="6.69914">
        <ele>1022.98</ele>
        <time>2015-06-26T07:51:47Z</time>
      </trkpt>
      <trkpt lat="46.17995" lon="6.69947">
        <ele>1022.5</ele>
        <time>2015-06-26T07:51:51Z</time>
      </trkpt>
      <trkpt lat="46.17997" lon="6.69966">
        <ele>1020.1</ele>
        <time>2015-06-26T07:51:53Z</time>
      </trkpt>
      <trkpt lat="46.18005" lon="6.69977">
        <ele>1015.29</ele>
        <time>2015-06-26T07:51:56Z</time>
      </trkpt>
      <trkpt lat="46.18016" lon="6.69984">
        <ele>1011.44</ele>
        <time>2015-06-26T07:51:58Z</time>
      </trkpt>
      <trkpt lat="46.18025" lon="6.69998">
        <ele>1007.6</ele>
        <time>2015-06-26T07:52:00Z</time>
      </trkpt>
      <trkpt lat="46.18026" lon="6.70017">
        <ele>1004.72</ele>
        <time>2015-06-26T07:52:02Z</time>
      </trkpt>
      <trkpt lat="46.18027" lon="6.70042">
        <ele>1001.35</ele>
        <time>2015-06-26T07:52:05Z</time>
      </trkpt>
      <trkpt lat="46.18053" lon="6.70051">
        <ele>999.43</ele>
        <time>2015-06-26T07:52:11Z</time>
      </trkpt>
      <trkpt lat="46.18081" lon="6.70097">
        <ele>998.95</ele>
        <time>2015-06-26T07:52:17Z</time>
      </trkpt>
      <trkpt lat="46.18096" lon="6.70119">
        <ele>994.14</ele>
        <time>2015-06-26T07:52:23Z</time>
      </trkpt>
      <trkpt lat="46.18096" lon="6.70118">
        <ele>990.78</ele>
        <time>2015-06-26T07:52:27Z</time>
      </trkpt>
      <trkpt lat="46.18097" lon="6.70118">
        <ele>993.18</ele>
        <time>2015-06-26T07:52:51Z</time>
      </trkpt>
      <trkpt lat="46.18097" lon="6.70119">
        <ele>993.18</ele>
        <time>2015-06-26T07:53:13Z</time>
      </trkpt>
      <trkpt lat="46.18097" lon="6.70119">
        <ele>993.18</ele>
        <time>2015-06-26T07:53:35Z</time>
      </trkpt>
      <trkpt lat="46.18096" lon="6.7012">
        <ele>993.18</ele>
        <time>2015-06-26T07:53:53Z</time>
      </trkpt>
      <trkpt lat="46.18096" lon="6.70122">
        <ele>993.18</ele>
        <time>2015-06-26T07:54:25Z</time>
      </trkpt>
      <trkpt lat="46.18109" lon="6.70137">
        <ele>993.18</ele>
        <time>2015-06-26T07:54:50Z</time>
      </trkpt>
      <trkpt lat="46.18132" lon="6.70178">
        <ele>991.74</ele>
        <time>2015-06-26T07:55:01Z</time>
      </trkpt>
      <trkpt lat="46.1814" lon="6.70198">
        <ele>990.78</ele>
        <time>2015-06-26T07:55:11Z</time>
      </trkpt>
      <trkpt lat="46.18155" lon="6.70217">
        <ele>989.33</ele>
        <time>2015-06-26T07:55:22Z</time>
      </trkpt>
      <trkpt lat="46.18176" lon="6.70251">
        <ele>988.37</ele>
        <time>2015-06-26T07:55:35Z</time>
      </trkpt>
      <trkpt lat="46.18197" lon="6.70288">
        <ele>987.89</ele>
        <time>2015-06-26T07:55:50Z</time>
      </trkpt>
      <trkpt lat="46.18208" lon="6.7031">
        <ele>987.89</ele>
        <time>2015-06-26T07:56:00Z</time>
      </trkpt>
      <trkpt lat="46.18207" lon="6.70321">
        <ele>987.41</ele>
        <time>2015-06-26T07:56:08Z</time>
      </trkpt>
      <trkpt lat="46.182" lon="6.70329">
        <ele>987.41</ele>
        <time>2015-06-26T07:56:19Z</time>
      </trkpt>
      <trkpt lat="46.182" lon="6.70328">
        <ele>987.41</ele>
        <time>2015-06-26T07:56:27Z</time>
      </trkpt>
      <trkpt lat="46.18181" lon="6.70361">
        <ele>987.41</ele>
        <time>2015-06-26T07:56:47Z</time>
      </trkpt>
      <trkpt lat="46.18162" lon="6.70391">
        <ele>988.37</ele>
        <time>2015-06-26T07:57:04Z</time>
      </trkpt>
      <trkpt lat="46.18145" lon="6.7041">
        <ele>988.37</ele>
        <time>2015-06-26T07:57:19Z</time>
      </trkpt>
      <trkpt lat="46.18138" lon="6.70407">
        <ele>988.37</ele>
        <time>2015-06-26T07:57:26Z</time>
      </trkpt>
      <trkpt lat="46.18119" lon="6.70388">
        <ele>988.85</ele>
        <time>2015-06-26T07:57:41Z</time>
      </trkpt>
      <trkpt lat="46.18114" lon="6.70383">
        <ele>988.85</ele>
        <time>2015-06-26T07:57:47Z</time>
      </trkpt>
      <trkpt lat="46.18127" lon="6.70373">
        <ele>988.85</ele>
        <time>2015-06-26T07:58:00Z</time>
      </trkpt>
      <trkpt lat="46.18132" lon="6.70371">
        <ele>988.85</ele>
        <time>2015-06-26T07:58:14Z</time>
      </trkpt>
      <trkpt lat="46.18132" lon="6.70371">
        <ele>988.85</ele>
        <time>2015-06-26T07:58:31Z</time>
      </trkpt>
      <trkpt lat="46.18132" lon="6.7037">
        <ele>988.85</ele>
        <time>2015-06-26T07:58:47Z</time>
      </trkpt>
      <trkpt lat="46.18134" lon="6.70367">
        <ele>988.85</ele>
        <time>2015-06-26T07:58:50Z</time>
      </trkpt>
      <trkpt lat="46.18141" lon="6.70359">
        <ele>988.85</ele>
        <time>2015-06-26T07:59:04Z</time>
      </trkpt>
      <trkpt lat="46.18141" lon="6.70359">
        <ele>988.85</ele>
        <time>2015-06-26T07:59:23Z</time>
      </trkpt>
      <trkpt lat="46.18141" lon="6.70359">
        <ele>988.85</ele>
        <time>2015-06-26T08:00:02Z</time>
      </trkpt>
      <trkpt lat="46.18141" lon="6.70359">
        <ele>988.85</ele>
        <time>2015-06-26T08:00:28Z</time>
      </trkpt>
      <trkpt lat="46.18141" lon="6.70359">
        <ele>988.85</ele>
        <time>2015-06-26T08:01:00Z</time>
      </trkpt>
      <trkpt lat="46.18142" lon="6.70359">
        <ele>988.85</ele>
        <time>2015-06-26T08:01:33Z</time>
      </trkpt>
      <trkpt lat="46.18142" lon="6.70359">
        <ele>988.85</ele>
        <time>2015-06-26T08:02:01Z</time>
      </trkpt>
      <trkpt lat="46.18142" lon="6.70359">
        <ele>988.85</ele>
        <time>2015-06-26T08:02:35Z</time>
      </trkpt>
      <trkpt lat="46.18142" lon="6.70359">
        <ele>988.85</ele>
        <time>2015-06-26T08:03:22Z</time>
      </trkpt>
      <trkpt lat="46.18142" lon="6.70358">
        <ele>988.85</ele>
        <time>2015-06-26T08:04:06Z</time>
      </trkpt>
      <trkpt lat="46.18143" lon="6.70359">
        <ele>988.85</ele>
        <time>2015-06-26T08:04:49Z</time>
      </trkpt>
      <trkpt lat="46.18143" lon="6.70359">
        <ele>988.85</ele>
        <time>2015-06-26T08:05:12Z</time>
      </trkpt>
      <trkpt lat="46.18143" lon="6.70359">
        <ele>988.85</ele>
        <time>2015-06-26T08:05:30Z</time>
      </trkpt>
      <trkpt lat="46.18142" lon="6.70358">
        <ele>988.85</ele>
        <time>2015-06-26T08:05:58Z</time>
      </trkpt>
      <trkpt lat="46.18142" lon="6.70358">
        <ele>988.85</ele>
        <time>2015-06-26T08:06:26Z</time>
      </trkpt>
      <trkpt lat="46.18142" lon="6.70358">
        <ele>988.85</ele>
        <time>2015-06-26T08:06:45Z</time>
      </trkpt>
      <trkpt lat="46.18142" lon="6.70357">
        <ele>988.85</ele>
        <time>2015-06-26T08:07:11Z</time>
      </trkpt>
      <trkpt lat="46.18141" lon="6.70357">
        <ele>988.85</ele>
        <time>2015-06-26T08:08:01Z</time>
      </trkpt>
      <trkpt lat="46.18141" lon="6.70357">
        <ele>988.85</ele>
        <time>2015-06-26T08:08:31Z</time>
      </trkpt>
      <trkpt lat="46.1814" lon="6.70358">
        <ele>988.85</ele>
        <time>2015-06-26T08:09:08Z</time>
      </trkpt>
      <trkpt lat="46.1814" lon="6.70357">
        <ele>988.85</ele>
        <time>2015-06-26T08:09:46Z</time>
      </trkpt>
      <trkpt lat="46.1814" lon="6.70357">
        <ele>988.85</ele>
        <time>2015-06-26T08:10:25Z</time>
      </trkpt>
      <trkpt lat="46.1814" lon="6.70357">
        <ele>988.85</ele>
        <time>2015-06-26T08:11:03Z</time>
      </trkpt>
      <trkpt lat="46.1814" lon="6.70357">
        <ele>988.85</ele>
        <time>2015-06-26T08:11:46Z</time>
      </trkpt>
      <trkpt lat="46.1814" lon="6.70357">
        <ele>988.85</ele>
        <time>2015-06-26T08:12:22Z</time>
      </trkpt>
      <trkpt lat="46.1814" lon="6.70357">
        <ele>988.85</ele>
        <time>2015-06-26T08:12:58Z</time>
      </trkpt>
      <trkpt lat="46.1814" lon="6.70357">
        <ele>988.85</ele>
        <time>2015-06-26T08:13:34Z</time>
      </trkpt>
      <trkpt lat="46.1814" lon="6.70357">
        <ele>988.85</ele>
        <time>2015-06-26T08:14:11Z</time>
      </trkpt>
      <trkpt lat="46.1814" lon="6.70357">
        <ele>988.85</ele>
        <time>2015-06-26T08:14:59Z</time>
      </trkpt>
      <trkpt lat="46.1814" lon="6.70357">
        <ele>988.85</ele>
        <time>2015-06-26T08:15:39Z</time>
      </trkpt>
      <trkpt lat="46.1814" lon="6.70357">
        <ele>988.85</ele>
        <time>2015-06-26T08:16:18Z</time>
      </trkpt>
      <trkpt lat="46.1814" lon="6.70356">
        <ele>988.85</ele>
        <time>2015-06-26T08:16:53Z</time>
      </trkpt>
      <trkpt lat="46.18141" lon="6.70356">
        <ele>988.85</ele>
        <time>2015-06-26T08:17:13Z</time>
      </trkpt>
      <trkpt lat="46.18142" lon="6.70354">
        <ele>988.85</ele>
        <time>2015-06-26T08:17:25Z</time>
      </trkpt>
      <trkpt lat="46.18142" lon="6.70354">
        <ele>988.85</ele>
        <time>2015-06-26T08:17:40Z</time>
      </trkpt>
      <trkpt lat="46.18146" lon="6.70347">
        <ele>988.85</ele>
        <time>2015-06-26T08:17:53Z</time>
      </trkpt>
      <trkpt lat="46.18153" lon="6.70341">
        <ele>988.85</ele>
        <time>2015-06-26T08:18:05Z</time>
      </trkpt>
      <trkpt lat="46.18155" lon="6.70329">
        <ele>988.85</ele>
        <time>2015-06-26T08:18:14Z</time>
      </trkpt>
      <trkpt lat="46.18174" lon="6.70307">
        <ele>988.85</ele>
        <time>2015-06-26T08:18:32Z</time>
      </trkpt>
      <trkpt lat="46.18188" lon="6.70291">
        <ele>988.85</ele>
        <time>2015-06-26T08:18:46Z</time>
      </trkpt>
      <trkpt lat="46.18189" lon="6.70289">
        <ele>988.85</ele>
        <time>2015-06-26T08:18:47Z</time>
      </trkpt>
      <trkpt lat="46.1819" lon="6.70283">
        <ele>988.85</ele>
        <time>2015-06-26T08:18:50Z</time>
      </trkpt>
      <trkpt lat="46.18185" lon="6.70275">
        <ele>987.41</ele>
        <time>2015-06-26T08:18:54Z</time>
      </trkpt>
      <trkpt lat="46.18193" lon="6.70275">
        <ele>987.41</ele>
        <time>2015-06-26T08:19:02Z</time>
      </trkpt>
      <trkpt lat="46.18198" lon="6.70283">
        <ele>987.41</ele>
        <time>2015-06-26T08:19:05Z</time>
      </trkpt>
      <trkpt lat="46.18215" lon="6.70315">
        <ele>987.41</ele>
        <time>2015-06-26T08:19:17Z</time>
      </trkpt>
      <trkpt lat="46.18235" lon="6.70294">
        <ele>986.93</ele>
        <time>2015-06-26T08:19:26Z</time>
      </trkpt>
      <trkpt lat="46.18251" lon="6.70269">
        <ele>986.45</ele>
        <time>2015-06-26T08:19:37Z</time>
      </trkpt>
      <trkpt lat="46.18278" lon="6.70232">
        <ele>985.97</ele>
        <time>2015-06-26T08:19:50Z</time>
      </trkpt>
      <trkpt lat="46.18281" lon="6.7023">
        <ele>985.49</ele>
        <time>2015-06-26T08:20:00Z</time>
      </trkpt>
      <trkpt lat="46.18281" lon="6.7023">
        <ele>985.01</ele>
        <time>2015-06-26T08:20:21Z</time>
      </trkpt>
      <trkpt lat="46.18281" lon="6.7023">
        <ele>985.01</ele>
        <time>2015-06-26T08:20:43Z</time>
      </trkpt>
      <trkpt lat="46.18281" lon="6.7023">
        <ele>985.01</ele>
        <time>2015-06-26T08:21:06Z</time>
      </trkpt>
      <trkpt lat="46.18282" lon="6.7023">
        <ele>985.01</ele>
        <time>2015-06-26T08:21:37Z</time>
      </trkpt>
      <trkpt lat="46.18281" lon="6.7023">
        <ele>985.01</ele>
        <time>2015-06-26T08:22:07Z</time>
      </trkpt>
      <trkpt lat="46.18281" lon="6.7023">
        <ele>985.01</ele>
        <time>2015-06-26T08:22:42Z</time>
      </trkpt>
      <trkpt lat="46.18282" lon="6.7023">
        <ele>985.01</ele>
        <time>2015-06-26T08:23:15Z</time>
      </trkpt>
      <trkpt lat="46.18282" lon="6.7023">
        <ele>985.01</ele>
        <time>2015-06-26T08:23:49Z</time>
      </trkpt>
      <trkpt lat="46.18282" lon="6.7023">
        <ele>985.01</ele>
        <time>2015-06-26T08:24:15Z</time>
      </trkpt>
      <trkpt lat="46.183" lon="6.70257">
        <ele>985.01</ele>
        <time>2015-06-26T08:24:28Z</time>
      </trkpt>
      <trkpt lat="46.18303" lon="6.70264">
        <ele>985.01</ele>
        <time>2015-06-26T08:24:30Z</time>
      </trkpt>
      <trkpt lat="46.18327" lon="6.70303">
        <ele>984.53</ele>
        <time>2015-06-26T08:24:43Z</time>
      </trkpt>
      <trkpt lat="46.18349" lon="6.70333">
        <ele>984.53</ele>
        <time>2015-06-26T08:24:58Z</time>
      </trkpt>
      <trkpt lat="46.1835" lon="6.70333">
        <ele>984.53</ele>
        <time>2015-06-26T08:25:09Z</time>
      </trkpt>
      <trkpt lat="46.18351" lon="6.70333">
        <ele>984.53</ele>
        <time>2015-06-26T08:25:26Z</time>
      </trkpt>
      <trkpt lat="46.18353" lon="6.70332">
        <ele>984.53</ele>
        <time>2015-06-26T08:25:45Z</time>
      </trkpt>
      <trkpt lat="46.18353" lon="6.70332">
        <ele>984.53</ele>
        <time>2015-06-26T08:26:00Z</time>
      </trkpt>
      <trkpt lat="46.18353" lon="6.70333">
        <ele>984.53</ele>
        <time>2015-06-26T08:26:16Z</time>
      </trkpt>
      <trkpt lat="46.18353" lon="6.70333">
        <ele>984.53</ele>
        <time>2015-06-26T08:26:35Z</time>
      </trkpt>
      <trkpt lat="46.18353" lon="6.70333">
        <ele>984.53</ele>
        <time>2015-06-26T08:26:56Z</time>
      </trkpt>
      <trkpt lat="46.18356" lon="6.70346">
        <ele>984.53</ele>
        <time>2015-06-26T08:27:00Z</time>
      </trkpt>
      <trkpt lat="46.18384" lon="6.70413">
        <ele>985.49</ele>
        <time>2015-06-26T08:27:12Z</time>
      </trkpt>
      <trkpt lat="46.1842" lon="6.70474">
        <ele>988.85</ele>
        <time>2015-06-26T08:27:25Z</time>
      </trkpt>
      <trkpt lat="46.18429" lon="6.70488">
        <ele>992.22</ele>
        <time>2015-06-26T08:27:28Z</time>
      </trkpt>
      <trkpt lat="46.18438" lon="6.70501">
        <ele>996.06</ele>
        <time>2015-06-26T08:27:31Z</time>
      </trkpt>
      <trkpt lat="46.18447" lon="6.70518">
        <ele>999.43</ele>
        <time>2015-06-26T08:27:35Z</time>
      </trkpt>
      <trkpt lat="46.18461" lon="6.70549">
        <ele>1002.79</ele>
        <time>2015-06-26T08:27:42Z</time>
      </trkpt>
      <trkpt lat="46.1847" lon="6.70566">
        <ele>1006.64</ele>
        <time>2015-06-26T08:27:46Z</time>
      </trkpt>
      <trkpt lat="46.18498" lon="6.70622">
        <ele>1010</ele>
        <time>2015-06-26T08:27:59Z</time>
      </trkpt>
      <trkpt lat="46.18512" lon="6.70647">
        <ele>1013.85</ele>
        <time>2015-06-26T08:28:05Z</time>
      </trkpt>
      <trkpt lat="46.18516" lon="6.70655">
        <ele>1016.73</ele>
        <time>2015-06-26T08:28:07Z</time>
      </trkpt>
      <trkpt lat="46.1852" lon="6.70662">
        <ele>1021.06</ele>
        <time>2015-06-26T08:28:09Z</time>
      </trkpt>
      <trkpt lat="46.18524" lon="6.7067">
        <ele>1025.86</ele>
        <time>2015-06-26T08:28:11Z</time>
      </trkpt>
      <trkpt lat="46.18528" lon="6.70678">
        <ele>1031.15</ele>
        <time>2015-06-26T08:28:13Z</time>
      </trkpt>
      <trkpt lat="46.18531" lon="6.70685">
        <ele>1035.96</ele>
        <time>2015-06-26T08:28:15Z</time>
      </trkpt>
      <trkpt lat="46.18536" lon="6.70694">
        <ele>1040.76</ele>
        <time>2015-06-26T08:28:17Z</time>
      </trkpt>
      <trkpt lat="46.1854" lon="6.70702">
        <ele>1044.13</ele>
        <time>2015-06-26T08:28:19Z</time>
      </trkpt>
      <trkpt lat="46.18547" lon="6.70714">
        <ele>1047.49</ele>
        <time>2015-06-26T08:28:22Z</time>
      </trkpt>
      <trkpt lat="46.18555" lon="6.7073">
        <ele>1051.82</ele>
        <time>2015-06-26T08:28:26Z</time>
      </trkpt>
      <trkpt lat="46.18561" lon="6.70741">
        <ele>1056.15</ele>
        <time>2015-06-26T08:28:29Z</time>
      </trkpt>
      <trkpt lat="46.18568" lon="6.70752">
        <ele>1060.47</ele>
        <time>2015-06-26T08:28:32Z</time>
      </trkpt>
      <trkpt lat="46.18573" lon="6.7076">
        <ele>1064.8</ele>
        <time>2015-06-26T08:28:34Z</time>
      </trkpt>
      <trkpt lat="46.18577" lon="6.70766">
        <ele>1069.6</ele>
        <time>2015-06-26T08:28:36Z</time>
      </trkpt>
      <trkpt lat="46.18581" lon="6.70774">
        <ele>1073.93</ele>
        <time>2015-06-26T08:28:38Z</time>
      </trkpt>
      <trkpt lat="46.18585" lon="6.70781">
        <ele>1078.26</ele>
        <time>2015-06-26T08:28:40Z</time>
      </trkpt>
      <trkpt lat="46.18589" lon="6.70788">
        <ele>1081.62</ele>
        <time>2015-06-26T08:28:42Z</time>
      </trkpt>
      <trkpt lat="46.18593" lon="6.70794">
        <ele>1085.95</ele>
        <time>2015-06-26T08:28:44Z</time>
      </trkpt>
      <trkpt lat="46.18597" lon="6.70801">
        <ele>1089.31</ele>
        <time>2015-06-26T08:28:46Z</time>
      </trkpt>
      <trkpt lat="46.18601" lon="6.70808">
        <ele>1093.16</ele>
        <time>2015-06-26T08:28:48Z</time>
      </trkpt>
      <trkpt lat="46.18605" lon="6.70815">
        <ele>1097.48</ele>
        <time>2015-06-26T08:28:50Z</time>
      </trkpt>
      <trkpt lat="46.18609" lon="6.70822">
        <ele>1101.81</ele>
        <time>2015-06-26T08:28:52Z</time>
      </trkpt>
      <trkpt lat="46.18613" lon="6.70829">
        <ele>1106.61</ele>
        <time>2015-06-26T08:28:54Z</time>
      </trkpt>
      <trkpt lat="46.18618" lon="6.70836">
        <ele>1111.42</ele>
        <time>2015-06-26T08:28:56Z</time>
      </trkpt>
      <trkpt lat="46.18624" lon="6.70846">
        <ele>1116.23</ele>
        <time>2015-06-26T08:28:59Z</time>
      </trkpt>
      <trkpt lat="46.18628" lon="6.70853">
        <ele>1121.03</ele>
        <time>2015-06-26T08:29:01Z</time>
      </trkpt>
      <trkpt lat="46.18632" lon="6.70861">
        <ele>1125.84</ele>
        <time>2015-06-26T08:29:03Z</time>
      </trkpt>
      <trkpt lat="46.18636" lon="6.70868">
        <ele>1130.65</ele>
        <time>2015-06-26T08:29:05Z</time>
      </trkpt>
      <trkpt lat="46.18639" lon="6.70875">
        <ele>1134.97</ele>
        <time>2015-06-26T08:29:07Z</time>
      </trkpt>
      <trkpt lat="46.18643" lon="6.70883">
        <ele>1139.3</ele>
        <time>2015-06-26T08:29:09Z</time>
      </trkpt>
      <trkpt lat="46.18647" lon="6.70891">
        <ele>1143.63</ele>
        <time>2015-06-26T08:29:11Z</time>
      </trkpt>
      <trkpt lat="46.18651" lon="6.70899">
        <ele>1146.99</ele>
        <time>2015-06-26T08:29:13Z</time>
      </trkpt>
      <trkpt lat="46.18655" lon="6.70905">
        <ele>1149.87</ele>
        <time>2015-06-26T08:29:15Z</time>
      </trkpt>
      <trkpt lat="46.18659" lon="6.70913">
        <ele>1152.76</ele>
        <time>2015-06-26T08:29:17Z</time>
      </trkpt>
      <trkpt lat="46.18663" lon="6.7092">
        <ele>1156.12</ele>
        <time>2015-06-26T08:29:19Z</time>
      </trkpt>
      <trkpt lat="46.18668" lon="6.70929">
        <ele>1159.97</ele>
        <time>2015-06-26T08:29:21Z</time>
      </trkpt>
      <trkpt lat="46.18671" lon="6.70938">
        <ele>1164.29</ele>
        <time>2015-06-26T08:29:23Z</time>
      </trkpt>
      <trkpt lat="46.18678" lon="6.7095">
        <ele>1169.1</ele>
        <time>2015-06-26T08:29:26Z</time>
      </trkpt>
      <trkpt lat="46.18681" lon="6.70958">
        <ele>1173.91</ele>
        <time>2015-06-26T08:29:28Z</time>
      </trkpt>
      <trkpt lat="46.18684" lon="6.70966">
        <ele>1178.23</ele>
        <time>2015-06-26T08:29:30Z</time>
      </trkpt>
      <trkpt lat="46.18688" lon="6.70974">
        <ele>1182.56</ele>
        <time>2015-06-26T08:29:32Z</time>
      </trkpt>
      <trkpt lat="46.18691" lon="6.70981">
        <ele>1186.88</ele>
        <time>2015-06-26T08:29:34Z</time>
      </trkpt>
      <trkpt lat="46.18694" lon="6.70988">
        <ele>1191.69</ele>
        <time>2015-06-26T08:29:36Z</time>
      </trkpt>
      <trkpt lat="46.18698" lon="6.70996">
        <ele>1196.02</ele>
        <time>2015-06-26T08:29:38Z</time>
      </trkpt>
      <trkpt lat="46.18702" lon="6.71004">
        <ele>1200.34</ele>
        <time>2015-06-26T08:29:40Z</time>
      </trkpt>
      <trkpt lat="46.18706" lon="6.71011">
        <ele>1204.19</ele>
        <time>2015-06-26T08:29:42Z</time>
      </trkpt>
      <trkpt lat="46.1871" lon="6.71019">
        <ele>1208.03</ele>
        <time>2015-06-26T08:29:44Z</time>
      </trkpt>
      <trkpt lat="46.18714" lon="6.71026">
        <ele>1211.4</ele>
        <time>2015-06-26T08:29:46Z</time>
      </trkpt>
      <trkpt lat="46.18718" lon="6.71033">
        <ele>1215.24</ele>
        <time>2015-06-26T08:29:48Z</time>
      </trkpt>
      <trkpt lat="46.18723" lon="6.71041">
        <ele>1219.09</ele>
        <time>2015-06-26T08:29:50Z</time>
      </trkpt>
      <trkpt lat="46.1873" lon="6.71052">
        <ele>1223.42</ele>
        <time>2015-06-26T08:29:53Z</time>
      </trkpt>
      <trkpt lat="46.18734" lon="6.71059">
        <ele>1227.74</ele>
        <time>2015-06-26T08:29:55Z</time>
      </trkpt>
      <trkpt lat="46.18737" lon="6.71066">
        <ele>1232.07</ele>
        <time>2015-06-26T08:29:57Z</time>
      </trkpt>
      <trkpt lat="46.18741" lon="6.71073">
        <ele>1236.39</ele>
        <time>2015-06-26T08:29:59Z</time>
      </trkpt>
      <trkpt lat="46.18745" lon="6.7108">
        <ele>1240.72</ele>
        <time>2015-06-26T08:30:01Z</time>
      </trkpt>
      <trkpt lat="46.18749" lon="6.71089">
        <ele>1246.01</ele>
        <time>2015-06-26T08:30:03Z</time>
      </trkpt>
      <trkpt lat="46.18752" lon="6.71096">
        <ele>1249.85</ele>
        <time>2015-06-26T08:30:05Z</time>
      </trkpt>
      <trkpt lat="46.18756" lon="6.71104">
        <ele>1253.7</ele>
        <time>2015-06-26T08:30:07Z</time>
      </trkpt>
      <trkpt lat="46.1876" lon="6.71111">
        <ele>1257.06</ele>
        <time>2015-06-26T08:30:09Z</time>
      </trkpt>
      <trkpt lat="46.18765" lon="6.71118">
        <ele>1260.43</ele>
        <time>2015-06-26T08:30:11Z</time>
      </trkpt>
      <trkpt lat="46.18769" lon="6.71125">
        <ele>1263.79</ele>
        <time>2015-06-26T08:30:13Z</time>
      </trkpt>
      <trkpt lat="46.18773" lon="6.71133">
        <ele>1268.12</ele>
        <time>2015-06-26T08:30:15Z</time>
      </trkpt>
      <trkpt lat="46.18777" lon="6.7114">
        <ele>1271.96</ele>
        <time>2015-06-26T08:30:17Z</time>
      </trkpt>
      <trkpt lat="46.18782" lon="6.71152">
        <ele>1277.25</ele>
        <time>2015-06-26T08:30:20Z</time>
      </trkpt>
      <trkpt lat="46.18786" lon="6.71159">
        <ele>1281.57</ele>
        <time>2015-06-26T08:30:22Z</time>
      </trkpt>
      <trkpt lat="46.18789" lon="6.71167">
        <ele>1285.9</ele>
        <time>2015-06-26T08:30:24Z</time>
      </trkpt>
      <trkpt lat="46.18792" lon="6.71175">
        <ele>1290.23</ele>
        <time>2015-06-26T08:30:26Z</time>
      </trkpt>
      <trkpt lat="46.18796" lon="6.71182">
        <ele>1295.03</ele>
        <time>2015-06-26T08:30:28Z</time>
      </trkpt>
      <trkpt lat="46.188" lon="6.71189">
        <ele>1299.36</ele>
        <time>2015-06-26T08:30:30Z</time>
      </trkpt>
      <trkpt lat="46.18803" lon="6.71198">
        <ele>1303.69</ele>
        <time>2015-06-26T08:30:32Z</time>
      </trkpt>
      <trkpt lat="46.18807" lon="6.71206">
        <ele>1307.05</ele>
        <time>2015-06-26T08:30:34Z</time>
      </trkpt>
      <trkpt lat="46.18816" lon="6.71223">
        <ele>1310.41</ele>
        <time>2015-06-26T08:30:38Z</time>
      </trkpt>
      <trkpt lat="46.18824" lon="6.71239">
        <ele>1313.78</ele>
        <time>2015-06-26T08:30:42Z</time>
      </trkpt>
      <trkpt lat="46.1883" lon="6.71251">
        <ele>1317.14</ele>
        <time>2015-06-26T08:30:45Z</time>
      </trkpt>
      <trkpt lat="46.18837" lon="6.71263">
        <ele>1320.99</ele>
        <time>2015-06-26T08:30:48Z</time>
      </trkpt>
      <trkpt lat="46.18841" lon="6.71271">
        <ele>1324.35</ele>
        <time>2015-06-26T08:30:50Z</time>
      </trkpt>
      <trkpt lat="46.18845" lon="6.71279">
        <ele>1328.2</ele>
        <time>2015-06-26T08:30:52Z</time>
      </trkpt>
      <trkpt lat="46.18849" lon="6.71287">
        <ele>1331.56</ele>
        <time>2015-06-26T08:30:54Z</time>
      </trkpt>
      <trkpt lat="46.18853" lon="6.71295">
        <ele>1335.41</ele>
        <time>2015-06-26T08:30:56Z</time>
      </trkpt>
      <trkpt lat="46.18861" lon="6.71307">
        <ele>1339.25</ele>
        <time>2015-06-26T08:30:59Z</time>
      </trkpt>
      <trkpt lat="46.18871" lon="6.71328">
        <ele>1342.62</ele>
        <time>2015-06-26T08:31:04Z</time>
      </trkpt>
      <trkpt lat="46.18884" lon="6.71353">
        <ele>1346.46</ele>
        <time>2015-06-26T08:31:10Z</time>
      </trkpt>
      <trkpt lat="46.18891" lon="6.71365">
        <ele>1349.83</ele>
        <time>2015-06-26T08:31:13Z</time>
      </trkpt>
      <trkpt lat="46.18898" lon="6.71378">
        <ele>1354.15</ele>
        <time>2015-06-26T08:31:16Z</time>
      </trkpt>
      <trkpt lat="46.18902" lon="6.71386">
        <ele>1357.52</ele>
        <time>2015-06-26T08:31:18Z</time>
      </trkpt>
      <trkpt lat="46.18908" lon="6.71398">
        <ele>1361.84</ele>
        <time>2015-06-26T08:31:21Z</time>
      </trkpt>
      <trkpt lat="46.18914" lon="6.7141">
        <ele>1365.69</ele>
        <time>2015-06-26T08:31:24Z</time>
      </trkpt>
      <trkpt lat="46.18921" lon="6.71423">
        <ele>1368.57</ele>
        <time>2015-06-26T08:31:27Z</time>
      </trkpt>
      <trkpt lat="46.18927" lon="6.71435">
        <ele>1372.42</ele>
        <time>2015-06-26T08:31:30Z</time>
      </trkpt>
      <trkpt lat="46.18934" lon="6.71447">
        <ele>1376.75</ele>
        <time>2015-06-26T08:31:33Z</time>
      </trkpt>
      <trkpt lat="46.18938" lon="6.71455">
        <ele>1379.63</ele>
        <time>2015-06-26T08:31:35Z</time>
      </trkpt>
      <trkpt lat="46.18943" lon="6.71464">
        <ele>1382.99</ele>
        <time>2015-06-26T08:31:37Z</time>
      </trkpt>
      <trkpt lat="46.18947" lon="6.71472">
        <ele>1383.96</ele>
        <time>2015-06-26T08:31:39Z</time>
      </trkpt>
      <trkpt lat="46.18956" lon="6.71488">
        <ele>1387.32</ele>
        <time>2015-06-26T08:31:43Z</time>
      </trkpt>
      <trkpt lat="46.18967" lon="6.71509">
        <ele>1391.17</ele>
        <time>2015-06-26T08:31:48Z</time>
      </trkpt>
      <trkpt lat="46.18974" lon="6.71521">
        <ele>1394.53</ele>
        <time>2015-06-26T08:31:51Z</time>
      </trkpt>
      <trkpt lat="46.1898" lon="6.71533">
        <ele>1398.86</ele>
        <time>2015-06-26T08:31:54Z</time>
      </trkpt>
      <trkpt lat="46.18987" lon="6.71545">
        <ele>1402.7</ele>
        <time>2015-06-26T08:31:57Z</time>
      </trkpt>
      <trkpt lat="46.18993" lon="6.71557">
        <ele>1407.03</ele>
        <time>2015-06-26T08:32:00Z</time>
      </trkpt>
      <trkpt lat="46.19" lon="6.71569">
        <ele>1410.87</ele>
        <time>2015-06-26T08:32:03Z</time>
      </trkpt>
      <trkpt lat="46.19009" lon="6.71585">
        <ele>1414.72</ele>
        <time>2015-06-26T08:32:07Z</time>
      </trkpt>
      <trkpt lat="46.19016" lon="6.71597">
        <ele>1418.56</ele>
        <time>2015-06-26T08:32:10Z</time>
      </trkpt>
      <trkpt lat="46.19022" lon="6.7161">
        <ele>1421.93</ele>
        <time>2015-06-26T08:32:13Z</time>
      </trkpt>
      <trkpt lat="46.19031" lon="6.71627">
        <ele>1425.77</ele>
        <time>2015-06-26T08:32:17Z</time>
      </trkpt>
      <trkpt lat="46.1904" lon="6.71644">
        <ele>1429.14</ele>
        <time>2015-06-26T08:32:21Z</time>
      </trkpt>
      <trkpt lat="46.19049" lon="6.71661">
        <ele>1432.98</ele>
        <time>2015-06-26T08:32:25Z</time>
      </trkpt>
      <trkpt lat="46.19055" lon="6.71673">
        <ele>1436.83</ele>
        <time>2015-06-26T08:32:28Z</time>
      </trkpt>
      <trkpt lat="46.19064" lon="6.7169">
        <ele>1441.15</ele>
        <time>2015-06-26T08:32:32Z</time>
      </trkpt>
      <trkpt lat="46.1907" lon="6.71702">
        <ele>1445</ele>
        <time>2015-06-26T08:32:35Z</time>
      </trkpt>
      <trkpt lat="46.19076" lon="6.71714">
        <ele>1448.36</ele>
        <time>2015-06-26T08:32:38Z</time>
      </trkpt>
      <trkpt lat="46.19082" lon="6.71726">
        <ele>1452.21</ele>
        <time>2015-06-26T08:32:41Z</time>
      </trkpt>
      <trkpt lat="46.19089" lon="6.7174">
        <ele>1456.05</ele>
        <time>2015-06-26T08:32:44Z</time>
      </trkpt>
      <trkpt lat="46.19103" lon="6.71768">
        <ele>1454.61</ele>
        <time>2015-06-26T08:32:51Z</time>
      </trkpt>
      <trkpt lat="46.19105" lon="6.71774">
        <ele>1452.21</ele>
        <time>2015-06-26T08:33:02Z</time>
      </trkpt>
      <trkpt lat="46.19106" lon="6.71774">
        <ele>1453.65</ele>
        <time>2015-06-26T08:33:14Z</time>
      </trkpt>
      <trkpt lat="46.19113" lon="6.71788">
        <ele>1453.65</ele>
        <time>2015-06-26T08:33:23Z</time>
      </trkpt>
      <trkpt lat="46.19111" lon="6.71797">
        <ele>1453.65</ele>
        <time>2015-06-26T08:33:36Z</time>
      </trkpt>
      <trkpt lat="46.19109" lon="6.71798">
        <ele>1453.65</ele>
        <time>2015-06-26T08:33:50Z</time>
      </trkpt>
      <trkpt lat="46.19109" lon="6.71799">
        <ele>1453.65</ele>
        <time>2015-06-26T08:34:20Z</time>
      </trkpt>
      <trkpt lat="46.19109" lon="6.71799">
        <ele>1453.65</ele>
        <time>2015-06-26T08:34:56Z</time>
      </trkpt>
      <trkpt lat="46.19109" lon="6.718">
        <ele>1453.65</ele>
        <time>2015-06-26T08:35:20Z</time>
      </trkpt>
      <trkpt lat="46.19109" lon="6.718">
        <ele>1453.65</ele>
        <time>2015-06-26T08:35:39Z</time>
      </trkpt>
      <trkpt lat="46.19109" lon="6.718">
        <ele>1453.65</ele>
        <time>2015-06-26T08:35:55Z</time>
      </trkpt>
      <trkpt lat="46.19098" lon="6.71798">
        <ele>1453.65</ele>
        <time>2015-06-26T08:36:00Z</time>
      </trkpt>
      <trkpt lat="46.19079" lon="6.71799">
        <ele>1451.73</ele>
        <time>2015-06-26T08:36:09Z</time>
      </trkpt>
      <trkpt lat="46.19079" lon="6.71799">
        <ele>1450.29</ele>
        <time>2015-06-26T08:36:30Z</time>
      </trkpt>
      <trkpt lat="46.19079" lon="6.71799">
        <ele>1449.81</ele>
        <time>2015-06-26T08:36:54Z</time>
      </trkpt>
      <trkpt lat="46.19079" lon="6.71799">
        <ele>1449.81</ele>
        <time>2015-06-26T08:37:13Z</time>
      </trkpt>
      <trkpt lat="46.19078" lon="6.71799">
        <ele>1449.32</ele>
        <time>2015-06-26T08:37:36Z</time>
      </trkpt>
      <trkpt lat="46.19078" lon="6.71799">
        <ele>1449.32</ele>
        <time>2015-06-26T08:37:58Z</time>
      </trkpt>
      <trkpt lat="46.19077" lon="6.71798">
        <ele>1449.32</ele>
        <time>2015-06-26T08:38:21Z</time>
      </trkpt>
      <trkpt lat="46.19077" lon="6.71798">
        <ele>1448.84</ele>
        <time>2015-06-26T08:38:36Z</time>
      </trkpt>
      <trkpt lat="46.19075" lon="6.71798">
        <ele>1448.36</ele>
        <time>2015-06-26T08:38:58Z</time>
      </trkpt>
      <trkpt lat="46.19075" lon="6.71798">
        <ele>1448.36</ele>
        <time>2015-06-26T08:39:26Z</time>
      </trkpt>
      <trkpt lat="46.19072" lon="6.71798">
        <ele>1447.88</ele>
        <time>2015-06-26T08:39:47Z</time>
      </trkpt>
      <trkpt lat="46.1907" lon="6.71797">
        <ele>1447.88</ele>
        <time>2015-06-26T08:40:10Z</time>
      </trkpt>
      <trkpt lat="46.1907" lon="6.71797">
        <ele>1447.4</ele>
        <time>2015-06-26T08:40:29Z</time>
      </trkpt>
      <trkpt lat="46.19068" lon="6.71797">
        <ele>1447.4</ele>
        <time>2015-06-26T08:40:47Z</time>
      </trkpt>
      <trkpt lat="46.19068" lon="6.71797">
        <ele>1447.4</ele>
        <time>2015-06-26T08:41:01Z</time>
      </trkpt>
      <trkpt lat="46.19068" lon="6.71797">
        <ele>1446.92</ele>
        <time>2015-06-26T08:41:19Z</time>
      </trkpt>
      <trkpt lat="46.19063" lon="6.71792">
        <ele>1446.92</ele>
        <time>2015-06-26T08:41:46Z</time>
      </trkpt>
      <trkpt lat="46.19063" lon="6.71792">
        <ele>1446.92</ele>
        <time>2015-06-26T08:42:06Z</time>
      </trkpt>
      <trkpt lat="46.19061" lon="6.71792">
        <ele>1446.92</ele>
        <time>2015-06-26T08:42:25Z</time>
      </trkpt>
      <trkpt lat="46.19062" lon="6.71792">
        <ele>1446.92</ele>
        <time>2015-06-26T08:42:47Z</time>
      </trkpt>
      <trkpt lat="46.19059" lon="6.71789">
        <ele>1446.92</ele>
        <time>2015-06-26T08:43:08Z</time>
      </trkpt>
      <trkpt lat="46.19057" lon="6.71787">
        <ele>1446.92</ele>
        <time>2015-06-26T08:43:29Z</time>
      </trkpt>
      <trkpt lat="46.19057" lon="6.71787">
        <ele>1446.92</ele>
        <time>2015-06-26T08:43:45Z</time>
      </trkpt>
      <trkpt lat="46.19054" lon="6.71786">
        <ele>1446.92</ele>
        <time>2015-06-26T08:44:09Z</time>
      </trkpt>
      <trkpt lat="46.19054" lon="6.71785">
        <ele>1446.92</ele>
        <time>2015-06-26T08:44:28Z</time>
      </trkpt>
      <trkpt lat="46.19053" lon="6.71784">
        <ele>1446.92</ele>
        <time>2015-06-26T08:44:49Z</time>
      </trkpt>
      <trkpt lat="46.19053" lon="6.71784">
        <ele>1446.92</ele>
        <time>2015-06-26T08:45:05Z</time>
      </trkpt>
      <trkpt lat="46.19053" lon="6.71784">
        <ele>1446.92</ele>
        <time>2015-06-26T08:45:18Z</time>
      </trkpt>
      <trkpt lat="46.19042" lon="6.71779">
        <ele>1446.92</ele>
        <time>2015-06-26T08:45:33Z</time>
      </trkpt>
      <trkpt lat="46.19042" lon="6.71779">
        <ele>1446.92</ele>
        <time>2015-06-26T08:45:58Z</time>
      </trkpt>
      <trkpt lat="46.1904" lon="6.71777">
        <ele>1446.92</ele>
        <time>2015-06-26T08:46:12Z</time>
      </trkpt>
      <trkpt lat="46.19039" lon="6.71778">
        <ele>1446.92</ele>
        <time>2015-06-26T08:46:37Z</time>
      </trkpt>
      <trkpt lat="46.19037" lon="6.71778">
        <ele>1446.92</ele>
        <time>2015-06-26T08:46:54Z</time>
      </trkpt>
      <trkpt lat="46.19035" lon="6.71779">
        <ele>1446.92</ele>
        <time>2015-06-26T08:47:19Z</time>
      </trkpt>
      <trkpt lat="46.19033" lon="6.71784">
        <ele>1446.92</ele>
        <time>2015-06-26T08:47:35Z</time>
      </trkpt>
      <trkpt lat="46.19031" lon="6.71785">
        <ele>1446.92</ele>
        <time>2015-06-26T08:47:49Z</time>
      </trkpt>
      <trkpt lat="46.19031" lon="6.71785">
        <ele>1446.92</ele>
        <time>2015-06-26T08:48:11Z</time>
      </trkpt>
      <trkpt lat="46.19029" lon="6.71788">
        <ele>1446.92</ele>
        <time>2015-06-26T08:48:32Z</time>
      </trkpt>
      <trkpt lat="46.19029" lon="6.71789">
        <ele>1446.92</ele>
        <time>2015-06-26T08:48:48Z</time>
      </trkpt>
      <trkpt lat="46.19029" lon="6.71791">
        <ele>1446.92</ele>
        <time>2015-06-26T08:49:09Z</time>
      </trkpt>
      <trkpt lat="46.19028" lon="6.71795">
        <ele>1446.92</ele>
        <time>2015-06-26T08:49:29Z</time>
      </trkpt>
      <trkpt lat="46.19028" lon="6.71795">
        <ele>1446.92</ele>
        <time>2015-06-26T08:49:44Z</time>
      </trkpt>
      <trkpt lat="46.19029" lon="6.71804">
        <ele>1446.92</ele>
        <time>2015-06-26T08:49:58Z</time>
      </trkpt>
      <trkpt lat="46.19045" lon="6.71846">
        <ele>1447.4</ele>
        <time>2015-06-26T08:50:08Z</time>
      </trkpt>
      <trkpt lat="46.19051" lon="6.7186">
        <ele>1451.73</ele>
        <time>2015-06-26T08:50:11Z</time>
      </trkpt>
      <trkpt lat="46.19055" lon="6.71869">
        <ele>1456.53</ele>
        <time>2015-06-26T08:50:13Z</time>
      </trkpt>
      <trkpt lat="46.19057" lon="6.71874">
        <ele>1459.42</ele>
        <time>2015-06-26T08:50:14Z</time>
      </trkpt>
      <trkpt lat="46.19059" lon="6.71878">
        <ele>1462.78</ele>
        <time>2015-06-26T08:50:15Z</time>
      </trkpt>
      <trkpt lat="46.19061" lon="6.71882">
        <ele>1466.15</ele>
        <time>2015-06-26T08:50:16Z</time>
      </trkpt>
      <trkpt lat="46.19062" lon="6.71887">
        <ele>1469.99</ele>
        <time>2015-06-26T08:50:17Z</time>
      </trkpt>
      <trkpt lat="46.19064" lon="6.71891">
        <ele>1473.36</ele>
        <time>2015-06-26T08:50:18Z</time>
      </trkpt>
      <trkpt lat="46.19066" lon="6.71895">
        <ele>1476.72</ele>
        <time>2015-06-26T08:50:19Z</time>
      </trkpt>
      <trkpt lat="46.19068" lon="6.71899">
        <ele>1479.61</ele>
        <time>2015-06-26T08:50:20Z</time>
      </trkpt>
      <trkpt lat="46.19072" lon="6.71908">
        <ele>1484.41</ele>
        <time>2015-06-26T08:50:22Z</time>
      </trkpt>
      <trkpt lat="46.19078" lon="6.71922">
        <ele>1487.78</ele>
        <time>2015-06-26T08:50:25Z</time>
      </trkpt>
      <trkpt lat="46.1908" lon="6.71927">
        <ele>1488.26</ele>
        <time>2015-06-26T08:50:26Z</time>
      </trkpt>
      <trkpt lat="46.19091" lon="6.71954">
        <ele>1484.89</ele>
        <time>2015-06-26T08:50:32Z</time>
      </trkpt>
      <trkpt lat="46.19103" lon="6.71983">
        <ele>1489.22</ele>
        <time>2015-06-26T08:50:38Z</time>
      </trkpt>
      <trkpt lat="46.19107" lon="6.71992">
        <ele>1492.1</ele>
        <time>2015-06-26T08:50:40Z</time>
      </trkpt>
      <trkpt lat="46.19111" lon="6.72001">
        <ele>1495.95</ele>
        <time>2015-06-26T08:50:42Z</time>
      </trkpt>
      <trkpt lat="46.19115" lon="6.7201">
        <ele>1499.31</ele>
        <time>2015-06-26T08:50:44Z</time>
      </trkpt>
      <trkpt lat="46.19121" lon="6.72024">
        <ele>1503.16</ele>
        <time>2015-06-26T08:50:47Z</time>
      </trkpt>
      <trkpt lat="46.19128" lon="6.72042">
        <ele>1506.52</ele>
        <time>2015-06-26T08:50:51Z</time>
      </trkpt>
      <trkpt lat="46.19138" lon="6.72064">
        <ele>1509.89</ele>
        <time>2015-06-26T08:50:56Z</time>
      </trkpt>
      <trkpt lat="46.19148" lon="6.72087">
        <ele>1513.25</ele>
        <time>2015-06-26T08:51:01Z</time>
      </trkpt>
      <trkpt lat="46.19155" lon="6.72104">
        <ele>1516.62</ele>
        <time>2015-06-26T08:51:05Z</time>
      </trkpt>
      <trkpt lat="46.19161" lon="6.72117">
        <ele>1520.46</ele>
        <time>2015-06-26T08:51:08Z</time>
      </trkpt>
      <trkpt lat="46.19165" lon="6.72126">
        <ele>1523.83</ele>
        <time>2015-06-26T08:51:10Z</time>
      </trkpt>
      <trkpt lat="46.19168" lon="6.72134">
        <ele>1527.67</ele>
        <time>2015-06-26T08:51:12Z</time>
      </trkpt>
      <trkpt lat="46.19172" lon="6.72143">
        <ele>1531.52</ele>
        <time>2015-06-26T08:51:14Z</time>
      </trkpt>
      <trkpt lat="46.19175" lon="6.72151">
        <ele>1535.36</ele>
        <time>2015-06-26T08:51:16Z</time>
      </trkpt>
      <trkpt lat="46.19179" lon="6.7216">
        <ele>1538.73</ele>
        <time>2015-06-26T08:51:18Z</time>
      </trkpt>
      <trkpt lat="46.19182" lon="6.72168">
        <ele>1542.09</ele>
        <time>2015-06-26T08:51:20Z</time>
      </trkpt>
      <trkpt lat="46.19186" lon="6.72177">
        <ele>1545.46</ele>
        <time>2015-06-26T08:51:22Z</time>
      </trkpt>
      <trkpt lat="46.1919" lon="6.72186">
        <ele>1548.82</ele>
        <time>2015-06-26T08:51:24Z</time>
      </trkpt>
      <trkpt lat="46.19193" lon="6.72194">
        <ele>1552.19</ele>
        <time>2015-06-26T08:51:26Z</time>
      </trkpt>
      <trkpt lat="46.19196" lon="6.72203">
        <ele>1555.55</ele>
        <time>2015-06-26T08:51:28Z</time>
      </trkpt>
      <trkpt lat="46.19202" lon="6.72215">
        <ele>1559.88</ele>
        <time>2015-06-26T08:51:31Z</time>
      </trkpt>
      <trkpt lat="46.19206" lon="6.72224">
        <ele>1563.24</ele>
        <time>2015-06-26T08:51:33Z</time>
      </trkpt>
      <trkpt lat="46.19211" lon="6.72237">
        <ele>1567.09</ele>
        <time>2015-06-26T08:51:36Z</time>
      </trkpt>
      <trkpt lat="46.19219" lon="6.72255">
        <ele>1570.93</ele>
        <time>2015-06-26T08:51:40Z</time>
      </trkpt>
      <trkpt lat="46.19227" lon="6.72273">
        <ele>1574.3</ele>
        <time>2015-06-26T08:51:44Z</time>
      </trkpt>
      <trkpt lat="46.19232" lon="6.72287">
        <ele>1577.66</ele>
        <time>2015-06-26T08:51:47Z</time>
      </trkpt>
      <trkpt lat="46.19237" lon="6.723">
        <ele>1581.99</ele>
        <time>2015-06-26T08:51:50Z</time>
      </trkpt>
      <trkpt lat="46.19241" lon="6.72308">
        <ele>1585.35</ele>
        <time>2015-06-26T08:51:52Z</time>
      </trkpt>
      <trkpt lat="46.19244" lon="6.72317">
        <ele>1588.72</ele>
        <time>2015-06-26T08:51:54Z</time>
      </trkpt>
      <trkpt lat="46.1925" lon="6.72331">
        <ele>1591.6</ele>
        <time>2015-06-26T08:51:57Z</time>
      </trkpt>
      <trkpt lat="46.19255" lon="6.72344">
        <ele>1595.93</ele>
        <time>2015-06-26T08:52:00Z</time>
      </trkpt>
      <trkpt lat="46.19261" lon="6.72358">
        <ele>1599.77</ele>
        <time>2015-06-26T08:52:03Z</time>
      </trkpt>
      <trkpt lat="46.19269" lon="6.72376">
        <ele>1603.14</ele>
        <time>2015-06-26T08:52:07Z</time>
      </trkpt>
      <trkpt lat="46.19284" lon="6.72413">
        <ele>1606.02</ele>
        <time>2015-06-26T08:52:15Z</time>
      </trkpt>
      <trkpt lat="46.19292" lon="6.72431">
        <ele>1609.86</ele>
        <time>2015-06-26T08:52:19Z</time>
      </trkpt>
      <trkpt lat="46.19299" lon="6.7245">
        <ele>1614.19</ele>
        <time>2015-06-26T08:52:23Z</time>
      </trkpt>
      <trkpt lat="46.19305" lon="6.72464">
        <ele>1617.56</ele>
        <time>2015-06-26T08:52:26Z</time>
      </trkpt>
      <trkpt lat="46.19311" lon="6.72477">
        <ele>1620.92</ele>
        <time>2015-06-26T08:52:29Z</time>
      </trkpt>
      <trkpt lat="46.19317" lon="6.7249">
        <ele>1623.8</ele>
        <time>2015-06-26T08:52:32Z</time>
      </trkpt>
      <trkpt lat="46.19324" lon="6.72508">
        <ele>1627.65</ele>
        <time>2015-06-26T08:52:36Z</time>
      </trkpt>
      <trkpt lat="46.19332" lon="6.72527">
        <ele>1631.01</ele>
        <time>2015-06-26T08:52:40Z</time>
      </trkpt>
      <trkpt lat="46.19351" lon="6.72573">
        <ele>1633.9</ele>
        <time>2015-06-26T08:52:50Z</time>
      </trkpt>
      <trkpt lat="46.19361" lon="6.72596">
        <ele>1637.26</ele>
        <time>2015-06-26T08:52:55Z</time>
      </trkpt>
      <trkpt lat="46.19368" lon="6.72614">
        <ele>1640.63</ele>
        <time>2015-06-26T08:52:59Z</time>
      </trkpt>
      <trkpt lat="46.19376" lon="6.72633">
        <ele>1643.99</ele>
        <time>2015-06-26T08:53:03Z</time>
      </trkpt>
      <trkpt lat="46.19386" lon="6.72656">
        <ele>1647.36</ele>
        <time>2015-06-26T08:53:08Z</time>
      </trkpt>
      <trkpt lat="46.19394" lon="6.72674">
        <ele>1651.2</ele>
        <time>2015-06-26T08:53:12Z</time>
      </trkpt>
      <trkpt lat="46.19401" lon="6.72692">
        <ele>1654.09</ele>
        <time>2015-06-26T08:53:16Z</time>
      </trkpt>
      <trkpt lat="46.19409" lon="6.72711">
        <ele>1657.93</ele>
        <time>2015-06-26T08:53:20Z</time>
      </trkpt>
      <trkpt lat="46.19424" lon="6.72747">
        <ele>1660.81</ele>
        <time>2015-06-26T08:53:28Z</time>
      </trkpt>
      <trkpt lat="46.19432" lon="6.72766">
        <ele>1662.26</ele>
        <time>2015-06-26T08:53:32Z</time>
      </trkpt>
      <trkpt lat="46.1944" lon="6.72784">
        <ele>1666.1</ele>
        <time>2015-06-26T08:53:36Z</time>
      </trkpt>
      <trkpt lat="46.19448" lon="6.72803">
        <ele>1670.43</ele>
        <time>2015-06-26T08:53:40Z</time>
      </trkpt>
      <trkpt lat="46.19452" lon="6.72812">
        <ele>1671.39</ele>
        <time>2015-06-26T08:53:42Z</time>
      </trkpt>
      <trkpt lat="46.1946" lon="6.7283">
        <ele>1674.75</ele>
        <time>2015-06-26T08:53:46Z</time>
      </trkpt>
      <trkpt lat="46.19468" lon="6.72848">
        <ele>1678.12</ele>
        <time>2015-06-26T08:53:50Z</time>
      </trkpt>
      <trkpt lat="46.19475" lon="6.72866">
        <ele>1681.48</ele>
        <time>2015-06-26T08:53:54Z</time>
      </trkpt>
      <trkpt lat="46.19482" lon="6.72884">
        <ele>1685.33</ele>
        <time>2015-06-26T08:53:58Z</time>
      </trkpt>
      <trkpt lat="46.19488" lon="6.72898">
        <ele>1688.69</ele>
        <time>2015-06-26T08:54:01Z</time>
      </trkpt>
      <trkpt lat="46.19496" lon="6.72916">
        <ele>1691.58</ele>
        <time>2015-06-26T08:54:05Z</time>
      </trkpt>
      <trkpt lat="46.1951" lon="6.72948">
        <ele>1694.94</ele>
        <time>2015-06-26T08:54:12Z</time>
      </trkpt>
      <trkpt lat="46.19517" lon="6.72967">
        <ele>1697.83</ele>
        <time>2015-06-26T08:54:16Z</time>
      </trkpt>
      <trkpt lat="46.19525" lon="6.72985">
        <ele>1702.15</ele>
        <time>2015-06-26T08:54:20Z</time>
      </trkpt>
      <trkpt lat="46.19531" lon="6.72999">
        <ele>1705.04</ele>
        <time>2015-06-26T08:54:23Z</time>
      </trkpt>
      <trkpt lat="46.19537" lon="6.73012">
        <ele>1708.4</ele>
        <time>2015-06-26T08:54:26Z</time>
      </trkpt>
      <trkpt lat="46.19542" lon="6.73026">
        <ele>1711.28</ele>
        <time>2015-06-26T08:54:29Z</time>
      </trkpt>
      <trkpt lat="46.19548" lon="6.73039">
        <ele>1714.17</ele>
        <time>2015-06-26T08:54:32Z</time>
      </trkpt>
      <trkpt lat="46.19553" lon="6.73053">
        <ele>1716.57</ele>
        <time>2015-06-26T08:54:35Z</time>
      </trkpt>
      <trkpt lat="46.19561" lon="6.73071">
        <ele>1719.94</ele>
        <time>2015-06-26T08:54:39Z</time>
      </trkpt>
      <trkpt lat="46.19571" lon="6.73094">
        <ele>1723.3</ele>
        <time>2015-06-26T08:54:44Z</time>
      </trkpt>
      <trkpt lat="46.19581" lon="6.73117">
        <ele>1726.67</ele>
        <time>2015-06-26T08:54:49Z</time>
      </trkpt>
      <trkpt lat="46.19589" lon="6.73136">
        <ele>1730.99</ele>
        <time>2015-06-26T08:54:53Z</time>
      </trkpt>
      <trkpt lat="46.19594" lon="6.73149">
        <ele>1733.88</ele>
        <time>2015-06-26T08:54:56Z</time>
      </trkpt>
      <trkpt lat="46.19598" lon="6.73159">
        <ele>1737.24</ele>
        <time>2015-06-26T08:54:59Z</time>
      </trkpt>
      <trkpt lat="46.19601" lon="6.73165">
        <ele>1738.68</ele>
        <time>2015-06-26T08:55:02Z</time>
      </trkpt>
      <trkpt lat="46.19606" lon="6.73177">
        <ele>1739.64</ele>
        <time>2015-06-26T08:55:22Z</time>
      </trkpt>
      <trkpt lat="46.19619" lon="6.73209">
        <ele>1741.57</ele>
        <time>2015-06-26T08:55:37Z</time>
      </trkpt>
      <trkpt lat="46.19621" lon="6.73213">
        <ele>1741.57</ele>
        <time>2015-06-26T08:55:40Z</time>
      </trkpt>
      <trkpt lat="46.19622" lon="6.73217">
        <ele>1742.05</ele>
        <time>2015-06-26T08:55:48Z</time>
      </trkpt>
      <trkpt lat="46.19632" lon="6.73246">
        <ele>1742.05</ele>
        <time>2015-06-26T08:55:55Z</time>
      </trkpt>
      <trkpt lat="46.19632" lon="6.73254">
        <ele>1742.05</ele>
        <time>2015-06-26T08:56:04Z</time>
      </trkpt>
      <trkpt lat="46.19632" lon="6.73254">
        <ele>1742.05</ele>
        <time>2015-06-26T08:56:25Z</time>
      </trkpt>
      <trkpt lat="46.19632" lon="6.73256">
        <ele>1742.05</ele>
        <time>2015-06-26T08:56:41Z</time>
      </trkpt>
      <trkpt lat="46.19613" lon="6.73311">
        <ele>1741.08</ele>
        <time>2015-06-26T08:56:55Z</time>
      </trkpt>
      <trkpt lat="46.196" lon="6.73388">
        <ele>1737.72</ele>
        <time>2015-06-26T08:57:03Z</time>
      </trkpt>
      <trkpt lat="46.19601" lon="6.73411">
        <ele>1734.84</ele>
        <time>2015-06-26T08:57:05Z</time>
      </trkpt>
      <trkpt lat="46.19605" lon="6.73445">
        <ele>1729.55</ele>
        <time>2015-06-26T08:57:08Z</time>
      </trkpt>
      <trkpt lat="46.19611" lon="6.73482">
        <ele>1726.67</ele>
        <time>2015-06-26T08:57:12Z</time>
      </trkpt>
      <trkpt lat="46.19619" lon="6.73511">
        <ele>1731.47</ele>
        <time>2015-06-26T08:57:16Z</time>
      </trkpt>
      <trkpt lat="46.19624" lon="6.73525">
        <ele>1733.88</ele>
        <time>2015-06-26T08:57:18Z</time>
      </trkpt>
      <trkpt lat="46.19629" lon="6.73538">
        <ele>1736.28</ele>
        <time>2015-06-26T08:57:20Z</time>
      </trkpt>
      <trkpt lat="46.19638" lon="6.73558">
        <ele>1738.68</ele>
        <time>2015-06-26T08:57:23Z</time>
      </trkpt>
      <trkpt lat="46.19664" lon="6.73611">
        <ele>1735.32</ele>
        <time>2015-06-26T08:57:30Z</time>
      </trkpt>
      <trkpt lat="46.19692" lon="6.73648">
        <ele>1734.36</ele>
        <time>2015-06-26T08:57:36Z</time>
      </trkpt>
      <trkpt lat="46.19704" lon="6.73665">
        <ele>1736.28</ele>
        <time>2015-06-26T08:57:39Z</time>
      </trkpt>
      <trkpt lat="46.19723" lon="6.73689">
        <ele>1740.6</ele>
        <time>2015-06-26T08:57:44Z</time>
      </trkpt>
      <trkpt lat="46.1974" lon="6.73713">
        <ele>1740.6</ele>
        <time>2015-06-26T08:57:49Z</time>
      </trkpt>
      <trkpt lat="46.1975" lon="6.73728">
        <ele>1740.6</ele>
        <time>2015-06-26T08:57:52Z</time>
      </trkpt>
      <trkpt lat="46.19762" lon="6.73746">
        <ele>1740.6</ele>
        <time>2015-06-26T08:57:56Z</time>
      </trkpt>
      <trkpt lat="46.19777" lon="6.73769">
        <ele>1740.6</ele>
        <time>2015-06-26T08:58:01Z</time>
      </trkpt>
      <trkpt lat="46.19783" lon="6.73779">
        <ele>1741.08</ele>
        <time>2015-06-26T08:58:03Z</time>
      </trkpt>
      <trkpt lat="46.19797" lon="6.73805">
        <ele>1742.05</ele>
        <time>2015-06-26T08:58:08Z</time>
      </trkpt>
      <trkpt lat="46.19826" lon="6.73861">
        <ele>1743.49</ele>
        <time>2015-06-26T08:58:21Z</time>
      </trkpt>
      <trkpt lat="46.19848" lon="6.73916">
        <ele>1745.89</ele>
        <time>2015-06-26T08:58:33Z</time>
      </trkpt>
      <trkpt lat="46.19882" lon="6.73976">
        <ele>1748.78</ele>
        <time>2015-06-26T08:58:47Z</time>
      </trkpt>
      <trkpt lat="46.19917" lon="6.74026">
        <ele>1750.7</ele>
        <time>2015-06-26T08:59:00Z</time>
      </trkpt>
      <trkpt lat="46.19953" lon="6.74074">
        <ele>1753.1</ele>
        <time>2015-06-26T08:59:14Z</time>
      </trkpt>
      <trkpt lat="46.19987" lon="6.74119">
        <ele>1755.5</ele>
        <time>2015-06-26T08:59:28Z</time>
      </trkpt>
      <trkpt lat="46.19993" lon="6.7413">
        <ele>1755.5</ele>
        <time>2015-06-26T08:59:30Z</time>
      </trkpt>
      <trkpt lat="46.20003" lon="6.74152">
        <ele>1755.5</ele>
        <time>2015-06-26T08:59:33Z</time>
      </trkpt>
      <trkpt lat="46.20016" lon="6.74189">
        <ele>1752.62</ele>
        <time>2015-06-26T08:59:37Z</time>
      </trkpt>
      <trkpt lat="46.20025" lon="6.74223">
        <ele>1748.29</ele>
        <time>2015-06-26T08:59:40Z</time>
      </trkpt>
      <trkpt lat="46.20041" lon="6.74256">
        <ele>1744.45</ele>
        <time>2015-06-26T08:59:44Z</time>
      </trkpt>
      <trkpt lat="46.20048" lon="6.7427">
        <ele>1744.93</ele>
        <time>2015-06-26T08:59:46Z</time>
      </trkpt>
      <trkpt lat="46.20056" lon="6.74288">
        <ele>1748.78</ele>
        <time>2015-06-26T08:59:49Z</time>
      </trkpt>
      <trkpt lat="46.2006" lon="6.74298">
        <ele>1752.62</ele>
        <time>2015-06-26T08:59:51Z</time>
      </trkpt>
      <trkpt lat="46.20063" lon="6.74309">
        <ele>1755.99</ele>
        <time>2015-06-26T08:59:53Z</time>
      </trkpt>
      <trkpt lat="46.20067" lon="6.74344">
        <ele>1757.43</ele>
        <time>2015-06-26T09:00:00Z</time>
      </trkpt>
      <trkpt lat="46.20066" lon="6.74374">
        <ele>1754.06</ele>
        <time>2015-06-26T09:00:05Z</time>
      </trkpt>
      <trkpt lat="46.20064" lon="6.74403">
        <ele>1753.1</ele>
        <time>2015-06-26T09:00:09Z</time>
      </trkpt>
      <trkpt lat="46.20065" lon="6.74433">
        <ele>1751.18</ele>
        <time>2015-06-26T09:00:12Z</time>
      </trkpt>
      <trkpt lat="46.20077" lon="6.74501">
        <ele>1746.85</ele>
        <time>2015-06-26T09:00:17Z</time>
      </trkpt>
      <trkpt lat="46.20084" lon="6.74546">
        <ele>1743.01</ele>
        <time>2015-06-26T09:00:20Z</time>
      </trkpt>
      <trkpt lat="46.20087" lon="6.74578">
        <ele>1740.6</ele>
        <time>2015-06-26T09:00:22Z</time>
      </trkpt>
      <trkpt lat="46.20092" lon="6.74609">
        <ele>1739.16</ele>
        <time>2015-06-26T09:00:24Z</time>
      </trkpt>
      <trkpt lat="46.20099" lon="6.7467">
        <ele>1735.8</ele>
        <time>2015-06-26T09:00:28Z</time>
      </trkpt>
      <trkpt lat="46.20103" lon="6.74699">
        <ele>1735.32</ele>
        <time>2015-06-26T09:00:30Z</time>
      </trkpt>
      <trkpt lat="46.20111" lon="6.74814">
        <ele>1735.32</ele>
        <time>2015-06-26T09:00:38Z</time>
      </trkpt>
      <trkpt lat="46.20124" lon="6.74873">
        <ele>1739.16</ele>
        <time>2015-06-26T09:00:45Z</time>
      </trkpt>
      <trkpt lat="46.20126" lon="6.74887">
        <ele>1742.53</ele>
        <time>2015-06-26T09:00:48Z</time>
      </trkpt>
      <trkpt lat="46.20128" lon="6.74896">
        <ele>1743.97</ele>
        <time>2015-06-26T09:00:50Z</time>
      </trkpt>
      <trkpt lat="46.20139" lon="6.74944">
        <ele>1746.37</ele>
        <time>2015-06-26T09:01:02Z</time>
      </trkpt>
      <trkpt lat="46.20148" lon="6.74995">
        <ele>1746.37</ele>
        <time>2015-06-26T09:01:14Z</time>
      </trkpt>
      <trkpt lat="46.20152" lon="6.75024">
        <ele>1749.26</ele>
        <time>2015-06-26T09:01:26Z</time>
      </trkpt>
      <trkpt lat="46.2016" lon="6.75051">
        <ele>1752.14</ele>
        <time>2015-06-26T09:01:37Z</time>
      </trkpt>
      <trkpt lat="46.20166" lon="6.75096">
        <ele>1753.1</ele>
        <time>2015-06-26T09:01:48Z</time>
      </trkpt>
      <trkpt lat="46.20168" lon="6.75124">
        <ele>1753.58</ele>
        <time>2015-06-26T09:01:54Z</time>
      </trkpt>
      <trkpt lat="46.20161" lon="6.75151">
        <ele>1753.58</ele>
        <time>2015-06-26T09:01:58Z</time>
      </trkpt>
      <trkpt lat="46.20155" lon="6.75181">
        <ele>1753.58</ele>
        <time>2015-06-26T09:02:01Z</time>
      </trkpt>
      <trkpt lat="46.20154" lon="6.75204">
        <ele>1751.66</ele>
        <time>2015-06-26T09:02:03Z</time>
      </trkpt>
      <trkpt lat="46.2015" lon="6.75228">
        <ele>1749.74</ele>
        <time>2015-06-26T09:02:05Z</time>
      </trkpt>
      <trkpt lat="46.20147" lon="6.75277">
        <ele>1744.45</ele>
        <time>2015-06-26T09:02:09Z</time>
      </trkpt>
      <trkpt lat="46.20153" lon="6.75345">
        <ele>1746.37</ele>
        <time>2015-06-26T09:02:16Z</time>
      </trkpt>
      <trkpt lat="46.20157" lon="6.75362">
        <ele>1751.18</ele>
        <time>2015-06-26T09:02:19Z</time>
      </trkpt>
      <trkpt lat="46.20158" lon="6.75373">
        <ele>1755.02</ele>
        <time>2015-06-26T09:02:22Z</time>
      </trkpt>
      <trkpt lat="46.20163" lon="6.754">
        <ele>1756.47</ele>
        <time>2015-06-26T09:02:31Z</time>
      </trkpt>
      <trkpt lat="46.20169" lon="6.75422">
        <ele>1756.47</ele>
        <time>2015-06-26T09:02:39Z</time>
      </trkpt>
      <trkpt lat="46.20172" lon="6.75443">
        <ele>1757.43</ele>
        <time>2015-06-26T09:02:46Z</time>
      </trkpt>
      <trkpt lat="46.20171" lon="6.75491">
        <ele>1759.35</ele>
        <time>2015-06-26T09:03:00Z</time>
      </trkpt>
      <trkpt lat="46.20163" lon="6.75543">
        <ele>1759.83</ele>
        <time>2015-06-26T09:03:09Z</time>
      </trkpt>
      <trkpt lat="46.20144" lon="6.75625">
        <ele>1758.39</ele>
        <time>2015-06-26T09:03:18Z</time>
      </trkpt>
      <trkpt lat="46.2013" lon="6.7565">
        <ele>1758.39</ele>
        <time>2015-06-26T09:03:21Z</time>
      </trkpt>
      <trkpt lat="46.20112" lon="6.75689">
        <ele>1753.1</ele>
        <time>2015-06-26T09:03:25Z</time>
      </trkpt>
      <trkpt lat="46.20107" lon="6.75699">
        <ele>1751.66</ele>
        <time>2015-06-26T09:03:26Z</time>
      </trkpt>
      <trkpt lat="46.20085" lon="6.75737">
        <ele>1747.81</ele>
        <time>2015-06-26T09:03:30Z</time>
      </trkpt>
      <trkpt lat="46.2007" lon="6.75761">
        <ele>1746.85</ele>
        <time>2015-06-26T09:03:33Z</time>
      </trkpt>
      <trkpt lat="46.20049" lon="6.7579">
        <ele>1746.85</ele>
        <time>2015-06-26T09:03:40Z</time>
      </trkpt>
      <trkpt lat="46.20048" lon="6.75823">
        <ele>1748.29</ele>
        <time>2015-06-26T09:03:50Z</time>
      </trkpt>
      <trkpt lat="46.20048" lon="6.75826">
        <ele>1748.29</ele>
        <time>2015-06-26T09:03:51Z</time>
      </trkpt>
      <trkpt lat="46.20049" lon="6.7583">
        <ele>1748.78</ele>
        <time>2015-06-26T09:03:53Z</time>
      </trkpt>
      <trkpt lat="46.20048" lon="6.75849">
        <ele>1750.22</ele>
        <time>2015-06-26T09:04:00Z</time>
      </trkpt>
      <trkpt lat="46.20046" lon="6.7586">
        <ele>1752.14</ele>
        <time>2015-06-26T09:04:04Z</time>
      </trkpt>
      <trkpt lat="46.2002" lon="6.75905">
        <ele>1755.5</ele>
        <time>2015-06-26T09:04:19Z</time>
      </trkpt>
      <trkpt lat="46.20015" lon="6.75913">
        <ele>1754.06</ele>
        <time>2015-06-26T09:04:22Z</time>
      </trkpt>
      <trkpt lat="46.20013" lon="6.75915">
        <ele>1754.06</ele>
        <time>2015-06-26T09:04:23Z</time>
      </trkpt>
      <trkpt lat="46.20018" lon="6.75923">
        <ele>1753.1</ele>
        <time>2015-06-26T09:04:31Z</time>
      </trkpt>
      <trkpt lat="46.2002" lon="6.75924">
        <ele>1751.66</ele>
        <time>2015-06-26T09:04:51Z</time>
      </trkpt>
      <trkpt lat="46.20029" lon="6.75921">
        <ele>1751.66</ele>
        <time>2015-06-26T09:04:55Z</time>
      </trkpt>
      <trkpt lat="46.20033" lon="6.75947">
        <ele>1746.85</ele>
        <time>2015-06-26T09:05:01Z</time>
      </trkpt>
      <trkpt lat="46.20023" lon="6.75967">
        <ele>1742.53</ele>
        <time>2015-06-26T09:05:04Z</time>
      </trkpt>
      <trkpt lat="46.20016" lon="6.75988">
        <ele>1738.2</ele>
        <time>2015-06-26T09:05:07Z</time>
      </trkpt>
      <trkpt lat="46.2002" lon="6.76">
        <ele>1734.84</ele>
        <time>2015-06-26T09:05:10Z</time>
      </trkpt>
      <trkpt lat="46.20038" lon="6.76">
        <ele>1731.47</ele>
        <time>2015-06-26T09:05:15Z</time>
      </trkpt>
      <trkpt lat="46.20039" lon="6.76005">
        <ele>1730.99</ele>
        <time>2015-06-26T09:05:16Z</time>
      </trkpt>
      <trkpt lat="46.2004" lon="6.76032">
        <ele>1727.15</ele>
        <time>2015-06-26T09:05:20Z</time>
      </trkpt>
      <trkpt lat="46.20054" lon="6.76047">
        <ele>1722.34</ele>
        <time>2015-06-26T09:05:23Z</time>
      </trkpt>
      <trkpt lat="46.20062" lon="6.76062">
        <ele>1718.97</ele>
        <time>2015-06-26T09:05:25Z</time>
      </trkpt>
      <trkpt lat="46.20063" lon="6.76076">
        <ele>1715.61</ele>
        <time>2015-06-26T09:05:27Z</time>
      </trkpt>
      <trkpt lat="46.20064" lon="6.76116">
        <ele>1709.36</ele>
        <time>2015-06-26T09:05:33Z</time>
      </trkpt>
      <trkpt lat="46.20062" lon="6.76138">
        <ele>1708.88</ele>
        <time>2015-06-26T09:05:37Z</time>
      </trkpt>
      <trkpt lat="46.20057" lon="6.76151">
        <ele>1707.92</ele>
        <time>2015-06-26T09:05:39Z</time>
      </trkpt>
      <trkpt lat="46.20053" lon="6.76163">
        <ele>1704.55</ele>
        <time>2015-06-26T09:05:44Z</time>
      </trkpt>
      <trkpt lat="46.20054" lon="6.76164">
        <ele>1702.63</ele>
        <time>2015-06-26T09:05:51Z</time>
      </trkpt>
      <trkpt lat="46.20048" lon="6.76193">
        <ele>1702.63</ele>
        <time>2015-06-26T09:06:00Z</time>
      </trkpt>
      <trkpt lat="46.20047" lon="6.76203">
        <ele>1702.63</ele>
        <time>2015-06-26T09:06:02Z</time>
      </trkpt>
      <trkpt lat="46.20048" lon="6.76227">
        <ele>1699.75</ele>
        <time>2015-06-26T09:06:06Z</time>
      </trkpt>
      <trkpt lat="46.2005" lon="6.7624">
        <ele>1697.34</ele>
        <time>2015-06-26T09:06:08Z</time>
      </trkpt>
      <trkpt lat="46.20054" lon="6.76262">
        <ele>1692.54</ele>
        <time>2015-06-26T09:06:12Z</time>
      </trkpt>
      <trkpt lat="46.20054" lon="6.76291">
        <ele>1689.17</ele>
        <time>2015-06-26T09:06:16Z</time>
      </trkpt>
      <trkpt lat="46.20054" lon="6.7631">
        <ele>1688.69</ele>
        <time>2015-06-26T09:06:18Z</time>
      </trkpt>
      <trkpt lat="46.20057" lon="6.76366">
        <ele>1688.69</ele>
        <time>2015-06-26T09:06:24Z</time>
      </trkpt>
      <trkpt lat="46.20059" lon="6.76383">
        <ele>1688.69</ele>
        <time>2015-06-26T09:06:26Z</time>
      </trkpt>
      <trkpt lat="46.20076" lon="6.76435">
        <ele>1688.69</ele>
        <time>2015-06-26T09:06:33Z</time>
      </trkpt>
      <trkpt lat="46.20075" lon="6.7645">
        <ele>1686.29</ele>
        <time>2015-06-26T09:06:35Z</time>
      </trkpt>
      <trkpt lat="46.2007" lon="6.76481">
        <ele>1680.52</ele>
        <time>2015-06-26T09:06:39Z</time>
      </trkpt>
      <trkpt lat="46.20074" lon="6.76498">
        <ele>1677.16</ele>
        <time>2015-06-26T09:06:42Z</time>
      </trkpt>
      <trkpt lat="46.20089" lon="6.76504">
        <ele>1673.79</ele>
        <time>2015-06-26T09:06:47Z</time>
      </trkpt>
      <trkpt lat="46.20089" lon="6.76504">
        <ele>1674.27</ele>
        <time>2015-06-26T09:07:00Z</time>
      </trkpt>
      <trkpt lat="46.20094" lon="6.76517">
        <ele>1673.79</ele>
        <time>2015-06-26T09:07:04Z</time>
      </trkpt>
      <trkpt lat="46.2011" lon="6.76545">
        <ele>1670.43</ele>
        <time>2015-06-26T09:07:08Z</time>
      </trkpt>
      <trkpt lat="46.20119" lon="6.76559">
        <ele>1668.02</ele>
        <time>2015-06-26T09:07:10Z</time>
      </trkpt>
      <trkpt lat="46.20123" lon="6.76605">
        <ele>1665.62</ele>
        <time>2015-06-26T09:07:16Z</time>
      </trkpt>
      <trkpt lat="46.20114" lon="6.76651">
        <ele>1665.62</ele>
        <time>2015-06-26T09:07:20Z</time>
      </trkpt>
      <trkpt lat="46.20113" lon="6.76675">
        <ele>1665.62</ele>
        <time>2015-06-26T09:07:22Z</time>
      </trkpt>
      <trkpt lat="46.20106" lon="6.76709">
        <ele>1664.18</ele>
        <time>2015-06-26T09:07:25Z</time>
      </trkpt>
      <trkpt lat="46.20102" lon="6.76731">
        <ele>1662.26</ele>
        <time>2015-06-26T09:07:27Z</time>
      </trkpt>
      <trkpt lat="46.20103" lon="6.76772">
        <ele>1657.45</ele>
        <time>2015-06-26T09:07:31Z</time>
      </trkpt>
      <trkpt lat="46.20096" lon="6.76822">
        <ele>1654.57</ele>
        <time>2015-06-26T09:07:36Z</time>
      </trkpt>
      <trkpt lat="46.20107" lon="6.76821">
        <ele>1654.57</ele>
        <time>2015-06-26T09:07:40Z</time>
      </trkpt>
      <trkpt lat="46.20127" lon="6.76824">
        <ele>1653.12</ele>
        <time>2015-06-26T09:07:45Z</time>
      </trkpt>
      <trkpt lat="46.20143" lon="6.76844">
        <ele>1649.76</ele>
        <time>2015-06-26T09:07:48Z</time>
      </trkpt>
      <trkpt lat="46.2016" lon="6.76872">
        <ele>1642.07</ele>
        <time>2015-06-26T09:07:52Z</time>
      </trkpt>
      <trkpt lat="46.20172" lon="6.76876">
        <ele>1638.7</ele>
        <time>2015-06-26T09:07:54Z</time>
      </trkpt>
      <trkpt lat="46.20179" lon="6.76877">
        <ele>1637.74</ele>
        <time>2015-06-26T09:07:55Z</time>
      </trkpt>
      <trkpt lat="46.20202" lon="6.7688">
        <ele>1637.74</ele>
        <time>2015-06-26T09:07:58Z</time>
      </trkpt>
      <trkpt lat="46.20223" lon="6.7689">
        <ele>1637.74</ele>
        <time>2015-06-26T09:08:01Z</time>
      </trkpt>
      <trkpt lat="46.20279" lon="6.76887">
        <ele>1637.74</ele>
        <time>2015-06-26T09:08:11Z</time>
      </trkpt>
      <trkpt lat="46.203" lon="6.76886">
        <ele>1637.74</ele>
        <time>2015-06-26T09:08:18Z</time>
      </trkpt>
      <trkpt lat="46.20353" lon="6.76882">
        <ele>1637.26</ele>
        <time>2015-06-26T09:08:29Z</time>
      </trkpt>
      <trkpt lat="46.20378" lon="6.76873">
        <ele>1637.26</ele>
        <time>2015-06-26T09:08:38Z</time>
      </trkpt>
      <trkpt lat="46.20393" lon="6.76866">
        <ele>1637.26</ele>
        <time>2015-06-26T09:08:42Z</time>
      </trkpt>
      <trkpt lat="46.20417" lon="6.76847">
        <ele>1636.78</ele>
        <time>2015-06-26T09:08:48Z</time>
      </trkpt>
      <trkpt lat="46.20443" lon="6.76851">
        <ele>1634.86</ele>
        <time>2015-06-26T09:08:53Z</time>
      </trkpt>
      <trkpt lat="46.20462" lon="6.76863">
        <ele>1631.01</ele>
        <time>2015-06-26T09:08:56Z</time>
      </trkpt>
      <trkpt lat="46.20478" lon="6.76866">
        <ele>1625.73</ele>
        <time>2015-06-26T09:08:59Z</time>
      </trkpt>
      <trkpt lat="46.20488" lon="6.76885">
        <ele>1621.88</ele>
        <time>2015-06-26T09:09:02Z</time>
      </trkpt>
      <trkpt lat="46.20489" lon="6.76908">
        <ele>1619.96</ele>
        <time>2015-06-26T09:09:05Z</time>
      </trkpt>
      <trkpt lat="46.2049" lon="6.76917">
        <ele>1620.92</ele>
        <time>2015-06-26T09:09:06Z</time>
      </trkpt>
      <trkpt lat="46.20494" lon="6.76945">
        <ele>1620.92</ele>
        <time>2015-06-26T09:09:09Z</time>
      </trkpt>
      <trkpt lat="46.20491" lon="6.76996">
        <ele>1620.92</ele>
        <time>2015-06-26T09:09:14Z</time>
      </trkpt>
      <trkpt lat="46.2049" lon="6.77015">
        <ele>1620.92</ele>
        <time>2015-06-26T09:09:16Z</time>
      </trkpt>
      <trkpt lat="46.20499" lon="6.77075">
        <ele>1617.56</ele>
        <time>2015-06-26T09:09:22Z</time>
      </trkpt>
      <trkpt lat="46.20488" lon="6.77129">
        <ele>1611.79</ele>
        <time>2015-06-26T09:09:27Z</time>
      </trkpt>
      <trkpt lat="46.20487" lon="6.77152">
        <ele>1610.35</ele>
        <time>2015-06-26T09:09:29Z</time>
      </trkpt>
      <trkpt lat="46.2048" lon="6.77192">
        <ele>1614.19</ele>
        <time>2015-06-26T09:09:36Z</time>
      </trkpt>
      <trkpt lat="46.20479" lon="6.77199">
        <ele>1617.07</ele>
        <time>2015-06-26T09:09:39Z</time>
      </trkpt>
      <trkpt lat="46.20479" lon="6.77211">
        <ele>1618.52</ele>
        <time>2015-06-26T09:09:51Z</time>
      </trkpt>
      <trkpt lat="46.2048" lon="6.77217">
        <ele>1618.52</ele>
        <time>2015-06-26T09:09:55Z</time>
      </trkpt>
      <trkpt lat="46.20487" lon="6.77239">
        <ele>1617.56</ele>
        <time>2015-06-26T09:10:02Z</time>
      </trkpt>
      <trkpt lat="46.20464" lon="6.77317">
        <ele>1613.71</ele>
        <time>2015-06-26T09:10:11Z</time>
      </trkpt>
      <trkpt lat="46.20461" lon="6.77326">
        <ele>1612.75</ele>
        <time>2015-06-26T09:10:12Z</time>
      </trkpt>
      <trkpt lat="46.2044" lon="6.77363">
        <ele>1606.98</ele>
        <time>2015-06-26T09:10:16Z</time>
      </trkpt>
      <trkpt lat="46.20425" lon="6.77389">
        <ele>1604.1</ele>
        <time>2015-06-26T09:10:19Z</time>
      </trkpt>
      <trkpt lat="46.20384" lon="6.7744">
        <ele>1601.21</ele>
        <time>2015-06-26T09:10:27Z</time>
      </trkpt>
      <trkpt lat="46.20372" lon="6.77466">
        <ele>1601.21</ele>
        <time>2015-06-26T09:10:31Z</time>
      </trkpt>
      <trkpt lat="46.20371" lon="6.7747">
        <ele>1601.21</ele>
        <time>2015-06-26T09:10:36Z</time>
      </trkpt>
      <trkpt lat="46.20371" lon="6.7747">
        <ele>1601.21</ele>
        <time>2015-06-26T09:10:38Z</time>
      </trkpt>
      <trkpt lat="46.20373" lon="6.77469">
        <ele>1601.21</ele>
        <time>2015-06-26T09:10:48Z</time>
      </trkpt>
      <trkpt lat="46.20373" lon="6.77469">
        <ele>1600.73</ele>
        <time>2015-06-26T09:11:03Z</time>
      </trkpt>
      <trkpt lat="46.20373" lon="6.7747">
        <ele>1600.73</ele>
        <time>2015-06-26T09:11:25Z</time>
      </trkpt>
      <trkpt lat="46.20373" lon="6.7747">
        <ele>1600.73</ele>
        <time>2015-06-26T09:11:35Z</time>
      </trkpt>
      <trkpt lat="46.20365" lon="6.77504">
        <ele>1600.73</ele>
        <time>2015-06-26T09:11:43Z</time>
      </trkpt>
      <trkpt lat="46.20366" lon="6.77519">
        <ele>1600.73</ele>
        <time>2015-06-26T09:11:45Z</time>
      </trkpt>
      <trkpt lat="46.20367" lon="6.77556">
        <ele>1600.73</ele>
        <time>2015-06-26T09:11:49Z</time>
      </trkpt>
      <trkpt lat="46.20365" lon="6.77613">
        <ele>1597.85</ele>
        <time>2015-06-26T09:11:55Z</time>
      </trkpt>
      <trkpt lat="46.20367" lon="6.7762">
        <ele>1596.89</ele>
        <time>2015-06-26T09:11:56Z</time>
      </trkpt>
      <trkpt lat="46.20382" lon="6.77646">
        <ele>1594.48</ele>
        <time>2015-06-26T09:12:02Z</time>
      </trkpt>
      <trkpt lat="46.20389" lon="6.77656">
        <ele>1595.93</ele>
        <time>2015-06-26T09:12:05Z</time>
      </trkpt>
      <trkpt lat="46.20377" lon="6.77705">
        <ele>1598.81</ele>
        <time>2015-06-26T09:12:13Z</time>
      </trkpt>
      <trkpt lat="46.20361" lon="6.77732">
        <ele>1595.45</ele>
        <time>2015-06-26T09:12:18Z</time>
      </trkpt>
      <trkpt lat="46.20354" lon="6.77742">
        <ele>1594.96</ele>
        <time>2015-06-26T09:12:20Z</time>
      </trkpt>
      <trkpt lat="46.2034" lon="6.7777">
        <ele>1594</ele>
        <time>2015-06-26T09:12:25Z</time>
      </trkpt>
      <trkpt lat="46.20335" lon="6.77783">
        <ele>1594</ele>
        <time>2015-06-26T09:12:27Z</time>
      </trkpt>
      <trkpt lat="46.20337" lon="6.77838">
        <ele>1594</ele>
        <time>2015-06-26T09:12:35Z</time>
      </trkpt>
      <trkpt lat="46.20343" lon="6.77867">
        <ele>1594</ele>
        <time>2015-06-26T09:12:39Z</time>
      </trkpt>
      <trkpt lat="46.20346" lon="6.77881">
        <ele>1594</ele>
        <time>2015-06-26T09:12:41Z</time>
      </trkpt>
      <trkpt lat="46.20341" lon="6.7792">
        <ele>1594</ele>
        <time>2015-06-26T09:12:48Z</time>
      </trkpt>
      <trkpt lat="46.20328" lon="6.77927">
        <ele>1594</ele>
        <time>2015-06-26T09:12:53Z</time>
      </trkpt>
      <trkpt lat="46.20318" lon="6.77931">
        <ele>1595.45</ele>
        <time>2015-06-26T09:12:56Z</time>
      </trkpt>
      <trkpt lat="46.20307" lon="6.77943">
        <ele>1595.45</ele>
        <time>2015-06-26T09:12:59Z</time>
      </trkpt>
      <trkpt lat="46.20292" lon="6.77979">
        <ele>1595.45</ele>
        <time>2015-06-26T09:13:05Z</time>
      </trkpt>
      <trkpt lat="46.20291" lon="6.78012">
        <ele>1595.45</ele>
        <time>2015-06-26T09:13:10Z</time>
      </trkpt>
      <trkpt lat="46.20292" lon="6.78024">
        <ele>1595.45</ele>
        <time>2015-06-26T09:13:12Z</time>
      </trkpt>
      <trkpt lat="46.2028" lon="6.78045">
        <ele>1595.45</ele>
        <time>2015-06-26T09:13:17Z</time>
      </trkpt>
      <trkpt lat="46.20249" lon="6.78079">
        <ele>1594.48</ele>
        <time>2015-06-26T09:13:26Z</time>
      </trkpt>
      <trkpt lat="46.20229" lon="6.78117">
        <ele>1594</ele>
        <time>2015-06-26T09:13:34Z</time>
      </trkpt>
      <trkpt lat="46.20223" lon="6.78137">
        <ele>1594</ele>
        <time>2015-06-26T09:13:39Z</time>
      </trkpt>
      <trkpt lat="46.20221" lon="6.78148">
        <ele>1594</ele>
        <time>2015-06-26T09:13:41Z</time>
      </trkpt>
      <trkpt lat="46.20208" lon="6.78178">
        <ele>1594.48</ele>
        <time>2015-06-26T09:13:47Z</time>
      </trkpt>
      <trkpt lat="46.20189" lon="6.78205">
        <ele>1594.48</ele>
        <time>2015-06-26T09:13:53Z</time>
      </trkpt>
      <trkpt lat="46.20174" lon="6.7823">
        <ele>1594.48</ele>
        <time>2015-06-26T09:13:58Z</time>
      </trkpt>
      <trkpt lat="46.20162" lon="6.78249">
        <ele>1594</ele>
        <time>2015-06-26T09:14:02Z</time>
      </trkpt>
      <trkpt lat="46.20147" lon="6.78268">
        <ele>1594</ele>
        <time>2015-06-26T09:14:06Z</time>
      </trkpt>
      <trkpt lat="46.20119" lon="6.78319">
        <ele>1594</ele>
        <time>2015-06-26T09:14:16Z</time>
      </trkpt>
      <trkpt lat="46.20119" lon="6.78322">
        <ele>1594</ele>
        <time>2015-06-26T09:14:17Z</time>
      </trkpt>
      <trkpt lat="46.2012" lon="6.78322">
        <ele>1594</ele>
        <time>2015-06-26T09:14:19Z</time>
      </trkpt>
      <trkpt lat="46.20128" lon="6.78317">
        <ele>1594</ele>
        <time>2015-06-26T09:14:22Z</time>
      </trkpt>
      <trkpt lat="46.2015" lon="6.78307">
        <ele>1590.64</ele>
        <time>2015-06-26T09:14:28Z</time>
      </trkpt>
      <trkpt lat="46.2016" lon="6.783">
        <ele>1587.27</ele>
        <time>2015-06-26T09:14:31Z</time>
      </trkpt>
      <trkpt lat="46.20166" lon="6.78298">
        <ele>1583.91</ele>
        <time>2015-06-26T09:14:33Z</time>
      </trkpt>
      <trkpt lat="46.20174" lon="6.78285">
        <ele>1578.14</ele>
        <time>2015-06-26T09:14:37Z</time>
      </trkpt>
      <trkpt lat="46.20174" lon="6.78284">
        <ele>1577.18</ele>
        <time>2015-06-26T09:14:38Z</time>
      </trkpt>
      <trkpt lat="46.202" lon="6.78269">
        <ele>1576.22</ele>
        <time>2015-06-26T09:14:46Z</time>
      </trkpt>
      <trkpt lat="46.20215" lon="6.78258">
        <ele>1575.74</ele>
        <time>2015-06-26T09:14:49Z</time>
      </trkpt>
      <trkpt lat="46.2024" lon="6.78246">
        <ele>1569.97</ele>
        <time>2015-06-26T09:14:53Z</time>
      </trkpt>
      <trkpt lat="46.20252" lon="6.78242">
        <ele>1566.61</ele>
        <time>2015-06-26T09:14:55Z</time>
      </trkpt>
      <trkpt lat="46.20271" lon="6.78239">
        <ele>1561.8</ele>
        <time>2015-06-26T09:15:00Z</time>
      </trkpt>
      <trkpt lat="46.20266" lon="6.78255">
        <ele>1558.43</ele>
        <time>2015-06-26T09:15:04Z</time>
      </trkpt>
      <trkpt lat="46.20282" lon="6.78246">
        <ele>1557.47</ele>
        <time>2015-06-26T09:15:08Z</time>
      </trkpt>
      <trkpt lat="46.20295" lon="6.78243">
        <ele>1556.99</ele>
        <time>2015-06-26T09:15:10Z</time>
      </trkpt>
      <trkpt lat="46.20313" lon="6.78246">
        <ele>1555.07</ele>
        <time>2015-06-26T09:15:13Z</time>
      </trkpt>
      <trkpt lat="46.20335" lon="6.78259">
        <ele>1550.74</ele>
        <time>2015-06-26T09:15:18Z</time>
      </trkpt>
      <trkpt lat="46.20343" lon="6.78286">
        <ele>1547.86</ele>
        <time>2015-06-26T09:15:22Z</time>
      </trkpt>
      <trkpt lat="46.20356" lon="6.78285">
        <ele>1547.38</ele>
        <time>2015-06-26T09:15:25Z</time>
      </trkpt>
      <trkpt lat="46.20376" lon="6.78272">
        <ele>1546.42</ele>
        <time>2015-06-26T09:15:29Z</time>
      </trkpt>
      <trkpt lat="46.20387" lon="6.78268">
        <ele>1546.42</ele>
        <time>2015-06-26T09:15:31Z</time>
      </trkpt>
      <trkpt lat="46.20403" lon="6.78249">
        <ele>1546.42</ele>
        <time>2015-06-26T09:15:37Z</time>
      </trkpt>
      <trkpt lat="46.20422" lon="6.78207">
        <ele>1546.42</ele>
        <time>2015-06-26T09:15:48Z</time>
      </trkpt>
      <trkpt lat="46.20446" lon="6.78151">
        <ele>1547.86</ele>
        <time>2015-06-26T09:16:01Z</time>
      </trkpt>
      <trkpt lat="46.20446" lon="6.78146">
        <ele>1547.86</ele>
        <time>2015-06-26T09:16:02Z</time>
      </trkpt>
      <trkpt lat="46.20459" lon="6.78121">
        <ele>1547.86</ele>
        <time>2015-06-26T09:16:07Z</time>
      </trkpt>
      <trkpt lat="46.2048" lon="6.78095">
        <ele>1546.42</ele>
        <time>2015-06-26T09:16:12Z</time>
      </trkpt>
      <trkpt lat="46.20488" lon="6.78086">
        <ele>1539.69</ele>
        <time>2015-06-26T09:16:16Z</time>
      </trkpt>
      <trkpt lat="46.20488" lon="6.78085">
        <ele>1535.84</ele>
        <time>2015-06-26T09:16:18Z</time>
      </trkpt>
      <trkpt lat="46.20503" lon="6.78059">
        <ele>1532</ele>
        <time>2015-06-26T09:16:25Z</time>
      </trkpt>
      <trkpt lat="46.20522" lon="6.78011">
        <ele>1530.08</ele>
        <time>2015-06-26T09:16:32Z</time>
      </trkpt>
      <trkpt lat="46.20527" lon="6.78004">
        <ele>1527.19</ele>
        <time>2015-06-26T09:16:33Z</time>
      </trkpt>
      <trkpt lat="46.2054" lon="6.77983">
        <ele>1518.54</ele>
        <time>2015-06-26T09:16:36Z</time>
      </trkpt>
      <trkpt lat="46.20552" lon="6.77959">
        <ele>1509.41</ele>
        <time>2015-06-26T09:16:39Z</time>
      </trkpt>
      <trkpt lat="46.20561" lon="6.77941">
        <ele>1504.6</ele>
        <time>2015-06-26T09:16:41Z</time>
      </trkpt>
      <trkpt lat="46.20565" lon="6.77932">
        <ele>1504.12</ele>
        <time>2015-06-26T09:16:42Z</time>
      </trkpt>
      <trkpt lat="46.20574" lon="6.77914">
        <ele>1500.76</ele>
        <time>2015-06-26T09:16:44Z</time>
      </trkpt>
      <trkpt lat="46.20605" lon="6.7785">
        <ele>1498.35</ele>
        <time>2015-06-26T09:16:51Z</time>
      </trkpt>
      <trkpt lat="46.20674" lon="6.77777">
        <ele>1501.24</ele>
        <time>2015-06-26T09:17:05Z</time>
      </trkpt>
      <trkpt lat="46.20697" lon="6.77797">
        <ele>1501.24</ele>
        <time>2015-06-26T09:17:13Z</time>
      </trkpt>
      <trkpt lat="46.20697" lon="6.77807">
        <ele>1501.24</ele>
        <time>2015-06-26T09:17:21Z</time>
      </trkpt>
      <trkpt lat="46.20697" lon="6.77807">
        <ele>1501.24</ele>
        <time>2015-06-26T09:17:38Z</time>
      </trkpt>
      <trkpt lat="46.20697" lon="6.77807">
        <ele>1501.24</ele>
        <time>2015-06-26T09:17:39Z</time>
      </trkpt>
      <trkpt lat="46.20699" lon="6.7781">
        <ele>1501.24</ele>
        <time>2015-06-26T09:17:52Z</time>
      </trkpt>
      <trkpt lat="46.20699" lon="6.7781">
        <ele>1501.24</ele>
        <time>2015-06-26T09:18:07Z</time>
      </trkpt>
      <trkpt lat="46.20701" lon="6.77813">
        <ele>1501.24</ele>
        <time>2015-06-26T09:18:23Z</time>
      </trkpt>
      <trkpt lat="46.20704" lon="6.7782">
        <ele>1501.24</ele>
        <time>2015-06-26T09:18:35Z</time>
      </trkpt>
      <trkpt lat="46.2072" lon="6.77866">
        <ele>1501.72</ele>
        <time>2015-06-26T09:18:45Z</time>
      </trkpt>
      <trkpt lat="46.20725" lon="6.77879">
        <ele>1506.04</ele>
        <time>2015-06-26T09:18:48Z</time>
      </trkpt>
      <trkpt lat="46.20728" lon="6.77887">
        <ele>1510.85</ele>
        <time>2015-06-26T09:18:50Z</time>
      </trkpt>
      <trkpt lat="46.20731" lon="6.77895">
        <ele>1516.14</ele>
        <time>2015-06-26T09:18:52Z</time>
      </trkpt>
      <trkpt lat="46.20736" lon="6.77908">
        <ele>1521.42</ele>
        <time>2015-06-26T09:18:55Z</time>
      </trkpt>
      <trkpt lat="46.2074" lon="6.77917">
        <ele>1524.31</ele>
        <time>2015-06-26T09:18:57Z</time>
      </trkpt>
      <trkpt lat="46.20764" lon="6.77979">
        <ele>1528.63</ele>
        <time>2015-06-26T09:19:11Z</time>
      </trkpt>
      <trkpt lat="46.20769" lon="6.77992">
        <ele>1532.96</ele>
        <time>2015-06-26T09:19:14Z</time>
      </trkpt>
      <trkpt lat="46.20773" lon="6.78">
        <ele>1537.29</ele>
        <time>2015-06-26T09:19:16Z</time>
      </trkpt>
      <trkpt lat="46.20776" lon="6.78009">
        <ele>1540.65</ele>
        <time>2015-06-26T09:19:18Z</time>
      </trkpt>
      <trkpt lat="46.20781" lon="6.78022">
        <ele>1543.53</ele>
        <time>2015-06-26T09:19:21Z</time>
      </trkpt>
      <trkpt lat="46.20786" lon="6.78035">
        <ele>1546.9</ele>
        <time>2015-06-26T09:19:24Z</time>
      </trkpt>
      <trkpt lat="46.20792" lon="6.78051">
        <ele>1550.74</ele>
        <time>2015-06-26T09:19:28Z</time>
      </trkpt>
      <trkpt lat="46.20797" lon="6.78064">
        <ele>1554.11</ele>
        <time>2015-06-26T09:19:31Z</time>
      </trkpt>
      <trkpt lat="46.20802" lon="6.78077">
        <ele>1556.99</ele>
        <time>2015-06-26T09:19:34Z</time>
      </trkpt>
      <trkpt lat="46.20808" lon="6.78094">
        <ele>1560.36</ele>
        <time>2015-06-26T09:19:38Z</time>
      </trkpt>
      <trkpt lat="46.20817" lon="6.78116">
        <ele>1563.72</ele>
        <time>2015-06-26T09:19:43Z</time>
      </trkpt>
      <trkpt lat="46.20824" lon="6.78133">
        <ele>1567.57</ele>
        <time>2015-06-26T09:19:47Z</time>
      </trkpt>
      <trkpt lat="46.20828" lon="6.78146">
        <ele>1570.93</ele>
        <time>2015-06-26T09:19:50Z</time>
      </trkpt>
      <trkpt lat="46.20834" lon="6.78159">
        <ele>1574.78</ele>
        <time>2015-06-26T09:19:53Z</time>
      </trkpt>
      <trkpt lat="46.20838" lon="6.78172">
        <ele>1578.62</ele>
        <time>2015-06-26T09:19:56Z</time>
      </trkpt>
      <trkpt lat="46.20843" lon="6.78184">
        <ele>1582.47</ele>
        <time>2015-06-26T09:19:59Z</time>
      </trkpt>
      <trkpt lat="46.20848" lon="6.78196">
        <ele>1586.31</ele>
        <time>2015-06-26T09:20:02Z</time>
      </trkpt>
      <trkpt lat="46.20852" lon="6.78209">
        <ele>1590.64</ele>
        <time>2015-06-26T09:20:05Z</time>
      </trkpt>
      <trkpt lat="46.20857" lon="6.78221">
        <ele>1594.48</ele>
        <time>2015-06-26T09:20:08Z</time>
      </trkpt>
      <trkpt lat="46.2086" lon="6.7823">
        <ele>1597.85</ele>
        <time>2015-06-26T09:20:10Z</time>
      </trkpt>
      <trkpt lat="46.20865" lon="6.78241">
        <ele>1601.21</ele>
        <time>2015-06-26T09:20:13Z</time>
      </trkpt>
      <trkpt lat="46.2087" lon="6.78254">
        <ele>1605.54</ele>
        <time>2015-06-26T09:20:16Z</time>
      </trkpt>
      <trkpt lat="46.20873" lon="6.78262">
        <ele>1608.9</ele>
        <time>2015-06-26T09:20:18Z</time>
      </trkpt>
      <trkpt lat="46.20877" lon="6.7827">
        <ele>1611.79</ele>
        <time>2015-06-26T09:20:20Z</time>
      </trkpt>
      <trkpt lat="46.20879" lon="6.78278">
        <ele>1615.15</ele>
        <time>2015-06-26T09:20:22Z</time>
      </trkpt>
      <trkpt lat="46.20883" lon="6.78286">
        <ele>1618.52</ele>
        <time>2015-06-26T09:20:24Z</time>
      </trkpt>
      <trkpt lat="46.20886" lon="6.78294">
        <ele>1621.88</ele>
        <time>2015-06-26T09:20:26Z</time>
      </trkpt>
      <trkpt lat="46.20889" lon="6.78302">
        <ele>1625.25</ele>
        <time>2015-06-26T09:20:28Z</time>
      </trkpt>
      <trkpt lat="46.20892" lon="6.7831">
        <ele>1628.61</ele>
        <time>2015-06-26T09:20:30Z</time>
      </trkpt>
      <trkpt lat="46.20895" lon="6.78318">
        <ele>1631.98</ele>
        <time>2015-06-26T09:20:32Z</time>
      </trkpt>
      <trkpt lat="46.20898" lon="6.78326">
        <ele>1634.86</ele>
        <time>2015-06-26T09:20:34Z</time>
      </trkpt>
      <trkpt lat="46.20902" lon="6.78334">
        <ele>1639.19</ele>
        <time>2015-06-26T09:20:36Z</time>
      </trkpt>
      <trkpt lat="46.20905" lon="6.78342">
        <ele>1642.55</ele>
        <time>2015-06-26T09:20:38Z</time>
      </trkpt>
      <trkpt lat="46.20909" lon="6.78353">
        <ele>1646.88</ele>
        <time>2015-06-26T09:20:41Z</time>
      </trkpt>
      <trkpt lat="46.20912" lon="6.78361">
        <ele>1650.24</ele>
        <time>2015-06-26T09:20:43Z</time>
      </trkpt>
      <trkpt lat="46.20915" lon="6.78369">
        <ele>1654.57</ele>
        <time>2015-06-26T09:20:45Z</time>
      </trkpt>
      <trkpt lat="46.20918" lon="6.78376">
        <ele>1658.41</ele>
        <time>2015-06-26T09:20:47Z</time>
      </trkpt>
      <trkpt lat="46.20921" lon="6.78384">
        <ele>1662.26</ele>
        <time>2015-06-26T09:20:49Z</time>
      </trkpt>
      <trkpt lat="46.20924" lon="6.78392">
        <ele>1666.1</ele>
        <time>2015-06-26T09:20:51Z</time>
      </trkpt>
      <trkpt lat="46.20927" lon="6.78399">
        <ele>1669.95</ele>
        <time>2015-06-26T09:20:53Z</time>
      </trkpt>
      <trkpt lat="46.2093" lon="6.78407">
        <ele>1674.27</ele>
        <time>2015-06-26T09:20:55Z</time>
      </trkpt>
      <trkpt lat="46.20933" lon="6.78414">
        <ele>1678.12</ele>
        <time>2015-06-26T09:20:57Z</time>
      </trkpt>
      <trkpt lat="46.20935" lon="6.78421">
        <ele>1682.44</ele>
        <time>2015-06-26T09:20:59Z</time>
      </trkpt>
      <trkpt lat="46.20938" lon="6.78429">
        <ele>1686.77</ele>
        <time>2015-06-26T09:21:01Z</time>
      </trkpt>
      <trkpt lat="46.20941" lon="6.78437">
        <ele>1691.1</ele>
        <time>2015-06-26T09:21:03Z</time>
      </trkpt>
      <trkpt lat="46.20945" lon="6.78445">
        <ele>1694.94</ele>
        <time>2015-06-26T09:21:05Z</time>
      </trkpt>
      <trkpt lat="46.20946" lon="6.78449">
        <ele>1694.94</ele>
        <time>2015-06-26T09:21:06Z</time>
      </trkpt>
      <trkpt lat="46.20949" lon="6.78457">
        <ele>1698.31</ele>
        <time>2015-06-26T09:21:08Z</time>
      </trkpt>
      <trkpt lat="46.20954" lon="6.78468">
        <ele>1703.11</ele>
        <time>2015-06-26T09:21:11Z</time>
      </trkpt>
      <trkpt lat="46.20958" lon="6.7848">
        <ele>1707.44</ele>
        <time>2015-06-26T09:21:14Z</time>
      </trkpt>
      <trkpt lat="46.20961" lon="6.78488">
        <ele>1710.32</ele>
        <time>2015-06-26T09:21:16Z</time>
      </trkpt>
      <trkpt lat="46.20964" lon="6.78496">
        <ele>1714.17</ele>
        <time>2015-06-26T09:21:18Z</time>
      </trkpt>
      <trkpt lat="46.20967" lon="6.78504">
        <ele>1718.01</ele>
        <time>2015-06-26T09:21:20Z</time>
      </trkpt>
      <trkpt lat="46.2097" lon="6.78512">
        <ele>1721.86</ele>
        <time>2015-06-26T09:21:22Z</time>
      </trkpt>
      <trkpt lat="46.20973" lon="6.7852">
        <ele>1726.18</ele>
        <time>2015-06-26T09:21:24Z</time>
      </trkpt>
      <trkpt lat="46.20976" lon="6.78527">
        <ele>1730.03</ele>
        <time>2015-06-26T09:21:26Z</time>
      </trkpt>
      <trkpt lat="46.20979" lon="6.78535">
        <ele>1734.36</ele>
        <time>2015-06-26T09:21:28Z</time>
      </trkpt>
      <trkpt lat="46.20982" lon="6.78543">
        <ele>1738.2</ele>
        <time>2015-06-26T09:21:30Z</time>
      </trkpt>
      <trkpt lat="46.20986" lon="6.78554">
        <ele>1742.53</ele>
        <time>2015-06-26T09:21:33Z</time>
      </trkpt>
      <trkpt lat="46.20989" lon="6.78562">
        <ele>1745.89</ele>
        <time>2015-06-26T09:21:35Z</time>
      </trkpt>
      <trkpt lat="46.20992" lon="6.78569">
        <ele>1750.22</ele>
        <time>2015-06-26T09:21:37Z</time>
      </trkpt>
      <trkpt lat="46.20995" lon="6.78576">
        <ele>1754.06</ele>
        <time>2015-06-26T09:21:39Z</time>
      </trkpt>
      <trkpt lat="46.20998" lon="6.78584">
        <ele>1758.39</ele>
        <time>2015-06-26T09:21:41Z</time>
      </trkpt>
      <trkpt lat="46.21001" lon="6.78592">
        <ele>1762.23</ele>
        <time>2015-06-26T09:21:43Z</time>
      </trkpt>
      <trkpt lat="46.21005" lon="6.786">
        <ele>1766.08</ele>
        <time>2015-06-26T09:21:45Z</time>
      </trkpt>
      <trkpt lat="46.21008" lon="6.78609">
        <ele>1768.96</ele>
        <time>2015-06-26T09:21:47Z</time>
      </trkpt>
      <trkpt lat="46.21013" lon="6.78622">
        <ele>1772.81</ele>
        <time>2015-06-26T09:21:50Z</time>
      </trkpt>
      <trkpt lat="46.21018" lon="6.78634">
        <ele>1775.69</ele>
        <time>2015-06-26T09:21:53Z</time>
      </trkpt>
      <trkpt lat="46.21022" lon="6.78646">
        <ele>1779.54</ele>
        <time>2015-06-26T09:21:56Z</time>
      </trkpt>
      <trkpt lat="46.21027" lon="6.78658">
        <ele>1783.38</ele>
        <time>2015-06-26T09:21:59Z</time>
      </trkpt>
      <trkpt lat="46.2103" lon="6.78666">
        <ele>1786.75</ele>
        <time>2015-06-26T09:22:01Z</time>
      </trkpt>
      <trkpt lat="46.21033" lon="6.78674">
        <ele>1790.59</ele>
        <time>2015-06-26T09:22:03Z</time>
      </trkpt>
      <trkpt lat="46.21036" lon="6.78682">
        <ele>1794.44</ele>
        <time>2015-06-26T09:22:05Z</time>
      </trkpt>
      <trkpt lat="46.21039" lon="6.7869">
        <ele>1797.8</ele>
        <time>2015-06-26T09:22:07Z</time>
      </trkpt>
      <trkpt lat="46.21042" lon="6.78698">
        <ele>1801.17</ele>
        <time>2015-06-26T09:22:09Z</time>
      </trkpt>
      <trkpt lat="46.21046" lon="6.78706">
        <ele>1804.53</ele>
        <time>2015-06-26T09:22:11Z</time>
      </trkpt>
      <trkpt lat="46.2105" lon="6.78719">
        <ele>1808.38</ele>
        <time>2015-06-26T09:22:14Z</time>
      </trkpt>
      <trkpt lat="46.21057" lon="6.78736">
        <ele>1811.74</ele>
        <time>2015-06-26T09:22:18Z</time>
      </trkpt>
      <trkpt lat="46.21062" lon="6.78748">
        <ele>1814.63</ele>
        <time>2015-06-26T09:22:21Z</time>
      </trkpt>
      <trkpt lat="46.21068" lon="6.78765">
        <ele>1818.95</ele>
        <time>2015-06-26T09:22:25Z</time>
      </trkpt>
      <trkpt lat="46.21073" lon="6.78777">
        <ele>1823.76</ele>
        <time>2015-06-26T09:22:28Z</time>
      </trkpt>
      <trkpt lat="46.21076" lon="6.78786">
        <ele>1827.12</ele>
        <time>2015-06-26T09:22:30Z</time>
      </trkpt>
      <trkpt lat="46.21079" lon="6.78794">
        <ele>1830.49</ele>
        <time>2015-06-26T09:22:32Z</time>
      </trkpt>
      <trkpt lat="46.21082" lon="6.78802">
        <ele>1833.37</ele>
        <time>2015-06-26T09:22:34Z</time>
      </trkpt>
      <trkpt lat="46.21085" lon="6.7881">
        <ele>1836.74</ele>
        <time>2015-06-26T09:22:36Z</time>
      </trkpt>
      <trkpt lat="46.2109" lon="6.78822">
        <ele>1841.06</ele>
        <time>2015-06-26T09:22:39Z</time>
      </trkpt>
      <trkpt lat="46.21095" lon="6.78835">
        <ele>1845.39</ele>
        <time>2015-06-26T09:22:42Z</time>
      </trkpt>
      <trkpt lat="46.211" lon="6.78847">
        <ele>1849.23</ele>
        <time>2015-06-26T09:22:45Z</time>
      </trkpt>
      <trkpt lat="46.21103" lon="6.78856">
        <ele>1852.6</ele>
        <time>2015-06-26T09:22:47Z</time>
      </trkpt>
      <trkpt lat="46.21108" lon="6.78868">
        <ele>1856.44</ele>
        <time>2015-06-26T09:22:50Z</time>
      </trkpt>
      <trkpt lat="46.21109" lon="6.78872">
        <ele>1856.44</ele>
        <time>2015-06-26T09:22:51Z</time>
      </trkpt>
      <trkpt lat="46.21114" lon="6.78885">
        <ele>1860.29</ele>
        <time>2015-06-26T09:22:54Z</time>
      </trkpt>
      <trkpt lat="46.21119" lon="6.78897">
        <ele>1864.13</ele>
        <time>2015-06-26T09:22:57Z</time>
      </trkpt>
      <trkpt lat="46.21124" lon="6.78909">
        <ele>1868.46</ele>
        <time>2015-06-26T09:23:00Z</time>
      </trkpt>
      <trkpt lat="46.21127" lon="6.78918">
        <ele>1871.82</ele>
        <time>2015-06-26T09:23:02Z</time>
      </trkpt>
      <trkpt lat="46.2113" lon="6.78926">
        <ele>1875.19</ele>
        <time>2015-06-26T09:23:04Z</time>
      </trkpt>
      <trkpt lat="46.21133" lon="6.78934">
        <ele>1878.07</ele>
        <time>2015-06-26T09:23:06Z</time>
      </trkpt>
      <trkpt lat="46.21136" lon="6.78942">
        <ele>1881.44</ele>
        <time>2015-06-26T09:23:08Z</time>
      </trkpt>
      <trkpt lat="46.2114" lon="6.78951">
        <ele>1884.8</ele>
        <time>2015-06-26T09:23:10Z</time>
      </trkpt>
      <trkpt lat="46.21143" lon="6.78959">
        <ele>1887.69</ele>
        <time>2015-06-26T09:23:12Z</time>
      </trkpt>
      <trkpt lat="46.21146" lon="6.78967">
        <ele>1891.05</ele>
        <time>2015-06-26T09:23:14Z</time>
      </trkpt>
      <trkpt lat="46.21149" lon="6.78976">
        <ele>1894.42</ele>
        <time>2015-06-26T09:23:16Z</time>
      </trkpt>
      <trkpt lat="46.21153" lon="6.78987">
        <ele>1898.26</ele>
        <time>2015-06-26T09:23:19Z</time>
      </trkpt>
      <trkpt lat="46.21157" lon="6.78996">
        <ele>1901.14</ele>
        <time>2015-06-26T09:23:21Z</time>
      </trkpt>
      <trkpt lat="46.21162" lon="6.79009">
        <ele>1904.99</ele>
        <time>2015-06-26T09:23:24Z</time>
      </trkpt>
      <trkpt lat="46.21172" lon="6.79029">
        <ele>1902.11</ele>
        <time>2015-06-26T09:23:33Z</time>
      </trkpt>
      <trkpt lat="46.21176" lon="6.79041">
        <ele>1900.18</ele>
        <time>2015-06-26T09:23:45Z</time>
      </trkpt>
      <trkpt lat="46.21183" lon="6.79043">
        <ele>1900.66</ele>
        <time>2015-06-26T09:23:54Z</time>
      </trkpt>
      <trkpt lat="46.21186" lon="6.7904">
        <ele>1900.66</ele>
        <time>2015-06-26T09:24:20Z</time>
      </trkpt>
      <trkpt lat="46.21218" lon="6.79019">
        <ele>1900.18</ele>
        <time>2015-06-26T09:24:32Z</time>
      </trkpt>
      <trkpt lat="46.21254" lon="6.78998">
        <ele>1898.74</ele>
        <time>2015-06-26T09:24:45Z</time>
      </trkpt>
      <trkpt lat="46.21267" lon="6.78957">
        <ele>1898.74</ele>
        <time>2015-06-26T09:24:56Z</time>
      </trkpt>
      <trkpt lat="46.2129" lon="6.78896">
        <ele>1898.74</ele>
        <time>2015-06-26T09:25:11Z</time>
      </trkpt>
      <trkpt lat="46.21299" lon="6.78876">
        <ele>1898.74</ele>
        <time>2015-06-26T09:25:15Z</time>
      </trkpt>
      <trkpt lat="46.21314" lon="6.78854">
        <ele>1897.78</ele>
        <time>2015-06-26T09:25:20Z</time>
      </trkpt>
      <trkpt lat="46.21338" lon="6.7882">
        <ele>1896.82</ele>
        <time>2015-06-26T09:25:29Z</time>
      </trkpt>
      <trkpt lat="46.21377" lon="6.78739">
        <ele>1893.93</ele>
        <time>2015-06-26T09:25:40Z</time>
      </trkpt>
      <trkpt lat="46.21385" lon="6.78718">
        <ele>1891.53</ele>
        <time>2015-06-26T09:25:42Z</time>
      </trkpt>
      <trkpt lat="46.21408" lon="6.78683">
        <ele>1887.21</ele>
        <time>2015-06-26T09:25:46Z</time>
      </trkpt>
      <trkpt lat="46.21443" lon="6.78645">
        <ele>1883.84</ele>
        <time>2015-06-26T09:25:51Z</time>
      </trkpt>
      <trkpt lat="46.21484" lon="6.78593">
        <ele>1879.51</ele>
        <time>2015-06-26T09:25:56Z</time>
      </trkpt>
      <trkpt lat="46.2151" lon="6.78574">
        <ele>1876.15</ele>
        <time>2015-06-26T09:25:59Z</time>
      </trkpt>
      <trkpt lat="46.21519" lon="6.78568">
        <ele>1875.67</ele>
        <time>2015-06-26T09:26:01Z</time>
      </trkpt>
      <trkpt lat="46.2153" lon="6.78559">
        <ele>1878.55</ele>
        <time>2015-06-26T09:26:05Z</time>
      </trkpt>
      <trkpt lat="46.21535" lon="6.78553">
        <ele>1881.44</ele>
        <time>2015-06-26T09:26:07Z</time>
      </trkpt>
      <trkpt lat="46.21539" lon="6.78546">
        <ele>1884.8</ele>
        <time>2015-06-26T09:26:09Z</time>
      </trkpt>
      <trkpt lat="46.21545" lon="6.78536">
        <ele>1887.69</ele>
        <time>2015-06-26T09:26:12Z</time>
      </trkpt>
      <trkpt lat="46.21547" lon="6.78532">
        <ele>1888.17</ele>
        <time>2015-06-26T09:26:13Z</time>
      </trkpt>
      <trkpt lat="46.21557" lon="6.78513">
        <ele>1885.28</ele>
        <time>2015-06-26T09:26:19Z</time>
      </trkpt>
      <trkpt lat="46.21583" lon="6.78461">
        <ele>1883.36</ele>
        <time>2015-06-26T09:26:28Z</time>
      </trkpt>
      <trkpt lat="46.2161" lon="6.78415">
        <ele>1883.36</ele>
        <time>2015-06-26T09:26:34Z</time>
      </trkpt>
      <trkpt lat="46.21622" lon="6.78366">
        <ele>1883.36</ele>
        <time>2015-06-26T09:26:39Z</time>
      </trkpt>
      <trkpt lat="46.21629" lon="6.78317">
        <ele>1883.36</ele>
        <time>2015-06-26T09:26:44Z</time>
      </trkpt>
      <trkpt lat="46.21631" lon="6.78273">
        <ele>1883.36</ele>
        <time>2015-06-26T09:26:50Z</time>
      </trkpt>
      <trkpt lat="46.2163" lon="6.78256">
        <ele>1883.36</ele>
        <time>2015-06-26T09:26:52Z</time>
      </trkpt>
      <trkpt lat="46.2163" lon="6.78216">
        <ele>1883.36</ele>
        <time>2015-06-26T09:26:57Z</time>
      </trkpt>
      <trkpt lat="46.21629" lon="6.7816">
        <ele>1879.03</ele>
        <time>2015-06-26T09:27:03Z</time>
      </trkpt>
      <trkpt lat="46.21633" lon="6.78121">
        <ele>1878.55</ele>
        <time>2015-06-26T09:27:10Z</time>
      </trkpt>
      <trkpt lat="46.21654" lon="6.78078">
        <ele>1880</ele>
        <time>2015-06-26T09:27:16Z</time>
      </trkpt>
      <trkpt lat="46.21672" lon="6.78042">
        <ele>1875.19</ele>
        <time>2015-06-26T09:27:21Z</time>
      </trkpt>
      <trkpt lat="46.21682" lon="6.78026">
        <ele>1873.27</ele>
        <time>2015-06-26T09:27:24Z</time>
      </trkpt>
      <trkpt lat="46.21694" lon="6.78002">
        <ele>1877.59</ele>
        <time>2015-06-26T09:27:31Z</time>
      </trkpt>
      <trkpt lat="46.21706" lon="6.77992">
        <ele>1880</ele>
        <time>2015-06-26T09:27:36Z</time>
      </trkpt>
      <trkpt lat="46.21729" lon="6.77971">
        <ele>1876.15</ele>
        <time>2015-06-26T09:27:41Z</time>
      </trkpt>
      <trkpt lat="46.21752" lon="6.77948">
        <ele>1870.86</ele>
        <time>2015-06-26T09:27:45Z</time>
      </trkpt>
      <trkpt lat="46.21774" lon="6.77927">
        <ele>1865.58</ele>
        <time>2015-06-26T09:27:49Z</time>
      </trkpt>
      <trkpt lat="46.2178" lon="6.77922">
        <ele>1864.13</ele>
        <time>2015-06-26T09:27:50Z</time>
      </trkpt>
      <trkpt lat="46.21801" lon="6.77902">
        <ele>1862.69</ele>
        <time>2015-06-26T09:27:54Z</time>
      </trkpt>
      <trkpt lat="46.21822" lon="6.77887">
        <ele>1862.69</ele>
        <time>2015-06-26T09:27:58Z</time>
      </trkpt>
      <trkpt lat="46.21871" lon="6.77832">
        <ele>1860.29</ele>
        <time>2015-06-26T09:28:06Z</time>
      </trkpt>
      <trkpt lat="46.21891" lon="6.77817">
        <ele>1857.89</ele>
        <time>2015-06-26T09:28:09Z</time>
      </trkpt>
      <trkpt lat="46.21904" lon="6.77796">
        <ele>1856.92</ele>
        <time>2015-06-26T09:28:12Z</time>
      </trkpt>
      <trkpt lat="46.21908" lon="6.77818">
        <ele>1858.85</ele>
        <time>2015-06-26T09:28:18Z</time>
      </trkpt>
      <trkpt lat="46.21922" lon="6.77868">
        <ele>1855</ele>
        <time>2015-06-26T09:28:23Z</time>
      </trkpt>
      <trkpt lat="46.21928" lon="6.77885">
        <ele>1851.64</ele>
        <time>2015-06-26T09:28:25Z</time>
      </trkpt>
      <trkpt lat="46.21932" lon="6.77892">
        <ele>1849.71</ele>
        <time>2015-06-26T09:28:26Z</time>
      </trkpt>
      <trkpt lat="46.21939" lon="6.77895">
        <ele>1842.02</ele>
        <time>2015-06-26T09:28:31Z</time>
      </trkpt>
      <trkpt lat="46.21948" lon="6.77886">
        <ele>1838.18</ele>
        <time>2015-06-26T09:28:35Z</time>
      </trkpt>
      <trkpt lat="46.21966" lon="6.77913">
        <ele>1837.22</ele>
        <time>2015-06-26T09:28:39Z</time>
      </trkpt>
      <trkpt lat="46.21978" lon="6.77937">
        <ele>1834.81</ele>
        <time>2015-06-26T09:28:42Z</time>
      </trkpt>
      <trkpt lat="46.21988" lon="6.7798">
        <ele>1831.45</ele>
        <time>2015-06-26T09:28:47Z</time>
      </trkpt>
      <trkpt lat="46.21993" lon="6.77995">
        <ele>1829.05</ele>
        <time>2015-06-26T09:28:51Z</time>
      </trkpt>
      <trkpt lat="46.21992" lon="6.77944">
        <ele>1824.72</ele>
        <time>2015-06-26T09:28:56Z</time>
      </trkpt>
      <trkpt lat="46.21983" lon="6.77901">
        <ele>1820.39</ele>
        <time>2015-06-26T09:29:01Z</time>
      </trkpt>
      <trkpt lat="46.21998" lon="6.77901">
        <ele>1817.51</ele>
        <time>2015-06-26T09:29:06Z</time>
      </trkpt>
      <trkpt lat="46.21997" lon="6.77873">
        <ele>1813.66</ele>
        <time>2015-06-26T09:29:10Z</time>
      </trkpt>
      <trkpt lat="46.21995" lon="6.77847">
        <ele>1810.3</ele>
        <time>2015-06-26T09:29:14Z</time>
      </trkpt>
      <trkpt lat="46.22006" lon="6.77852">
        <ele>1807.42</ele>
        <time>2015-06-26T09:29:17Z</time>
      </trkpt>
      <trkpt lat="46.22014" lon="6.77864">
        <ele>1803.57</ele>
        <time>2015-06-26T09:29:21Z</time>
      </trkpt>
      <trkpt lat="46.22029" lon="6.77896">
        <ele>1801.65</ele>
        <time>2015-06-26T09:29:26Z</time>
      </trkpt>
      <trkpt lat="46.22035" lon="6.77913">
        <ele>1800.21</ele>
        <time>2015-06-26T09:29:28Z</time>
      </trkpt>
      <trkpt lat="46.2205" lon="6.77935">
        <ele>1797.32</ele>
        <time>2015-06-26T09:29:31Z</time>
      </trkpt>
      <trkpt lat="46.2206" lon="6.77966">
        <ele>1792.52</ele>
        <time>2015-06-26T09:29:35Z</time>
      </trkpt>
      <trkpt lat="46.22052" lon="6.77993">
        <ele>1789.15</ele>
        <time>2015-06-26T09:29:38Z</time>
      </trkpt>
      <trkpt lat="46.22039" lon="6.78016">
        <ele>1788.67</ele>
        <time>2015-06-26T09:29:41Z</time>
      </trkpt>
      <trkpt lat="46.22029" lon="6.78056">
        <ele>1791.55</ele>
        <time>2015-06-26T09:29:46Z</time>
      </trkpt>
      <trkpt lat="46.22026" lon="6.78094">
        <ele>1794.92</ele>
        <time>2015-06-26T09:29:50Z</time>
      </trkpt>
      <trkpt lat="46.22028" lon="6.78125">
        <ele>1795.4</ele>
        <time>2015-06-26T09:29:53Z</time>
      </trkpt>
      <trkpt lat="46.22035" lon="6.78156">
        <ele>1794.92</ele>
        <time>2015-06-26T09:29:56Z</time>
      </trkpt>
      <trkpt lat="46.22041" lon="6.78183">
        <ele>1793.96</ele>
        <time>2015-06-26T09:29:59Z</time>
      </trkpt>
      <trkpt lat="46.2204" lon="6.78212">
        <ele>1793</ele>
        <time>2015-06-26T09:30:02Z</time>
      </trkpt>
      <trkpt lat="46.22034" lon="6.78239">
        <ele>1790.11</ele>
        <time>2015-06-26T09:30:05Z</time>
      </trkpt>
      <trkpt lat="46.2203" lon="6.78264">
        <ele>1787.71</ele>
        <time>2015-06-26T09:30:08Z</time>
      </trkpt>
      <trkpt lat="46.22024" lon="6.78292">
        <ele>1787.23</ele>
        <time>2015-06-26T09:30:11Z</time>
      </trkpt>
      <trkpt lat="46.22007" lon="6.78321">
        <ele>1785.79</ele>
        <time>2015-06-26T09:30:15Z</time>
      </trkpt>
      <trkpt lat="46.2197" lon="6.78354">
        <ele>1785.79</ele>
        <time>2015-06-26T09:30:23Z</time>
      </trkpt>
      <trkpt lat="46.21955" lon="6.78387">
        <ele>1781.94</ele>
        <time>2015-06-26T09:30:28Z</time>
      </trkpt>
      <trkpt lat="46.21953" lon="6.78406">
        <ele>1776.17</ele>
        <time>2015-06-26T09:30:32Z</time>
      </trkpt>
      <trkpt lat="46.21964" lon="6.78398">
        <ele>1773.29</ele>
        <time>2015-06-26T09:30:34Z</time>
      </trkpt>
      <trkpt lat="46.21993" lon="6.78374">
        <ele>1770.89</ele>
        <time>2015-06-26T09:30:39Z</time>
      </trkpt>
      <trkpt lat="46.22031" lon="6.78358">
        <ele>1770.41</ele>
        <time>2015-06-26T09:30:46Z</time>
      </trkpt>
      <trkpt lat="46.22042" lon="6.78343">
        <ele>1768.96</ele>
        <time>2015-06-26T09:30:49Z</time>
      </trkpt>
      <trkpt lat="46.22054" lon="6.78335">
        <ele>1762.71</ele>
        <time>2015-06-26T09:30:53Z</time>
      </trkpt>
      <trkpt lat="46.22055" lon="6.7835">
        <ele>1758.87</ele>
        <time>2015-06-26T09:30:55Z</time>
      </trkpt>
      <trkpt lat="46.22056" lon="6.78358">
        <ele>1755.5</ele>
        <time>2015-06-26T09:30:57Z</time>
      </trkpt>
      <trkpt lat="46.22061" lon="6.78337">
        <ele>1752.14</ele>
        <time>2015-06-26T09:31:00Z</time>
      </trkpt>
      <trkpt lat="46.22066" lon="6.78331">
        <ele>1751.18</ele>
        <time>2015-06-26T09:31:02Z</time>
      </trkpt>
      <trkpt lat="46.22067" lon="6.78356">
        <ele>1751.18</ele>
        <time>2015-06-26T09:31:08Z</time>
      </trkpt>
      <trkpt lat="46.22063" lon="6.78372">
        <ele>1751.18</ele>
        <time>2015-06-26T09:31:10Z</time>
      </trkpt>
      <trkpt lat="46.22039" lon="6.78413">
        <ele>1746.85</ele>
        <time>2015-06-26T09:31:16Z</time>
      </trkpt>
      <trkpt lat="46.22031" lon="6.78428">
        <ele>1744.93</ele>
        <time>2015-06-26T09:31:18Z</time>
      </trkpt>
      <trkpt lat="46.22022" lon="6.78454">
        <ele>1740.12</ele>
        <time>2015-06-26T09:31:21Z</time>
      </trkpt>
      <trkpt lat="46.22015" lon="6.78476">
        <ele>1736.28</ele>
        <time>2015-06-26T09:31:24Z</time>
      </trkpt>
      <trkpt lat="46.21996" lon="6.78501">
        <ele>1732.43</ele>
        <time>2015-06-26T09:31:28Z</time>
      </trkpt>
      <trkpt lat="46.21975" lon="6.7851">
        <ele>1732.91</ele>
        <time>2015-06-26T09:31:32Z</time>
      </trkpt>
      <trkpt lat="46.21959" lon="6.78525">
        <ele>1732.43</ele>
        <time>2015-06-26T09:31:36Z</time>
      </trkpt>
      <trkpt lat="46.21953" lon="6.78526">
        <ele>1732.91</ele>
        <time>2015-06-26T09:31:38Z</time>
      </trkpt>
      <trkpt lat="46.21936" lon="6.78538">
        <ele>1732.43</ele>
        <time>2015-06-26T09:31:41Z</time>
      </trkpt>
      <trkpt lat="46.21901" lon="6.78557">
        <ele>1729.55</ele>
        <time>2015-06-26T09:31:46Z</time>
      </trkpt>
      <trkpt lat="46.21886" lon="6.78572">
        <ele>1725.7</ele>
        <time>2015-06-26T09:31:49Z</time>
      </trkpt>
      <trkpt lat="46.21876" lon="6.78587">
        <ele>1723.3</ele>
        <time>2015-06-26T09:31:51Z</time>
      </trkpt>
      <trkpt lat="46.2186" lon="6.78605">
        <ele>1720.42</ele>
        <time>2015-06-26T09:31:54Z</time>
      </trkpt>
      <trkpt lat="46.21849" lon="6.7862">
        <ele>1718.01</ele>
        <time>2015-06-26T09:31:58Z</time>
      </trkpt>
      <trkpt lat="46.21837" lon="6.78652">
        <ele>1717.53</ele>
        <time>2015-06-26T09:32:04Z</time>
      </trkpt>
      <trkpt lat="46.21826" lon="6.78676">
        <ele>1717.05</ele>
        <time>2015-06-26T09:32:08Z</time>
      </trkpt>
      <trkpt lat="46.21817" lon="6.78697">
        <ele>1717.05</ele>
        <time>2015-06-26T09:32:11Z</time>
      </trkpt>
      <trkpt lat="46.21806" lon="6.78716">
        <ele>1717.05</ele>
        <time>2015-06-26T09:32:14Z</time>
      </trkpt>
      <trkpt lat="46.21784" lon="6.78747">
        <ele>1712.25</ele>
        <time>2015-06-26T09:32:19Z</time>
      </trkpt>
      <trkpt lat="46.21782" lon="6.78756">
        <ele>1711.28</ele>
        <time>2015-06-26T09:32:20Z</time>
      </trkpt>
      <trkpt lat="46.21759" lon="6.78794">
        <ele>1705.52</ele>
        <time>2015-06-26T09:32:26Z</time>
      </trkpt>
      <trkpt lat="46.21743" lon="6.78839">
        <ele>1705.52</ele>
        <time>2015-06-26T09:32:32Z</time>
      </trkpt>
      <trkpt lat="46.21739" lon="6.7886">
        <ele>1705.52</ele>
        <time>2015-06-26T09:32:35Z</time>
      </trkpt>
      <trkpt lat="46.21726" lon="6.78892">
        <ele>1705.52</ele>
        <time>2015-06-26T09:32:40Z</time>
      </trkpt>
      <trkpt lat="46.21742" lon="6.78943">
        <ele>1701.19</ele>
        <time>2015-06-26T09:32:47Z</time>
      </trkpt>
      <trkpt lat="46.21748" lon="6.7895">
        <ele>1699.75</ele>
        <time>2015-06-26T09:32:48Z</time>
      </trkpt>
      <trkpt lat="46.21772" lon="6.78981">
        <ele>1692.54</ele>
        <time>2015-06-26T09:32:53Z</time>
      </trkpt>
      <trkpt lat="46.21775" lon="6.79001">
        <ele>1689.17</ele>
        <time>2015-06-26T09:32:56Z</time>
      </trkpt>
      <trkpt lat="46.21763" lon="6.79025">
        <ele>1687.25</ele>
        <time>2015-06-26T09:33:00Z</time>
      </trkpt>
      <trkpt lat="46.2176" lon="6.79047">
        <ele>1688.21</ele>
        <time>2015-06-26T09:33:03Z</time>
      </trkpt>
      <trkpt lat="46.21751" lon="6.79071">
        <ele>1687.73</ele>
        <time>2015-06-26T09:33:06Z</time>
      </trkpt>
      <trkpt lat="46.21727" lon="6.7908">
        <ele>1687.25</ele>
        <time>2015-06-26T09:33:13Z</time>
      </trkpt>
      <trkpt lat="46.21722" lon="6.79092">
        <ele>1686.29</ele>
        <time>2015-06-26T09:33:23Z</time>
      </trkpt>
      <trkpt lat="46.21722" lon="6.79092">
        <ele>1685.33</ele>
        <time>2015-06-26T09:33:47Z</time>
      </trkpt>
      <trkpt lat="46.21722" lon="6.79092">
        <ele>1685.33</ele>
        <time>2015-06-26T09:34:06Z</time>
      </trkpt>
      <trkpt lat="46.21722" lon="6.79092">
        <ele>1685.33</ele>
        <time>2015-06-26T09:34:33Z</time>
      </trkpt>
      <trkpt lat="46.21722" lon="6.79092">
        <ele>1685.33</ele>
        <time>2015-06-26T09:34:58Z</time>
      </trkpt>
      <trkpt lat="46.21722" lon="6.79092">
        <ele>1685.33</ele>
        <time>2015-06-26T09:35:18Z</time>
      </trkpt>
      <trkpt lat="46.21722" lon="6.79092">
        <ele>1685.33</ele>
        <time>2015-06-26T09:35:46Z</time>
      </trkpt>
      <trkpt lat="46.21722" lon="6.79092">
        <ele>1685.33</ele>
        <time>2015-06-26T09:36:11Z</time>
      </trkpt>
      <trkpt lat="46.21722" lon="6.79092">
        <ele>1685.33</ele>
        <time>2015-06-26T09:36:42Z</time>
      </trkpt>
      <trkpt lat="46.21722" lon="6.79092">
        <ele>1685.33</ele>
        <time>2015-06-26T09:37:05Z</time>
      </trkpt>
      <trkpt lat="46.21722" lon="6.79092">
        <ele>1685.33</ele>
        <time>2015-06-26T09:37:45Z</time>
      </trkpt>
      <trkpt lat="46.21722" lon="6.79092">
        <ele>1685.33</ele>
        <time>2015-06-26T09:38:15Z</time>
      </trkpt>
      <trkpt lat="46.21722" lon="6.79093">
        <ele>1685.33</ele>
        <time>2015-06-26T09:38:45Z</time>
      </trkpt>
      <trkpt lat="46.21722" lon="6.79093">
        <ele>1685.33</ele>
        <time>2015-06-26T09:38:49Z</time>
      </trkpt>
      <trkpt lat="46.21709" lon="6.79131">
        <ele>1682.44</ele>
        <time>2015-06-26T09:38:59Z</time>
      </trkpt>
      <trkpt lat="46.21704" lon="6.79139">
        <ele>1678.6</ele>
        <time>2015-06-26T09:39:02Z</time>
      </trkpt>
      <trkpt lat="46.21701" lon="6.79142">
        <ele>1677.16</ele>
        <time>2015-06-26T09:39:03Z</time>
      </trkpt>
      <trkpt lat="46.21685" lon="6.7916">
        <ele>1673.31</ele>
        <time>2015-06-26T09:39:07Z</time>
      </trkpt>
      <trkpt lat="46.21658" lon="6.79189">
        <ele>1675.72</ele>
        <time>2015-06-26T09:39:15Z</time>
      </trkpt>
      <trkpt lat="46.2165" lon="6.79198">
        <ele>1679.56</ele>
        <time>2015-06-26T09:39:18Z</time>
      </trkpt>
      <trkpt lat="46.21639" lon="6.79205">
        <ele>1682.44</ele>
        <time>2015-06-26T09:39:22Z</time>
      </trkpt>
      <trkpt lat="46.21628" lon="6.79207">
        <ele>1683.41</ele>
        <time>2015-06-26T09:39:28Z</time>
      </trkpt>
      <trkpt lat="46.21623" lon="6.79212">
        <ele>1683.41</ele>
        <time>2015-06-26T09:39:32Z</time>
      </trkpt>
      <trkpt lat="46.21604" lon="6.79241">
        <ele>1683.89</ele>
        <time>2015-06-26T09:39:47Z</time>
      </trkpt>
      <trkpt lat="46.21578" lon="6.79269">
        <ele>1686.29</ele>
        <time>2015-06-26T09:40:01Z</time>
      </trkpt>
      <trkpt lat="46.21562" lon="6.79292">
        <ele>1689.17</ele>
        <time>2015-06-26T09:40:13Z</time>
      </trkpt>
      <trkpt lat="46.21549" lon="6.79311">
        <ele>1690.62</ele>
        <time>2015-06-26T09:40:22Z</time>
      </trkpt>
      <trkpt lat="46.21548" lon="6.79319">
        <ele>1691.58</ele>
        <time>2015-06-26T09:40:27Z</time>
      </trkpt>
      <trkpt lat="46.21547" lon="6.79327">
        <ele>1692.54</ele>
        <time>2015-06-26T09:40:36Z</time>
      </trkpt>
      <trkpt lat="46.21545" lon="6.7933">
        <ele>1692.54</ele>
        <time>2015-06-26T09:40:38Z</time>
      </trkpt>
      <trkpt lat="46.21541" lon="6.79339">
        <ele>1694.46</ele>
        <time>2015-06-26T09:40:46Z</time>
      </trkpt>
      <trkpt lat="46.2154" lon="6.79344">
        <ele>1694.94</ele>
        <time>2015-06-26T09:40:50Z</time>
      </trkpt>
      <trkpt lat="46.21524" lon="6.79365">
        <ele>1698.31</ele>
        <time>2015-06-26T09:41:07Z</time>
      </trkpt>
      <trkpt lat="46.2152" lon="6.79373">
        <ele>1700.23</ele>
        <time>2015-06-26T09:41:18Z</time>
      </trkpt>
      <trkpt lat="46.2152" lon="6.79373">
        <ele>1700.71</ele>
        <time>2015-06-26T09:41:22Z</time>
      </trkpt>
      <trkpt lat="46.21539" lon="6.79358">
        <ele>1698.31</ele>
        <time>2015-06-26T09:41:29Z</time>
      </trkpt>
      <trkpt lat="46.21549" lon="6.79352">
        <ele>1694.46</ele>
        <time>2015-06-26T09:41:32Z</time>
      </trkpt>
      <trkpt lat="46.2155" lon="6.79343">
        <ele>1691.1</ele>
        <time>2015-06-26T09:41:34Z</time>
      </trkpt>
      <trkpt lat="46.21557" lon="6.7934">
        <ele>1687.25</ele>
        <time>2015-06-26T09:41:36Z</time>
      </trkpt>
      <trkpt lat="46.21561" lon="6.79351">
        <ele>1684.37</ele>
        <time>2015-06-26T09:41:38Z</time>
      </trkpt>
      <trkpt lat="46.21558" lon="6.7937">
        <ele>1681</ele>
        <time>2015-06-26T09:41:41Z</time>
      </trkpt>
      <trkpt lat="46.21572" lon="6.79379">
        <ele>1677.64</ele>
        <time>2015-06-26T09:41:46Z</time>
      </trkpt>
      <trkpt lat="46.21581" lon="6.79362">
        <ele>1673.31</ele>
        <time>2015-06-26T09:41:50Z</time>
      </trkpt>
      <trkpt lat="46.21593" lon="6.79353">
        <ele>1669.47</ele>
        <time>2015-06-26T09:41:53Z</time>
      </trkpt>
      <trkpt lat="46.216" lon="6.79349">
        <ele>1666.1</ele>
        <time>2015-06-26T09:41:55Z</time>
      </trkpt>
      <trkpt lat="46.21606" lon="6.79346">
        <ele>1662.74</ele>
        <time>2015-06-26T09:41:57Z</time>
      </trkpt>
      <trkpt lat="46.21616" lon="6.79339">
        <ele>1659.37</ele>
        <time>2015-06-26T09:41:59Z</time>
      </trkpt>
      <trkpt lat="46.21622" lon="6.79338">
        <ele>1657.45</ele>
        <time>2015-06-26T09:42:00Z</time>
      </trkpt>
      <trkpt lat="46.21647" lon="6.79331">
        <ele>1651.2</ele>
        <time>2015-06-26T09:42:04Z</time>
      </trkpt>
      <trkpt lat="46.21665" lon="6.79326">
        <ele>1647.36</ele>
        <time>2015-06-26T09:42:07Z</time>
      </trkpt>
      <trkpt lat="46.21671" lon="6.79328">
        <ele>1645.91</ele>
        <time>2015-06-26T09:42:08Z</time>
      </trkpt>
      <trkpt lat="46.21683" lon="6.79336">
        <ele>1643.99</ele>
        <time>2015-06-26T09:42:10Z</time>
      </trkpt>
      <trkpt lat="46.21726" lon="6.79319">
        <ele>1640.63</ele>
        <time>2015-06-26T09:42:17Z</time>
      </trkpt>
      <trkpt lat="46.21756" lon="6.79305">
        <ele>1640.15</ele>
        <time>2015-06-26T09:42:22Z</time>
      </trkpt>
      <trkpt lat="46.21784" lon="6.79288">
        <ele>1640.15</ele>
        <time>2015-06-26T09:42:29Z</time>
      </trkpt>
      <trkpt lat="46.21791" lon="6.79286">
        <ele>1640.15</ele>
        <time>2015-06-26T09:42:39Z</time>
      </trkpt>
      <trkpt lat="46.21791" lon="6.79286">
        <ele>1640.15</ele>
        <time>2015-06-26T09:42:43Z</time>
      </trkpt>
      <trkpt lat="46.21795" lon="6.79288">
        <ele>1640.15</ele>
        <time>2015-06-26T09:42:54Z</time>
      </trkpt>
      <trkpt lat="46.21795" lon="6.79288">
        <ele>1640.15</ele>
        <time>2015-06-26T09:42:57Z</time>
      </trkpt>
      <trkpt lat="46.21786" lon="6.79296">
        <ele>1640.15</ele>
        <time>2015-06-26T09:43:09Z</time>
      </trkpt>
      <trkpt lat="46.21786" lon="6.79296">
        <ele>1640.15</ele>
        <time>2015-06-26T09:43:23Z</time>
      </trkpt>
      <trkpt lat="46.2179" lon="6.79329">
        <ele>1639.67</ele>
        <time>2015-06-26T09:43:33Z</time>
      </trkpt>
      <trkpt lat="46.21794" lon="6.79333">
        <ele>1639.67</ele>
        <time>2015-06-26T09:43:34Z</time>
      </trkpt>
      <trkpt lat="46.218" lon="6.79342">
        <ele>1639.67</ele>
        <time>2015-06-26T09:43:36Z</time>
      </trkpt>
      <trkpt lat="46.2183" lon="6.79396">
        <ele>1636.78</ele>
        <time>2015-06-26T09:43:45Z</time>
      </trkpt>
      <trkpt lat="46.21835" lon="6.79397">
        <ele>1635.82</ele>
        <time>2015-06-26T09:43:46Z</time>
      </trkpt>
      <trkpt lat="46.21849" lon="6.79401">
        <ele>1631.49</ele>
        <time>2015-06-26T09:43:49Z</time>
      </trkpt>
      <trkpt lat="46.2186" lon="6.79405">
        <ele>1627.65</ele>
        <time>2015-06-26T09:43:51Z</time>
      </trkpt>
      <trkpt lat="46.21874" lon="6.79404">
        <ele>1619.96</ele>
        <time>2015-06-26T09:43:54Z</time>
      </trkpt>
      <trkpt lat="46.21877" lon="6.79401">
        <ele>1617.56</ele>
        <time>2015-06-26T09:43:55Z</time>
      </trkpt>
      <trkpt lat="46.21882" lon="6.79396">
        <ele>1613.71</ele>
        <time>2015-06-26T09:43:57Z</time>
      </trkpt>
      <trkpt lat="46.21882" lon="6.79396">
        <ele>1612.75</ele>
        <time>2015-06-26T09:44:01Z</time>
      </trkpt>
      <trkpt lat="46.21886" lon="6.79395">
        <ele>1615.15</ele>
        <time>2015-06-26T09:44:04Z</time>
      </trkpt>
      <trkpt lat="46.21908" lon="6.79381">
        <ele>1617.07</ele>
        <time>2015-06-26T09:44:10Z</time>
      </trkpt>
      <trkpt lat="46.21914" lon="6.79368">
        <ele>1613.23</ele>
        <time>2015-06-26T09:44:12Z</time>
      </trkpt>
      <trkpt lat="46.21917" lon="6.79361">
        <ele>1610.83</ele>
        <time>2015-06-26T09:44:13Z</time>
      </trkpt>
      <trkpt lat="46.21925" lon="6.79362">
        <ele>1600.73</ele>
        <time>2015-06-26T09:44:17Z</time>
      </trkpt>
      <trkpt lat="46.21927" lon="6.79377">
        <ele>1597.37</ele>
        <time>2015-06-26T09:44:19Z</time>
      </trkpt>
      <trkpt lat="46.21935" lon="6.79406">
        <ele>1594.96</ele>
        <time>2015-06-26T09:44:26Z</time>
      </trkpt>
      <trkpt lat="46.21939" lon="6.79406">
        <ele>1594.48</ele>
        <time>2015-06-26T09:44:31Z</time>
      </trkpt>
      <trkpt lat="46.21946" lon="6.79433">
        <ele>1590.16</ele>
        <time>2015-06-26T09:44:39Z</time>
      </trkpt>
      <trkpt lat="46.21948" lon="6.79426">
        <ele>1588.72</ele>
        <time>2015-06-26T09:44:40Z</time>
      </trkpt>
      <trkpt lat="46.2196" lon="6.79395">
        <ele>1581.99</ele>
        <time>2015-06-26T09:44:44Z</time>
      </trkpt>
      <trkpt lat="46.21967" lon="6.79379">
        <ele>1577.66</ele>
        <time>2015-06-26T09:44:46Z</time>
      </trkpt>
      <trkpt lat="46.21975" lon="6.79358">
        <ele>1572.85</ele>
        <time>2015-06-26T09:44:49Z</time>
      </trkpt>
      <trkpt lat="46.21982" lon="6.7934">
        <ele>1569.01</ele>
        <time>2015-06-26T09:44:52Z</time>
      </trkpt>
      <trkpt lat="46.21987" lon="6.7934">
        <ele>1568.05</ele>
        <time>2015-06-26T09:44:54Z</time>
      </trkpt>
      <trkpt lat="46.2199" lon="6.79352">
        <ele>1566.61</ele>
        <time>2015-06-26T09:44:56Z</time>
      </trkpt>
      <trkpt lat="46.21989" lon="6.79398">
        <ele>1562.28</ele>
        <time>2015-06-26T09:45:02Z</time>
      </trkpt>
      <trkpt lat="46.21998" lon="6.79395">
        <ele>1557.47</ele>
        <time>2015-06-26T09:45:06Z</time>
      </trkpt>
      <trkpt lat="46.22006" lon="6.79383">
        <ele>1554.11</ele>
        <time>2015-06-26T09:45:08Z</time>
      </trkpt>
      <trkpt lat="46.22011" lon="6.79369">
        <ele>1550.26</ele>
        <time>2015-06-26T09:45:10Z</time>
      </trkpt>
      <trkpt lat="46.22013" lon="6.7936">
        <ele>1547.86</ele>
        <time>2015-06-26T09:45:11Z</time>
      </trkpt>
      <trkpt lat="46.22018" lon="6.79334">
        <ele>1542.09</ele>
        <time>2015-06-26T09:45:14Z</time>
      </trkpt>
      <trkpt lat="46.22018" lon="6.79328">
        <ele>1540.65</ele>
        <time>2015-06-26T09:45:15Z</time>
      </trkpt>
      <trkpt lat="46.22025" lon="6.79347">
        <ele>1539.69</ele>
        <time>2015-06-26T09:45:21Z</time>
      </trkpt>
      <trkpt lat="46.22033" lon="6.79361">
        <ele>1539.21</ele>
        <time>2015-06-26T09:45:26Z</time>
      </trkpt>
      <trkpt lat="46.22035" lon="6.79356">
        <ele>1538.25</ele>
        <time>2015-06-26T09:45:27Z</time>
      </trkpt>
      <trkpt lat="46.22037" lon="6.79348">
        <ele>1533.44</ele>
        <time>2015-06-26T09:45:31Z</time>
      </trkpt>
      <trkpt lat="46.22037" lon="6.79348">
        <ele>1530.08</ele>
        <time>2015-06-26T09:45:34Z</time>
      </trkpt>
      <trkpt lat="46.22037" lon="6.79348">
        <ele>1529.59</ele>
        <time>2015-06-26T09:45:37Z</time>
      </trkpt>
      <trkpt lat="46.22049" lon="6.79333">
        <ele>1530.08</ele>
        <time>2015-06-26T09:45:48Z</time>
      </trkpt>
      <trkpt lat="46.22057" lon="6.79335">
        <ele>1525.75</ele>
        <time>2015-06-26T09:45:52Z</time>
      </trkpt>
      <trkpt lat="46.22063" lon="6.79334">
        <ele>1521.9</ele>
        <time>2015-06-26T09:45:56Z</time>
      </trkpt>
      <trkpt lat="46.22068" lon="6.79329">
        <ele>1521.42</ele>
        <time>2015-06-26T09:46:00Z</time>
      </trkpt>
      <trkpt lat="46.22072" lon="6.79312">
        <ele>1521.42</ele>
        <time>2015-06-26T09:46:07Z</time>
      </trkpt>
      <trkpt lat="46.22086" lon="6.79269">
        <ele>1520.94</ele>
        <time>2015-06-26T09:46:18Z</time>
      </trkpt>
      <trkpt lat="46.22101" lon="6.79224">
        <ele>1518.54</ele>
        <time>2015-06-26T09:46:29Z</time>
      </trkpt>
      <trkpt lat="46.22105" lon="6.79212">
        <ele>1514.21</ele>
        <time>2015-06-26T09:46:33Z</time>
      </trkpt>
      <trkpt lat="46.22109" lon="6.79203">
        <ele>1511.33</ele>
        <time>2015-06-26T09:46:37Z</time>
      </trkpt>
      <trkpt lat="46.22122" lon="6.79183">
        <ele>1510.85</ele>
        <time>2015-06-26T09:46:49Z</time>
      </trkpt>
      <trkpt lat="46.22141" lon="6.79169">
        <ele>1510.37</ele>
        <time>2015-06-26T09:47:00Z</time>
      </trkpt>
      <trkpt lat="46.22144" lon="6.79179">
        <ele>1508.93</ele>
        <time>2015-06-26T09:47:12Z</time>
      </trkpt>
      <trkpt lat="46.22144" lon="6.79179">
        <ele>1507.97</ele>
        <time>2015-06-26T09:47:48Z</time>
      </trkpt>
      <trkpt lat="46.22144" lon="6.79179">
        <ele>1507.48</ele>
        <time>2015-06-26T09:48:22Z</time>
      </trkpt>
      <trkpt lat="46.22144" lon="6.79179">
        <ele>1507.48</ele>
        <time>2015-06-26T09:48:50Z</time>
      </trkpt>
      <trkpt lat="46.22144" lon="6.79179">
        <ele>1507.48</ele>
        <time>2015-06-26T09:49:22Z</time>
      </trkpt>
      <trkpt lat="46.22144" lon="6.79179">
        <ele>1507.48</ele>
        <time>2015-06-26T09:49:54Z</time>
      </trkpt>
      <trkpt lat="46.22144" lon="6.7918">
        <ele>1507.48</ele>
        <time>2015-06-26T09:50:29Z</time>
      </trkpt>
      <trkpt lat="46.22144" lon="6.7918">
        <ele>1507.48</ele>
        <time>2015-06-26T09:50:59Z</time>
      </trkpt>
      <trkpt lat="46.22144" lon="6.79179">
        <ele>1507.48</ele>
        <time>2015-06-26T09:51:32Z</time>
      </trkpt>
      <trkpt lat="46.22144" lon="6.79179">
        <ele>1507.48</ele>
        <time>2015-06-26T09:52:03Z</time>
      </trkpt>
      <trkpt lat="46.22144" lon="6.79179">
        <ele>1507.48</ele>
        <time>2015-06-26T09:52:38Z</time>
      </trkpt>
      <trkpt lat="46.22144" lon="6.79179">
        <ele>1507.48</ele>
        <time>2015-06-26T09:53:04Z</time>
      </trkpt>
      <trkpt lat="46.22145" lon="6.79179">
        <ele>1507.48</ele>
        <time>2015-06-26T09:53:37Z</time>
      </trkpt>
      <trkpt lat="46.22145" lon="6.7918">
        <ele>1507.48</ele>
        <time>2015-06-26T09:54:11Z</time>
      </trkpt>
      <trkpt lat="46.22145" lon="6.7918">
        <ele>1507.48</ele>
        <time>2015-06-26T09:54:41Z</time>
      </trkpt>
      <trkpt lat="46.22145" lon="6.7918">
        <ele>1507.48</ele>
        <time>2015-06-26T09:55:03Z</time>
      </trkpt>
      <trkpt lat="46.22145" lon="6.79179">
        <ele>1507.48</ele>
        <time>2015-06-26T09:55:22Z</time>
      </trkpt>
      <trkpt lat="46.22146" lon="6.79179">
        <ele>1507.48</ele>
        <time>2015-06-26T09:55:34Z</time>
      </trkpt>
      <trkpt lat="46.22148" lon="6.79178">
        <ele>1507.48</ele>
        <time>2015-06-26T09:55:36Z</time>
      </trkpt>
      <trkpt lat="46.22183" lon="6.79203">
        <ele>1503.64</ele>
        <time>2015-06-26T09:55:46Z</time>
      </trkpt>
      <trkpt lat="46.22191" lon="6.79209">
        <ele>1499.79</ele>
        <time>2015-06-26T09:55:48Z</time>
      </trkpt>
      <trkpt lat="46.22198" lon="6.79215">
        <ele>1495.95</ele>
        <time>2015-06-26T09:55:51Z</time>
      </trkpt>
      <trkpt lat="46.22203" lon="6.79221">
        <ele>1492.58</ele>
        <time>2015-06-26T09:55:54Z</time>
      </trkpt>
      <trkpt lat="46.2221" lon="6.79259">
        <ele>1494.99</ele>
        <time>2015-06-26T09:56:03Z</time>
      </trkpt>
      <trkpt lat="46.22218" lon="6.79282">
        <ele>1496.43</ele>
        <time>2015-06-26T09:56:08Z</time>
      </trkpt>
      <trkpt lat="46.22252" lon="6.79295">
        <ele>1494.99</ele>
        <time>2015-06-26T09:56:15Z</time>
      </trkpt>
      <trkpt lat="46.22268" lon="6.79294">
        <ele>1492.58</ele>
        <time>2015-06-26T09:56:18Z</time>
      </trkpt>
      <trkpt lat="46.22293" lon="6.79288">
        <ele>1488.26</ele>
        <time>2015-06-26T09:56:23Z</time>
      </trkpt>
      <trkpt lat="46.22295" lon="6.79287">
        <ele>1487.3</ele>
        <time>2015-06-26T09:56:24Z</time>
      </trkpt>
      <trkpt lat="46.22305" lon="6.79275">
        <ele>1485.37</ele>
        <time>2015-06-26T09:56:31Z</time>
      </trkpt>
      <trkpt lat="46.22315" lon="6.79246">
        <ele>1482.01</ele>
        <time>2015-06-26T09:56:38Z</time>
      </trkpt>
      <trkpt lat="46.22318" lon="6.79236">
        <ele>1478.65</ele>
        <time>2015-06-26T09:56:40Z</time>
      </trkpt>
      <trkpt lat="46.22321" lon="6.79223">
        <ele>1475.76</ele>
        <time>2015-06-26T09:56:42Z</time>
      </trkpt>
      <trkpt lat="46.22329" lon="6.79202">
        <ele>1471.92</ele>
        <time>2015-06-26T09:56:45Z</time>
      </trkpt>
      <trkpt lat="46.22334" lon="6.792">
        <ele>1468.55</ele>
        <time>2015-06-26T09:56:48Z</time>
      </trkpt>
      <trkpt lat="46.22336" lon="6.79202">
        <ele>1469.99</ele>
        <time>2015-06-26T09:56:54Z</time>
      </trkpt>
      <trkpt lat="46.22345" lon="6.79214">
        <ele>1474.32</ele>
        <time>2015-06-26T09:56:59Z</time>
      </trkpt>
      <trkpt lat="46.22377" lon="6.7922">
        <ele>1474.32</ele>
        <time>2015-06-26T09:57:06Z</time>
      </trkpt>
      <trkpt lat="46.22399" lon="6.79209">
        <ele>1472.88</ele>
        <time>2015-06-26T09:57:10Z</time>
      </trkpt>
      <trkpt lat="46.22434" lon="6.79172">
        <ele>1469.03</ele>
        <time>2015-06-26T09:57:17Z</time>
      </trkpt>
      <trkpt lat="46.22447" lon="6.79171">
        <ele>1465.67</ele>
        <time>2015-06-26T09:57:20Z</time>
      </trkpt>
      <trkpt lat="46.2246" lon="6.7916">
        <ele>1462.3</ele>
        <time>2015-06-26T09:57:23Z</time>
      </trkpt>
      <trkpt lat="46.2248" lon="6.79139">
        <ele>1458.94</ele>
        <time>2015-06-26T09:57:28Z</time>
      </trkpt>
      <trkpt lat="46.22514" lon="6.79115">
        <ele>1455.09</ele>
        <time>2015-06-26T09:57:35Z</time>
      </trkpt>
      <trkpt lat="46.22533" lon="6.791">
        <ele>1453.17</ele>
        <time>2015-06-26T09:57:39Z</time>
      </trkpt>
      <trkpt lat="46.22556" lon="6.79091">
        <ele>1449.81</ele>
        <time>2015-06-26T09:57:43Z</time>
      </trkpt>
      <trkpt lat="46.22586" lon="6.7907">
        <ele>1445.96</ele>
        <time>2015-06-26T09:57:49Z</time>
      </trkpt>
      <trkpt lat="46.2261" lon="6.79056">
        <ele>1443.08</ele>
        <time>2015-06-26T09:57:53Z</time>
      </trkpt>
      <trkpt lat="46.22634" lon="6.79044">
        <ele>1444.04</ele>
        <time>2015-06-26T09:57:59Z</time>
      </trkpt>
      <trkpt lat="46.22649" lon="6.79042">
        <ele>1443.56</ele>
        <time>2015-06-26T09:58:02Z</time>
      </trkpt>
      <trkpt lat="46.22677" lon="6.79028">
        <ele>1442.11</ele>
        <time>2015-06-26T09:58:10Z</time>
      </trkpt>
      <trkpt lat="46.22681" lon="6.79028">
        <ele>1440.19</ele>
        <time>2015-06-26T09:58:25Z</time>
      </trkpt>
      <trkpt lat="46.22681" lon="6.79028">
        <ele>1440.19</ele>
        <time>2015-06-26T09:58:47Z</time>
      </trkpt>
      <trkpt lat="46.22697" lon="6.79012">
        <ele>1440.19</ele>
        <time>2015-06-26T09:58:53Z</time>
      </trkpt>
      <trkpt lat="46.22707" lon="6.78994">
        <ele>1436.83</ele>
        <time>2015-06-26T09:58:56Z</time>
      </trkpt>
      <trkpt lat="46.2272" lon="6.78982">
        <ele>1433.46</ele>
        <time>2015-06-26T09:58:58Z</time>
      </trkpt>
      <trkpt lat="46.22736" lon="6.78982">
        <ele>1429.14</ele>
        <time>2015-06-26T09:59:00Z</time>
      </trkpt>
      <trkpt lat="46.22744" lon="6.78983">
        <ele>1427.21</ele>
        <time>2015-06-26T09:59:01Z</time>
      </trkpt>
      <trkpt lat="46.2276" lon="6.78966">
        <ele>1420.97</ele>
        <time>2015-06-26T09:59:07Z</time>
      </trkpt>
      <trkpt lat="46.22757" lon="6.78937">
        <ele>1417.6</ele>
        <time>2015-06-26T09:59:13Z</time>
      </trkpt>
      <trkpt lat="46.22777" lon="6.78934">
        <ele>1416.64</ele>
        <time>2015-06-26T09:59:16Z</time>
      </trkpt>
      <trkpt lat="46.22801" lon="6.78944">
        <ele>1417.12</ele>
        <time>2015-06-26T09:59:20Z</time>
      </trkpt>
      <trkpt lat="46.22829" lon="6.78936">
        <ele>1412.79</ele>
        <time>2015-06-26T09:59:25Z</time>
      </trkpt>
      <trkpt lat="46.22841" lon="6.78945">
        <ele>1409.43</ele>
        <time>2015-06-26T09:59:27Z</time>
      </trkpt>
      <trkpt lat="46.22852" lon="6.78947">
        <ele>1406.07</ele>
        <time>2015-06-26T09:59:29Z</time>
      </trkpt>
      <trkpt lat="46.22858" lon="6.78947">
        <ele>1404.14</ele>
        <time>2015-06-26T09:59:30Z</time>
      </trkpt>
      <trkpt lat="46.22872" lon="6.78948">
        <ele>1400.78</ele>
        <time>2015-06-26T09:59:32Z</time>
      </trkpt>
      <trkpt lat="46.22886" lon="6.78928">
        <ele>1395.97</ele>
        <time>2015-06-26T09:59:36Z</time>
      </trkpt>
      <trkpt lat="46.22907" lon="6.78925">
        <ele>1392.61</ele>
        <time>2015-06-26T09:59:40Z</time>
      </trkpt>
      <trkpt lat="46.22911" lon="6.78915">
        <ele>1390.68</ele>
        <time>2015-06-26T09:59:42Z</time>
      </trkpt>
      <trkpt lat="46.22907" lon="6.78896">
        <ele>1387.8</ele>
        <time>2015-06-26T09:59:45Z</time>
      </trkpt>
      <trkpt lat="46.22901" lon="6.7888">
        <ele>1384.92</ele>
        <time>2015-06-26T09:59:49Z</time>
      </trkpt>
      <trkpt lat="46.229" lon="6.78879">
        <ele>1384.44</ele>
        <time>2015-06-26T09:59:50Z</time>
      </trkpt>
      <trkpt lat="46.22916" lon="6.78877">
        <ele>1382.99</ele>
        <time>2015-06-26T09:59:57Z</time>
      </trkpt>
      <trkpt lat="46.22931" lon="6.78877">
        <ele>1379.15</ele>
        <time>2015-06-26T10:00:01Z</time>
      </trkpt>
      <trkpt lat="46.22944" lon="6.78882">
        <ele>1375.78</ele>
        <time>2015-06-26T10:00:04Z</time>
      </trkpt>
      <trkpt lat="46.22972" lon="6.78894">
        <ele>1371.46</ele>
        <time>2015-06-26T10:00:09Z</time>
      </trkpt>
      <trkpt lat="46.2298" lon="6.78893">
        <ele>1367.61</ele>
        <time>2015-06-26T10:00:12Z</time>
      </trkpt>
      <trkpt lat="46.22967" lon="6.78862">
        <ele>1363.77</ele>
        <time>2015-06-26T10:00:16Z</time>
      </trkpt>
      <trkpt lat="46.22957" lon="6.78853">
        <ele>1362.33</ele>
        <time>2015-06-26T10:00:18Z</time>
      </trkpt>
      <trkpt lat="46.22928" lon="6.78831">
        <ele>1361.84</ele>
        <time>2015-06-26T10:00:25Z</time>
      </trkpt>
      <trkpt lat="46.22941" lon="6.78835">
        <ele>1358.96</ele>
        <time>2015-06-26T10:00:29Z</time>
      </trkpt>
      <trkpt lat="46.22939" lon="6.78828">
        <ele>1354.63</ele>
        <time>2015-06-26T10:00:32Z</time>
      </trkpt>
      <trkpt lat="46.22934" lon="6.78822">
        <ele>1351.27</ele>
        <time>2015-06-26T10:00:34Z</time>
      </trkpt>
      <trkpt lat="46.22937" lon="6.78815">
        <ele>1347.91</ele>
        <time>2015-06-26T10:00:37Z</time>
      </trkpt>
      <trkpt lat="46.22942" lon="6.7881">
        <ele>1345.98</ele>
        <time>2015-06-26T10:00:39Z</time>
      </trkpt>
      <trkpt lat="46.22967" lon="6.78773">
        <ele>1349.35</ele>
        <time>2015-06-26T10:00:48Z</time>
      </trkpt>
      <trkpt lat="46.22971" lon="6.78768">
        <ele>1349.35</ele>
        <time>2015-06-26T10:00:49Z</time>
      </trkpt>
      <trkpt lat="46.22997" lon="6.78758">
        <ele>1346.46</ele>
        <time>2015-06-26T10:00:54Z</time>
      </trkpt>
      <trkpt lat="46.23019" lon="6.78752">
        <ele>1339.73</ele>
        <time>2015-06-26T10:00:58Z</time>
      </trkpt>
      <trkpt lat="46.2304" lon="6.78756">
        <ele>1334.45</ele>
        <time>2015-06-26T10:01:01Z</time>
      </trkpt>
      <trkpt lat="46.23047" lon="6.7876">
        <ele>1332.52</ele>
        <time>2015-06-26T10:01:02Z</time>
      </trkpt>
      <trkpt lat="46.23076" lon="6.78789">
        <ele>1328.68</ele>
        <time>2015-06-26T10:01:08Z</time>
      </trkpt>
      <trkpt lat="46.231" lon="6.78799">
        <ele>1328.68</ele>
        <time>2015-06-26T10:01:14Z</time>
      </trkpt>
      <trkpt lat="46.23105" lon="6.78792">
        <ele>1328.2</ele>
        <time>2015-06-26T10:01:25Z</time>
      </trkpt>
      <trkpt lat="46.23104" lon="6.78792">
        <ele>1327.72</ele>
        <time>2015-06-26T10:01:51Z</time>
      </trkpt>
      <trkpt lat="46.23107" lon="6.78788">
        <ele>1327.24</ele>
        <time>2015-06-26T10:02:11Z</time>
      </trkpt>
      <trkpt lat="46.23109" lon="6.78783">
        <ele>1327.24</ele>
        <time>2015-06-26T10:02:13Z</time>
      </trkpt>
      <trkpt lat="46.23118" lon="6.78778">
        <ele>1327.24</ele>
        <time>2015-06-26T10:02:17Z</time>
      </trkpt>
      <trkpt lat="46.23153" lon="6.78793">
        <ele>1324.83</ele>
        <time>2015-06-26T10:02:24Z</time>
      </trkpt>
      <trkpt lat="46.23167" lon="6.78797">
        <ele>1322.43</ele>
        <time>2015-06-26T10:02:26Z</time>
      </trkpt>
      <trkpt lat="46.23183" lon="6.788">
        <ele>1317.62</ele>
        <time>2015-06-26T10:02:29Z</time>
      </trkpt>
      <trkpt lat="46.23188" lon="6.78807">
        <ele>1318.59</ele>
        <time>2015-06-26T10:02:39Z</time>
      </trkpt>
      <trkpt lat="46.23188" lon="6.78806">
        <ele>1319.07</ele>
        <time>2015-06-26T10:03:01Z</time>
      </trkpt>
      <trkpt lat="46.23188" lon="6.78806">
        <ele>1319.07</ele>
        <time>2015-06-26T10:03:11Z</time>
      </trkpt>
      <trkpt lat="46.23198" lon="6.78825">
        <ele>1318.59</ele>
        <time>2015-06-26T10:03:18Z</time>
      </trkpt>
      <trkpt lat="46.23201" lon="6.78846">
        <ele>1318.1</ele>
        <time>2015-06-26T10:03:21Z</time>
      </trkpt>
      <trkpt lat="46.23224" lon="6.78896">
        <ele>1316.18</ele>
        <time>2015-06-26T10:03:32Z</time>
      </trkpt>
      <trkpt lat="46.23249" lon="6.78902">
        <ele>1312.34</ele>
        <time>2015-06-26T10:03:37Z</time>
      </trkpt>
      <trkpt lat="46.23273" lon="6.78913">
        <ele>1308.01</ele>
        <time>2015-06-26T10:03:41Z</time>
      </trkpt>
      <trkpt lat="46.23286" lon="6.78914">
        <ele>1307.53</ele>
        <time>2015-06-26T10:03:43Z</time>
      </trkpt>
      <trkpt lat="46.2332" lon="6.78907">
        <ele>1307.05</ele>
        <time>2015-06-26T10:03:49Z</time>
      </trkpt>
      <trkpt lat="46.23341" lon="6.78903">
        <ele>1306.57</ele>
        <time>2015-06-26T10:03:55Z</time>
      </trkpt>
      <trkpt lat="46.23347" lon="6.78907">
        <ele>1306.57</ele>
        <time>2015-06-26T10:03:57Z</time>
      </trkpt>
      <trkpt lat="46.23366" lon="6.78924">
        <ele>1306.57</ele>
        <time>2015-06-26T10:04:01Z</time>
      </trkpt>
      <trkpt lat="46.23404" lon="6.78949">
        <ele>1302.72</ele>
        <time>2015-06-26T10:04:06Z</time>
      </trkpt>
      <trkpt lat="46.23412" lon="6.78954">
        <ele>1301.76</ele>
        <time>2015-06-26T10:04:07Z</time>
      </trkpt>
      <trkpt lat="46.23436" lon="6.78967">
        <ele>1298.88</ele>
        <time>2015-06-26T10:04:10Z</time>
      </trkpt>
      <trkpt lat="46.23486" lon="6.78991">
        <ele>1295.51</ele>
        <time>2015-06-26T10:04:16Z</time>
      </trkpt>
      <trkpt lat="46.23509" lon="6.79001">
        <ele>1295.51</ele>
        <time>2015-06-26T10:04:19Z</time>
      </trkpt>
      <trkpt lat="46.2354" lon="6.79055">
        <ele>1295.03</ele>
        <time>2015-06-26T10:04:26Z</time>
      </trkpt>
      <trkpt lat="46.23543" lon="6.79061">
        <ele>1295.03</ele>
        <time>2015-06-26T10:04:27Z</time>
      </trkpt>
      <trkpt lat="46.23539" lon="6.79068">
        <ele>1294.07</ele>
        <time>2015-06-26T10:04:34Z</time>
      </trkpt>
      <trkpt lat="46.23539" lon="6.79066">
        <ele>1294.07</ele>
        <time>2015-06-26T10:04:41Z</time>
      </trkpt>
      <trkpt lat="46.23536" lon="6.79061">
        <ele>1293.11</ele>
        <time>2015-06-26T10:04:56Z</time>
      </trkpt>
      <trkpt lat="46.23536" lon="6.79062">
        <ele>1293.11</ele>
        <time>2015-06-26T10:05:11Z</time>
      </trkpt>
      <trkpt lat="46.23536" lon="6.79062">
        <ele>1293.11</ele>
        <time>2015-06-26T10:05:15Z</time>
      </trkpt>
      <trkpt lat="46.23534" lon="6.7906">
        <ele>1293.11</ele>
        <time>2015-06-26T10:05:17Z</time>
      </trkpt>
      <trkpt lat="46.23512" lon="6.79072">
        <ele>1293.11</ele>
        <time>2015-06-26T10:05:29Z</time>
      </trkpt>
      <trkpt lat="46.23492" lon="6.79093">
        <ele>1297.44</ele>
        <time>2015-06-26T10:05:36Z</time>
      </trkpt>
      <trkpt lat="46.23486" lon="6.79099">
        <ele>1301.76</ele>
        <time>2015-06-26T10:05:38Z</time>
      </trkpt>
      <trkpt lat="46.23481" lon="6.79105">
        <ele>1306.09</ele>
        <time>2015-06-26T10:05:40Z</time>
      </trkpt>
      <trkpt lat="46.23475" lon="6.79111">
        <ele>1310.41</ele>
        <time>2015-06-26T10:05:42Z</time>
      </trkpt>
      <trkpt lat="46.2347" lon="6.79118">
        <ele>1313.3</ele>
        <time>2015-06-26T10:05:44Z</time>
      </trkpt>
      <trkpt lat="46.2346" lon="6.7913">
        <ele>1316.66</ele>
        <time>2015-06-26T10:05:48Z</time>
      </trkpt>
      <trkpt lat="46.23441" lon="6.79153">
        <ele>1320.51</ele>
        <time>2015-06-26T10:05:55Z</time>
      </trkpt>
      <trkpt lat="46.23433" lon="6.79162">
        <ele>1324.35</ele>
        <time>2015-06-26T10:05:58Z</time>
      </trkpt>
      <trkpt lat="46.23428" lon="6.79169">
        <ele>1327.24</ele>
        <time>2015-06-26T10:06:00Z</time>
      </trkpt>
      <trkpt lat="46.23423" lon="6.79175">
        <ele>1330.6</ele>
        <time>2015-06-26T10:06:02Z</time>
      </trkpt>
      <trkpt lat="46.23418" lon="6.79181">
        <ele>1333.97</ele>
        <time>2015-06-26T10:06:04Z</time>
      </trkpt>
      <trkpt lat="46.23413" lon="6.79187">
        <ele>1337.33</ele>
        <time>2015-06-26T10:06:06Z</time>
      </trkpt>
      <trkpt lat="46.23406" lon="6.79197">
        <ele>1341.66</ele>
        <time>2015-06-26T10:06:09Z</time>
      </trkpt>
      <trkpt lat="46.23398" lon="6.79206">
        <ele>1345.5</ele>
        <time>2015-06-26T10:06:12Z</time>
      </trkpt>
      <trkpt lat="46.23391" lon="6.79215">
        <ele>1349.35</ele>
        <time>2015-06-26T10:06:15Z</time>
      </trkpt>
      <trkpt lat="46.23386" lon="6.79221">
        <ele>1352.71</ele>
        <time>2015-06-26T10:06:17Z</time>
      </trkpt>
      <trkpt lat="46.23381" lon="6.79226">
        <ele>1357.52</ele>
        <time>2015-06-26T10:06:19Z</time>
      </trkpt>
      <trkpt lat="46.23377" lon="6.79232">
        <ele>1360.88</ele>
        <time>2015-06-26T10:06:21Z</time>
      </trkpt>
      <trkpt lat="46.23372" lon="6.79237">
        <ele>1366.17</ele>
        <time>2015-06-26T10:06:23Z</time>
      </trkpt>
      <trkpt lat="46.23368" lon="6.79243">
        <ele>1371.94</ele>
        <time>2015-06-26T10:06:25Z</time>
      </trkpt>
      <trkpt lat="46.23364" lon="6.79248">
        <ele>1377.23</ele>
        <time>2015-06-26T10:06:27Z</time>
      </trkpt>
      <trkpt lat="46.23359" lon="6.79254">
        <ele>1382.51</ele>
        <time>2015-06-26T10:06:29Z</time>
      </trkpt>
      <trkpt lat="46.23355" lon="6.79259">
        <ele>1386.84</ele>
        <time>2015-06-26T10:06:31Z</time>
      </trkpt>
      <trkpt lat="46.23351" lon="6.79265">
        <ele>1391.17</ele>
        <time>2015-06-26T10:06:33Z</time>
      </trkpt>
      <trkpt lat="46.23346" lon="6.7927">
        <ele>1395.01</ele>
        <time>2015-06-26T10:06:35Z</time>
      </trkpt>
      <trkpt lat="46.23342" lon="6.79275">
        <ele>1398.86</ele>
        <time>2015-06-26T10:06:37Z</time>
      </trkpt>
      <trkpt lat="46.23338" lon="6.7928">
        <ele>1403.18</ele>
        <time>2015-06-26T10:06:39Z</time>
      </trkpt>
      <trkpt lat="46.23333" lon="6.79285">
        <ele>1407.51</ele>
        <time>2015-06-26T10:06:41Z</time>
      </trkpt>
      <trkpt lat="46.23329" lon="6.79291">
        <ele>1412.31</ele>
        <time>2015-06-26T10:06:43Z</time>
      </trkpt>
      <trkpt lat="46.23325" lon="6.79296">
        <ele>1418.08</ele>
        <time>2015-06-26T10:06:45Z</time>
      </trkpt>
      <trkpt lat="46.2332" lon="6.79301">
        <ele>1420.97</ele>
        <time>2015-06-26T10:06:47Z</time>
      </trkpt>
      <trkpt lat="46.23316" lon="6.79307">
        <ele>1426.25</ele>
        <time>2015-06-26T10:06:49Z</time>
      </trkpt>
      <trkpt lat="46.23312" lon="6.79312">
        <ele>1431.54</ele>
        <time>2015-06-26T10:06:51Z</time>
      </trkpt>
      <trkpt lat="46.23308" lon="6.79317">
        <ele>1436.83</ele>
        <time>2015-06-26T10:06:53Z</time>
      </trkpt>
      <trkpt lat="46.23304" lon="6.79323">
        <ele>1441.63</ele>
        <time>2015-06-26T10:06:55Z</time>
      </trkpt>
      <trkpt lat="46.23299" lon="6.79328">
        <ele>1446.44</ele>
        <time>2015-06-26T10:06:57Z</time>
      </trkpt>
      <trkpt lat="46.23295" lon="6.79334">
        <ele>1451.25</ele>
        <time>2015-06-26T10:06:59Z</time>
      </trkpt>
      <trkpt lat="46.23291" lon="6.7934">
        <ele>1455.57</ele>
        <time>2015-06-26T10:07:01Z</time>
      </trkpt>
      <trkpt lat="46.23286" lon="6.79346">
        <ele>1459.42</ele>
        <time>2015-06-26T10:07:03Z</time>
      </trkpt>
      <trkpt lat="46.23282" lon="6.79351">
        <ele>1463.26</ele>
        <time>2015-06-26T10:07:05Z</time>
      </trkpt>
      <trkpt lat="46.23277" lon="6.79357">
        <ele>1467.11</ele>
        <time>2015-06-26T10:07:07Z</time>
      </trkpt>
      <trkpt lat="46.23273" lon="6.79362">
        <ele>1470.95</ele>
        <time>2015-06-26T10:07:09Z</time>
      </trkpt>
      <trkpt lat="46.23268" lon="6.79368">
        <ele>1475.28</ele>
        <time>2015-06-26T10:07:11Z</time>
      </trkpt>
      <trkpt lat="46.23262" lon="6.79376">
        <ele>1480.09</ele>
        <time>2015-06-26T10:07:14Z</time>
      </trkpt>
      <trkpt lat="46.23257" lon="6.79382">
        <ele>1484.41</ele>
        <time>2015-06-26T10:07:16Z</time>
      </trkpt>
      <trkpt lat="46.23253" lon="6.79387">
        <ele>1489.22</ele>
        <time>2015-06-26T10:07:18Z</time>
      </trkpt>
      <trkpt lat="46.23248" lon="6.79392">
        <ele>1494.03</ele>
        <time>2015-06-26T10:07:20Z</time>
      </trkpt>
      <trkpt lat="46.23244" lon="6.79398">
        <ele>1498.83</ele>
        <time>2015-06-26T10:07:22Z</time>
      </trkpt>
      <trkpt lat="46.2324" lon="6.79404">
        <ele>1503.64</ele>
        <time>2015-06-26T10:07:24Z</time>
      </trkpt>
      <trkpt lat="46.23236" lon="6.79409">
        <ele>1508.45</ele>
        <time>2015-06-26T10:07:26Z</time>
      </trkpt>
      <trkpt lat="46.23231" lon="6.79415">
        <ele>1512.77</ele>
        <time>2015-06-26T10:07:28Z</time>
      </trkpt>
      <trkpt lat="46.23227" lon="6.7942">
        <ele>1517.58</ele>
        <time>2015-06-26T10:07:30Z</time>
      </trkpt>
      <trkpt lat="46.23222" lon="6.79426">
        <ele>1521.9</ele>
        <time>2015-06-26T10:07:32Z</time>
      </trkpt>
      <trkpt lat="46.23217" lon="6.79432">
        <ele>1525.75</ele>
        <time>2015-06-26T10:07:34Z</time>
      </trkpt>
      <trkpt lat="46.23212" lon="6.79439">
        <ele>1529.11</ele>
        <time>2015-06-26T10:07:36Z</time>
      </trkpt>
      <trkpt lat="46.23207" lon="6.79445">
        <ele>1530.56</ele>
        <time>2015-06-26T10:07:38Z</time>
      </trkpt>
      <trkpt lat="46.232" lon="6.79454">
        <ele>1534.4</ele>
        <time>2015-06-26T10:07:41Z</time>
      </trkpt>
      <trkpt lat="46.23192" lon="6.79463">
        <ele>1538.73</ele>
        <time>2015-06-26T10:07:44Z</time>
      </trkpt>
      <trkpt lat="46.23187" lon="6.79469">
        <ele>1542.09</ele>
        <time>2015-06-26T10:07:46Z</time>
      </trkpt>
      <trkpt lat="46.23182" lon="6.79475">
        <ele>1545.46</ele>
        <time>2015-06-26T10:07:48Z</time>
      </trkpt>
      <trkpt lat="46.23177" lon="6.79481">
        <ele>1549.3</ele>
        <time>2015-06-26T10:07:50Z</time>
      </trkpt>
      <trkpt lat="46.23172" lon="6.79487">
        <ele>1553.15</ele>
        <time>2015-06-26T10:07:52Z</time>
      </trkpt>
      <trkpt lat="46.23167" lon="6.79493">
        <ele>1556.99</ele>
        <time>2015-06-26T10:07:54Z</time>
      </trkpt>
      <trkpt lat="46.23163" lon="6.79499">
        <ele>1560.84</ele>
        <time>2015-06-26T10:07:56Z</time>
      </trkpt>
      <trkpt lat="46.23158" lon="6.79505">
        <ele>1564.68</ele>
        <time>2015-06-26T10:07:58Z</time>
      </trkpt>
      <trkpt lat="46.23153" lon="6.79511">
        <ele>1568.53</ele>
        <time>2015-06-26T10:08:00Z</time>
      </trkpt>
      <trkpt lat="46.23148" lon="6.79517">
        <ele>1571.89</ele>
        <time>2015-06-26T10:08:02Z</time>
      </trkpt>
      <trkpt lat="46.23143" lon="6.79522">
        <ele>1575.74</ele>
        <time>2015-06-26T10:08:04Z</time>
      </trkpt>
      <trkpt lat="46.23136" lon="6.79531">
        <ele>1579.58</ele>
        <time>2015-06-26T10:08:07Z</time>
      </trkpt>
      <trkpt lat="46.23132" lon="6.79537">
        <ele>1583.43</ele>
        <time>2015-06-26T10:08:09Z</time>
      </trkpt>
      <trkpt lat="46.23127" lon="6.79542">
        <ele>1587.75</ele>
        <time>2015-06-26T10:08:11Z</time>
      </trkpt>
      <trkpt lat="46.23122" lon="6.79549">
        <ele>1591.12</ele>
        <time>2015-06-26T10:08:13Z</time>
      </trkpt>
      <trkpt lat="46.23116" lon="6.79555">
        <ele>1594.48</ele>
        <time>2015-06-26T10:08:15Z</time>
      </trkpt>
      <trkpt lat="46.23109" lon="6.79564">
        <ele>1597.85</ele>
        <time>2015-06-26T10:08:18Z</time>
      </trkpt>
      <trkpt lat="46.23092" lon="6.79584">
        <ele>1601.21</ele>
        <time>2015-06-26T10:08:24Z</time>
      </trkpt>
      <trkpt lat="46.23071" lon="6.7961">
        <ele>1604.1</ele>
        <time>2015-06-26T10:08:32Z</time>
      </trkpt>
      <trkpt lat="46.23061" lon="6.79623">
        <ele>1607.94</ele>
        <time>2015-06-26T10:08:36Z</time>
      </trkpt>
      <trkpt lat="46.23053" lon="6.79632">
        <ele>1611.31</ele>
        <time>2015-06-26T10:08:39Z</time>
      </trkpt>
      <trkpt lat="46.23044" lon="6.79642">
        <ele>1614.67</ele>
        <time>2015-06-26T10:08:42Z</time>
      </trkpt>
      <trkpt lat="46.23034" lon="6.79655">
        <ele>1618.04</ele>
        <time>2015-06-26T10:08:46Z</time>
      </trkpt>
      <trkpt lat="46.23023" lon="6.79669">
        <ele>1621.4</ele>
        <time>2015-06-26T10:08:50Z</time>
      </trkpt>
      <trkpt lat="46.23012" lon="6.79682">
        <ele>1624.77</ele>
        <time>2015-06-26T10:08:54Z</time>
      </trkpt>
      <trkpt lat="46.23005" lon="6.79692">
        <ele>1628.61</ele>
        <time>2015-06-26T10:08:57Z</time>
      </trkpt>
      <trkpt lat="46.22994" lon="6.79705">
        <ele>1631.98</ele>
        <time>2015-06-26T10:09:01Z</time>
      </trkpt>
      <trkpt lat="46.22986" lon="6.79714">
        <ele>1635.82</ele>
        <time>2015-06-26T10:09:04Z</time>
      </trkpt>
      <trkpt lat="46.22947" lon="6.79766">
        <ele>1639.19</ele>
        <time>2015-06-26T10:09:19Z</time>
      </trkpt>
      <trkpt lat="46.22928" lon="6.79789">
        <ele>1643.03</ele>
        <time>2015-06-26T10:09:26Z</time>
      </trkpt>
      <trkpt lat="46.2292" lon="6.79799">
        <ele>1646.4</ele>
        <time>2015-06-26T10:09:29Z</time>
      </trkpt>
      <trkpt lat="46.22909" lon="6.79813">
        <ele>1649.76</ele>
        <time>2015-06-26T10:09:33Z</time>
      </trkpt>
      <trkpt lat="46.22858" lon="6.79877">
        <ele>1653.6</ele>
        <time>2015-06-26T10:09:52Z</time>
      </trkpt>
      <trkpt lat="46.2285" lon="6.79887">
        <ele>1656.49</ele>
        <time>2015-06-26T10:09:55Z</time>
      </trkpt>
      <trkpt lat="46.22842" lon="6.79897">
        <ele>1659.85</ele>
        <time>2015-06-26T10:09:58Z</time>
      </trkpt>
      <trkpt lat="46.22831" lon="6.7991">
        <ele>1662.74</ele>
        <time>2015-06-26T10:10:02Z</time>
      </trkpt>
      <trkpt lat="46.22813" lon="6.79934">
        <ele>1666.58</ele>
        <time>2015-06-26T10:10:09Z</time>
      </trkpt>
      <trkpt lat="46.22802" lon="6.79948">
        <ele>1669.47</ele>
        <time>2015-06-26T10:10:13Z</time>
      </trkpt>
      <trkpt lat="46.22792" lon="6.79961">
        <ele>1672.83</ele>
        <time>2015-06-26T10:10:17Z</time>
      </trkpt>
      <trkpt lat="46.22783" lon="6.7997">
        <ele>1675.72</ele>
        <time>2015-06-26T10:10:20Z</time>
      </trkpt>
      <trkpt lat="46.22776" lon="6.7998">
        <ele>1679.08</ele>
        <time>2015-06-26T10:10:23Z</time>
      </trkpt>
      <trkpt lat="46.22768" lon="6.7999">
        <ele>1681.96</ele>
        <time>2015-06-26T10:10:26Z</time>
      </trkpt>
      <trkpt lat="46.22757" lon="6.80003">
        <ele>1685.81</ele>
        <time>2015-06-26T10:10:30Z</time>
      </trkpt>
      <trkpt lat="46.22747" lon="6.80016">
        <ele>1689.65</ele>
        <time>2015-06-26T10:10:34Z</time>
      </trkpt>
      <trkpt lat="46.22739" lon="6.80026">
        <ele>1693.02</ele>
        <time>2015-06-26T10:10:37Z</time>
      </trkpt>
      <trkpt lat="46.22731" lon="6.80036">
        <ele>1696.86</ele>
        <time>2015-06-26T10:10:40Z</time>
      </trkpt>
      <trkpt lat="46.22721" lon="6.80049">
        <ele>1700.71</ele>
        <time>2015-06-26T10:10:44Z</time>
      </trkpt>
      <trkpt lat="46.22713" lon="6.80059">
        <ele>1704.55</ele>
        <time>2015-06-26T10:10:47Z</time>
      </trkpt>
      <trkpt lat="46.22705" lon="6.80068">
        <ele>1707.92</ele>
        <time>2015-06-26T10:10:50Z</time>
      </trkpt>
      <trkpt lat="46.22697" lon="6.80077">
        <ele>1711.76</ele>
        <time>2015-06-26T10:10:53Z</time>
      </trkpt>
      <trkpt lat="46.2269" lon="6.80087">
        <ele>1715.13</ele>
        <time>2015-06-26T10:10:56Z</time>
      </trkpt>
      <trkpt lat="46.22682" lon="6.80096">
        <ele>1718.97</ele>
        <time>2015-06-26T10:10:59Z</time>
      </trkpt>
      <trkpt lat="46.22675" lon="6.80106">
        <ele>1723.3</ele>
        <time>2015-06-26T10:11:02Z</time>
      </trkpt>
      <trkpt lat="46.22669" lon="6.80112">
        <ele>1726.18</ele>
        <time>2015-06-26T10:11:04Z</time>
      </trkpt>
      <trkpt lat="46.22664" lon="6.80118">
        <ele>1729.55</ele>
        <time>2015-06-26T10:11:06Z</time>
      </trkpt>
      <trkpt lat="46.22659" lon="6.80124">
        <ele>1732.43</ele>
        <time>2015-06-26T10:11:08Z</time>
      </trkpt>
      <trkpt lat="46.22654" lon="6.80131">
        <ele>1735.8</ele>
        <time>2015-06-26T10:11:10Z</time>
      </trkpt>
      <trkpt lat="46.22646" lon="6.8014">
        <ele>1739.16</ele>
        <time>2015-06-26T10:11:13Z</time>
      </trkpt>
      <trkpt lat="46.22639" lon="6.80149">
        <ele>1743.49</ele>
        <time>2015-06-26T10:11:16Z</time>
      </trkpt>
      <trkpt lat="46.22632" lon="6.80158">
        <ele>1747.81</ele>
        <time>2015-06-26T10:11:19Z</time>
      </trkpt>
      <trkpt lat="46.22624" lon="6.80168">
        <ele>1751.66</ele>
        <time>2015-06-26T10:11:22Z</time>
      </trkpt>
      <trkpt lat="46.22617" lon="6.80177">
        <ele>1755.99</ele>
        <time>2015-06-26T10:11:25Z</time>
      </trkpt>
      <trkpt lat="46.22609" lon="6.80187">
        <ele>1760.31</ele>
        <time>2015-06-26T10:11:28Z</time>
      </trkpt>
      <trkpt lat="46.22604" lon="6.80193">
        <ele>1763.68</ele>
        <time>2015-06-26T10:11:30Z</time>
      </trkpt>
      <trkpt lat="46.22596" lon="6.80203">
        <ele>1767.04</ele>
        <time>2015-06-26T10:11:33Z</time>
      </trkpt>
      <trkpt lat="46.22581" lon="6.80221">
        <ele>1765.6</ele>
        <time>2015-06-26T10:11:43Z</time>
      </trkpt>
      <trkpt lat="46.2258" lon="6.80222">
        <ele>1764.16</ele>
        <time>2015-06-26T10:11:46Z</time>
      </trkpt>
      <trkpt lat="46.22572" lon="6.80239">
        <ele>1763.68</ele>
        <time>2015-06-26T10:12:00Z</time>
      </trkpt>
      <trkpt lat="46.22573" lon="6.80239">
        <ele>1763.68</ele>
        <time>2015-06-26T10:12:20Z</time>
      </trkpt>
      <trkpt lat="46.22573" lon="6.80239">
        <ele>1763.68</ele>
        <time>2015-06-26T10:12:41Z</time>
      </trkpt>
      <trkpt lat="46.22573" lon="6.80239">
        <ele>1763.68</ele>
        <time>2015-06-26T10:12:46Z</time>
      </trkpt>
      <trkpt lat="46.22578" lon="6.80252">
        <ele>1763.2</ele>
        <time>2015-06-26T10:12:52Z</time>
      </trkpt>
      <trkpt lat="46.22585" lon="6.80297">
        <ele>1763.2</ele>
        <time>2015-06-26T10:13:02Z</time>
      </trkpt>
      <trkpt lat="46.22577" lon="6.80311">
        <ele>1763.2</ele>
        <time>2015-06-26T10:13:06Z</time>
      </trkpt>
      <trkpt lat="46.22585" lon="6.80327">
        <ele>1763.2</ele>
        <time>2015-06-26T10:13:11Z</time>
      </trkpt>
      <trkpt lat="46.22604" lon="6.80323">
        <ele>1762.71</ele>
        <time>2015-06-26T10:13:15Z</time>
      </trkpt>
      <trkpt lat="46.22615" lon="6.80322">
        <ele>1762.23</ele>
        <time>2015-06-26T10:13:17Z</time>
      </trkpt>
      <trkpt lat="46.22627" lon="6.80323">
        <ele>1758.87</ele>
        <time>2015-06-26T10:13:19Z</time>
      </trkpt>
      <trkpt lat="46.22644" lon="6.80329">
        <ele>1752.62</ele>
        <time>2015-06-26T10:13:22Z</time>
      </trkpt>
      <trkpt lat="46.22657" lon="6.80328">
        <ele>1749.26</ele>
        <time>2015-06-26T10:13:24Z</time>
      </trkpt>
      <trkpt lat="46.2267" lon="6.80327">
        <ele>1744.93</ele>
        <time>2015-06-26T10:13:26Z</time>
      </trkpt>
      <trkpt lat="46.22685" lon="6.80324">
        <ele>1740.6</ele>
        <time>2015-06-26T10:13:28Z</time>
      </trkpt>
      <trkpt lat="46.22701" lon="6.8032">
        <ele>1736.76</ele>
        <time>2015-06-26T10:13:30Z</time>
      </trkpt>
      <trkpt lat="46.22717" lon="6.80316">
        <ele>1733.88</ele>
        <time>2015-06-26T10:13:32Z</time>
      </trkpt>
      <trkpt lat="46.22747" lon="6.80302">
        <ele>1728.59</ele>
        <time>2015-06-26T10:13:36Z</time>
      </trkpt>
      <trkpt lat="46.22753" lon="6.80298">
        <ele>1727.63</ele>
        <time>2015-06-26T10:13:37Z</time>
      </trkpt>
      <trkpt lat="46.22759" lon="6.8027">
        <ele>1724.74</ele>
        <time>2015-06-26T10:13:43Z</time>
      </trkpt>
      <trkpt lat="46.22752" lon="6.80268">
        <ele>1724.26</ele>
        <time>2015-06-26T10:13:45Z</time>
      </trkpt>
      <trkpt lat="46.22728" lon="6.8024">
        <ele>1720.42</ele>
        <time>2015-06-26T10:13:51Z</time>
      </trkpt>
      <trkpt lat="46.22726" lon="6.80194">
        <ele>1714.65</ele>
        <time>2015-06-26T10:13:55Z</time>
      </trkpt>
      <trkpt lat="46.22726" lon="6.80181">
        <ele>1713.21</ele>
        <time>2015-06-26T10:13:56Z</time>
      </trkpt>
      <trkpt lat="46.22713" lon="6.80147">
        <ele>1707.44</ele>
        <time>2015-06-26T10:14:00Z</time>
      </trkpt>
      <trkpt lat="46.22702" lon="6.80114">
        <ele>1703.59</ele>
        <time>2015-06-26T10:14:04Z</time>
      </trkpt>
      <trkpt lat="46.22689" lon="6.80074">
        <ele>1699.75</ele>
        <time>2015-06-26T10:14:09Z</time>
      </trkpt>
      <trkpt lat="46.22685" lon="6.80045">
        <ele>1695.42</ele>
        <time>2015-06-26T10:14:12Z</time>
      </trkpt>
      <trkpt lat="46.22686" lon="6.80035">
        <ele>1693.98</ele>
        <time>2015-06-26T10:14:13Z</time>
      </trkpt>
      <trkpt lat="46.22686" lon="6.79992">
        <ele>1687.25</ele>
        <time>2015-06-26T10:14:17Z</time>
      </trkpt>
      <trkpt lat="46.22681" lon="6.79962">
        <ele>1682.44</ele>
        <time>2015-06-26T10:14:20Z</time>
      </trkpt>
      <trkpt lat="46.22673" lon="6.79931">
        <ele>1679.08</ele>
        <time>2015-06-26T10:14:23Z</time>
      </trkpt>
      <trkpt lat="46.2267" lon="6.79921">
        <ele>1678.6</ele>
        <time>2015-06-26T10:14:24Z</time>
      </trkpt>
      <trkpt lat="46.22661" lon="6.79876">
        <ele>1674.75</ele>
        <time>2015-06-26T10:14:31Z</time>
      </trkpt>
      <trkpt lat="46.22664" lon="6.79868">
        <ele>1674.27</ele>
        <time>2015-06-26T10:14:32Z</time>
      </trkpt>
      <trkpt lat="46.22674" lon="6.79844">
        <ele>1668.99</ele>
        <time>2015-06-26T10:14:38Z</time>
      </trkpt>
      <trkpt lat="46.22674" lon="6.79844">
        <ele>1669.95</ele>
        <time>2015-06-26T10:15:00Z</time>
      </trkpt>
      <trkpt lat="46.22675" lon="6.79843">
        <ele>1669.95</ele>
        <time>2015-06-26T10:15:17Z</time>
      </trkpt>
      <trkpt lat="46.22675" lon="6.79843">
        <ele>1669.95</ele>
        <time>2015-06-26T10:15:18Z</time>
      </trkpt>
      <trkpt lat="46.22684" lon="6.79855">
        <ele>1669.95</ele>
        <time>2015-06-26T10:15:23Z</time>
      </trkpt>
      <trkpt lat="46.22691" lon="6.79878">
        <ele>1669.95</ele>
        <time>2015-06-26T10:15:27Z</time>
      </trkpt>
      <trkpt lat="46.22717" lon="6.79915">
        <ele>1666.58</ele>
        <time>2015-06-26T10:15:33Z</time>
      </trkpt>
      <trkpt lat="46.22732" lon="6.79916">
        <ele>1663.22</ele>
        <time>2015-06-26T10:15:35Z</time>
      </trkpt>
      <trkpt lat="46.22739" lon="6.79915">
        <ele>1661.3</ele>
        <time>2015-06-26T10:15:36Z</time>
      </trkpt>
      <trkpt lat="46.22772" lon="6.79902">
        <ele>1654.09</ele>
        <time>2015-06-26T10:15:40Z</time>
      </trkpt>
      <trkpt lat="46.22789" lon="6.7989">
        <ele>1650.24</ele>
        <time>2015-06-26T10:15:42Z</time>
      </trkpt>
      <trkpt lat="46.22807" lon="6.79877">
        <ele>1646.88</ele>
        <time>2015-06-26T10:15:44Z</time>
      </trkpt>
      <trkpt lat="46.22837" lon="6.79865">
        <ele>1642.55</ele>
        <time>2015-06-26T10:15:47Z</time>
      </trkpt>
      <trkpt lat="46.22868" lon="6.79871">
        <ele>1642.07</ele>
        <time>2015-06-26T10:15:51Z</time>
      </trkpt>
      <trkpt lat="46.22919" lon="6.79885">
        <ele>1643.03</ele>
        <time>2015-06-26T10:15:57Z</time>
      </trkpt>
      <trkpt lat="46.22951" lon="6.79882">
        <ele>1639.19</ele>
        <time>2015-06-26T10:16:01Z</time>
      </trkpt>
      <trkpt lat="46.2296" lon="6.79878">
        <ele>1639.19</ele>
        <time>2015-06-26T10:16:02Z</time>
      </trkpt>
      <trkpt lat="46.22972" lon="6.79869">
        <ele>1637.74</ele>
        <time>2015-06-26T10:16:04Z</time>
      </trkpt>
      <trkpt lat="46.23002" lon="6.79836">
        <ele>1641.11</ele>
        <time>2015-06-26T10:16:10Z</time>
      </trkpt>
      <trkpt lat="46.23012" lon="6.79824">
        <ele>1644.95</ele>
        <time>2015-06-26T10:16:13Z</time>
      </trkpt>
      <trkpt lat="46.2303" lon="6.79812">
        <ele>1649.76</ele>
        <time>2015-06-26T10:16:18Z</time>
      </trkpt>
      <trkpt lat="46.23041" lon="6.7981">
        <ele>1649.28</ele>
        <time>2015-06-26T10:16:21Z</time>
      </trkpt>
      <trkpt lat="46.23069" lon="6.79818">
        <ele>1649.28</ele>
        <time>2015-06-26T10:16:27Z</time>
      </trkpt>
      <trkpt lat="46.23092" lon="6.79823">
        <ele>1648.32</ele>
        <time>2015-06-26T10:16:32Z</time>
      </trkpt>
      <trkpt lat="46.23117" lon="6.79841">
        <ele>1648.32</ele>
        <time>2015-06-26T10:16:38Z</time>
      </trkpt>
      <trkpt lat="46.23129" lon="6.79853">
        <ele>1648.32</ele>
        <time>2015-06-26T10:16:41Z</time>
      </trkpt>
      <trkpt lat="46.23142" lon="6.79865">
        <ele>1648.32</ele>
        <time>2015-06-26T10:16:44Z</time>
      </trkpt>
      <trkpt lat="46.23167" lon="6.7989">
        <ele>1648.32</ele>
        <time>2015-06-26T10:16:50Z</time>
      </trkpt>
      <trkpt lat="46.23185" lon="6.79903">
        <ele>1648.32</ele>
        <time>2015-06-26T10:16:54Z</time>
      </trkpt>
      <trkpt lat="46.23199" lon="6.79912">
        <ele>1648.32</ele>
        <time>2015-06-26T10:16:57Z</time>
      </trkpt>
      <trkpt lat="46.23217" lon="6.79926">
        <ele>1648.32</ele>
        <time>2015-06-26T10:17:01Z</time>
      </trkpt>
      <trkpt lat="46.23236" lon="6.79951">
        <ele>1648.32</ele>
        <time>2015-06-26T10:17:06Z</time>
      </trkpt>
      <trkpt lat="46.23247" lon="6.79971">
        <ele>1647.36</ele>
        <time>2015-06-26T10:17:10Z</time>
      </trkpt>
      <trkpt lat="46.23267" lon="6.80031">
        <ele>1646.4</ele>
        <time>2015-06-26T10:17:19Z</time>
      </trkpt>
      <trkpt lat="46.23286" lon="6.80055">
        <ele>1642.07</ele>
        <time>2015-06-26T10:17:23Z</time>
      </trkpt>
      <trkpt lat="46.23311" lon="6.80068">
        <ele>1636.3</ele>
        <time>2015-06-26T10:17:26Z</time>
      </trkpt>
      <trkpt lat="46.23319" lon="6.80072">
        <ele>1635.82</ele>
        <time>2015-06-26T10:17:27Z</time>
      </trkpt>
      <trkpt lat="46.23343" lon="6.80085">
        <ele>1632.46</ele>
        <time>2015-06-26T10:17:30Z</time>
      </trkpt>
      <trkpt lat="46.2335" lon="6.80088">
        <ele>1632.46</ele>
        <time>2015-06-26T10:17:31Z</time>
      </trkpt>
      <trkpt lat="46.23365" lon="6.80096">
        <ele>1632.94</ele>
        <time>2015-06-26T10:17:33Z</time>
      </trkpt>
      <trkpt lat="46.23388" lon="6.80096">
        <ele>1636.3</ele>
        <time>2015-06-26T10:17:36Z</time>
      </trkpt>
      <trkpt lat="46.23394" lon="6.80092">
        <ele>1637.74</ele>
        <time>2015-06-26T10:17:37Z</time>
      </trkpt>
      <trkpt lat="46.23417" lon="6.80073">
        <ele>1641.59</ele>
        <time>2015-06-26T10:17:41Z</time>
      </trkpt>
      <trkpt lat="46.2344" lon="6.8007">
        <ele>1641.11</ele>
        <time>2015-06-26T10:17:46Z</time>
      </trkpt>
      <trkpt lat="46.23458" lon="6.80088">
        <ele>1638.7</ele>
        <time>2015-06-26T10:17:51Z</time>
      </trkpt>
      <trkpt lat="46.2349" lon="6.80095">
        <ele>1639.19</ele>
        <time>2015-06-26T10:18:00Z</time>
      </trkpt>
      <trkpt lat="46.23532" lon="6.8008">
        <ele>1640.63</ele>
        <time>2015-06-26T10:18:12Z</time>
      </trkpt>
      <trkpt lat="46.23563" lon="6.80087">
        <ele>1641.11</ele>
        <time>2015-06-26T10:18:21Z</time>
      </trkpt>
      <trkpt lat="46.2361" lon="6.80132">
        <ele>1637.74</ele>
        <time>2015-06-26T10:18:29Z</time>
      </trkpt>
      <trkpt lat="46.23631" lon="6.80166">
        <ele>1631.98</ele>
        <time>2015-06-26T10:18:33Z</time>
      </trkpt>
      <trkpt lat="46.23637" lon="6.80175">
        <ele>1630.53</ele>
        <time>2015-06-26T10:18:34Z</time>
      </trkpt>
      <trkpt lat="46.23658" lon="6.802">
        <ele>1625.25</ele>
        <time>2015-06-26T10:18:37Z</time>
      </trkpt>
      <trkpt lat="46.23681" lon="6.80228">
        <ele>1620.92</ele>
        <time>2015-06-26T10:18:40Z</time>
      </trkpt>
      <trkpt lat="46.23693" lon="6.8025">
        <ele>1619</ele>
        <time>2015-06-26T10:18:42Z</time>
      </trkpt>
      <trkpt lat="46.23705" lon="6.80293">
        <ele>1618.52</ele>
        <time>2015-06-26T10:18:46Z</time>
      </trkpt>
      <trkpt lat="46.23707" lon="6.80327">
        <ele>1617.07</ele>
        <time>2015-06-26T10:18:49Z</time>
      </trkpt>
      <trkpt lat="46.23695" lon="6.80437">
        <ele>1614.19</ele>
        <time>2015-06-26T10:18:58Z</time>
      </trkpt>
      <trkpt lat="46.23693" lon="6.80449">
        <ele>1612.75</ele>
        <time>2015-06-26T10:18:59Z</time>
      </trkpt>
      <trkpt lat="46.23689" lon="6.80483">
        <ele>1607.46</ele>
        <time>2015-06-26T10:19:02Z</time>
      </trkpt>
      <trkpt lat="46.23689" lon="6.80503">
        <ele>1604.1</ele>
        <time>2015-06-26T10:19:04Z</time>
      </trkpt>
      <trkpt lat="46.23695" lon="6.80522">
        <ele>1600.73</ele>
        <time>2015-06-26T10:19:06Z</time>
      </trkpt>
      <trkpt lat="46.23703" lon="6.80554">
        <ele>1597.37</ele>
        <time>2015-06-26T10:19:10Z</time>
      </trkpt>
      <trkpt lat="46.23708" lon="6.80587">
        <ele>1598.33</ele>
        <time>2015-06-26T10:19:14Z</time>
      </trkpt>
      <trkpt lat="46.23717" lon="6.80608">
        <ele>1597.37</ele>
        <time>2015-06-26T10:19:17Z</time>
      </trkpt>
      <trkpt lat="46.23723" lon="6.80621">
        <ele>1596.41</ele>
        <time>2015-06-26T10:19:19Z</time>
      </trkpt>
      <trkpt lat="46.23739" lon="6.80639">
        <ele>1591.6</ele>
        <time>2015-06-26T10:19:23Z</time>
      </trkpt>
      <trkpt lat="46.23745" lon="6.80651">
        <ele>1588.24</ele>
        <time>2015-06-26T10:19:25Z</time>
      </trkpt>
      <trkpt lat="46.23749" lon="6.80657">
        <ele>1586.79</ele>
        <time>2015-06-26T10:19:26Z</time>
      </trkpt>
      <trkpt lat="46.23771" lon="6.80691">
        <ele>1581.03</ele>
        <time>2015-06-26T10:19:31Z</time>
      </trkpt>
      <trkpt lat="46.23787" lon="6.8071">
        <ele>1579.1</ele>
        <time>2015-06-26T10:19:34Z</time>
      </trkpt>
      <trkpt lat="46.23822" lon="6.80729">
        <ele>1576.22</ele>
        <time>2015-06-26T10:19:39Z</time>
      </trkpt>
      <trkpt lat="46.23848" lon="6.80735">
        <ele>1573.33</ele>
        <time>2015-06-26T10:19:42Z</time>
      </trkpt>
      <trkpt lat="46.23889" lon="6.80754">
        <ele>1568.53</ele>
        <time>2015-06-26T10:19:47Z</time>
      </trkpt>
      <trkpt lat="46.23906" lon="6.80762">
        <ele>1566.12</ele>
        <time>2015-06-26T10:19:49Z</time>
      </trkpt>
      <trkpt lat="46.23946" lon="6.80794">
        <ele>1561.32</ele>
        <time>2015-06-26T10:19:54Z</time>
      </trkpt>
      <trkpt lat="46.23964" lon="6.80817">
        <ele>1558.43</ele>
        <time>2015-06-26T10:19:57Z</time>
      </trkpt>
      <trkpt lat="46.23983" lon="6.80832">
        <ele>1554.59</ele>
        <time>2015-06-26T10:20:01Z</time>
      </trkpt>
      <trkpt lat="46.23994" lon="6.80832">
        <ele>1553.63</ele>
        <time>2015-06-26T10:20:03Z</time>
      </trkpt>
      <trkpt lat="46.24006" lon="6.80833">
        <ele>1554.11</ele>
        <time>2015-06-26T10:20:05Z</time>
      </trkpt>
      <trkpt lat="46.24093" lon="6.80826">
        <ele>1550.74</ele>
        <time>2015-06-26T10:20:16Z</time>
      </trkpt>
      <trkpt lat="46.2411" lon="6.8083">
        <ele>1547.86</ele>
        <time>2015-06-26T10:20:18Z</time>
      </trkpt>
      <trkpt lat="46.24134" lon="6.80841">
        <ele>1542.57</ele>
        <time>2015-06-26T10:20:21Z</time>
      </trkpt>
      <trkpt lat="46.24142" lon="6.80847">
        <ele>1541.13</ele>
        <time>2015-06-26T10:20:22Z</time>
      </trkpt>
      <trkpt lat="46.24163" lon="6.80863">
        <ele>1536.32</ele>
        <time>2015-06-26T10:20:26Z</time>
      </trkpt>
      <trkpt lat="46.24164" lon="6.80863">
        <ele>1535.84</ele>
        <time>2015-06-26T10:20:27Z</time>
      </trkpt>
      <trkpt lat="46.24164" lon="6.80863">
        <ele>1539.21</ele>
        <time>2015-06-26T10:20:32Z</time>
      </trkpt>
      <trkpt lat="46.24164" lon="6.80863">
        <ele>1542.57</ele>
        <time>2015-06-26T10:20:38Z</time>
      </trkpt>
      <trkpt lat="46.24164" lon="6.80863">
        <ele>1541.13</ele>
        <time>2015-06-26T10:20:54Z</time>
      </trkpt>
      <trkpt lat="46.24164" lon="6.80863">
        <ele>1541.13</ele>
        <time>2015-06-26T10:21:03Z</time>
      </trkpt>
      <trkpt lat="46.24168" lon="6.80861">
        <ele>1540.65</ele>
        <time>2015-06-26T10:21:08Z</time>
      </trkpt>
      <trkpt lat="46.24197" lon="6.80864">
        <ele>1540.17</ele>
        <time>2015-06-26T10:21:18Z</time>
      </trkpt>
      <trkpt lat="46.24207" lon="6.80867">
        <ele>1540.17</ele>
        <time>2015-06-26T10:21:20Z</time>
      </trkpt>
      <trkpt lat="46.24235" lon="6.80891">
        <ele>1539.21</ele>
        <time>2015-06-26T10:21:26Z</time>
      </trkpt>
      <trkpt lat="46.24255" lon="6.80927">
        <ele>1535.36</ele>
        <time>2015-06-26T10:21:31Z</time>
      </trkpt>
      <trkpt lat="46.24268" lon="6.80952">
        <ele>1531.52</ele>
        <time>2015-06-26T10:21:34Z</time>
      </trkpt>
      <trkpt lat="46.24274" lon="6.80961">
        <ele>1530.56</ele>
        <time>2015-06-26T10:21:35Z</time>
      </trkpt>
      <trkpt lat="46.24298" lon="6.81">
        <ele>1525.75</ele>
        <time>2015-06-26T10:21:39Z</time>
      </trkpt>
      <trkpt lat="46.24312" lon="6.8103">
        <ele>1523.35</ele>
        <time>2015-06-26T10:21:42Z</time>
      </trkpt>
      <trkpt lat="46.24346" lon="6.81071">
        <ele>1523.35</ele>
        <time>2015-06-26T10:21:49Z</time>
      </trkpt>
      <trkpt lat="46.24378" lon="6.81107">
        <ele>1524.31</ele>
        <time>2015-06-26T10:21:56Z</time>
      </trkpt>
      <trkpt lat="46.24394" lon="6.81121">
        <ele>1524.79</ele>
        <time>2015-06-26T10:22:00Z</time>
      </trkpt>
      <trkpt lat="46.24398" lon="6.81137">
        <ele>1525.27</ele>
        <time>2015-06-26T10:22:04Z</time>
      </trkpt>
      <trkpt lat="46.24405" lon="6.81164">
        <ele>1525.27</ele>
        <time>2015-06-26T10:22:08Z</time>
      </trkpt>
      <trkpt lat="46.24409" lon="6.81179">
        <ele>1525.27</ele>
        <time>2015-06-26T10:22:10Z</time>
      </trkpt>
      <trkpt lat="46.24424" lon="6.81206">
        <ele>1525.27</ele>
        <time>2015-06-26T10:22:14Z</time>
      </trkpt>
      <trkpt lat="46.24433" lon="6.81216">
        <ele>1523.83</ele>
        <time>2015-06-26T10:22:16Z</time>
      </trkpt>
      <trkpt lat="46.24463" lon="6.81238">
        <ele>1523.83</ele>
        <time>2015-06-26T10:22:26Z</time>
      </trkpt>
      <trkpt lat="46.24481" lon="6.81268">
        <ele>1526.23</ele>
        <time>2015-06-26T10:22:36Z</time>
      </trkpt>
      <trkpt lat="46.24489" lon="6.81294">
        <ele>1527.19</ele>
        <time>2015-06-26T10:22:43Z</time>
      </trkpt>
      <trkpt lat="46.245" lon="6.81305">
        <ele>1527.67</ele>
        <time>2015-06-26T10:22:47Z</time>
      </trkpt>
      <trkpt lat="46.24524" lon="6.81358">
        <ele>1528.63</ele>
        <time>2015-06-26T10:22:57Z</time>
      </trkpt>
      <trkpt lat="46.24527" lon="6.81362">
        <ele>1528.63</ele>
        <time>2015-06-26T10:22:58Z</time>
      </trkpt>
      <trkpt lat="46.2454" lon="6.81395">
        <ele>1528.63</ele>
        <time>2015-06-26T10:23:04Z</time>
      </trkpt>
      <trkpt lat="46.24538" lon="6.81413">
        <ele>1528.63</ele>
        <time>2015-06-26T10:23:06Z</time>
      </trkpt>
      <trkpt lat="46.2454" lon="6.81443">
        <ele>1525.75</ele>
        <time>2015-06-26T10:23:10Z</time>
      </trkpt>
      <trkpt lat="46.24537" lon="6.81458">
        <ele>1522.87</ele>
        <time>2015-06-26T10:23:12Z</time>
      </trkpt>
      <trkpt lat="46.24529" lon="6.81472">
        <ele>1518.06</ele>
        <time>2015-06-26T10:23:15Z</time>
      </trkpt>
      <trkpt lat="46.24525" lon="6.81477">
        <ele>1514.69</ele>
        <time>2015-06-26T10:23:18Z</time>
      </trkpt>
      <trkpt lat="46.24509" lon="6.81514">
        <ele>1513.73</ele>
        <time>2015-06-26T10:23:25Z</time>
      </trkpt>
      <trkpt lat="46.24497" lon="6.81537">
        <ele>1510.37</ele>
        <time>2015-06-26T10:23:28Z</time>
      </trkpt>
      <trkpt lat="46.24488" lon="6.81561">
        <ele>1504.12</ele>
        <time>2015-06-26T10:23:31Z</time>
      </trkpt>
      <trkpt lat="46.24478" lon="6.81583">
        <ele>1497.39</ele>
        <time>2015-06-26T10:23:34Z</time>
      </trkpt>
      <trkpt lat="46.24475" lon="6.81588">
        <ele>1495.47</ele>
        <time>2015-06-26T10:23:35Z</time>
      </trkpt>
      <trkpt lat="46.24468" lon="6.816">
        <ele>1494.03</ele>
        <time>2015-06-26T10:23:38Z</time>
      </trkpt>
      <trkpt lat="46.24457" lon="6.81627">
        <ele>1493.55</ele>
        <time>2015-06-26T10:23:49Z</time>
      </trkpt>
      <trkpt lat="46.24457" lon="6.81626">
        <ele>1493.55</ele>
        <time>2015-06-26T10:24:06Z</time>
      </trkpt>
      <trkpt lat="46.24449" lon="6.81638">
        <ele>1493.55</ele>
        <time>2015-06-26T10:24:23Z</time>
      </trkpt>
      <trkpt lat="46.24441" lon="6.81675">
        <ele>1492.58</ele>
        <time>2015-06-26T10:24:28Z</time>
      </trkpt>
      <trkpt lat="46.24443" lon="6.81694">
        <ele>1492.1</ele>
        <time>2015-06-26T10:24:30Z</time>
      </trkpt>
      <trkpt lat="46.24455" lon="6.81721">
        <ele>1486.34</ele>
        <time>2015-06-26T10:24:34Z</time>
      </trkpt>
      <trkpt lat="46.24479" lon="6.8174">
        <ele>1479.61</ele>
        <time>2015-06-26T10:24:38Z</time>
      </trkpt>
      <trkpt lat="46.2451" lon="6.81756">
        <ele>1474.8</ele>
        <time>2015-06-26T10:24:42Z</time>
      </trkpt>
      <trkpt lat="46.24527" lon="6.81764">
        <ele>1473.84</ele>
        <time>2015-06-26T10:24:44Z</time>
      </trkpt>
      <trkpt lat="46.24572" lon="6.81767">
        <ele>1473.84</ele>
        <time>2015-06-26T10:24:54Z</time>
      </trkpt>
      <trkpt lat="46.24588" lon="6.81763">
        <ele>1473.84</ele>
        <time>2015-06-26T10:24:58Z</time>
      </trkpt>
      <trkpt lat="46.24605" lon="6.81765">
        <ele>1473.84</ele>
        <time>2015-06-26T10:25:01Z</time>
      </trkpt>
      <trkpt lat="46.24627" lon="6.8178">
        <ele>1470.95</ele>
        <time>2015-06-26T10:25:05Z</time>
      </trkpt>
      <trkpt lat="46.24643" lon="6.81803">
        <ele>1467.11</ele>
        <time>2015-06-26T10:25:08Z</time>
      </trkpt>
      <trkpt lat="46.24648" lon="6.81812">
        <ele>1465.19</ele>
        <time>2015-06-26T10:25:09Z</time>
      </trkpt>
      <trkpt lat="46.24656" lon="6.81842">
        <ele>1460.38</ele>
        <time>2015-06-26T10:25:12Z</time>
      </trkpt>
      <trkpt lat="46.24656" lon="6.81865">
        <ele>1457.98</ele>
        <time>2015-06-26T10:25:14Z</time>
      </trkpt>
      <trkpt lat="46.24661" lon="6.81905">
        <ele>1456.05</ele>
        <time>2015-06-26T10:25:18Z</time>
      </trkpt>
      <trkpt lat="46.24665" lon="6.81912">
        <ele>1457.02</ele>
        <time>2015-06-26T10:25:19Z</time>
      </trkpt>
      <trkpt lat="46.2468" lon="6.81934">
        <ele>1455.09</ele>
        <time>2015-06-26T10:25:22Z</time>
      </trkpt>
      <trkpt lat="46.24702" lon="6.81959">
        <ele>1450.29</ele>
        <time>2015-06-26T10:25:26Z</time>
      </trkpt>
      <trkpt lat="46.24712" lon="6.81973">
        <ele>1447.4</ele>
        <time>2015-06-26T10:25:28Z</time>
      </trkpt>
      <trkpt lat="46.24725" lon="6.82">
        <ele>1441.63</ele>
        <time>2015-06-26T10:25:31Z</time>
      </trkpt>
      <trkpt lat="46.24732" lon="6.82021">
        <ele>1437.79</ele>
        <time>2015-06-26T10:25:33Z</time>
      </trkpt>
      <trkpt lat="46.24736" lon="6.82032">
        <ele>1435.39</ele>
        <time>2015-06-26T10:25:34Z</time>
      </trkpt>
      <trkpt lat="46.24743" lon="6.82066">
        <ele>1430.58</ele>
        <time>2015-06-26T10:25:37Z</time>
      </trkpt>
      <trkpt lat="46.24748" lon="6.821">
        <ele>1427.7</ele>
        <time>2015-06-26T10:25:40Z</time>
      </trkpt>
      <trkpt lat="46.24756" lon="6.82155">
        <ele>1426.73</ele>
        <time>2015-06-26T10:25:45Z</time>
      </trkpt>
      <trkpt lat="46.24751" lon="6.82214">
        <ele>1422.41</ele>
        <time>2015-06-26T10:25:51Z</time>
      </trkpt>
      <trkpt lat="46.24749" lon="6.82238">
        <ele>1419.04</ele>
        <time>2015-06-26T10:25:53Z</time>
      </trkpt>
      <trkpt lat="46.24749" lon="6.82269">
        <ele>1413.28</ele>
        <time>2015-06-26T10:25:56Z</time>
      </trkpt>
      <trkpt lat="46.24749" lon="6.82277">
        <ele>1411.35</ele>
        <time>2015-06-26T10:25:57Z</time>
      </trkpt>
      <trkpt lat="46.24743" lon="6.82299">
        <ele>1406.07</ele>
        <time>2015-06-26T10:26:00Z</time>
      </trkpt>
      <trkpt lat="46.24738" lon="6.82306">
        <ele>1405.1</ele>
        <time>2015-06-26T10:26:01Z</time>
      </trkpt>
      <trkpt lat="46.24696" lon="6.82401">
        <ele>1400.78</ele>
        <time>2015-06-26T10:26:10Z</time>
      </trkpt>
      <trkpt lat="46.24678" lon="6.82438">
        <ele>1396.93</ele>
        <time>2015-06-26T10:26:14Z</time>
      </trkpt>
      <trkpt lat="46.24673" lon="6.82469">
        <ele>1391.65</ele>
        <time>2015-06-26T10:26:18Z</time>
      </trkpt>
      <trkpt lat="46.24679" lon="6.82486">
        <ele>1388.76</ele>
        <time>2015-06-26T10:26:20Z</time>
      </trkpt>
      <trkpt lat="46.24688" lon="6.82504">
        <ele>1386.36</ele>
        <time>2015-06-26T10:26:22Z</time>
      </trkpt>
      <trkpt lat="46.24748" lon="6.82554">
        <ele>1383.47</ele>
        <time>2015-06-26T10:26:31Z</time>
      </trkpt>
      <trkpt lat="46.2478" lon="6.82582">
        <ele>1381.55</ele>
        <time>2015-06-26T10:26:37Z</time>
      </trkpt>
      <trkpt lat="46.24802" lon="6.82593">
        <ele>1376.26</ele>
        <time>2015-06-26T10:26:41Z</time>
      </trkpt>
      <trkpt lat="46.24808" lon="6.82596">
        <ele>1376.26</ele>
        <time>2015-06-26T10:26:42Z</time>
      </trkpt>
      <trkpt lat="46.24835" lon="6.82602">
        <ele>1373.38</ele>
        <time>2015-06-26T10:26:46Z</time>
      </trkpt>
      <trkpt lat="46.24895" lon="6.82605">
        <ele>1370.02</ele>
        <time>2015-06-26T10:26:54Z</time>
      </trkpt>
      <trkpt lat="46.24928" lon="6.8261">
        <ele>1366.65</ele>
        <time>2015-06-26T10:26:58Z</time>
      </trkpt>
      <trkpt lat="46.24946" lon="6.82611">
        <ele>1364.25</ele>
        <time>2015-06-26T10:27:00Z</time>
      </trkpt>
      <trkpt lat="46.24974" lon="6.82616">
        <ele>1358.48</ele>
        <time>2015-06-26T10:27:03Z</time>
      </trkpt>
      <trkpt lat="46.24991" lon="6.82628">
        <ele>1354.63</ele>
        <time>2015-06-26T10:27:05Z</time>
      </trkpt>
      <trkpt lat="46.25006" lon="6.82644">
        <ele>1352.71</ele>
        <time>2015-06-26T10:27:07Z</time>
      </trkpt>
      <trkpt lat="46.25026" lon="6.82669">
        <ele>1349.35</ele>
        <time>2015-06-26T10:27:10Z</time>
      </trkpt>
      <trkpt lat="46.25055" lon="6.82703">
        <ele>1345.5</ele>
        <time>2015-06-26T10:27:14Z</time>
      </trkpt>
      <trkpt lat="46.25082" lon="6.82731">
        <ele>1342.14</ele>
        <time>2015-06-26T10:27:18Z</time>
      </trkpt>
      <trkpt lat="46.25103" lon="6.82757">
        <ele>1337.81</ele>
        <time>2015-06-26T10:27:21Z</time>
      </trkpt>
      <trkpt lat="46.25115" lon="6.82774">
        <ele>1334.45</ele>
        <time>2015-06-26T10:27:23Z</time>
      </trkpt>
      <trkpt lat="46.25126" lon="6.82787">
        <ele>1330.6</ele>
        <time>2015-06-26T10:27:25Z</time>
      </trkpt>
      <trkpt lat="46.25137" lon="6.828">
        <ele>1325.8</ele>
        <time>2015-06-26T10:27:27Z</time>
      </trkpt>
      <trkpt lat="46.25147" lon="6.82811">
        <ele>1321.95</ele>
        <time>2015-06-26T10:27:29Z</time>
      </trkpt>
      <trkpt lat="46.25156" lon="6.82821">
        <ele>1318.59</ele>
        <time>2015-06-26T10:27:31Z</time>
      </trkpt>
      <trkpt lat="46.25168" lon="6.82833">
        <ele>1315.22</ele>
        <time>2015-06-26T10:27:34Z</time>
      </trkpt>
      <trkpt lat="46.25172" lon="6.82858">
        <ele>1314.26</ele>
        <time>2015-06-26T10:27:38Z</time>
      </trkpt>
      <trkpt lat="46.25178" lon="6.8293">
        <ele>1310.41</ele>
        <time>2015-06-26T10:27:45Z</time>
      </trkpt>
      <trkpt lat="46.25182" lon="6.82965">
        <ele>1306.09</ele>
        <time>2015-06-26T10:27:48Z</time>
      </trkpt>
      <trkpt lat="46.25184" lon="6.82977">
        <ele>1304.65</ele>
        <time>2015-06-26T10:27:49Z</time>
      </trkpt>
      <trkpt lat="46.25193" lon="6.83012">
        <ele>1299.84</ele>
        <time>2015-06-26T10:27:52Z</time>
      </trkpt>
      <trkpt lat="46.25204" lon="6.8305">
        <ele>1295.99</ele>
        <time>2015-06-26T10:27:55Z</time>
      </trkpt>
      <trkpt lat="46.25212" lon="6.83086">
        <ele>1292.63</ele>
        <time>2015-06-26T10:27:58Z</time>
      </trkpt>
      <trkpt lat="46.25219" lon="6.83112">
        <ele>1291.67</ele>
        <time>2015-06-26T10:28:00Z</time>
      </trkpt>
      <trkpt lat="46.2524" lon="6.8316">
        <ele>1287.82</ele>
        <time>2015-06-26T10:28:04Z</time>
      </trkpt>
      <trkpt lat="46.25246" lon="6.83171">
        <ele>1286.38</ele>
        <time>2015-06-26T10:28:05Z</time>
      </trkpt>
      <trkpt lat="46.25259" lon="6.83189">
        <ele>1284.46</ele>
        <time>2015-06-26T10:28:07Z</time>
      </trkpt>
      <trkpt lat="46.25285" lon="6.83239">
        <ele>1280.13</ele>
        <time>2015-06-26T10:28:12Z</time>
      </trkpt>
      <trkpt lat="46.25311" lon="6.83272">
        <ele>1275.81</ele>
        <time>2015-06-26T10:28:16Z</time>
      </trkpt>
      <trkpt lat="46.25339" lon="6.83318">
        <ele>1270.52</ele>
        <time>2015-06-26T10:28:21Z</time>
      </trkpt>
      <trkpt lat="46.25404" lon="6.83431">
        <ele>1268.12</ele>
        <time>2015-06-26T10:28:32Z</time>
      </trkpt>
      <trkpt lat="46.25474" lon="6.83574">
        <ele>1270.04</ele>
        <time>2015-06-26T10:28:46Z</time>
      </trkpt>
      <trkpt lat="46.2549" lon="6.83621">
        <ele>1270.52</ele>
        <time>2015-06-26T10:28:52Z</time>
      </trkpt>
      <trkpt lat="46.25497" lon="6.8364">
        <ele>1271</ele>
        <time>2015-06-26T10:28:55Z</time>
      </trkpt>
      <trkpt lat="46.25511" lon="6.83673">
        <ele>1271</ele>
        <time>2015-06-26T10:29:00Z</time>
      </trkpt>
      <trkpt lat="46.25563" lon="6.83757">
        <ele>1271</ele>
        <time>2015-06-26T10:29:14Z</time>
      </trkpt>
      <trkpt lat="46.25577" lon="6.83773">
        <ele>1271</ele>
        <time>2015-06-26T10:29:17Z</time>
      </trkpt>
      <trkpt lat="46.25632" lon="6.83885">
        <ele>1269.56</ele>
        <time>2015-06-26T10:29:32Z</time>
      </trkpt>
      <trkpt lat="46.2565" lon="6.83929">
        <ele>1268.6</ele>
        <time>2015-06-26T10:29:38Z</time>
      </trkpt>
      <trkpt lat="46.25698" lon="6.83978">
        <ele>1265.71</ele>
        <time>2015-06-26T10:29:47Z</time>
      </trkpt>
      <trkpt lat="46.25712" lon="6.83997">
        <ele>1262.35</ele>
        <time>2015-06-26T10:29:50Z</time>
      </trkpt>
      <trkpt lat="46.25721" lon="6.84012">
        <ele>1258.5</ele>
        <time>2015-06-26T10:29:53Z</time>
      </trkpt>
      <trkpt lat="46.25726" lon="6.84024">
        <ele>1255.14</ele>
        <time>2015-06-26T10:29:56Z</time>
      </trkpt>
      <trkpt lat="46.25729" lon="6.84035">
        <ele>1253.7</ele>
        <time>2015-06-26T10:30:05Z</time>
      </trkpt>
      <trkpt lat="46.25729" lon="6.84035">
        <ele>1255.62</ele>
        <time>2015-06-26T10:30:26Z</time>
      </trkpt>
      <trkpt lat="46.25729" lon="6.84034">
        <ele>1256.1</ele>
        <time>2015-06-26T10:30:55Z</time>
      </trkpt>
      <trkpt lat="46.25732" lon="6.84036">
        <ele>1256.1</ele>
        <time>2015-06-26T10:31:11Z</time>
      </trkpt>
      <trkpt lat="46.25732" lon="6.84036">
        <ele>1256.1</ele>
        <time>2015-06-26T10:31:39Z</time>
      </trkpt>
      <trkpt lat="46.25731" lon="6.84036">
        <ele>1256.1</ele>
        <time>2015-06-26T10:31:58Z</time>
      </trkpt>
      <trkpt lat="46.25732" lon="6.84035">
        <ele>1256.1</ele>
        <time>2015-06-26T10:32:25Z</time>
      </trkpt>
      <trkpt lat="46.25765" lon="6.84042">
        <ele>1256.1</ele>
        <time>2015-06-26T10:32:35Z</time>
      </trkpt>
      <trkpt lat="46.25835" lon="6.8406">
        <ele>1252.25</ele>
        <time>2015-06-26T10:32:48Z</time>
      </trkpt>
      <trkpt lat="46.25913" lon="6.84082">
        <ele>1249.37</ele>
        <time>2015-06-26T10:33:02Z</time>
      </trkpt>
      <trkpt lat="46.25991" lon="6.8409">
        <ele>1246.97</ele>
        <time>2015-06-26T10:33:14Z</time>
      </trkpt>
      <trkpt lat="46.26081" lon="6.84074">
        <ele>1243.12</ele>
        <time>2015-06-26T10:33:27Z</time>
      </trkpt>
      <trkpt lat="46.26111" lon="6.84071">
        <ele>1239.28</ele>
        <time>2015-06-26T10:33:31Z</time>
      </trkpt>
      <trkpt lat="46.26141" lon="6.84074">
        <ele>1235.91</ele>
        <time>2015-06-26T10:33:35Z</time>
      </trkpt>
      <trkpt lat="46.26263" lon="6.84113">
        <ele>1232.55</ele>
        <time>2015-06-26T10:33:50Z</time>
      </trkpt>
      <trkpt lat="46.26298" lon="6.84125">
        <ele>1228.7</ele>
        <time>2015-06-26T10:33:54Z</time>
      </trkpt>
      <trkpt lat="46.26325" lon="6.84133">
        <ele>1224.86</ele>
        <time>2015-06-26T10:33:57Z</time>
      </trkpt>
      <trkpt lat="46.26362" lon="6.84144">
        <ele>1221.49</ele>
        <time>2015-06-26T10:34:01Z</time>
      </trkpt>
      <trkpt lat="46.26499" lon="6.84176">
        <ele>1218.61</ele>
        <time>2015-06-26T10:34:16Z</time>
      </trkpt>
      <trkpt lat="46.26527" lon="6.84175">
        <ele>1215.24</ele>
        <time>2015-06-26T10:34:19Z</time>
      </trkpt>
      <trkpt lat="46.26555" lon="6.84171">
        <ele>1211.88</ele>
        <time>2015-06-26T10:34:22Z</time>
      </trkpt>
      <trkpt lat="46.26589" lon="6.84162">
        <ele>1209</ele>
        <time>2015-06-26T10:34:26Z</time>
      </trkpt>
      <trkpt lat="46.26604" lon="6.84154">
        <ele>1209</ele>
        <time>2015-06-26T10:34:28Z</time>
      </trkpt>
      <trkpt lat="46.26653" lon="6.84136">
        <ele>1208.03</ele>
        <time>2015-06-26T10:34:34Z</time>
      </trkpt>
      <trkpt lat="46.26717" lon="6.84109">
        <ele>1204.67</ele>
        <time>2015-06-26T10:34:43Z</time>
      </trkpt>
      <trkpt lat="46.26723" lon="6.84107">
        <ele>1203.71</ele>
        <time>2015-06-26T10:34:44Z</time>
      </trkpt>
      <trkpt lat="46.26754" lon="6.84104">
        <ele>1199.86</ele>
        <time>2015-06-26T10:34:49Z</time>
      </trkpt>
      <trkpt lat="46.26783" lon="6.84098">
        <ele>1199.38</ele>
        <time>2015-06-26T10:34:54Z</time>
      </trkpt>
      <trkpt lat="46.26801" lon="6.84089">
        <ele>1199.38</ele>
        <time>2015-06-26T10:34:58Z</time>
      </trkpt>
      <trkpt lat="46.26809" lon="6.84071">
        <ele>1198.9</ele>
        <time>2015-06-26T10:35:03Z</time>
      </trkpt>
      <trkpt lat="46.26808" lon="6.84063">
        <ele>1197.94</ele>
        <time>2015-06-26T10:35:12Z</time>
      </trkpt>
      <trkpt lat="46.26808" lon="6.84064">
        <ele>1197.94</ele>
        <time>2015-06-26T10:35:23Z</time>
      </trkpt>
      <trkpt lat="46.26808" lon="6.84064">
        <ele>1197.46</ele>
        <time>2015-06-26T10:35:38Z</time>
      </trkpt>
      <trkpt lat="46.26808" lon="6.8406">
        <ele>1197.46</ele>
        <time>2015-06-26T10:35:51Z</time>
      </trkpt>
      <trkpt lat="46.26808" lon="6.84058">
        <ele>1197.46</ele>
        <time>2015-06-26T10:36:07Z</time>
      </trkpt>
      <trkpt lat="46.26807" lon="6.84055">
        <ele>1197.46</ele>
        <time>2015-06-26T10:36:21Z</time>
      </trkpt>
      <trkpt lat="46.26807" lon="6.84054">
        <ele>1197.46</ele>
        <time>2015-06-26T10:36:28Z</time>
      </trkpt>
      <trkpt lat="46.26809" lon="6.84057">
        <ele>1197.46</ele>
        <time>2015-06-26T10:36:39Z</time>
      </trkpt>
      <trkpt lat="46.26809" lon="6.84057">
        <ele>1197.46</ele>
        <time>2015-06-26T10:37:00Z</time>
      </trkpt>
      <trkpt lat="46.26809" lon="6.84057">
        <ele>1197.46</ele>
        <time>2015-06-26T10:37:24Z</time>
      </trkpt>
      <trkpt lat="46.26809" lon="6.84057">
        <ele>1197.46</ele>
        <time>2015-06-26T10:37:49Z</time>
      </trkpt>
      <trkpt lat="46.26809" lon="6.84057">
        <ele>1197.46</ele>
        <time>2015-06-26T10:38:11Z</time>
      </trkpt>
      <trkpt lat="46.26809" lon="6.84057">
        <ele>1197.46</ele>
        <time>2015-06-26T10:38:34Z</time>
      </trkpt>
      <trkpt lat="46.26809" lon="6.84057">
        <ele>1197.46</ele>
        <time>2015-06-26T10:38:56Z</time>
      </trkpt>
      <trkpt lat="46.26809" lon="6.84057">
        <ele>1197.46</ele>
        <time>2015-06-26T10:39:18Z</time>
      </trkpt>
      <trkpt lat="46.26809" lon="6.84056">
        <ele>1197.46</ele>
        <time>2015-06-26T10:39:40Z</time>
      </trkpt>
      <trkpt lat="46.26811" lon="6.84045">
        <ele>1197.46</ele>
        <time>2015-06-26T10:39:49Z</time>
      </trkpt>
      <trkpt lat="46.26806" lon="6.84041">
        <ele>1197.46</ele>
        <time>2015-06-26T10:39:54Z</time>
      </trkpt>
      <trkpt lat="46.26799" lon="6.84042">
        <ele>1197.46</ele>
        <time>2015-06-26T10:40:08Z</time>
      </trkpt>
      <trkpt lat="46.26799" lon="6.84042">
        <ele>1197.46</ele>
        <time>2015-06-26T10:40:22Z</time>
      </trkpt>
      <trkpt lat="46.26799" lon="6.84041">
        <ele>1197.46</ele>
        <time>2015-06-26T10:40:54Z</time>
      </trkpt>
      <trkpt lat="46.26799" lon="6.84041">
        <ele>1197.46</ele>
        <time>2015-06-26T10:41:27Z</time>
      </trkpt>
      <trkpt lat="46.26799" lon="6.8404">
        <ele>1197.46</ele>
        <time>2015-06-26T10:42:02Z</time>
      </trkpt>
      <trkpt lat="46.26799" lon="6.84039">
        <ele>1196.98</ele>
        <time>2015-06-26T10:42:28Z</time>
      </trkpt>
      <trkpt lat="46.26799" lon="6.84039">
        <ele>1196.98</ele>
        <time>2015-06-26T10:42:59Z</time>
      </trkpt>
      <trkpt lat="46.26799" lon="6.84039">
        <ele>1196.98</ele>
        <time>2015-06-26T10:43:27Z</time>
      </trkpt>
      <trkpt lat="46.26799" lon="6.84038">
        <ele>1196.98</ele>
        <time>2015-06-26T10:43:52Z</time>
      </trkpt>
      <trkpt lat="46.26799" lon="6.84038">
        <ele>1196.98</ele>
        <time>2015-06-26T10:44:12Z</time>
      </trkpt>
      <trkpt lat="46.26799" lon="6.84038">
        <ele>1196.98</ele>
        <time>2015-06-26T10:44:34Z</time>
      </trkpt>
      <trkpt lat="46.26799" lon="6.84037">
        <ele>1196.98</ele>
        <time>2015-06-26T10:44:57Z</time>
      </trkpt>
      <trkpt lat="46.26799" lon="6.84037">
        <ele>1196.98</ele>
        <time>2015-06-26T10:45:16Z</time>
      </trkpt>
      <trkpt lat="46.26799" lon="6.84037">
        <ele>1196.98</ele>
        <time>2015-06-26T10:45:41Z</time>
      </trkpt>
      <trkpt lat="46.26799" lon="6.84037">
        <ele>1196.98</ele>
        <time>2015-06-26T10:46:07Z</time>
      </trkpt>
      <trkpt lat="46.26799" lon="6.84037">
        <ele>1196.98</ele>
        <time>2015-06-26T10:46:29Z</time>
      </trkpt>
      <trkpt lat="46.26801" lon="6.84041">
        <ele>1196.98</ele>
        <time>2015-06-26T10:46:48Z</time>
      </trkpt>
      <trkpt lat="46.26802" lon="6.84041">
        <ele>1196.98</ele>
        <time>2015-06-26T10:47:03Z</time>
      </trkpt>
      <trkpt lat="46.268" lon="6.84038">
        <ele>1196.98</ele>
        <time>2015-06-26T10:47:16Z</time>
      </trkpt>
      <trkpt lat="46.268" lon="6.84039">
        <ele>1196.98</ele>
        <time>2015-06-26T10:47:36Z</time>
      </trkpt>
      <trkpt lat="46.26801" lon="6.84038">
        <ele>1196.98</ele>
        <time>2015-06-26T10:48:00Z</time>
      </trkpt>
      <trkpt lat="46.268" lon="6.84038">
        <ele>1196.98</ele>
        <time>2015-06-26T10:48:27Z</time>
      </trkpt>
      <trkpt lat="46.268" lon="6.84038">
        <ele>1196.98</ele>
        <time>2015-06-26T10:49:00Z</time>
      </trkpt>
      <trkpt lat="46.268" lon="6.84039">
        <ele>1196.98</ele>
        <time>2015-06-26T10:49:27Z</time>
      </trkpt>
      <trkpt lat="46.26799" lon="6.84038">
        <ele>1196.98</ele>
        <time>2015-06-26T10:49:43Z</time>
      </trkpt>
      <trkpt lat="46.26811" lon="6.84043">
        <ele>1196.5</ele>
        <time>2015-06-26T10:49:59Z</time>
      </trkpt>
      <trkpt lat="46.26811" lon="6.84043">
        <ele>1196.5</ele>
        <time>2015-06-26T10:50:19Z</time>
      </trkpt>
      <trkpt lat="46.26811" lon="6.84043">
        <ele>1196.5</ele>
        <time>2015-06-26T10:50:39Z</time>
      </trkpt>
      <trkpt lat="46.26807" lon="6.84037">
        <ele>1196.5</ele>
        <time>2015-06-26T10:50:51Z</time>
      </trkpt>
      <trkpt lat="46.26806" lon="6.84037">
        <ele>1196.5</ele>
        <time>2015-06-26T10:50:52Z</time>
      </trkpt>
      <trkpt lat="46.26799" lon="6.84038">
        <ele>1196.5</ele>
        <time>2015-06-26T10:51:06Z</time>
      </trkpt>
      <trkpt lat="46.26799" lon="6.84038">
        <ele>1196.5</ele>
        <time>2015-06-26T10:51:26Z</time>
      </trkpt>
      <trkpt lat="46.26799" lon="6.84038">
        <ele>1196.5</ele>
        <time>2015-06-26T10:51:51Z</time>
      </trkpt>
      <trkpt lat="46.26799" lon="6.84038">
        <ele>1196.5</ele>
        <time>2015-06-26T10:52:19Z</time>
      </trkpt>
      <trkpt lat="46.26799" lon="6.84038">
        <ele>1196.5</ele>
        <time>2015-06-26T10:52:48Z</time>
      </trkpt>
      <trkpt lat="46.26799" lon="6.84038">
        <ele>1196.5</ele>
        <time>2015-06-26T10:53:17Z</time>
      </trkpt>
      <trkpt lat="46.26799" lon="6.84038">
        <ele>1196.5</ele>
        <time>2015-06-26T10:53:35Z</time>
      </trkpt>
      <trkpt lat="46.26799" lon="6.84038">
        <ele>1196.5</ele>
        <time>2015-06-26T10:53:56Z</time>
      </trkpt>
      <trkpt lat="46.26799" lon="6.84038">
        <ele>1196.5</ele>
        <time>2015-06-26T10:54:29Z</time>
      </trkpt>
      <trkpt lat="46.268" lon="6.84037">
        <ele>1196.5</ele>
        <time>2015-06-26T10:54:51Z</time>
      </trkpt>
      <trkpt lat="46.268" lon="6.84037">
        <ele>1196.5</ele>
        <time>2015-06-26T10:55:12Z</time>
      </trkpt>
      <trkpt lat="46.26799" lon="6.84037">
        <ele>1196.5</ele>
        <time>2015-06-26T10:55:40Z</time>
      </trkpt>
      <trkpt lat="46.26799" lon="6.84037">
        <ele>1196.5</ele>
        <time>2015-06-26T10:56:09Z</time>
      </trkpt>
      <trkpt lat="46.26799" lon="6.84037">
        <ele>1196.5</ele>
        <time>2015-06-26T10:56:36Z</time>
      </trkpt>
      <trkpt lat="46.26798" lon="6.84038">
        <ele>1196.5</ele>
        <time>2015-06-26T10:57:02Z</time>
      </trkpt>
      <trkpt lat="46.26812" lon="6.84041">
        <ele>1196.5</ele>
        <time>2015-06-26T10:57:16Z</time>
      </trkpt>
      <trkpt lat="46.26807" lon="6.84035">
        <ele>1196.02</ele>
        <time>2015-06-26T10:57:34Z</time>
      </trkpt>
      <trkpt lat="46.26799" lon="6.84036">
        <ele>1196.02</ele>
        <time>2015-06-26T10:57:47Z</time>
      </trkpt>
      <trkpt lat="46.26799" lon="6.84036">
        <ele>1196.02</ele>
        <time>2015-06-26T10:58:10Z</time>
      </trkpt>
      <trkpt lat="46.26799" lon="6.84036">
        <ele>1196.02</ele>
        <time>2015-06-26T10:58:30Z</time>
      </trkpt>
      <trkpt lat="46.26798" lon="6.84038">
        <ele>1196.02</ele>
        <time>2015-06-26T10:58:47Z</time>
      </trkpt>
      <trkpt lat="46.26798" lon="6.84038">
        <ele>1196.02</ele>
        <time>2015-06-26T10:59:11Z</time>
      </trkpt>
      <trkpt lat="46.26798" lon="6.84038">
        <ele>1196.02</ele>
        <time>2015-06-26T10:59:36Z</time>
      </trkpt>
      <trkpt lat="46.26798" lon="6.84038">
        <ele>1196.02</ele>
        <time>2015-06-26T11:00:09Z</time>
      </trkpt>
      <trkpt lat="46.26798" lon="6.84039">
        <ele>1196.02</ele>
        <time>2015-06-26T11:00:49Z</time>
      </trkpt>
      <trkpt lat="46.26798" lon="6.84039">
        <ele>1196.02</ele>
        <time>2015-06-26T11:01:06Z</time>
      </trkpt>
      <trkpt lat="46.26798" lon="6.84043">
        <ele>1196.02</ele>
        <time>2015-06-26T11:01:09Z</time>
      </trkpt>
      <trkpt lat="46.26796" lon="6.8405">
        <ele>1196.02</ele>
        <time>2015-06-26T11:01:15Z</time>
      </trkpt>
      <trkpt lat="46.26796" lon="6.8406">
        <ele>1196.02</ele>
        <time>2015-06-26T11:01:32Z</time>
      </trkpt>
      <trkpt lat="46.26796" lon="6.8406">
        <ele>1196.02</ele>
        <time>2015-06-26T11:01:57Z</time>
      </trkpt>
      <trkpt lat="46.26796" lon="6.8406">
        <ele>1196.02</ele>
        <time>2015-06-26T11:02:19Z</time>
      </trkpt>
      <trkpt lat="46.26796" lon="6.8406">
        <ele>1196.02</ele>
        <time>2015-06-26T11:02:41Z</time>
      </trkpt>
      <trkpt lat="46.26796" lon="6.8406">
        <ele>1196.02</ele>
        <time>2015-06-26T11:03:18Z</time>
      </trkpt>
      <trkpt lat="46.26796" lon="6.84061">
        <ele>1196.02</ele>
        <time>2015-06-26T11:03:50Z</time>
      </trkpt>
      <trkpt lat="46.26796" lon="6.84061">
        <ele>1196.02</ele>
        <time>2015-06-26T11:04:27Z</time>
      </trkpt>
      <trkpt lat="46.26796" lon="6.84061">
        <ele>1196.02</ele>
        <time>2015-06-26T11:04:55Z</time>
      </trkpt>
      <trkpt lat="46.26796" lon="6.84061">
        <ele>1196.02</ele>
        <time>2015-06-26T11:05:21Z</time>
      </trkpt>
      <trkpt lat="46.26796" lon="6.84061">
        <ele>1196.02</ele>
        <time>2015-06-26T11:05:49Z</time>
      </trkpt>
      <trkpt lat="46.26796" lon="6.84062">
        <ele>1196.02</ele>
        <time>2015-06-26T11:06:19Z</time>
      </trkpt>
      <trkpt lat="46.26796" lon="6.84061">
        <ele>1196.02</ele>
        <time>2015-06-26T11:06:57Z</time>
      </trkpt>
      <trkpt lat="46.26796" lon="6.84061">
        <ele>1196.02</ele>
        <time>2015-06-26T11:07:31Z</time>
      </trkpt>
      <trkpt lat="46.26797" lon="6.84062">
        <ele>1196.02</ele>
        <time>2015-06-26T11:07:56Z</time>
      </trkpt>
      <trkpt lat="46.26797" lon="6.84061">
        <ele>1196.02</ele>
        <time>2015-06-26T11:08:13Z</time>
      </trkpt>
      <trkpt lat="46.26797" lon="6.84061">
        <ele>1196.02</ele>
        <time>2015-06-26T11:08:45Z</time>
      </trkpt>
      <trkpt lat="46.26797" lon="6.84061">
        <ele>1196.02</ele>
        <time>2015-06-26T11:09:10Z</time>
      </trkpt>
      <trkpt lat="46.26799" lon="6.84061">
        <ele>1196.02</ele>
        <time>2015-06-26T11:09:24Z</time>
      </trkpt>
      <trkpt lat="46.26801" lon="6.84059">
        <ele>1196.02</ele>
        <time>2015-06-26T11:09:27Z</time>
      </trkpt>
      <trkpt lat="46.26803" lon="6.84046">
        <ele>1195.54</ele>
        <time>2015-06-26T11:09:42Z</time>
      </trkpt>
      <trkpt lat="46.26802" lon="6.84037">
        <ele>1195.54</ele>
        <time>2015-06-26T11:09:53Z</time>
      </trkpt>
      <trkpt lat="46.26802" lon="6.84037">
        <ele>1195.54</ele>
        <time>2015-06-26T11:10:19Z</time>
      </trkpt>
      <trkpt lat="46.26802" lon="6.84041">
        <ele>1195.54</ele>
        <time>2015-06-26T11:10:25Z</time>
      </trkpt>
      <trkpt lat="46.26802" lon="6.8405">
        <ele>1195.54</ele>
        <time>2015-06-26T11:10:39Z</time>
      </trkpt>
      <trkpt lat="46.26799" lon="6.84061">
        <ele>1195.54</ele>
        <time>2015-06-26T11:10:52Z</time>
      </trkpt>
      <trkpt lat="46.26799" lon="6.8406">
        <ele>1195.54</ele>
        <time>2015-06-26T11:11:05Z</time>
      </trkpt>
      <trkpt lat="46.268" lon="6.84059">
        <ele>1195.54</ele>
        <time>2015-06-26T11:11:08Z</time>
      </trkpt>
      <trkpt lat="46.268" lon="6.84061">
        <ele>1195.54</ele>
        <time>2015-06-26T11:11:27Z</time>
      </trkpt>
      <trkpt lat="46.268" lon="6.84061">
        <ele>1195.54</ele>
        <time>2015-06-26T11:11:59Z</time>
      </trkpt>
      <trkpt lat="46.268" lon="6.84061">
        <ele>1195.54</ele>
        <time>2015-06-26T11:12:24Z</time>
      </trkpt>
      <trkpt lat="46.268" lon="6.84061">
        <ele>1195.54</ele>
        <time>2015-06-26T11:12:39Z</time>
      </trkpt>
      <trkpt lat="46.26804" lon="6.84051">
        <ele>1195.54</ele>
        <time>2015-06-26T11:12:52Z</time>
      </trkpt>
      <trkpt lat="46.26804" lon="6.84049">
        <ele>1195.54</ele>
        <time>2015-06-26T11:12:56Z</time>
      </trkpt>
      <trkpt lat="46.26802" lon="6.84041">
        <ele>1195.54</ele>
        <time>2015-06-26T11:13:08Z</time>
      </trkpt>
      <trkpt lat="46.26803" lon="6.84043">
        <ele>1195.54</ele>
        <time>2015-06-26T11:13:12Z</time>
      </trkpt>
      <trkpt lat="46.26802" lon="6.8405">
        <ele>1195.06</ele>
        <time>2015-06-26T11:13:26Z</time>
      </trkpt>
      <trkpt lat="46.26802" lon="6.8405">
        <ele>1195.06</ele>
        <time>2015-06-26T11:13:56Z</time>
      </trkpt>
      <trkpt lat="46.26802" lon="6.84049">
        <ele>1195.06</ele>
        <time>2015-06-26T11:14:22Z</time>
      </trkpt>
      <trkpt lat="46.26805" lon="6.84048">
        <ele>1195.06</ele>
        <time>2015-06-26T11:14:27Z</time>
      </trkpt>
      <trkpt lat="46.26806" lon="6.84044">
        <ele>1195.06</ele>
        <time>2015-06-26T11:14:39Z</time>
      </trkpt>
      <trkpt lat="46.26806" lon="6.84044">
        <ele>1195.06</ele>
        <time>2015-06-26T11:15:01Z</time>
      </trkpt>
      <trkpt lat="46.26807" lon="6.84045">
        <ele>1195.06</ele>
        <time>2015-06-26T11:15:18Z</time>
      </trkpt>
      <trkpt lat="46.26807" lon="6.84045">
        <ele>1196.02</ele>
        <time>2015-06-26T11:15:38Z</time>
      </trkpt>
      <trkpt lat="46.26807" lon="6.84046">
        <ele>1196.02</ele>
        <time>2015-06-26T11:15:55Z</time>
      </trkpt>
      <trkpt lat="46.26806" lon="6.84049">
        <ele>1196.02</ele>
        <time>2015-06-26T11:16:01Z</time>
      </trkpt>
      <trkpt lat="46.26804" lon="6.84063">
        <ele>1196.5</ele>
        <time>2015-06-26T11:16:14Z</time>
      </trkpt>
      <trkpt lat="46.26804" lon="6.84062">
        <ele>1196.5</ele>
        <time>2015-06-26T11:16:28Z</time>
      </trkpt>
      <trkpt lat="46.26804" lon="6.84063">
        <ele>1196.5</ele>
        <time>2015-06-26T11:16:43Z</time>
      </trkpt>
      <trkpt lat="46.26805" lon="6.84064">
        <ele>1196.5</ele>
        <time>2015-06-26T11:16:53Z</time>
      </trkpt>
      <trkpt lat="46.26807" lon="6.84077">
        <ele>1196.02</ele>
        <time>2015-06-26T11:16:59Z</time>
      </trkpt>
      <trkpt lat="46.26791" lon="6.84087">
        <ele>1196.02</ele>
        <time>2015-06-26T11:17:05Z</time>
      </trkpt>
      <trkpt lat="46.26768" lon="6.84114">
        <ele>1197.46</ele>
        <time>2015-06-26T11:17:17Z</time>
      </trkpt>
      <trkpt lat="46.26764" lon="6.84122">
        <ele>1197.94</ele>
        <time>2015-06-26T11:17:20Z</time>
      </trkpt>
      <trkpt lat="46.26732" lon="6.84136">
        <ele>1200.82</ele>
        <time>2015-06-26T11:17:34Z</time>
      </trkpt>
      <trkpt lat="46.26703" lon="6.84144">
        <ele>1202.75</ele>
        <time>2015-06-26T11:17:44Z</time>
      </trkpt>
      <trkpt lat="46.26702" lon="6.84152">
        <ele>1203.23</ele>
        <time>2015-06-26T11:17:48Z</time>
      </trkpt>
      <trkpt lat="46.26728" lon="6.8417">
        <ele>1205.15</ele>
        <time>2015-06-26T11:18:00Z</time>
      </trkpt>
      <trkpt lat="46.2673" lon="6.84179">
        <ele>1205.63</ele>
        <time>2015-06-26T11:18:03Z</time>
      </trkpt>
      <trkpt lat="46.26729" lon="6.84181">
        <ele>1206.59</ele>
        <time>2015-06-26T11:18:04Z</time>
      </trkpt>
      <trkpt lat="46.26721" lon="6.84185">
        <ele>1207.07</ele>
        <time>2015-06-26T11:18:07Z</time>
      </trkpt>
      <trkpt lat="46.26694" lon="6.842">
        <ele>1210.92</ele>
        <time>2015-06-26T11:18:19Z</time>
      </trkpt>
      <trkpt lat="46.2669" lon="6.84204">
        <ele>1212.36</ele>
        <time>2015-06-26T11:18:21Z</time>
      </trkpt>
      <trkpt lat="46.26685" lon="6.84208">
        <ele>1214.28</ele>
        <time>2015-06-26T11:18:24Z</time>
      </trkpt>
      <trkpt lat="46.26679" lon="6.84211">
        <ele>1215.72</ele>
        <time>2015-06-26T11:18:27Z</time>
      </trkpt>
      <trkpt lat="46.26669" lon="6.84215">
        <ele>1216.21</ele>
        <time>2015-06-26T11:18:33Z</time>
      </trkpt>
      <trkpt lat="46.26661" lon="6.84219">
        <ele>1216.21</ele>
        <time>2015-06-26T11:18:38Z</time>
      </trkpt>
      <trkpt lat="46.26651" lon="6.84218">
        <ele>1216.21</ele>
        <time>2015-06-26T11:18:52Z</time>
      </trkpt>
      <trkpt lat="46.2665" lon="6.84223">
        <ele>1217.65</ele>
        <time>2015-06-26T11:18:58Z</time>
      </trkpt>
      <trkpt lat="46.26655" lon="6.84256">
        <ele>1220.05</ele>
        <time>2015-06-26T11:19:16Z</time>
      </trkpt>
      <trkpt lat="46.26655" lon="6.84257">
        <ele>1221.01</ele>
        <time>2015-06-26T11:19:33Z</time>
      </trkpt>
      <trkpt lat="46.26655" lon="6.84257">
        <ele>1221.49</ele>
        <time>2015-06-26T11:20:00Z</time>
      </trkpt>
      <trkpt lat="46.26654" lon="6.84256">
        <ele>1221.49</ele>
        <time>2015-06-26T11:20:24Z</time>
      </trkpt>
      <trkpt lat="46.26656" lon="6.84265">
        <ele>1221.49</ele>
        <time>2015-06-26T11:20:44Z</time>
      </trkpt>
      <trkpt lat="46.26657" lon="6.84266">
        <ele>1221.97</ele>
        <time>2015-06-26T11:20:49Z</time>
      </trkpt>
      <trkpt lat="46.26664" lon="6.84268">
        <ele>1221.97</ele>
        <time>2015-06-26T11:21:12Z</time>
      </trkpt>
      <trkpt lat="46.26664" lon="6.84268">
        <ele>1221.97</ele>
        <time>2015-06-26T11:21:30Z</time>
      </trkpt>
      <trkpt lat="46.26665" lon="6.84267">
        <ele>1221.97</ele>
        <time>2015-06-26T11:21:51Z</time>
      </trkpt>
      <trkpt lat="46.26673" lon="6.84283">
        <ele>1221.97</ele>
        <time>2015-06-26T11:22:06Z</time>
      </trkpt>
      <trkpt lat="46.26675" lon="6.84307">
        <ele>1225.34</ele>
        <time>2015-06-26T11:22:11Z</time>
      </trkpt>
      <trkpt lat="46.26676" lon="6.84315">
        <ele>1240.72</ele>
        <time>2015-06-26T11:22:13Z</time>
      </trkpt>
      <trkpt lat="46.26676" lon="6.84333">
        <ele>1245.53</ele>
        <time>2015-06-26T11:22:17Z</time>
      </trkpt>
      <trkpt lat="46.26676" lon="6.84337">
        <ele>1246.01</ele>
        <time>2015-06-26T11:22:18Z</time>
      </trkpt>
      <trkpt lat="46.26677" lon="6.84345">
        <ele>1249.37</ele>
        <time>2015-06-26T11:22:20Z</time>
      </trkpt>
      <trkpt lat="46.26677" lon="6.84353">
        <ele>1252.74</ele>
        <time>2015-06-26T11:22:22Z</time>
      </trkpt>
      <trkpt lat="46.26678" lon="6.84362">
        <ele>1256.1</ele>
        <time>2015-06-26T11:22:24Z</time>
      </trkpt>
      <trkpt lat="46.26679" lon="6.84376">
        <ele>1260.43</ele>
        <time>2015-06-26T11:22:27Z</time>
      </trkpt>
      <trkpt lat="46.2668" lon="6.84384">
        <ele>1263.79</ele>
        <time>2015-06-26T11:22:29Z</time>
      </trkpt>
      <trkpt lat="46.2668" lon="6.84394">
        <ele>1267.16</ele>
        <time>2015-06-26T11:22:31Z</time>
      </trkpt>
      <trkpt lat="46.26682" lon="6.84403">
        <ele>1271</ele>
        <time>2015-06-26T11:22:33Z</time>
      </trkpt>
      <trkpt lat="46.26682" lon="6.84412">
        <ele>1275.33</ele>
        <time>2015-06-26T11:22:35Z</time>
      </trkpt>
      <trkpt lat="46.26683" lon="6.8442">
        <ele>1279.65</ele>
        <time>2015-06-26T11:22:37Z</time>
      </trkpt>
      <trkpt lat="46.26684" lon="6.84429">
        <ele>1284.46</ele>
        <time>2015-06-26T11:22:39Z</time>
      </trkpt>
      <trkpt lat="46.26684" lon="6.84437">
        <ele>1288.78</ele>
        <time>2015-06-26T11:22:41Z</time>
      </trkpt>
      <trkpt lat="46.26685" lon="6.84447">
        <ele>1292.63</ele>
        <time>2015-06-26T11:22:43Z</time>
      </trkpt>
      <trkpt lat="46.26686" lon="6.8446">
        <ele>1296.96</ele>
        <time>2015-06-26T11:22:46Z</time>
      </trkpt>
      <trkpt lat="46.26686" lon="6.84469">
        <ele>1300.8</ele>
        <time>2015-06-26T11:22:48Z</time>
      </trkpt>
      <trkpt lat="46.26687" lon="6.84477">
        <ele>1304.65</ele>
        <time>2015-06-26T11:22:50Z</time>
      </trkpt>
      <trkpt lat="46.26687" lon="6.84485">
        <ele>1308.49</ele>
        <time>2015-06-26T11:22:52Z</time>
      </trkpt>
      <trkpt lat="46.26688" lon="6.84493">
        <ele>1313.3</ele>
        <time>2015-06-26T11:22:54Z</time>
      </trkpt>
      <trkpt lat="46.26688" lon="6.84501">
        <ele>1317.62</ele>
        <time>2015-06-26T11:22:56Z</time>
      </trkpt>
      <trkpt lat="46.26688" lon="6.84508">
        <ele>1322.43</ele>
        <time>2015-06-26T11:22:58Z</time>
      </trkpt>
      <trkpt lat="46.26689" lon="6.84516">
        <ele>1326.76</ele>
        <time>2015-06-26T11:23:00Z</time>
      </trkpt>
      <trkpt lat="46.26689" lon="6.84524">
        <ele>1331.56</ele>
        <time>2015-06-26T11:23:02Z</time>
      </trkpt>
      <trkpt lat="46.2669" lon="6.84532">
        <ele>1335.89</ele>
        <time>2015-06-26T11:23:04Z</time>
      </trkpt>
      <trkpt lat="46.2669" lon="6.8454">
        <ele>1340.22</ele>
        <time>2015-06-26T11:23:06Z</time>
      </trkpt>
      <trkpt lat="46.2669" lon="6.84548">
        <ele>1344.54</ele>
        <time>2015-06-26T11:23:08Z</time>
      </trkpt>
      <trkpt lat="46.26691" lon="6.84556">
        <ele>1349.35</ele>
        <time>2015-06-26T11:23:10Z</time>
      </trkpt>
      <trkpt lat="46.26691" lon="6.84568">
        <ele>1354.15</ele>
        <time>2015-06-26T11:23:13Z</time>
      </trkpt>
      <trkpt lat="46.26692" lon="6.84576">
        <ele>1358.96</ele>
        <time>2015-06-26T11:23:15Z</time>
      </trkpt>
      <trkpt lat="46.26692" lon="6.84584">
        <ele>1363.29</ele>
        <time>2015-06-26T11:23:17Z</time>
      </trkpt>
      <trkpt lat="46.26693" lon="6.84592">
        <ele>1368.09</ele>
        <time>2015-06-26T11:23:19Z</time>
      </trkpt>
      <trkpt lat="46.26694" lon="6.846">
        <ele>1371.94</ele>
        <time>2015-06-26T11:23:21Z</time>
      </trkpt>
      <trkpt lat="46.26695" lon="6.84609">
        <ele>1375.3</ele>
        <time>2015-06-26T11:23:23Z</time>
      </trkpt>
      <trkpt lat="46.26695" lon="6.84617">
        <ele>1379.15</ele>
        <time>2015-06-26T11:23:25Z</time>
      </trkpt>
      <trkpt lat="46.26696" lon="6.84625">
        <ele>1382.51</ele>
        <time>2015-06-26T11:23:27Z</time>
      </trkpt>
      <trkpt lat="46.26696" lon="6.84634">
        <ele>1385.88</ele>
        <time>2015-06-26T11:23:29Z</time>
      </trkpt>
      <trkpt lat="46.26697" lon="6.84643">
        <ele>1389.24</ele>
        <time>2015-06-26T11:23:31Z</time>
      </trkpt>
      <trkpt lat="46.26697" lon="6.84651">
        <ele>1394.05</ele>
        <time>2015-06-26T11:23:33Z</time>
      </trkpt>
      <trkpt lat="46.26697" lon="6.84661">
        <ele>1398.37</ele>
        <time>2015-06-26T11:23:35Z</time>
      </trkpt>
      <trkpt lat="46.26697" lon="6.84668">
        <ele>1401.74</ele>
        <time>2015-06-26T11:23:37Z</time>
      </trkpt>
      <trkpt lat="46.26698" lon="6.84677">
        <ele>1406.07</ele>
        <time>2015-06-26T11:23:39Z</time>
      </trkpt>
      <trkpt lat="46.26698" lon="6.84685">
        <ele>1410.87</ele>
        <time>2015-06-26T11:23:41Z</time>
      </trkpt>
      <trkpt lat="46.26698" lon="6.84693">
        <ele>1415.2</ele>
        <time>2015-06-26T11:23:43Z</time>
      </trkpt>
      <trkpt lat="46.26699" lon="6.84701">
        <ele>1419.52</ele>
        <time>2015-06-26T11:23:45Z</time>
      </trkpt>
      <trkpt lat="46.26699" lon="6.84709">
        <ele>1423.37</ele>
        <time>2015-06-26T11:23:47Z</time>
      </trkpt>
      <trkpt lat="46.26699" lon="6.84717">
        <ele>1427.7</ele>
        <time>2015-06-26T11:23:49Z</time>
      </trkpt>
      <trkpt lat="46.26699" lon="6.84726">
        <ele>1432.02</ele>
        <time>2015-06-26T11:23:51Z</time>
      </trkpt>
      <trkpt lat="46.26699" lon="6.84735">
        <ele>1436.35</ele>
        <time>2015-06-26T11:23:53Z</time>
      </trkpt>
      <trkpt lat="46.26699" lon="6.84744">
        <ele>1440.67</ele>
        <time>2015-06-26T11:23:55Z</time>
      </trkpt>
      <trkpt lat="46.26699" lon="6.84752">
        <ele>1445.48</ele>
        <time>2015-06-26T11:23:57Z</time>
      </trkpt>
      <trkpt lat="46.26699" lon="6.8476">
        <ele>1450.77</ele>
        <time>2015-06-26T11:23:59Z</time>
      </trkpt>
      <trkpt lat="46.267" lon="6.84768">
        <ele>1455.57</ele>
        <time>2015-06-26T11:24:01Z</time>
      </trkpt>
      <trkpt lat="46.26701" lon="6.84776">
        <ele>1460.86</ele>
        <time>2015-06-26T11:24:03Z</time>
      </trkpt>
      <trkpt lat="46.26701" lon="6.84784">
        <ele>1462.78</ele>
        <time>2015-06-26T11:24:05Z</time>
      </trkpt>
      <trkpt lat="46.26702" lon="6.84791">
        <ele>1467.11</ele>
        <time>2015-06-26T11:24:07Z</time>
      </trkpt>
      <trkpt lat="46.26702" lon="6.84799">
        <ele>1470.95</ele>
        <time>2015-06-26T11:24:09Z</time>
      </trkpt>
      <trkpt lat="46.26703" lon="6.84807">
        <ele>1474.32</ele>
        <time>2015-06-26T11:24:11Z</time>
      </trkpt>
      <trkpt lat="46.26703" lon="6.84815">
        <ele>1478.16</ele>
        <time>2015-06-26T11:24:13Z</time>
      </trkpt>
      <trkpt lat="46.26704" lon="6.84824">
        <ele>1481.53</ele>
        <time>2015-06-26T11:24:15Z</time>
      </trkpt>
      <trkpt lat="46.26704" lon="6.84834">
        <ele>1484.89</ele>
        <time>2015-06-26T11:24:17Z</time>
      </trkpt>
      <trkpt lat="46.26705" lon="6.84847">
        <ele>1489.22</ele>
        <time>2015-06-26T11:24:20Z</time>
      </trkpt>
      <trkpt lat="46.26706" lon="6.84861">
        <ele>1492.58</ele>
        <time>2015-06-26T11:24:23Z</time>
      </trkpt>
      <trkpt lat="46.26707" lon="6.84878">
        <ele>1495.95</ele>
        <time>2015-06-26T11:24:27Z</time>
      </trkpt>
      <trkpt lat="46.26709" lon="6.84909">
        <ele>1499.79</ele>
        <time>2015-06-26T11:24:34Z</time>
      </trkpt>
      <trkpt lat="46.26711" lon="6.84948">
        <ele>1503.16</ele>
        <time>2015-06-26T11:24:42Z</time>
      </trkpt>
      <trkpt lat="46.26712" lon="6.84973">
        <ele>1506.52</ele>
        <time>2015-06-26T11:24:47Z</time>
      </trkpt>
      <trkpt lat="46.26713" lon="6.84992">
        <ele>1509.89</ele>
        <time>2015-06-26T11:24:51Z</time>
      </trkpt>
      <trkpt lat="46.26714" lon="6.85012">
        <ele>1513.25</ele>
        <time>2015-06-26T11:24:55Z</time>
      </trkpt>
      <trkpt lat="46.26715" lon="6.85032">
        <ele>1515.66</ele>
        <time>2015-06-26T11:24:59Z</time>
      </trkpt>
      <trkpt lat="46.26719" lon="6.85116">
        <ele>1519.02</ele>
        <time>2015-06-26T11:25:16Z</time>
      </trkpt>
      <trkpt lat="46.26719" lon="6.8513">
        <ele>1521.9</ele>
        <time>2015-06-26T11:25:19Z</time>
      </trkpt>
      <trkpt lat="46.2672" lon="6.85145">
        <ele>1525.27</ele>
        <time>2015-06-26T11:25:22Z</time>
      </trkpt>
      <trkpt lat="46.26721" lon="6.8516">
        <ele>1527.19</ele>
        <time>2015-06-26T11:25:25Z</time>
      </trkpt>
      <trkpt lat="46.26727" lon="6.8527">
        <ele>1527.19</ele>
        <time>2015-06-26T11:25:47Z</time>
      </trkpt>
      <trkpt lat="46.26729" lon="6.85301">
        <ele>1531.04</ele>
        <time>2015-06-26T11:25:53Z</time>
      </trkpt>
      <trkpt lat="46.2673" lon="6.85316">
        <ele>1534.4</ele>
        <time>2015-06-26T11:25:56Z</time>
      </trkpt>
      <trkpt lat="46.26732" lon="6.85336">
        <ele>1537.77</ele>
        <time>2015-06-26T11:26:00Z</time>
      </trkpt>
      <trkpt lat="46.26736" lon="6.85385">
        <ele>1541.13</ele>
        <time>2015-06-26T11:26:10Z</time>
      </trkpt>
      <trkpt lat="46.26737" lon="6.85404">
        <ele>1544.5</ele>
        <time>2015-06-26T11:26:14Z</time>
      </trkpt>
      <trkpt lat="46.26738" lon="6.85419">
        <ele>1547.86</ele>
        <time>2015-06-26T11:26:17Z</time>
      </trkpt>
      <trkpt lat="46.26738" lon="6.85424">
        <ele>1548.34</ele>
        <time>2015-06-26T11:26:18Z</time>
      </trkpt>
      <trkpt lat="46.2674" lon="6.85444">
        <ele>1551.71</ele>
        <time>2015-06-26T11:26:22Z</time>
      </trkpt>
      <trkpt lat="46.26742" lon="6.85459">
        <ele>1555.55</ele>
        <time>2015-06-26T11:26:25Z</time>
      </trkpt>
      <trkpt lat="46.26744" lon="6.85474">
        <ele>1559.4</ele>
        <time>2015-06-26T11:26:28Z</time>
      </trkpt>
      <trkpt lat="46.26745" lon="6.85487">
        <ele>1564.2</ele>
        <time>2015-06-26T11:26:31Z</time>
      </trkpt>
      <trkpt lat="46.26746" lon="6.85497">
        <ele>1567.09</ele>
        <time>2015-06-26T11:26:33Z</time>
      </trkpt>
      <trkpt lat="46.26747" lon="6.85506">
        <ele>1570.45</ele>
        <time>2015-06-26T11:26:35Z</time>
      </trkpt>
      <trkpt lat="46.26748" lon="6.85515">
        <ele>1573.33</ele>
        <time>2015-06-26T11:26:37Z</time>
      </trkpt>
      <trkpt lat="46.26748" lon="6.85525">
        <ele>1576.7</ele>
        <time>2015-06-26T11:26:39Z</time>
      </trkpt>
      <trkpt lat="46.26748" lon="6.85539">
        <ele>1581.03</ele>
        <time>2015-06-26T11:26:42Z</time>
      </trkpt>
      <trkpt lat="46.26749" lon="6.85554">
        <ele>1585.35</ele>
        <time>2015-06-26T11:26:45Z</time>
      </trkpt>
      <trkpt lat="46.26749" lon="6.85559">
        <ele>1585.35</ele>
        <time>2015-06-26T11:26:46Z</time>
      </trkpt>
      <trkpt lat="46.26749" lon="6.85573">
        <ele>1589.2</ele>
        <time>2015-06-26T11:26:49Z</time>
      </trkpt>
      <trkpt lat="46.2675" lon="6.85587">
        <ele>1592.56</ele>
        <time>2015-06-26T11:26:52Z</time>
      </trkpt>
      <trkpt lat="46.2675" lon="6.856">
        <ele>1596.41</ele>
        <time>2015-06-26T11:26:55Z</time>
      </trkpt>
      <trkpt lat="46.2675" lon="6.85615">
        <ele>1600.73</ele>
        <time>2015-06-26T11:26:58Z</time>
      </trkpt>
      <trkpt lat="46.2675" lon="6.85627">
        <ele>1605.06</ele>
        <time>2015-06-26T11:27:01Z</time>
      </trkpt>
      <trkpt lat="46.26751" lon="6.85637">
        <ele>1608.42</ele>
        <time>2015-06-26T11:27:03Z</time>
      </trkpt>
      <trkpt lat="46.26752" lon="6.85646">
        <ele>1611.79</ele>
        <time>2015-06-26T11:27:05Z</time>
      </trkpt>
      <trkpt lat="46.26753" lon="6.85656">
        <ele>1615.15</ele>
        <time>2015-06-26T11:27:07Z</time>
      </trkpt>
      <trkpt lat="46.26754" lon="6.85665">
        <ele>1618.52</ele>
        <time>2015-06-26T11:27:09Z</time>
      </trkpt>
      <trkpt lat="46.26755" lon="6.85674">
        <ele>1621.4</ele>
        <time>2015-06-26T11:27:11Z</time>
      </trkpt>
      <trkpt lat="46.26756" lon="6.85682">
        <ele>1622.84</ele>
        <time>2015-06-26T11:27:13Z</time>
      </trkpt>
      <trkpt lat="46.26757" lon="6.85696">
        <ele>1624.28</ele>
        <time>2015-06-26T11:27:16Z</time>
      </trkpt>
      <trkpt lat="46.26757" lon="6.85722">
        <ele>1620.92</ele>
        <time>2015-06-26T11:27:22Z</time>
      </trkpt>
      <trkpt lat="46.2676" lon="6.85742">
        <ele>1619</ele>
        <time>2015-06-26T11:27:33Z</time>
      </trkpt>
      <trkpt lat="46.26766" lon="6.85734">
        <ele>1621.4</ele>
        <time>2015-06-26T11:27:50Z</time>
      </trkpt>
      <trkpt lat="46.26765" lon="6.85758">
        <ele>1621.4</ele>
        <time>2015-06-26T11:27:57Z</time>
      </trkpt>
      <trkpt lat="46.26767" lon="6.85781">
        <ele>1621.4</ele>
        <time>2015-06-26T11:28:04Z</time>
      </trkpt>
      <trkpt lat="46.26766" lon="6.85794">
        <ele>1622.84</ele>
        <time>2015-06-26T11:28:13Z</time>
      </trkpt>
      <trkpt lat="46.26766" lon="6.85794">
        <ele>1623.32</ele>
        <time>2015-06-26T11:28:44Z</time>
      </trkpt>
      <trkpt lat="46.26767" lon="6.85793">
        <ele>1623.32</ele>
        <time>2015-06-26T11:29:04Z</time>
      </trkpt>
      <trkpt lat="46.26767" lon="6.85793">
        <ele>1623.32</ele>
        <time>2015-06-26T11:29:37Z</time>
      </trkpt>
      <trkpt lat="46.26767" lon="6.85793">
        <ele>1623.32</ele>
        <time>2015-06-26T11:30:01Z</time>
      </trkpt>
      <trkpt lat="46.26768" lon="6.85792">
        <ele>1623.32</ele>
        <time>2015-06-26T11:30:20Z</time>
      </trkpt>
      <trkpt lat="46.26768" lon="6.8579">
        <ele>1623.32</ele>
        <time>2015-06-26T11:30:39Z</time>
      </trkpt>
      <trkpt lat="46.26768" lon="6.8579">
        <ele>1623.32</ele>
        <time>2015-06-26T11:30:57Z</time>
      </trkpt>
      <trkpt lat="46.26768" lon="6.8579">
        <ele>1623.32</ele>
        <time>2015-06-26T11:31:14Z</time>
      </trkpt>
      <trkpt lat="46.26768" lon="6.8579">
        <ele>1623.32</ele>
        <time>2015-06-26T11:31:44Z</time>
      </trkpt>
      <trkpt lat="46.26767" lon="6.8579">
        <ele>1623.32</ele>
        <time>2015-06-26T11:32:11Z</time>
      </trkpt>
      <trkpt lat="46.26767" lon="6.8579">
        <ele>1623.32</ele>
        <time>2015-06-26T11:32:38Z</time>
      </trkpt>
      <trkpt lat="46.26767" lon="6.8579">
        <ele>1623.32</ele>
        <time>2015-06-26T11:33:06Z</time>
      </trkpt>
      <trkpt lat="46.26767" lon="6.85791">
        <ele>1623.32</ele>
        <time>2015-06-26T11:33:35Z</time>
      </trkpt>
      <trkpt lat="46.26767" lon="6.85791">
        <ele>1623.32</ele>
        <time>2015-06-26T11:34:02Z</time>
      </trkpt>
      <trkpt lat="46.26767" lon="6.8579">
        <ele>1623.32</ele>
        <time>2015-06-26T11:34:26Z</time>
      </trkpt>
      <trkpt lat="46.26767" lon="6.85791">
        <ele>1623.32</ele>
        <time>2015-06-26T11:34:58Z</time>
      </trkpt>
      <trkpt lat="46.26767" lon="6.85791">
        <ele>1623.32</ele>
        <time>2015-06-26T11:35:17Z</time>
      </trkpt>
      <trkpt lat="46.26767" lon="6.85791">
        <ele>1623.8</ele>
        <time>2015-06-26T11:35:40Z</time>
      </trkpt>
      <trkpt lat="46.26767" lon="6.85791">
        <ele>1623.8</ele>
        <time>2015-06-26T11:35:44Z</time>
      </trkpt>
      <trkpt lat="46.26765" lon="6.85792">
        <ele>1623.8</ele>
        <time>2015-06-26T11:35:46Z</time>
      </trkpt>
      <trkpt lat="46.26759" lon="6.85797">
        <ele>1623.8</ele>
        <time>2015-06-26T11:35:50Z</time>
      </trkpt>
      <trkpt lat="46.26722" lon="6.85826">
        <ele>1625.73</ele>
        <time>2015-06-26T11:36:05Z</time>
      </trkpt>
      <trkpt lat="46.26691" lon="6.85873">
        <ele>1628.13</ele>
        <time>2015-06-26T11:36:21Z</time>
      </trkpt>
      <trkpt lat="46.26655" lon="6.85923">
        <ele>1630.05</ele>
        <time>2015-06-26T11:36:39Z</time>
      </trkpt>
      <trkpt lat="46.26647" lon="6.85929">
        <ele>1630.53</ele>
        <time>2015-06-26T11:36:43Z</time>
      </trkpt>
      <trkpt lat="46.26637" lon="6.85935">
        <ele>1631.49</ele>
        <time>2015-06-26T11:36:48Z</time>
      </trkpt>
      <trkpt lat="46.26611" lon="6.85958">
        <ele>1634.86</ele>
        <time>2015-06-26T11:37:04Z</time>
      </trkpt>
      <trkpt lat="46.26601" lon="6.85969">
        <ele>1638.22</ele>
        <time>2015-06-26T11:37:11Z</time>
      </trkpt>
      <trkpt lat="46.26596" lon="6.85973">
        <ele>1641.11</ele>
        <time>2015-06-26T11:37:15Z</time>
      </trkpt>
      <trkpt lat="46.26579" lon="6.85986">
        <ele>1641.59</ele>
        <time>2015-06-26T11:37:29Z</time>
      </trkpt>
      <trkpt lat="46.26577" lon="6.8599">
        <ele>1641.59</ele>
        <time>2015-06-26T11:37:31Z</time>
      </trkpt>
      <trkpt lat="46.26568" lon="6.86004">
        <ele>1641.59</ele>
        <time>2015-06-26T11:37:39Z</time>
      </trkpt>
      <trkpt lat="46.2655" lon="6.86027">
        <ele>1643.99</ele>
        <time>2015-06-26T11:37:53Z</time>
      </trkpt>
      <trkpt lat="46.26523" lon="6.8605">
        <ele>1646.4</ele>
        <time>2015-06-26T11:38:08Z</time>
      </trkpt>
      <trkpt lat="46.26498" lon="6.86069">
        <ele>1647.84</ele>
        <time>2015-06-26T11:38:22Z</time>
      </trkpt>
      <trkpt lat="46.26486" lon="6.86082">
        <ele>1649.76</ele>
        <time>2015-06-26T11:38:33Z</time>
      </trkpt>
      <trkpt lat="46.26475" lon="6.86103">
        <ele>1653.12</ele>
        <time>2015-06-26T11:38:48Z</time>
      </trkpt>
      <trkpt lat="46.26474" lon="6.86105">
        <ele>1654.57</ele>
        <time>2015-06-26T11:38:50Z</time>
      </trkpt>
      <trkpt lat="46.26473" lon="6.86115">
        <ele>1658.89</ele>
        <time>2015-06-26T11:38:55Z</time>
      </trkpt>
      <trkpt lat="46.26469" lon="6.86121">
        <ele>1660.81</ele>
        <time>2015-06-26T11:38:59Z</time>
      </trkpt>
      <trkpt lat="46.26465" lon="6.86138">
        <ele>1661.3</ele>
        <time>2015-06-26T11:39:08Z</time>
      </trkpt>
      <trkpt lat="46.26468" lon="6.86156">
        <ele>1662.26</ele>
        <time>2015-06-26T11:39:17Z</time>
      </trkpt>
      <trkpt lat="46.26478" lon="6.86171">
        <ele>1662.74</ele>
        <time>2015-06-26T11:39:25Z</time>
      </trkpt>
      <trkpt lat="46.26508" lon="6.86182">
        <ele>1664.18</ele>
        <time>2015-06-26T11:39:41Z</time>
      </trkpt>
      <trkpt lat="46.26537" lon="6.86184">
        <ele>1667.06</ele>
        <time>2015-06-26T11:39:56Z</time>
      </trkpt>
      <trkpt lat="46.26571" lon="6.8619">
        <ele>1668.99</ele>
        <time>2015-06-26T11:40:10Z</time>
      </trkpt>
      <trkpt lat="46.26597" lon="6.86216">
        <ele>1670.91</ele>
        <time>2015-06-26T11:40:23Z</time>
      </trkpt>
      <trkpt lat="46.26604" lon="6.86244">
        <ele>1672.35</ele>
        <time>2015-06-26T11:40:34Z</time>
      </trkpt>
      <trkpt lat="46.26588" lon="6.86285">
        <ele>1672.83</ele>
        <time>2015-06-26T11:40:45Z</time>
      </trkpt>
      <trkpt lat="46.26563" lon="6.86328">
        <ele>1673.79</ele>
        <time>2015-06-26T11:40:58Z</time>
      </trkpt>
      <trkpt lat="46.26549" lon="6.86382">
        <ele>1676.2</ele>
        <time>2015-06-26T11:41:13Z</time>
      </trkpt>
      <trkpt lat="46.26542" lon="6.86435">
        <ele>1678.12</ele>
        <time>2015-06-26T11:41:28Z</time>
      </trkpt>
      <trkpt lat="46.26543" lon="6.86453">
        <ele>1678.12</ele>
        <time>2015-06-26T11:41:34Z</time>
      </trkpt>
      <trkpt lat="46.2654" lon="6.86465">
        <ele>1678.12</ele>
        <time>2015-06-26T11:41:39Z</time>
      </trkpt>
      <trkpt lat="46.26537" lon="6.86468">
        <ele>1678.12</ele>
        <time>2015-06-26T11:41:41Z</time>
      </trkpt>
      <trkpt lat="46.26536" lon="6.86472">
        <ele>1677.16</ele>
        <time>2015-06-26T11:41:54Z</time>
      </trkpt>
      <trkpt lat="46.26534" lon="6.86486">
        <ele>1677.16</ele>
        <time>2015-06-26T11:42:00Z</time>
      </trkpt>
      <trkpt lat="46.26548" lon="6.86535">
        <ele>1675.72</ele>
        <time>2015-06-26T11:42:11Z</time>
      </trkpt>
      <trkpt lat="46.26548" lon="6.8654">
        <ele>1675.72</ele>
        <time>2015-06-26T11:42:12Z</time>
      </trkpt>
      <trkpt lat="46.26558" lon="6.86587">
        <ele>1675.72</ele>
        <time>2015-06-26T11:42:22Z</time>
      </trkpt>
      <trkpt lat="46.26556" lon="6.86651">
        <ele>1677.16</ele>
        <time>2015-06-26T11:42:36Z</time>
      </trkpt>
      <trkpt lat="46.26529" lon="6.86719">
        <ele>1677.16</ele>
        <time>2015-06-26T11:42:52Z</time>
      </trkpt>
      <trkpt lat="46.26523" lon="6.86744">
        <ele>1677.16</ele>
        <time>2015-06-26T11:43:03Z</time>
      </trkpt>
      <trkpt lat="46.26523" lon="6.86744">
        <ele>1677.16</ele>
        <time>2015-06-26T11:43:17Z</time>
      </trkpt>
      <trkpt lat="46.26523" lon="6.86744">
        <ele>1677.16</ele>
        <time>2015-06-26T11:43:34Z</time>
      </trkpt>
      <trkpt lat="46.26523" lon="6.86744">
        <ele>1677.16</ele>
        <time>2015-06-26T11:44:01Z</time>
      </trkpt>
      <trkpt lat="46.26523" lon="6.86744">
        <ele>1677.16</ele>
        <time>2015-06-26T11:44:32Z</time>
      </trkpt>
      <trkpt lat="46.26523" lon="6.86744">
        <ele>1677.16</ele>
        <time>2015-06-26T11:44:52Z</time>
      </trkpt>
      <trkpt lat="46.26521" lon="6.86758">
        <ele>1677.16</ele>
        <time>2015-06-26T11:44:57Z</time>
      </trkpt>
      <trkpt lat="46.26517" lon="6.86766">
        <ele>1677.16</ele>
        <time>2015-06-26T11:44:59Z</time>
      </trkpt>
      <trkpt lat="46.265" lon="6.86779">
        <ele>1677.16</ele>
        <time>2015-06-26T11:45:03Z</time>
      </trkpt>
      <trkpt lat="46.26488" lon="6.86789">
        <ele>1675.72</ele>
        <time>2015-06-26T11:45:05Z</time>
      </trkpt>
      <trkpt lat="46.26456" lon="6.86816">
        <ele>1671.87</ele>
        <time>2015-06-26T11:45:09Z</time>
      </trkpt>
      <trkpt lat="46.26426" lon="6.86839">
        <ele>1668.99</ele>
        <time>2015-06-26T11:45:12Z</time>
      </trkpt>
      <trkpt lat="46.26368" lon="6.86878">
        <ele>1667.06</ele>
        <time>2015-06-26T11:45:18Z</time>
      </trkpt>
      <trkpt lat="46.26336" lon="6.86894">
        <ele>1672.35</ele>
        <time>2015-06-26T11:45:22Z</time>
      </trkpt>
      <trkpt lat="46.26317" lon="6.86902">
        <ele>1676.2</ele>
        <time>2015-06-26T11:45:25Z</time>
      </trkpt>
      <trkpt lat="46.26287" lon="6.86927">
        <ele>1678.6</ele>
        <time>2015-06-26T11:45:34Z</time>
      </trkpt>
      <trkpt lat="46.26261" lon="6.86973">
        <ele>1678.6</ele>
        <time>2015-06-26T11:45:49Z</time>
      </trkpt>
      <trkpt lat="46.26257" lon="6.86999">
        <ele>1679.56</ele>
        <time>2015-06-26T11:45:57Z</time>
      </trkpt>
      <trkpt lat="46.26247" lon="6.87014">
        <ele>1681.96</ele>
        <time>2015-06-26T11:46:07Z</time>
      </trkpt>
      <trkpt lat="46.26242" lon="6.8702">
        <ele>1685.81</ele>
        <time>2015-06-26T11:46:12Z</time>
      </trkpt>
      <trkpt lat="46.26238" lon="6.87022">
        <ele>1688.69</ele>
        <time>2015-06-26T11:46:23Z</time>
      </trkpt>
      <trkpt lat="46.26238" lon="6.87022">
        <ele>1687.73</ele>
        <time>2015-06-26T11:46:28Z</time>
      </trkpt>
      <trkpt lat="46.26242" lon="6.8702">
        <ele>1686.77</ele>
        <time>2015-06-26T11:46:41Z</time>
      </trkpt>
      <trkpt lat="46.26244" lon="6.87016">
        <ele>1686.77</ele>
        <time>2015-06-26T11:46:45Z</time>
      </trkpt>
      <trkpt lat="46.26249" lon="6.87008">
        <ele>1685.81</ele>
        <time>2015-06-26T11:46:53Z</time>
      </trkpt>
      <trkpt lat="46.26255" lon="6.87011">
        <ele>1684.85</ele>
        <time>2015-06-26T11:47:00Z</time>
      </trkpt>
      <trkpt lat="46.26254" lon="6.87018">
        <ele>1684.37</ele>
        <time>2015-06-26T11:47:05Z</time>
      </trkpt>
      <trkpt lat="46.26246" lon="6.87063">
        <ele>1684.37</ele>
        <time>2015-06-26T11:47:18Z</time>
      </trkpt>
      <trkpt lat="46.26247" lon="6.87097">
        <ele>1686.77</ele>
        <time>2015-06-26T11:47:29Z</time>
      </trkpt>
      <trkpt lat="46.26233" lon="6.87104">
        <ele>1688.69</ele>
        <time>2015-06-26T11:47:39Z</time>
      </trkpt>
      <trkpt lat="46.2622" lon="6.87095">
        <ele>1690.62</ele>
        <time>2015-06-26T11:47:46Z</time>
      </trkpt>
      <trkpt lat="46.26195" lon="6.87067">
        <ele>1693.5</ele>
        <time>2015-06-26T11:48:01Z</time>
      </trkpt>
      <trkpt lat="46.26195" lon="6.87028">
        <ele>1696.86</ele>
        <time>2015-06-26T11:48:13Z</time>
      </trkpt>
      <trkpt lat="46.26197" lon="6.86976">
        <ele>1700.23</ele>
        <time>2015-06-26T11:48:28Z</time>
      </trkpt>
      <trkpt lat="46.26191" lon="6.86926">
        <ele>1703.59</ele>
        <time>2015-06-26T11:48:43Z</time>
      </trkpt>
      <trkpt lat="46.26186" lon="6.86881">
        <ele>1707.44</ele>
        <time>2015-06-26T11:48:57Z</time>
      </trkpt>
      <trkpt lat="46.26184" lon="6.86867">
        <ele>1710.8</ele>
        <time>2015-06-26T11:49:01Z</time>
      </trkpt>
      <trkpt lat="46.26184" lon="6.86813">
        <ele>1713.21</ele>
        <time>2015-06-26T11:49:16Z</time>
      </trkpt>
      <trkpt lat="46.26197" lon="6.86793">
        <ele>1713.69</ele>
        <time>2015-06-26T11:49:24Z</time>
      </trkpt>
      <trkpt lat="46.26183" lon="6.86789">
        <ele>1715.13</ele>
        <time>2015-06-26T11:49:32Z</time>
      </trkpt>
      <trkpt lat="46.26164" lon="6.8683">
        <ele>1718.01</ele>
        <time>2015-06-26T11:49:47Z</time>
      </trkpt>
      <trkpt lat="46.26154" lon="6.86877">
        <ele>1721.38</ele>
        <time>2015-06-26T11:50:00Z</time>
      </trkpt>
      <trkpt lat="46.26146" lon="6.8692">
        <ele>1724.26</ele>
        <time>2015-06-26T11:50:12Z</time>
      </trkpt>
      <trkpt lat="46.26141" lon="6.86933">
        <ele>1727.63</ele>
        <time>2015-06-26T11:50:16Z</time>
      </trkpt>
      <trkpt lat="46.26131" lon="6.86949">
        <ele>1730.99</ele>
        <time>2015-06-26T11:50:22Z</time>
      </trkpt>
      <trkpt lat="46.26107" lon="6.86983">
        <ele>1730.99</ele>
        <time>2015-06-26T11:50:38Z</time>
      </trkpt>
      <trkpt lat="46.26102" lon="6.86989">
        <ele>1731.95</ele>
        <time>2015-06-26T11:50:49Z</time>
      </trkpt>
      <trkpt lat="46.26078" lon="6.87022">
        <ele>1734.84</ele>
        <time>2015-06-26T11:51:05Z</time>
      </trkpt>
      <trkpt lat="46.2606" lon="6.87047">
        <ele>1738.2</ele>
        <time>2015-06-26T11:51:16Z</time>
      </trkpt>
      <trkpt lat="46.26038" lon="6.87067">
        <ele>1741.57</ele>
        <time>2015-06-26T11:51:28Z</time>
      </trkpt>
      <trkpt lat="46.26028" lon="6.87073">
        <ele>1744.93</ele>
        <time>2015-06-26T11:51:33Z</time>
      </trkpt>
      <trkpt lat="46.25996" lon="6.87076">
        <ele>1746.37</ele>
        <time>2015-06-26T11:51:48Z</time>
      </trkpt>
      <trkpt lat="46.25959" lon="6.87061">
        <ele>1748.78</ele>
        <time>2015-06-26T11:52:04Z</time>
      </trkpt>
      <trkpt lat="46.25946" lon="6.87094">
        <ele>1752.14</ele>
        <time>2015-06-26T11:52:16Z</time>
      </trkpt>
      <trkpt lat="46.25951" lon="6.87108">
        <ele>1755.02</ele>
        <time>2015-06-26T11:52:20Z</time>
      </trkpt>
      <trkpt lat="46.25961" lon="6.87131">
        <ele>1758.39</ele>
        <time>2015-06-26T11:52:27Z</time>
      </trkpt>
      <trkpt lat="46.25962" lon="6.87142">
        <ele>1758.39</ele>
        <time>2015-06-26T11:52:30Z</time>
      </trkpt>
      <trkpt lat="46.25945" lon="6.87162">
        <ele>1758.39</ele>
        <time>2015-06-26T11:52:38Z</time>
      </trkpt>
      <trkpt lat="46.25906" lon="6.87166">
        <ele>1761.75</ele>
        <time>2015-06-26T11:52:53Z</time>
      </trkpt>
      <trkpt lat="46.25876" lon="6.87169">
        <ele>1765.6</ele>
        <time>2015-06-26T11:53:06Z</time>
      </trkpt>
      <trkpt lat="46.25869" lon="6.87184">
        <ele>1768.96</ele>
        <time>2015-06-26T11:53:11Z</time>
      </trkpt>
      <trkpt lat="46.2586" lon="6.87236">
        <ele>1770.89</ele>
        <time>2015-06-26T11:53:26Z</time>
      </trkpt>
      <trkpt lat="46.25839" lon="6.87283">
        <ele>1773.77</ele>
        <time>2015-06-26T11:53:43Z</time>
      </trkpt>
      <trkpt lat="46.2583" lon="6.87303">
        <ele>1775.21</ele>
        <time>2015-06-26T11:53:51Z</time>
      </trkpt>
      <trkpt lat="46.25818" lon="6.87304">
        <ele>1776.65</ele>
        <time>2015-06-26T11:54:03Z</time>
      </trkpt>
      <trkpt lat="46.25811" lon="6.87302">
        <ele>1777.61</ele>
        <time>2015-06-26T11:54:21Z</time>
      </trkpt>
      <trkpt lat="46.25808" lon="6.87301">
        <ele>1779.06</ele>
        <time>2015-06-26T11:54:30Z</time>
      </trkpt>
      <trkpt lat="46.25808" lon="6.87301">
        <ele>1779.54</ele>
        <time>2015-06-26T11:54:46Z</time>
      </trkpt>
      <trkpt lat="46.25808" lon="6.87302">
        <ele>1779.54</ele>
        <time>2015-06-26T11:55:02Z</time>
      </trkpt>
      <trkpt lat="46.25808" lon="6.87302">
        <ele>1779.54</ele>
        <time>2015-06-26T11:55:29Z</time>
      </trkpt>
      <trkpt lat="46.25808" lon="6.87302">
        <ele>1779.54</ele>
        <time>2015-06-26T11:55:58Z</time>
      </trkpt>
      <trkpt lat="46.25808" lon="6.87302">
        <ele>1779.54</ele>
        <time>2015-06-26T11:56:12Z</time>
      </trkpt>
      <trkpt lat="46.25802" lon="6.87302">
        <ele>1779.54</ele>
        <time>2015-06-26T11:56:24Z</time>
      </trkpt>
      <trkpt lat="46.25802" lon="6.87302">
        <ele>1779.54</ele>
        <time>2015-06-26T11:56:51Z</time>
      </trkpt>
      <trkpt lat="46.25803" lon="6.87304">
        <ele>1779.54</ele>
        <time>2015-06-26T11:57:10Z</time>
      </trkpt>
      <trkpt lat="46.25802" lon="6.87304">
        <ele>1779.54</ele>
        <time>2015-06-26T11:57:42Z</time>
      </trkpt>
      <trkpt lat="46.25802" lon="6.87304">
        <ele>1779.54</ele>
        <time>2015-06-26T11:58:14Z</time>
      </trkpt>
      <trkpt lat="46.25802" lon="6.87305">
        <ele>1779.54</ele>
        <time>2015-06-26T11:58:45Z</time>
      </trkpt>
      <trkpt lat="46.25803" lon="6.87304">
        <ele>1779.54</ele>
        <time>2015-06-26T11:59:19Z</time>
      </trkpt>
      <trkpt lat="46.25803" lon="6.87304">
        <ele>1779.54</ele>
        <time>2015-06-26T11:59:48Z</time>
      </trkpt>
      <trkpt lat="46.25803" lon="6.87304">
        <ele>1779.54</ele>
        <time>2015-06-26T12:00:14Z</time>
      </trkpt>
      <trkpt lat="46.25803" lon="6.87304">
        <ele>1779.54</ele>
        <time>2015-06-26T12:00:43Z</time>
      </trkpt>
      <trkpt lat="46.25801" lon="6.87303">
        <ele>1779.54</ele>
        <time>2015-06-26T12:01:03Z</time>
      </trkpt>
      <trkpt lat="46.258" lon="6.87303">
        <ele>1779.54</ele>
        <time>2015-06-26T12:01:17Z</time>
      </trkpt>
      <trkpt lat="46.25785" lon="6.87314">
        <ele>1779.54</ele>
        <time>2015-06-26T12:01:23Z</time>
      </trkpt>
      <trkpt lat="46.25765" lon="6.87316">
        <ele>1776.17</ele>
        <time>2015-06-26T12:01:27Z</time>
      </trkpt>
      <trkpt lat="46.25749" lon="6.87324">
        <ele>1770.41</ele>
        <time>2015-06-26T12:01:30Z</time>
      </trkpt>
      <trkpt lat="46.25737" lon="6.87335">
        <ele>1764.16</ele>
        <time>2015-06-26T12:01:33Z</time>
      </trkpt>
      <trkpt lat="46.25734" lon="6.87337">
        <ele>1762.71</ele>
        <time>2015-06-26T12:01:34Z</time>
      </trkpt>
      <trkpt lat="46.25731" lon="6.87339">
        <ele>1764.64</ele>
        <time>2015-06-26T12:01:40Z</time>
      </trkpt>
      <trkpt lat="46.25731" lon="6.87339">
        <ele>1765.12</ele>
        <time>2015-06-26T12:01:41Z</time>
      </trkpt>
      <trkpt lat="46.25731" lon="6.8734">
        <ele>1765.12</ele>
        <time>2015-06-26T12:01:46Z</time>
      </trkpt>
      <trkpt lat="46.25718" lon="6.87332">
        <ele>1762.71</ele>
        <time>2015-06-26T12:01:54Z</time>
      </trkpt>
      <trkpt lat="46.2571" lon="6.87325">
        <ele>1759.35</ele>
        <time>2015-06-26T12:01:57Z</time>
      </trkpt>
      <trkpt lat="46.25696" lon="6.87316">
        <ele>1755.02</ele>
        <time>2015-06-26T12:02:00Z</time>
      </trkpt>
      <trkpt lat="46.25674" lon="6.87307">
        <ele>1750.7</ele>
        <time>2015-06-26T12:02:06Z</time>
      </trkpt>
      <trkpt lat="46.25655" lon="6.87306">
        <ele>1749.74</ele>
        <time>2015-06-26T12:02:12Z</time>
      </trkpt>
      <trkpt lat="46.2564" lon="6.87311">
        <ele>1749.26</ele>
        <time>2015-06-26T12:02:20Z</time>
      </trkpt>
      <trkpt lat="46.25632" lon="6.87312">
        <ele>1748.78</ele>
        <time>2015-06-26T12:02:26Z</time>
      </trkpt>
      <trkpt lat="46.25615" lon="6.87312">
        <ele>1746.37</ele>
        <time>2015-06-26T12:02:30Z</time>
      </trkpt>
      <trkpt lat="46.256" lon="6.8731">
        <ele>1743.01</ele>
        <time>2015-06-26T12:02:34Z</time>
      </trkpt>
      <trkpt lat="46.25584" lon="6.87304">
        <ele>1741.08</ele>
        <time>2015-06-26T12:02:38Z</time>
      </trkpt>
      <trkpt lat="46.25553" lon="6.87301">
        <ele>1741.57</ele>
        <time>2015-06-26T12:02:44Z</time>
      </trkpt>
      <trkpt lat="46.25542" lon="6.87302">
        <ele>1741.57</ele>
        <time>2015-06-26T12:02:46Z</time>
      </trkpt>
      <trkpt lat="46.25526" lon="6.87301">
        <ele>1740.6</ele>
        <time>2015-06-26T12:02:49Z</time>
      </trkpt>
      <trkpt lat="46.25494" lon="6.873">
        <ele>1737.72</ele>
        <time>2015-06-26T12:02:54Z</time>
      </trkpt>
      <trkpt lat="46.25473" lon="6.87304">
        <ele>1733.88</ele>
        <time>2015-06-26T12:02:57Z</time>
      </trkpt>
      <trkpt lat="46.25448" lon="6.8731">
        <ele>1729.07</ele>
        <time>2015-06-26T12:03:02Z</time>
      </trkpt>
      <trkpt lat="46.25443" lon="6.87312">
        <ele>1729.07</ele>
        <time>2015-06-26T12:03:03Z</time>
      </trkpt>
      <trkpt lat="46.25422" lon="6.87319">
        <ele>1728.59</ele>
        <time>2015-06-26T12:03:07Z</time>
      </trkpt>
      <trkpt lat="46.25406" lon="6.87324">
        <ele>1731.47</ele>
        <time>2015-06-26T12:03:10Z</time>
      </trkpt>
      <trkpt lat="46.25358" lon="6.87326">
        <ele>1732.91</ele>
        <time>2015-06-26T12:03:20Z</time>
      </trkpt>
      <trkpt lat="46.25326" lon="6.87312">
        <ele>1731.95</ele>
        <time>2015-06-26T12:03:27Z</time>
      </trkpt>
      <trkpt lat="46.25306" lon="6.87309">
        <ele>1731.95</ele>
        <time>2015-06-26T12:03:31Z</time>
      </trkpt>
      <trkpt lat="46.25259" lon="6.8729">
        <ele>1728.11</ele>
        <time>2015-06-26T12:03:39Z</time>
      </trkpt>
      <trkpt lat="46.25253" lon="6.87288">
        <ele>1726.67</ele>
        <time>2015-06-26T12:03:40Z</time>
      </trkpt>
      <trkpt lat="46.25237" lon="6.87291">
        <ele>1721.86</ele>
        <time>2015-06-26T12:03:43Z</time>
      </trkpt>
      <trkpt lat="46.25222" lon="6.87299">
        <ele>1718.49</ele>
        <time>2015-06-26T12:03:46Z</time>
      </trkpt>
      <trkpt lat="46.25208" lon="6.87309">
        <ele>1717.05</ele>
        <time>2015-06-26T12:03:49Z</time>
      </trkpt>
      <trkpt lat="46.25186" lon="6.87327">
        <ele>1717.53</ele>
        <time>2015-06-26T12:03:53Z</time>
      </trkpt>
      <trkpt lat="46.25166" lon="6.8733">
        <ele>1717.05</ele>
        <time>2015-06-26T12:03:57Z</time>
      </trkpt>
      <trkpt lat="46.25149" lon="6.87325">
        <ele>1712.73</ele>
        <time>2015-06-26T12:04:01Z</time>
      </trkpt>
      <trkpt lat="46.25141" lon="6.87322">
        <ele>1709.36</ele>
        <time>2015-06-26T12:04:03Z</time>
      </trkpt>
      <trkpt lat="46.25129" lon="6.87311">
        <ele>1704.07</ele>
        <time>2015-06-26T12:04:06Z</time>
      </trkpt>
      <trkpt lat="46.25123" lon="6.87303">
        <ele>1701.19</ele>
        <time>2015-06-26T12:04:08Z</time>
      </trkpt>
      <trkpt lat="46.25117" lon="6.87294">
        <ele>1697.83</ele>
        <time>2015-06-26T12:04:11Z</time>
      </trkpt>
      <trkpt lat="46.25114" lon="6.8729">
        <ele>1697.34</ele>
        <time>2015-06-26T12:04:12Z</time>
      </trkpt>
      <trkpt lat="46.25108" lon="6.87272">
        <ele>1696.86</ele>
        <time>2015-06-26T12:04:15Z</time>
      </trkpt>
      <trkpt lat="46.25097" lon="6.87225">
        <ele>1692.06</ele>
        <time>2015-06-26T12:04:23Z</time>
      </trkpt>
      <trkpt lat="46.25092" lon="6.87218">
        <ele>1688.69</ele>
        <time>2015-06-26T12:04:27Z</time>
      </trkpt>
      <trkpt lat="46.25087" lon="6.8721">
        <ele>1685.81</ele>
        <time>2015-06-26T12:04:31Z</time>
      </trkpt>
      <trkpt lat="46.25085" lon="6.87196">
        <ele>1685.33</ele>
        <time>2015-06-26T12:04:35Z</time>
      </trkpt>
      <trkpt lat="46.25097" lon="6.87169">
        <ele>1682.93</ele>
        <time>2015-06-26T12:04:40Z</time>
      </trkpt>
      <trkpt lat="46.25118" lon="6.87145">
        <ele>1679.08</ele>
        <time>2015-06-26T12:04:44Z</time>
      </trkpt>
      <trkpt lat="46.25121" lon="6.87139">
        <ele>1678.6</ele>
        <time>2015-06-26T12:04:45Z</time>
      </trkpt>
      <trkpt lat="46.25119" lon="6.87118">
        <ele>1673.79</ele>
        <time>2015-06-26T12:04:48Z</time>
      </trkpt>
      <trkpt lat="46.25114" lon="6.87111">
        <ele>1671.87</ele>
        <time>2015-06-26T12:04:49Z</time>
      </trkpt>
      <trkpt lat="46.25084" lon="6.87095">
        <ele>1667.54</ele>
        <time>2015-06-26T12:04:54Z</time>
      </trkpt>
      <trkpt lat="46.25045" lon="6.87085">
        <ele>1669.47</ele>
        <time>2015-06-26T12:05:00Z</time>
      </trkpt>
      <trkpt lat="46.25013" lon="6.87087">
        <ele>1666.1</ele>
        <time>2015-06-26T12:05:05Z</time>
      </trkpt>
      <trkpt lat="46.25007" lon="6.87088">
        <ele>1664.18</ele>
        <time>2015-06-26T12:05:06Z</time>
      </trkpt>
      <trkpt lat="46.24988" lon="6.87083">
        <ele>1657.45</ele>
        <time>2015-06-26T12:05:09Z</time>
      </trkpt>
      <trkpt lat="46.24977" lon="6.87069">
        <ele>1652.64</ele>
        <time>2015-06-26T12:05:11Z</time>
      </trkpt>
      <trkpt lat="46.24952" lon="6.87045">
        <ele>1646.88</ele>
        <time>2015-06-26T12:05:15Z</time>
      </trkpt>
      <trkpt lat="46.24936" lon="6.87042">
        <ele>1643.03</ele>
        <time>2015-06-26T12:05:17Z</time>
      </trkpt>
      <trkpt lat="46.24917" lon="6.87036">
        <ele>1639.67</ele>
        <time>2015-06-26T12:05:19Z</time>
      </trkpt>
      <trkpt lat="46.24899" lon="6.8703">
        <ele>1636.3</ele>
        <time>2015-06-26T12:05:21Z</time>
      </trkpt>
      <trkpt lat="46.24881" lon="6.87021">
        <ele>1632.46</ele>
        <time>2015-06-26T12:05:23Z</time>
      </trkpt>
      <trkpt lat="46.24864" lon="6.87012">
        <ele>1629.57</ele>
        <time>2015-06-26T12:05:25Z</time>
      </trkpt>
      <trkpt lat="46.24857" lon="6.87009">
        <ele>1627.65</ele>
        <time>2015-06-26T12:05:26Z</time>
      </trkpt>
      <trkpt lat="46.24834" lon="6.87009">
        <ele>1624.77</ele>
        <time>2015-06-26T12:05:29Z</time>
      </trkpt>
      <trkpt lat="46.24781" lon="6.87017">
        <ele>1621.88</ele>
        <time>2015-06-26T12:05:35Z</time>
      </trkpt>
      <trkpt lat="46.24753" lon="6.8703">
        <ele>1617.07</ele>
        <time>2015-06-26T12:05:40Z</time>
      </trkpt>
      <trkpt lat="46.2475" lon="6.87033">
        <ele>1614.19</ele>
        <time>2015-06-26T12:05:44Z</time>
      </trkpt>
      <trkpt lat="46.2475" lon="6.87033">
        <ele>1617.56</ele>
        <time>2015-06-26T12:05:52Z</time>
      </trkpt>
      <trkpt lat="46.24749" lon="6.87033">
        <ele>1618.52</ele>
        <time>2015-06-26T12:06:10Z</time>
      </trkpt>
      <trkpt lat="46.24749" lon="6.87033">
        <ele>1617.07</ele>
        <time>2015-06-26T12:06:35Z</time>
      </trkpt>
      <trkpt lat="46.24749" lon="6.87033">
        <ele>1617.07</ele>
        <time>2015-06-26T12:07:19Z</time>
      </trkpt>
      <trkpt lat="46.24749" lon="6.87033">
        <ele>1617.07</ele>
        <time>2015-06-26T12:07:48Z</time>
      </trkpt>
      <trkpt lat="46.24749" lon="6.87033">
        <ele>1617.07</ele>
        <time>2015-06-26T12:08:05Z</time>
      </trkpt>
      <trkpt lat="46.24749" lon="6.87033">
        <ele>1617.07</ele>
        <time>2015-06-26T12:08:37Z</time>
      </trkpt>
      <trkpt lat="46.24743" lon="6.87038">
        <ele>1617.07</ele>
        <time>2015-06-26T12:08:59Z</time>
      </trkpt>
      <trkpt lat="46.247" lon="6.8707">
        <ele>1617.07</ele>
        <time>2015-06-26T12:09:09Z</time>
      </trkpt>
      <trkpt lat="46.24657" lon="6.8709">
        <ele>1619</ele>
        <time>2015-06-26T12:09:18Z</time>
      </trkpt>
      <trkpt lat="46.24643" lon="6.87085">
        <ele>1619.96</ele>
        <time>2015-06-26T12:09:22Z</time>
      </trkpt>
      <trkpt lat="46.24633" lon="6.87056">
        <ele>1620.44</ele>
        <time>2015-06-26T12:09:28Z</time>
      </trkpt>
      <trkpt lat="46.24623" lon="6.87033">
        <ele>1620.92</ele>
        <time>2015-06-26T12:09:32Z</time>
      </trkpt>
      <trkpt lat="46.24593" lon="6.86937">
        <ele>1620.92</ele>
        <time>2015-06-26T12:09:45Z</time>
      </trkpt>
      <trkpt lat="46.24587" lon="6.86917">
        <ele>1620.92</ele>
        <time>2015-06-26T12:09:48Z</time>
      </trkpt>
      <trkpt lat="46.24587" lon="6.86853">
        <ele>1622.36</ele>
        <time>2015-06-26T12:10:01Z</time>
      </trkpt>
      <trkpt lat="46.246" lon="6.86811">
        <ele>1623.8</ele>
        <time>2015-06-26T12:10:11Z</time>
      </trkpt>
      <trkpt lat="46.24606" lon="6.86749">
        <ele>1625.25</ele>
        <time>2015-06-26T12:10:25Z</time>
      </trkpt>
      <trkpt lat="46.24612" lon="6.86702">
        <ele>1626.69</ele>
        <time>2015-06-26T12:10:37Z</time>
      </trkpt>
      <trkpt lat="46.24622" lon="6.86638">
        <ele>1627.65</ele>
        <time>2015-06-26T12:10:52Z</time>
      </trkpt>
      <trkpt lat="46.24612" lon="6.86578">
        <ele>1628.61</ele>
        <time>2015-06-26T12:11:07Z</time>
      </trkpt>
      <trkpt lat="46.24604" lon="6.86557">
        <ele>1629.57</ele>
        <time>2015-06-26T12:11:12Z</time>
      </trkpt>
      <trkpt lat="46.24577" lon="6.86508">
        <ele>1630.53</ele>
        <time>2015-06-26T12:11:25Z</time>
      </trkpt>
      <trkpt lat="46.24579" lon="6.86451">
        <ele>1631.01</ele>
        <time>2015-06-26T12:11:36Z</time>
      </trkpt>
      <trkpt lat="46.24582" lon="6.86389">
        <ele>1631.49</ele>
        <time>2015-06-26T12:11:49Z</time>
      </trkpt>
      <trkpt lat="46.24592" lon="6.86342">
        <ele>1633.42</ele>
        <time>2015-06-26T12:12:02Z</time>
      </trkpt>
      <trkpt lat="46.24598" lon="6.86305">
        <ele>1635.34</ele>
        <time>2015-06-26T12:12:14Z</time>
      </trkpt>
      <trkpt lat="46.24589" lon="6.86264">
        <ele>1637.26</ele>
        <time>2015-06-26T12:12:26Z</time>
      </trkpt>
      <trkpt lat="46.24591" lon="6.86219">
        <ele>1640.15</ele>
        <time>2015-06-26T12:12:40Z</time>
      </trkpt>
      <trkpt lat="46.24598" lon="6.86178">
        <ele>1642.07</ele>
        <time>2015-06-26T12:12:53Z</time>
      </trkpt>
      <trkpt lat="46.24611" lon="6.86147">
        <ele>1643.99</ele>
        <time>2015-06-26T12:13:04Z</time>
      </trkpt>
      <trkpt lat="46.24612" lon="6.86125">
        <ele>1644.95</ele>
        <time>2015-06-26T12:13:10Z</time>
      </trkpt>
      <trkpt lat="46.24612" lon="6.8612">
        <ele>1645.91</ele>
        <time>2015-06-26T12:13:24Z</time>
      </trkpt>
      <trkpt lat="46.24612" lon="6.86119">
        <ele>1645.91</ele>
        <time>2015-06-26T12:13:41Z</time>
      </trkpt>
      <trkpt lat="46.2461" lon="6.86106">
        <ele>1645.91</ele>
        <time>2015-06-26T12:13:45Z</time>
      </trkpt>
      <trkpt lat="46.24607" lon="6.86084">
        <ele>1645.91</ele>
        <time>2015-06-26T12:13:49Z</time>
      </trkpt>
      <trkpt lat="46.24608" lon="6.8606">
        <ele>1645.91</ele>
        <time>2015-06-26T12:13:53Z</time>
      </trkpt>
      <trkpt lat="46.24603" lon="6.86026">
        <ele>1645.91</ele>
        <time>2015-06-26T12:13:58Z</time>
      </trkpt>
      <trkpt lat="46.2461" lon="6.85949">
        <ele>1641.11</ele>
        <time>2015-06-26T12:14:07Z</time>
      </trkpt>
      <trkpt lat="46.24614" lon="6.85942">
        <ele>1640.15</ele>
        <time>2015-06-26T12:14:08Z</time>
      </trkpt>
      <trkpt lat="46.24635" lon="6.85914">
        <ele>1636.78</ele>
        <time>2015-06-26T12:14:12Z</time>
      </trkpt>
      <trkpt lat="46.24666" lon="6.85843">
        <ele>1632.46</ele>
        <time>2015-06-26T12:14:19Z</time>
      </trkpt>
      <trkpt lat="46.2469" lon="6.85788">
        <ele>1631.01</ele>
        <time>2015-06-26T12:14:25Z</time>
      </trkpt>
      <trkpt lat="46.24694" lon="6.85767">
        <ele>1629.09</ele>
        <time>2015-06-26T12:14:27Z</time>
      </trkpt>
      <trkpt lat="46.24705" lon="6.85746">
        <ele>1627.65</ele>
        <time>2015-06-26T12:14:30Z</time>
      </trkpt>
      <trkpt lat="46.24733" lon="6.85742">
        <ele>1625.25</ele>
        <time>2015-06-26T12:14:34Z</time>
      </trkpt>
      <trkpt lat="46.2475" lon="6.85746">
        <ele>1624.77</ele>
        <time>2015-06-26T12:14:36Z</time>
      </trkpt>
      <trkpt lat="46.24782" lon="6.85736">
        <ele>1622.84</ele>
        <time>2015-06-26T12:14:40Z</time>
      </trkpt>
      <trkpt lat="46.24797" lon="6.85723">
        <ele>1622.36</ele>
        <time>2015-06-26T12:14:42Z</time>
      </trkpt>
      <trkpt lat="46.24818" lon="6.85689">
        <ele>1620.44</ele>
        <time>2015-06-26T12:14:46Z</time>
      </trkpt>
      <trkpt lat="46.24829" lon="6.85658">
        <ele>1619</ele>
        <time>2015-06-26T12:14:49Z</time>
      </trkpt>
      <trkpt lat="46.2484" lon="6.856">
        <ele>1615.63</ele>
        <time>2015-06-26T12:14:54Z</time>
      </trkpt>
      <trkpt lat="46.24844" lon="6.85574">
        <ele>1614.67</ele>
        <time>2015-06-26T12:14:56Z</time>
      </trkpt>
      <trkpt lat="46.24849" lon="6.85548">
        <ele>1613.23</ele>
        <time>2015-06-26T12:14:58Z</time>
      </trkpt>
      <trkpt lat="46.2488" lon="6.8551">
        <ele>1609.38</ele>
        <time>2015-06-26T12:15:03Z</time>
      </trkpt>
      <trkpt lat="46.24935" lon="6.85488">
        <ele>1606.98</ele>
        <time>2015-06-26T12:15:10Z</time>
      </trkpt>
      <trkpt lat="46.24971" lon="6.85497">
        <ele>1604.58</ele>
        <time>2015-06-26T12:15:14Z</time>
      </trkpt>
      <trkpt lat="46.24998" lon="6.85471">
        <ele>1601.21</ele>
        <time>2015-06-26T12:15:19Z</time>
      </trkpt>
      <trkpt lat="46.25008" lon="6.85438">
        <ele>1599.29</ele>
        <time>2015-06-26T12:15:22Z</time>
      </trkpt>
      <trkpt lat="46.2504" lon="6.85389">
        <ele>1595.93</ele>
        <time>2015-06-26T12:15:27Z</time>
      </trkpt>
      <trkpt lat="46.25065" lon="6.85377">
        <ele>1593.04</ele>
        <time>2015-06-26T12:15:30Z</time>
      </trkpt>
      <trkpt lat="46.25081" lon="6.85384">
        <ele>1591.12</ele>
        <time>2015-06-26T12:15:32Z</time>
      </trkpt>
      <trkpt lat="46.25097" lon="6.85392">
        <ele>1589.2</ele>
        <time>2015-06-26T12:15:34Z</time>
      </trkpt>
      <trkpt lat="46.25135" lon="6.85388">
        <ele>1584.87</ele>
        <time>2015-06-26T12:15:39Z</time>
      </trkpt>
      <trkpt lat="46.25137" lon="6.85352">
        <ele>1581.99</ele>
        <time>2015-06-26T12:15:43Z</time>
      </trkpt>
      <trkpt lat="46.25128" lon="6.85332">
        <ele>1580.06</ele>
        <time>2015-06-26T12:15:45Z</time>
      </trkpt>
      <trkpt lat="46.25095" lon="6.85286">
        <ele>1576.22</ele>
        <time>2015-06-26T12:15:50Z</time>
      </trkpt>
      <trkpt lat="46.25087" lon="6.85278">
        <ele>1575.26</ele>
        <time>2015-06-26T12:15:51Z</time>
      </trkpt>
      <trkpt lat="46.25058" lon="6.85265">
        <ele>1570.93</ele>
        <time>2015-06-26T12:15:55Z</time>
      </trkpt>
      <trkpt lat="46.25012" lon="6.85268">
        <ele>1565.16</ele>
        <time>2015-06-26T12:16:01Z</time>
      </trkpt>
      <trkpt lat="46.25006" lon="6.85273">
        <ele>1564.2</ele>
        <time>2015-06-26T12:16:02Z</time>
      </trkpt>
      <trkpt lat="46.24973" lon="6.85303">
        <ele>1562.28</ele>
        <time>2015-06-26T12:16:07Z</time>
      </trkpt>
      <trkpt lat="46.24945" lon="6.85346">
        <ele>1559.88</ele>
        <time>2015-06-26T12:16:12Z</time>
      </trkpt>
      <trkpt lat="46.24908" lon="6.85356">
        <ele>1556.03</ele>
        <time>2015-06-26T12:16:17Z</time>
      </trkpt>
      <trkpt lat="46.24892" lon="6.85347">
        <ele>1554.59</ele>
        <time>2015-06-26T12:16:19Z</time>
      </trkpt>
      <trkpt lat="46.2485" lon="6.85349">
        <ele>1549.78</ele>
        <time>2015-06-26T12:16:24Z</time>
      </trkpt>
      <trkpt lat="46.24818" lon="6.8537">
        <ele>1547.86</ele>
        <time>2015-06-26T12:16:28Z</time>
      </trkpt>
      <trkpt lat="46.24802" lon="6.85383">
        <ele>1547.38</ele>
        <time>2015-06-26T12:16:30Z</time>
      </trkpt>
      <trkpt lat="46.24762" lon="6.85467">
        <ele>1547.38</ele>
        <time>2015-06-26T12:16:38Z</time>
      </trkpt>
      <trkpt lat="46.24746" lon="6.85481">
        <ele>1547.38</ele>
        <time>2015-06-26T12:16:40Z</time>
      </trkpt>
      <trkpt lat="46.2473" lon="6.85492">
        <ele>1547.38</ele>
        <time>2015-06-26T12:16:42Z</time>
      </trkpt>
      <trkpt lat="46.24705" lon="6.85501">
        <ele>1546.9</ele>
        <time>2015-06-26T12:16:45Z</time>
      </trkpt>
      <trkpt lat="46.24677" lon="6.85526">
        <ele>1546.42</ele>
        <time>2015-06-26T12:16:49Z</time>
      </trkpt>
      <trkpt lat="46.24667" lon="6.85546">
        <ele>1546.42</ele>
        <time>2015-06-26T12:16:51Z</time>
      </trkpt>
      <trkpt lat="46.24611" lon="6.85587">
        <ele>1544.5</ele>
        <time>2015-06-26T12:16:59Z</time>
      </trkpt>
      <trkpt lat="46.24594" lon="6.85606">
        <ele>1543.53</ele>
        <time>2015-06-26T12:17:02Z</time>
      </trkpt>
      <trkpt lat="46.2455" lon="6.85673">
        <ele>1542.57</ele>
        <time>2015-06-26T12:17:10Z</time>
      </trkpt>
      <trkpt lat="46.24501" lon="6.85703">
        <ele>1541.61</ele>
        <time>2015-06-26T12:17:17Z</time>
      </trkpt>
      <trkpt lat="46.24497" lon="6.85711">
        <ele>1541.61</ele>
        <time>2015-06-26T12:17:18Z</time>
      </trkpt>
      <trkpt lat="46.24479" lon="6.85749">
        <ele>1541.13</ele>
        <time>2015-06-26T12:17:22Z</time>
      </trkpt>
      <trkpt lat="46.24459" lon="6.858">
        <ele>1538.25</ele>
        <time>2015-06-26T12:17:27Z</time>
      </trkpt>
      <trkpt lat="46.24447" lon="6.85852">
        <ele>1532.96</ele>
        <time>2015-06-26T12:17:32Z</time>
      </trkpt>
      <trkpt lat="46.24445" lon="6.85863">
        <ele>1532</ele>
        <time>2015-06-26T12:17:33Z</time>
      </trkpt>
      <trkpt lat="46.24423" lon="6.85888">
        <ele>1530.56</ele>
        <time>2015-06-26T12:17:37Z</time>
      </trkpt>
      <trkpt lat="46.24369" lon="6.85936">
        <ele>1526.23</ele>
        <time>2015-06-26T12:17:45Z</time>
      </trkpt>
      <trkpt lat="46.24362" lon="6.85962">
        <ele>1522.39</ele>
        <time>2015-06-26T12:17:49Z</time>
      </trkpt>
      <trkpt lat="46.24355" lon="6.85939">
        <ele>1518.54</ele>
        <time>2015-06-26T12:17:52Z</time>
      </trkpt>
      <trkpt lat="46.24354" lon="6.85913">
        <ele>1516.14</ele>
        <time>2015-06-26T12:17:54Z</time>
      </trkpt>
      <trkpt lat="46.24358" lon="6.8587">
        <ele>1511.81</ele>
        <time>2015-06-26T12:17:57Z</time>
      </trkpt>
      <trkpt lat="46.24369" lon="6.85839">
        <ele>1506.52</ele>
        <time>2015-06-26T12:18:00Z</time>
      </trkpt>
      <trkpt lat="46.2438" lon="6.85826">
        <ele>1504.6</ele>
        <time>2015-06-26T12:18:02Z</time>
      </trkpt>
      <trkpt lat="46.24377" lon="6.85809">
        <ele>1500.76</ele>
        <time>2015-06-26T12:18:05Z</time>
      </trkpt>
      <trkpt lat="46.24344" lon="6.85822">
        <ele>1498.35</ele>
        <time>2015-06-26T12:18:10Z</time>
      </trkpt>
      <trkpt lat="46.24322" lon="6.85868">
        <ele>1497.87</ele>
        <time>2015-06-26T12:18:15Z</time>
      </trkpt>
      <trkpt lat="46.24304" lon="6.85891">
        <ele>1495.47</ele>
        <time>2015-06-26T12:18:18Z</time>
      </trkpt>
      <trkpt lat="46.24291" lon="6.859">
        <ele>1487.3</ele>
        <time>2015-06-26T12:18:22Z</time>
      </trkpt>
      <trkpt lat="46.24294" lon="6.85887">
        <ele>1483.93</ele>
        <time>2015-06-26T12:18:24Z</time>
      </trkpt>
      <trkpt lat="46.24295" lon="6.85794">
        <ele>1484.89</ele>
        <time>2015-06-26T12:18:33Z</time>
      </trkpt>
      <trkpt lat="46.24312" lon="6.85776">
        <ele>1485.85</ele>
        <time>2015-06-26T12:18:36Z</time>
      </trkpt>
      <trkpt lat="46.24355" lon="6.8574">
        <ele>1486.34</ele>
        <time>2015-06-26T12:18:42Z</time>
      </trkpt>
      <trkpt lat="46.24384" lon="6.85688">
        <ele>1482.97</ele>
        <time>2015-06-26T12:18:47Z</time>
      </trkpt>
      <trkpt lat="46.24404" lon="6.85655">
        <ele>1479.61</ele>
        <time>2015-06-26T12:18:50Z</time>
      </trkpt>
      <trkpt lat="46.24423" lon="6.85616">
        <ele>1476.72</ele>
        <time>2015-06-26T12:18:53Z</time>
      </trkpt>
      <trkpt lat="46.24444" lon="6.8558">
        <ele>1473.84</ele>
        <time>2015-06-26T12:18:56Z</time>
      </trkpt>
      <trkpt lat="46.24465" lon="6.85524">
        <ele>1469.51</ele>
        <time>2015-06-26T12:19:00Z</time>
      </trkpt>
      <trkpt lat="46.24478" lon="6.85482">
        <ele>1466.63</ele>
        <time>2015-06-26T12:19:03Z</time>
      </trkpt>
      <trkpt lat="46.2449" lon="6.85457">
        <ele>1464.23</ele>
        <time>2015-06-26T12:19:05Z</time>
      </trkpt>
      <trkpt lat="46.24498" lon="6.85408">
        <ele>1460.38</ele>
        <time>2015-06-26T12:19:09Z</time>
      </trkpt>
      <trkpt lat="46.2451" lon="6.85338">
        <ele>1455.57</ele>
        <time>2015-06-26T12:19:14Z</time>
      </trkpt>
      <trkpt lat="46.24514" lon="6.85323">
        <ele>1454.61</ele>
        <time>2015-06-26T12:19:15Z</time>
      </trkpt>
      <trkpt lat="46.24541" lon="6.85274">
        <ele>1449.81</ele>
        <time>2015-06-26T12:19:19Z</time>
      </trkpt>
      <trkpt lat="46.24558" lon="6.8525">
        <ele>1448.84</ele>
        <time>2015-06-26T12:19:21Z</time>
      </trkpt>
      <trkpt lat="46.24564" lon="6.85236">
        <ele>1447.4</ele>
        <time>2015-06-26T12:19:22Z</time>
      </trkpt>
      <trkpt lat="46.24577" lon="6.85207">
        <ele>1445.96</ele>
        <time>2015-06-26T12:19:24Z</time>
      </trkpt>
      <trkpt lat="46.24608" lon="6.85167">
        <ele>1441.63</ele>
        <time>2015-06-26T12:19:28Z</time>
      </trkpt>
      <trkpt lat="46.24638" lon="6.85141">
        <ele>1438.75</ele>
        <time>2015-06-26T12:19:31Z</time>
      </trkpt>
      <trkpt lat="46.24657" lon="6.85125">
        <ele>1436.83</ele>
        <time>2015-06-26T12:19:33Z</time>
      </trkpt>
      <trkpt lat="46.24699" lon="6.85114">
        <ele>1432.02</ele>
        <time>2015-06-26T12:19:37Z</time>
      </trkpt>
      <trkpt lat="46.24729" lon="6.85104">
        <ele>1428.66</ele>
        <time>2015-06-26T12:19:40Z</time>
      </trkpt>
      <trkpt lat="46.24747" lon="6.85071">
        <ele>1425.29</ele>
        <time>2015-06-26T12:19:43Z</time>
      </trkpt>
      <trkpt lat="46.24748" lon="6.85057">
        <ele>1424.33</ele>
        <time>2015-06-26T12:19:44Z</time>
      </trkpt>
      <trkpt lat="46.24767" lon="6.8497">
        <ele>1419.52</ele>
        <time>2015-06-26T12:19:50Z</time>
      </trkpt>
      <trkpt lat="46.24797" lon="6.84911">
        <ele>1415.68</ele>
        <time>2015-06-26T12:19:54Z</time>
      </trkpt>
      <trkpt lat="46.24819" lon="6.84865">
        <ele>1411.83</ele>
        <time>2015-06-26T12:19:57Z</time>
      </trkpt>
      <trkpt lat="46.24826" lon="6.84852">
        <ele>1409.91</ele>
        <time>2015-06-26T12:19:58Z</time>
      </trkpt>
      <trkpt lat="46.24852" lon="6.84824">
        <ele>1405.1</ele>
        <time>2015-06-26T12:20:01Z</time>
      </trkpt>
      <trkpt lat="46.24873" lon="6.84821">
        <ele>1401.74</ele>
        <time>2015-06-26T12:20:03Z</time>
      </trkpt>
      <trkpt lat="46.24907" lon="6.84817">
        <ele>1398.86</ele>
        <time>2015-06-26T12:20:06Z</time>
      </trkpt>
      <trkpt lat="46.24945" lon="6.84785">
        <ele>1395.97</ele>
        <time>2015-06-26T12:20:10Z</time>
      </trkpt>
      <trkpt lat="46.24958" lon="6.84765">
        <ele>1395.49</ele>
        <time>2015-06-26T12:20:12Z</time>
      </trkpt>
      <trkpt lat="46.24973" lon="6.8474">
        <ele>1393.09</ele>
        <time>2015-06-26T12:20:15Z</time>
      </trkpt>
      <trkpt lat="46.24969" lon="6.84714">
        <ele>1389.24</ele>
        <time>2015-06-26T12:20:20Z</time>
      </trkpt>
      <trkpt lat="46.24961" lon="6.84725">
        <ele>1388.28</ele>
        <time>2015-06-26T12:20:22Z</time>
      </trkpt>
      <trkpt lat="46.24936" lon="6.84755">
        <ele>1386.36</ele>
        <time>2015-06-26T12:20:27Z</time>
      </trkpt>
      <trkpt lat="46.2492" lon="6.84742">
        <ele>1382.51</ele>
        <time>2015-06-26T12:20:35Z</time>
      </trkpt>
      <trkpt lat="46.24937" lon="6.84704">
        <ele>1382.99</ele>
        <time>2015-06-26T12:20:41Z</time>
      </trkpt>
      <trkpt lat="46.24956" lon="6.84625">
        <ele>1382.51</ele>
        <time>2015-06-26T12:20:51Z</time>
      </trkpt>
      <trkpt lat="46.24942" lon="6.84598">
        <ele>1382.51</ele>
        <time>2015-06-26T12:20:58Z</time>
      </trkpt>
      <trkpt lat="46.24935" lon="6.84602">
        <ele>1382.51</ele>
        <time>2015-06-26T12:21:00Z</time>
      </trkpt>
      <trkpt lat="46.24928" lon="6.84606">
        <ele>1382.03</ele>
        <time>2015-06-26T12:21:09Z</time>
      </trkpt>
      <trkpt lat="46.24928" lon="6.84605">
        <ele>1381.55</ele>
        <time>2015-06-26T12:21:24Z</time>
      </trkpt>
      <trkpt lat="46.24927" lon="6.84605">
        <ele>1381.55</ele>
        <time>2015-06-26T12:21:44Z</time>
      </trkpt>
      <trkpt lat="46.24927" lon="6.84605">
        <ele>1381.07</ele>
        <time>2015-06-26T12:22:12Z</time>
      </trkpt>
      <trkpt lat="46.24918" lon="6.84607">
        <ele>1381.07</ele>
        <time>2015-06-26T12:22:34Z</time>
      </trkpt>
      <trkpt lat="46.24903" lon="6.8461">
        <ele>1381.07</ele>
        <time>2015-06-26T12:22:40Z</time>
      </trkpt>
      <trkpt lat="46.24866" lon="6.84617">
        <ele>1381.07</ele>
        <time>2015-06-26T12:22:51Z</time>
      </trkpt>
      <trkpt lat="46.24847" lon="6.8462">
        <ele>1382.51</ele>
        <time>2015-06-26T12:22:57Z</time>
      </trkpt>
      <trkpt lat="46.24834" lon="6.84625">
        <ele>1382.03</ele>
        <time>2015-06-26T12:23:01Z</time>
      </trkpt>
      <trkpt lat="46.24778" lon="6.84644">
        <ele>1383.47</ele>
        <time>2015-06-26T12:23:13Z</time>
      </trkpt>
      <trkpt lat="46.24707" lon="6.8466">
        <ele>1384.92</ele>
        <time>2015-06-26T12:23:30Z</time>
      </trkpt>
      <trkpt lat="46.24696" lon="6.84663">
        <ele>1385.4</ele>
        <time>2015-06-26T12:23:33Z</time>
      </trkpt>
      <trkpt lat="46.2468" lon="6.84666">
        <ele>1385.88</ele>
        <time>2015-06-26T12:23:37Z</time>
      </trkpt>
      <trkpt lat="46.24667" lon="6.84668">
        <ele>1385.88</ele>
        <time>2015-06-26T12:23:40Z</time>
      </trkpt>
      <trkpt lat="46.24645" lon="6.84673">
        <ele>1386.36</ele>
        <time>2015-06-26T12:23:45Z</time>
      </trkpt>
      <trkpt lat="46.24627" lon="6.84681">
        <ele>1386.84</ele>
        <time>2015-06-26T12:23:49Z</time>
      </trkpt>
      <trkpt lat="46.24619" lon="6.84687">
        <ele>1386.84</ele>
        <time>2015-06-26T12:23:51Z</time>
      </trkpt>
      <trkpt lat="46.24561" lon="6.84723">
        <ele>1387.8</ele>
        <time>2015-06-26T12:24:05Z</time>
      </trkpt>
      <trkpt lat="46.24537" lon="6.84727">
        <ele>1388.28</ele>
        <time>2015-06-26T12:24:11Z</time>
      </trkpt>
      <trkpt lat="46.24478" lon="6.84748">
        <ele>1389.72</ele>
        <time>2015-06-26T12:24:26Z</time>
      </trkpt>
      <trkpt lat="46.24455" lon="6.84767">
        <ele>1390.2</ele>
        <time>2015-06-26T12:24:32Z</time>
      </trkpt>
      <trkpt lat="46.24441" lon="6.84785">
        <ele>1390.2</ele>
        <time>2015-06-26T12:24:36Z</time>
      </trkpt>
      <trkpt lat="46.24434" lon="6.84794">
        <ele>1390.2</ele>
        <time>2015-06-26T12:24:38Z</time>
      </trkpt>
      <trkpt lat="46.24428" lon="6.84804">
        <ele>1390.68</ele>
        <time>2015-06-26T12:24:40Z</time>
      </trkpt>
      <trkpt lat="46.24419" lon="6.84843">
        <ele>1390.68</ele>
        <time>2015-06-26T12:24:46Z</time>
      </trkpt>
      <trkpt lat="46.24415" lon="6.84908">
        <ele>1391.17</ele>
        <time>2015-06-26T12:24:56Z</time>
      </trkpt>
      <trkpt lat="46.24377" lon="6.84959">
        <ele>1391.17</ele>
        <time>2015-06-26T12:25:09Z</time>
      </trkpt>
      <trkpt lat="46.24354" lon="6.84983">
        <ele>1391.17</ele>
        <time>2015-06-26T12:25:15Z</time>
      </trkpt>
      <trkpt lat="46.24337" lon="6.85016">
        <ele>1391.17</ele>
        <time>2015-06-26T12:25:21Z</time>
      </trkpt>
      <trkpt lat="46.2433" lon="6.85026">
        <ele>1391.17</ele>
        <time>2015-06-26T12:25:23Z</time>
      </trkpt>
      <trkpt lat="46.24268" lon="6.85064">
        <ele>1389.24</ele>
        <time>2015-06-26T12:25:35Z</time>
      </trkpt>
      <trkpt lat="46.24247" lon="6.85074">
        <ele>1385.88</ele>
        <time>2015-06-26T12:25:38Z</time>
      </trkpt>
      <trkpt lat="46.24229" lon="6.85079">
        <ele>1381.55</ele>
        <time>2015-06-26T12:25:41Z</time>
      </trkpt>
      <trkpt lat="46.24219" lon="6.85082">
        <ele>1378.19</ele>
        <time>2015-06-26T12:25:43Z</time>
      </trkpt>
      <trkpt lat="46.242" lon="6.85082">
        <ele>1375.3</ele>
        <time>2015-06-26T12:25:47Z</time>
      </trkpt>
      <trkpt lat="46.24178" lon="6.85084">
        <ele>1378.67</ele>
        <time>2015-06-26T12:25:52Z</time>
      </trkpt>
      <trkpt lat="46.24168" lon="6.85084">
        <ele>1379.63</ele>
        <time>2015-06-26T12:25:54Z</time>
      </trkpt>
      <trkpt lat="46.24096" lon="6.85089">
        <ele>1376.26</ele>
        <time>2015-06-26T12:26:06Z</time>
      </trkpt>
      <trkpt lat="46.24012" lon="6.85116">
        <ele>1374.34</ele>
        <time>2015-06-26T12:26:17Z</time>
      </trkpt>
      <trkpt lat="46.23948" lon="6.85099">
        <ele>1370.98</ele>
        <time>2015-06-26T12:26:24Z</time>
      </trkpt>
      <trkpt lat="46.23918" lon="6.8509">
        <ele>1367.13</ele>
        <time>2015-06-26T12:26:27Z</time>
      </trkpt>
      <trkpt lat="46.23877" lon="6.851">
        <ele>1362.81</ele>
        <time>2015-06-26T12:26:31Z</time>
      </trkpt>
      <trkpt lat="46.23821" lon="6.85139">
        <ele>1358.48</ele>
        <time>2015-06-26T12:26:37Z</time>
      </trkpt>
      <trkpt lat="46.23764" lon="6.85165">
        <ele>1358.48</ele>
        <time>2015-06-26T12:26:43Z</time>
      </trkpt>
      <trkpt lat="46.23724" lon="6.8521">
        <ele>1358</ele>
        <time>2015-06-26T12:26:48Z</time>
      </trkpt>
      <trkpt lat="46.23713" lon="6.85236">
        <ele>1357.04</ele>
        <time>2015-06-26T12:26:50Z</time>
      </trkpt>
      <trkpt lat="46.23681" lon="6.85275">
        <ele>1353.19</ele>
        <time>2015-06-26T12:26:54Z</time>
      </trkpt>
      <trkpt lat="46.23671" lon="6.85281">
        <ele>1351.27</ele>
        <time>2015-06-26T12:26:55Z</time>
      </trkpt>
      <trkpt lat="46.23652" lon="6.85293">
        <ele>1348.87</ele>
        <time>2015-06-26T12:26:57Z</time>
      </trkpt>
      <trkpt lat="46.23627" lon="6.8533">
        <ele>1344.06</ele>
        <time>2015-06-26T12:27:01Z</time>
      </trkpt>
      <trkpt lat="46.23642" lon="6.85375">
        <ele>1343.1</ele>
        <time>2015-06-26T12:27:05Z</time>
      </trkpt>
      <trkpt lat="46.23678" lon="6.85412">
        <ele>1343.1</ele>
        <time>2015-06-26T12:27:10Z</time>
      </trkpt>
      <trkpt lat="46.23695" lon="6.85472">
        <ele>1340.7</ele>
        <time>2015-06-26T12:27:15Z</time>
      </trkpt>
      <trkpt lat="46.23693" lon="6.85534">
        <ele>1335.89</ele>
        <time>2015-06-26T12:27:19Z</time>
      </trkpt>
      <trkpt lat="46.23694" lon="6.85551">
        <ele>1334.45</ele>
        <time>2015-06-26T12:27:20Z</time>
      </trkpt>
      <trkpt lat="46.23704" lon="6.85615">
        <ele>1328.68</ele>
        <time>2015-06-26T12:27:24Z</time>
      </trkpt>
      <trkpt lat="46.23709" lon="6.85682">
        <ele>1324.83</ele>
        <time>2015-06-26T12:27:28Z</time>
      </trkpt>
      <trkpt lat="46.23703" lon="6.85736">
        <ele>1323.39</ele>
        <time>2015-06-26T12:27:32Z</time>
      </trkpt>
      <trkpt lat="46.23698" lon="6.85759">
        <ele>1322.91</ele>
        <time>2015-06-26T12:27:35Z</time>
      </trkpt>
      <trkpt lat="46.23679" lon="6.85786">
        <ele>1322.43</ele>
        <time>2015-06-26T12:27:45Z</time>
      </trkpt>
      <trkpt lat="46.23674" lon="6.85791">
        <ele>1322.43</ele>
        <time>2015-06-26T12:27:58Z</time>
      </trkpt>
      <trkpt lat="46.23674" lon="6.85792">
        <ele>1322.43</ele>
        <time>2015-06-26T12:28:15Z</time>
      </trkpt>
      <trkpt lat="46.23674" lon="6.85792">
        <ele>1322.43</ele>
        <time>2015-06-26T12:28:34Z</time>
      </trkpt>
      <trkpt lat="46.23674" lon="6.85793">
        <ele>1322.43</ele>
        <time>2015-06-26T12:28:53Z</time>
      </trkpt>
      <trkpt lat="46.23674" lon="6.85793">
        <ele>1322.43</ele>
        <time>2015-06-26T12:29:11Z</time>
      </trkpt>
      <trkpt lat="46.23674" lon="6.85793">
        <ele>1322.43</ele>
        <time>2015-06-26T12:29:33Z</time>
      </trkpt>
      <trkpt lat="46.23673" lon="6.85793">
        <ele>1322.43</ele>
        <time>2015-06-26T12:29:51Z</time>
      </trkpt>
      <trkpt lat="46.23673" lon="6.85794">
        <ele>1322.43</ele>
        <time>2015-06-26T12:30:10Z</time>
      </trkpt>
      <trkpt lat="46.23673" lon="6.85794">
        <ele>1322.43</ele>
        <time>2015-06-26T12:30:22Z</time>
      </trkpt>
      <trkpt lat="46.23673" lon="6.85794">
        <ele>1322.43</ele>
        <time>2015-06-26T12:30:34Z</time>
      </trkpt>
      <trkpt lat="46.23671" lon="6.85795">
        <ele>1323.87</ele>
        <time>2015-06-26T12:30:50Z</time>
      </trkpt>
      <trkpt lat="46.23671" lon="6.85795">
        <ele>1323.87</ele>
        <time>2015-06-26T12:31:01Z</time>
      </trkpt>
      <trkpt lat="46.23643" lon="6.85819">
        <ele>1325.8</ele>
        <time>2015-06-26T12:31:11Z</time>
      </trkpt>
      <trkpt lat="46.23637" lon="6.85821">
        <ele>1328.68</ele>
        <time>2015-06-26T12:31:13Z</time>
      </trkpt>
      <trkpt lat="46.23631" lon="6.85823">
        <ele>1333.01</ele>
        <time>2015-06-26T12:31:15Z</time>
      </trkpt>
      <trkpt lat="46.23626" lon="6.85825">
        <ele>1337.33</ele>
        <time>2015-06-26T12:31:17Z</time>
      </trkpt>
      <trkpt lat="46.2362" lon="6.85827">
        <ele>1340.7</ele>
        <time>2015-06-26T12:31:19Z</time>
      </trkpt>
      <trkpt lat="46.23612" lon="6.85829">
        <ele>1344.54</ele>
        <time>2015-06-26T12:31:22Z</time>
      </trkpt>
      <trkpt lat="46.23599" lon="6.85833">
        <ele>1347.91</ele>
        <time>2015-06-26T12:31:27Z</time>
      </trkpt>
      <trkpt lat="46.23589" lon="6.85836">
        <ele>1350.79</ele>
        <time>2015-06-26T12:31:31Z</time>
      </trkpt>
      <trkpt lat="46.23581" lon="6.85837">
        <ele>1353.67</ele>
        <time>2015-06-26T12:31:34Z</time>
      </trkpt>
      <trkpt lat="46.23576" lon="6.85839">
        <ele>1354.63</ele>
        <time>2015-06-26T12:31:36Z</time>
      </trkpt>
      <trkpt lat="46.23563" lon="6.85842">
        <ele>1358</ele>
        <time>2015-06-26T12:31:41Z</time>
      </trkpt>
      <trkpt lat="46.23548" lon="6.85846">
        <ele>1361.84</ele>
        <time>2015-06-26T12:31:47Z</time>
      </trkpt>
      <trkpt lat="46.23538" lon="6.85849">
        <ele>1365.21</ele>
        <time>2015-06-26T12:31:51Z</time>
      </trkpt>
      <trkpt lat="46.23531" lon="6.85851">
        <ele>1368.57</ele>
        <time>2015-06-26T12:31:54Z</time>
      </trkpt>
      <trkpt lat="46.23524" lon="6.85853">
        <ele>1371.94</ele>
        <time>2015-06-26T12:31:57Z</time>
      </trkpt>
      <trkpt lat="46.23517" lon="6.85855">
        <ele>1376.75</ele>
        <time>2015-06-26T12:32:00Z</time>
      </trkpt>
      <trkpt lat="46.2351" lon="6.85857">
        <ele>1380.59</ele>
        <time>2015-06-26T12:32:03Z</time>
      </trkpt>
      <trkpt lat="46.23505" lon="6.85858">
        <ele>1383.96</ele>
        <time>2015-06-26T12:32:05Z</time>
      </trkpt>
      <trkpt lat="46.23501" lon="6.85859">
        <ele>1386.84</ele>
        <time>2015-06-26T12:32:07Z</time>
      </trkpt>
      <trkpt lat="46.23496" lon="6.8586">
        <ele>1390.2</ele>
        <time>2015-06-26T12:32:09Z</time>
      </trkpt>
      <trkpt lat="46.23489" lon="6.85862">
        <ele>1394.05</ele>
        <time>2015-06-26T12:32:12Z</time>
      </trkpt>
      <trkpt lat="46.23483" lon="6.85863">
        <ele>1398.37</ele>
        <time>2015-06-26T12:32:15Z</time>
      </trkpt>
      <trkpt lat="46.23476" lon="6.85865">
        <ele>1402.7</ele>
        <time>2015-06-26T12:32:18Z</time>
      </trkpt>
      <trkpt lat="46.23472" lon="6.85867">
        <ele>1405.58</ele>
        <time>2015-06-26T12:32:20Z</time>
      </trkpt>
      <trkpt lat="46.23468" lon="6.85868">
        <ele>1408.95</ele>
        <time>2015-06-26T12:32:22Z</time>
      </trkpt>
      <trkpt lat="46.23463" lon="6.85869">
        <ele>1412.31</ele>
        <time>2015-06-26T12:32:24Z</time>
      </trkpt>
      <trkpt lat="46.23459" lon="6.8587">
        <ele>1416.16</ele>
        <time>2015-06-26T12:32:26Z</time>
      </trkpt>
      <trkpt lat="46.23452" lon="6.85872">
        <ele>1420.49</ele>
        <time>2015-06-26T12:32:29Z</time>
      </trkpt>
      <trkpt lat="46.23448" lon="6.85874">
        <ele>1423.85</ele>
        <time>2015-06-26T12:32:31Z</time>
      </trkpt>
      <trkpt lat="46.23444" lon="6.85875">
        <ele>1427.21</ele>
        <time>2015-06-26T12:32:33Z</time>
      </trkpt>
      <trkpt lat="46.2344" lon="6.85876">
        <ele>1431.06</ele>
        <time>2015-06-26T12:32:35Z</time>
      </trkpt>
      <trkpt lat="46.23435" lon="6.85877">
        <ele>1433.94</ele>
        <time>2015-06-26T12:32:37Z</time>
      </trkpt>
      <trkpt lat="46.23428" lon="6.85879">
        <ele>1437.79</ele>
        <time>2015-06-26T12:32:40Z</time>
      </trkpt>
      <trkpt lat="46.23421" lon="6.85881">
        <ele>1441.63</ele>
        <time>2015-06-26T12:32:43Z</time>
      </trkpt>
      <trkpt lat="46.23414" lon="6.85882">
        <ele>1445.96</ele>
        <time>2015-06-26T12:32:46Z</time>
      </trkpt>
      <trkpt lat="46.23408" lon="6.85884">
        <ele>1450.29</ele>
        <time>2015-06-26T12:32:49Z</time>
      </trkpt>
      <trkpt lat="46.23404" lon="6.85885">
        <ele>1453.65</ele>
        <time>2015-06-26T12:32:51Z</time>
      </trkpt>
      <trkpt lat="46.23399" lon="6.85886">
        <ele>1457.5</ele>
        <time>2015-06-26T12:32:53Z</time>
      </trkpt>
      <trkpt lat="46.23393" lon="6.85889">
        <ele>1461.34</ele>
        <time>2015-06-26T12:32:56Z</time>
      </trkpt>
      <trkpt lat="46.23388" lon="6.8589">
        <ele>1464.71</ele>
        <time>2015-06-26T12:32:58Z</time>
      </trkpt>
      <trkpt lat="46.23384" lon="6.85891">
        <ele>1468.07</ele>
        <time>2015-06-26T12:33:00Z</time>
      </trkpt>
      <trkpt lat="46.2338" lon="6.85893">
        <ele>1471.44</ele>
        <time>2015-06-26T12:33:02Z</time>
      </trkpt>
      <trkpt lat="46.23375" lon="6.85894">
        <ele>1474.8</ele>
        <time>2015-06-26T12:33:04Z</time>
      </trkpt>
      <trkpt lat="46.23371" lon="6.85895">
        <ele>1477.68</ele>
        <time>2015-06-26T12:33:06Z</time>
      </trkpt>
      <trkpt lat="46.23367" lon="6.85896">
        <ele>1481.05</ele>
        <time>2015-06-26T12:33:08Z</time>
      </trkpt>
      <trkpt lat="46.23363" lon="6.85898">
        <ele>1484.89</ele>
        <time>2015-06-26T12:33:10Z</time>
      </trkpt>
      <trkpt lat="46.23358" lon="6.85898">
        <ele>1488.26</ele>
        <time>2015-06-26T12:33:12Z</time>
      </trkpt>
      <trkpt lat="46.23353" lon="6.859">
        <ele>1491.14</ele>
        <time>2015-06-26T12:33:14Z</time>
      </trkpt>
      <trkpt lat="46.23346" lon="6.85902">
        <ele>1495.47</ele>
        <time>2015-06-26T12:33:17Z</time>
      </trkpt>
      <trkpt lat="46.23339" lon="6.85904">
        <ele>1498.83</ele>
        <time>2015-06-26T12:33:20Z</time>
      </trkpt>
      <trkpt lat="46.23336" lon="6.85904">
        <ele>1498.83</ele>
        <time>2015-06-26T12:33:21Z</time>
      </trkpt>
      <trkpt lat="46.2333" lon="6.85906">
        <ele>1502.2</ele>
        <time>2015-06-26T12:33:24Z</time>
      </trkpt>
      <trkpt lat="46.23323" lon="6.85908">
        <ele>1506.52</ele>
        <time>2015-06-26T12:33:27Z</time>
      </trkpt>
      <trkpt lat="46.23316" lon="6.8591">
        <ele>1510.85</ele>
        <time>2015-06-26T12:33:30Z</time>
      </trkpt>
      <trkpt lat="46.23312" lon="6.85912">
        <ele>1514.21</ele>
        <time>2015-06-26T12:33:32Z</time>
      </trkpt>
      <trkpt lat="46.23307" lon="6.85913">
        <ele>1517.1</ele>
        <time>2015-06-26T12:33:34Z</time>
      </trkpt>
      <trkpt lat="46.23303" lon="6.85915">
        <ele>1520.46</ele>
        <time>2015-06-26T12:33:36Z</time>
      </trkpt>
      <trkpt lat="46.23298" lon="6.85916">
        <ele>1523.83</ele>
        <time>2015-06-26T12:33:38Z</time>
      </trkpt>
      <trkpt lat="46.23294" lon="6.85917">
        <ele>1527.19</ele>
        <time>2015-06-26T12:33:40Z</time>
      </trkpt>
      <trkpt lat="46.2329" lon="6.85919">
        <ele>1530.08</ele>
        <time>2015-06-26T12:33:42Z</time>
      </trkpt>
      <trkpt lat="46.23283" lon="6.85921">
        <ele>1534.88</ele>
        <time>2015-06-26T12:33:45Z</time>
      </trkpt>
      <trkpt lat="46.23276" lon="6.85923">
        <ele>1538.25</ele>
        <time>2015-06-26T12:33:48Z</time>
      </trkpt>
      <trkpt lat="46.23272" lon="6.85924">
        <ele>1541.61</ele>
        <time>2015-06-26T12:33:50Z</time>
      </trkpt>
      <trkpt lat="46.23267" lon="6.85925">
        <ele>1544.98</ele>
        <time>2015-06-26T12:33:52Z</time>
      </trkpt>
      <trkpt lat="46.23262" lon="6.85926">
        <ele>1548.34</ele>
        <time>2015-06-26T12:33:54Z</time>
      </trkpt>
      <trkpt lat="46.23255" lon="6.85928">
        <ele>1552.19</ele>
        <time>2015-06-26T12:33:57Z</time>
      </trkpt>
      <trkpt lat="46.23245" lon="6.85931">
        <ele>1555.55</ele>
        <time>2015-06-26T12:34:01Z</time>
      </trkpt>
      <trkpt lat="46.23235" lon="6.85933">
        <ele>1559.4</ele>
        <time>2015-06-26T12:34:05Z</time>
      </trkpt>
      <trkpt lat="46.23228" lon="6.85935">
        <ele>1562.28</ele>
        <time>2015-06-26T12:34:08Z</time>
      </trkpt>
      <trkpt lat="46.2322" lon="6.85937">
        <ele>1566.61</ele>
        <time>2015-06-26T12:34:11Z</time>
      </trkpt>
      <trkpt lat="46.23213" lon="6.85938">
        <ele>1570.45</ele>
        <time>2015-06-26T12:34:14Z</time>
      </trkpt>
      <trkpt lat="46.23206" lon="6.85941">
        <ele>1574.3</ele>
        <time>2015-06-26T12:34:17Z</time>
      </trkpt>
      <trkpt lat="46.23196" lon="6.85944">
        <ele>1577.66</ele>
        <time>2015-06-26T12:34:21Z</time>
      </trkpt>
      <trkpt lat="46.23178" lon="6.85948">
        <ele>1581.51</ele>
        <time>2015-06-26T12:34:28Z</time>
      </trkpt>
      <trkpt lat="46.23168" lon="6.85951">
        <ele>1585.35</ele>
        <time>2015-06-26T12:34:32Z</time>
      </trkpt>
      <trkpt lat="46.23161" lon="6.85952">
        <ele>1588.72</ele>
        <time>2015-06-26T12:34:35Z</time>
      </trkpt>
      <trkpt lat="46.23153" lon="6.85954">
        <ele>1592.08</ele>
        <time>2015-06-26T12:34:38Z</time>
      </trkpt>
      <trkpt lat="46.23135" lon="6.85959">
        <ele>1595.93</ele>
        <time>2015-06-26T12:34:45Z</time>
      </trkpt>
      <trkpt lat="46.2312" lon="6.85963">
        <ele>1598.81</ele>
        <time>2015-06-26T12:34:51Z</time>
      </trkpt>
      <trkpt lat="46.23109" lon="6.85966">
        <ele>1602.66</ele>
        <time>2015-06-26T12:34:55Z</time>
      </trkpt>
      <trkpt lat="46.23102" lon="6.85968">
        <ele>1605.54</ele>
        <time>2015-06-26T12:34:58Z</time>
      </trkpt>
      <trkpt lat="46.23095" lon="6.8597">
        <ele>1608.9</ele>
        <time>2015-06-26T12:35:01Z</time>
      </trkpt>
      <trkpt lat="46.23085" lon="6.85973">
        <ele>1612.75</ele>
        <time>2015-06-26T12:35:05Z</time>
      </trkpt>
      <trkpt lat="46.23077" lon="6.85974">
        <ele>1614.67</ele>
        <time>2015-06-26T12:35:08Z</time>
      </trkpt>
      <trkpt lat="46.23064" lon="6.85978">
        <ele>1618.04</ele>
        <time>2015-06-26T12:35:13Z</time>
      </trkpt>
      <trkpt lat="46.23048" lon="6.85982">
        <ele>1621.4</ele>
        <time>2015-06-26T12:35:19Z</time>
      </trkpt>
      <trkpt lat="46.23036" lon="6.85985">
        <ele>1625.25</ele>
        <time>2015-06-26T12:35:24Z</time>
      </trkpt>
      <trkpt lat="46.23026" lon="6.85988">
        <ele>1628.61</ele>
        <time>2015-06-26T12:35:28Z</time>
      </trkpt>
      <trkpt lat="46.23016" lon="6.85991">
        <ele>1632.94</ele>
        <time>2015-06-26T12:35:32Z</time>
      </trkpt>
      <trkpt lat="46.2301" lon="6.85992">
        <ele>1633.9</ele>
        <time>2015-06-26T12:35:34Z</time>
      </trkpt>
      <trkpt lat="46.23" lon="6.85995">
        <ele>1637.26</ele>
        <time>2015-06-26T12:35:38Z</time>
      </trkpt>
      <trkpt lat="46.2299" lon="6.85998">
        <ele>1641.11</ele>
        <time>2015-06-26T12:35:42Z</time>
      </trkpt>
      <trkpt lat="46.2298" lon="6.86">
        <ele>1644.47</ele>
        <time>2015-06-26T12:35:46Z</time>
      </trkpt>
      <trkpt lat="46.22968" lon="6.86004">
        <ele>1647.84</ele>
        <time>2015-06-26T12:35:51Z</time>
      </trkpt>
      <trkpt lat="46.22947" lon="6.8601">
        <ele>1651.68</ele>
        <time>2015-06-26T12:35:59Z</time>
      </trkpt>
      <trkpt lat="46.22934" lon="6.86014">
        <ele>1655.05</ele>
        <time>2015-06-26T12:36:04Z</time>
      </trkpt>
      <trkpt lat="46.22923" lon="6.86016">
        <ele>1658.89</ele>
        <time>2015-06-26T12:36:08Z</time>
      </trkpt>
      <trkpt lat="46.22913" lon="6.86019">
        <ele>1662.74</ele>
        <time>2015-06-26T12:36:12Z</time>
      </trkpt>
      <trkpt lat="46.22903" lon="6.86022">
        <ele>1665.62</ele>
        <time>2015-06-26T12:36:16Z</time>
      </trkpt>
      <trkpt lat="46.22893" lon="6.86025">
        <ele>1668.99</ele>
        <time>2015-06-26T12:36:20Z</time>
      </trkpt>
      <trkpt lat="46.22875" lon="6.86029">
        <ele>1672.35</ele>
        <time>2015-06-26T12:36:27Z</time>
      </trkpt>
      <trkpt lat="46.2286" lon="6.86033">
        <ele>1675.72</ele>
        <time>2015-06-26T12:36:33Z</time>
      </trkpt>
      <trkpt lat="46.2285" lon="6.86036">
        <ele>1679.08</ele>
        <time>2015-06-26T12:36:37Z</time>
      </trkpt>
      <trkpt lat="46.22839" lon="6.86039">
        <ele>1682.44</ele>
        <time>2015-06-26T12:36:41Z</time>
      </trkpt>
      <trkpt lat="46.22829" lon="6.86042">
        <ele>1685.81</ele>
        <time>2015-06-26T12:36:45Z</time>
      </trkpt>
      <trkpt lat="46.2282" lon="6.86044">
        <ele>1689.65</ele>
        <time>2015-06-26T12:36:49Z</time>
      </trkpt>
      <trkpt lat="46.22798" lon="6.8605">
        <ele>1693.02</ele>
        <time>2015-06-26T12:36:57Z</time>
      </trkpt>
      <trkpt lat="46.22777" lon="6.86056">
        <ele>1696.38</ele>
        <time>2015-06-26T12:37:05Z</time>
      </trkpt>
      <trkpt lat="46.22767" lon="6.86059">
        <ele>1699.27</ele>
        <time>2015-06-26T12:37:09Z</time>
      </trkpt>
      <trkpt lat="46.22756" lon="6.86062">
        <ele>1702.63</ele>
        <time>2015-06-26T12:37:13Z</time>
      </trkpt>
      <trkpt lat="46.22743" lon="6.86066">
        <ele>1705.52</ele>
        <time>2015-06-26T12:37:18Z</time>
      </trkpt>
      <trkpt lat="46.22731" lon="6.86069">
        <ele>1709.36</ele>
        <time>2015-06-26T12:37:23Z</time>
      </trkpt>
      <trkpt lat="46.22725" lon="6.86071">
        <ele>1713.69</ele>
        <time>2015-06-26T12:37:26Z</time>
      </trkpt>
      <trkpt lat="46.2272" lon="6.86071">
        <ele>1717.05</ele>
        <time>2015-06-26T12:37:28Z</time>
      </trkpt>
      <trkpt lat="46.22716" lon="6.86073">
        <ele>1720.9</ele>
        <time>2015-06-26T12:37:30Z</time>
      </trkpt>
      <trkpt lat="46.22711" lon="6.86074">
        <ele>1724.26</ele>
        <time>2015-06-26T12:37:32Z</time>
      </trkpt>
      <trkpt lat="46.22706" lon="6.86075">
        <ele>1727.15</ele>
        <time>2015-06-26T12:37:34Z</time>
      </trkpt>
      <trkpt lat="46.22699" lon="6.86077">
        <ele>1730.51</ele>
        <time>2015-06-26T12:37:37Z</time>
      </trkpt>
      <trkpt lat="46.22689" lon="6.8608">
        <ele>1734.36</ele>
        <time>2015-06-26T12:37:41Z</time>
      </trkpt>
      <trkpt lat="46.22681" lon="6.86081">
        <ele>1737.24</ele>
        <time>2015-06-26T12:37:44Z</time>
      </trkpt>
      <trkpt lat="46.22675" lon="6.86083">
        <ele>1741.08</ele>
        <time>2015-06-26T12:37:47Z</time>
      </trkpt>
      <trkpt lat="46.22668" lon="6.86085">
        <ele>1744.45</ele>
        <time>2015-06-26T12:37:50Z</time>
      </trkpt>
      <trkpt lat="46.22663" lon="6.86087">
        <ele>1747.81</ele>
        <time>2015-06-26T12:37:52Z</time>
      </trkpt>
      <trkpt lat="46.22656" lon="6.86088">
        <ele>1752.14</ele>
        <time>2015-06-26T12:37:55Z</time>
      </trkpt>
      <trkpt lat="46.22649" lon="6.8609">
        <ele>1756.47</ele>
        <time>2015-06-26T12:37:58Z</time>
      </trkpt>
      <trkpt lat="46.22643" lon="6.86092">
        <ele>1760.79</ele>
        <time>2015-06-26T12:38:01Z</time>
      </trkpt>
      <trkpt lat="46.22636" lon="6.86094">
        <ele>1764.16</ele>
        <time>2015-06-26T12:38:04Z</time>
      </trkpt>
      <trkpt lat="46.22629" lon="6.86095">
        <ele>1768.48</ele>
        <time>2015-06-26T12:38:07Z</time>
      </trkpt>
      <trkpt lat="46.22622" lon="6.86097">
        <ele>1772.33</ele>
        <time>2015-06-26T12:38:10Z</time>
      </trkpt>
      <trkpt lat="46.22615" lon="6.86099">
        <ele>1775.69</ele>
        <time>2015-06-26T12:38:13Z</time>
      </trkpt>
      <trkpt lat="46.22605" lon="6.86102">
        <ele>1779.06</ele>
        <time>2015-06-26T12:38:17Z</time>
      </trkpt>
      <trkpt lat="46.22598" lon="6.86103">
        <ele>1782.42</ele>
        <time>2015-06-26T12:38:20Z</time>
      </trkpt>
      <trkpt lat="46.22591" lon="6.86105">
        <ele>1786.27</ele>
        <time>2015-06-26T12:38:23Z</time>
      </trkpt>
      <trkpt lat="46.22583" lon="6.86107">
        <ele>1789.63</ele>
        <time>2015-06-26T12:38:26Z</time>
      </trkpt>
      <trkpt lat="46.22575" lon="6.86109">
        <ele>1793</ele>
        <time>2015-06-26T12:38:29Z</time>
      </trkpt>
      <trkpt lat="46.22565" lon="6.86112">
        <ele>1796.36</ele>
        <time>2015-06-26T12:38:33Z</time>
      </trkpt>
      <trkpt lat="46.22553" lon="6.86115">
        <ele>1800.21</ele>
        <time>2015-06-26T12:38:38Z</time>
      </trkpt>
      <trkpt lat="46.22543" lon="6.86118">
        <ele>1803.57</ele>
        <time>2015-06-26T12:38:42Z</time>
      </trkpt>
      <trkpt lat="46.22535" lon="6.86119">
        <ele>1806.45</ele>
        <time>2015-06-26T12:38:45Z</time>
      </trkpt>
      <trkpt lat="46.22509" lon="6.86127">
        <ele>1807.42</ele>
        <time>2015-06-26T12:38:59Z</time>
      </trkpt>
      <trkpt lat="46.22502" lon="6.86133">
        <ele>1805.97</ele>
        <time>2015-06-26T12:39:14Z</time>
      </trkpt>
      <trkpt lat="46.22497" lon="6.8614">
        <ele>1804.05</ele>
        <time>2015-06-26T12:39:27Z</time>
      </trkpt>
      <trkpt lat="46.22496" lon="6.86141">
        <ele>1803.57</ele>
        <time>2015-06-26T12:39:44Z</time>
      </trkpt>
      <trkpt lat="46.22496" lon="6.86142">
        <ele>1803.57</ele>
        <time>2015-06-26T12:40:14Z</time>
      </trkpt>
      <trkpt lat="46.22497" lon="6.86145">
        <ele>1803.57</ele>
        <time>2015-06-26T12:40:31Z</time>
      </trkpt>
      <trkpt lat="46.22497" lon="6.86145">
        <ele>1803.57</ele>
        <time>2015-06-26T12:40:58Z</time>
      </trkpt>
      <trkpt lat="46.22497" lon="6.86145">
        <ele>1803.09</ele>
        <time>2015-06-26T12:41:35Z</time>
      </trkpt>
      <trkpt lat="46.22497" lon="6.86146">
        <ele>1803.09</ele>
        <time>2015-06-26T12:42:04Z</time>
      </trkpt>
      <trkpt lat="46.22492" lon="6.86152">
        <ele>1803.09</ele>
        <time>2015-06-26T12:42:09Z</time>
      </trkpt>
      <trkpt lat="46.22456" lon="6.86156">
        <ele>1801.17</ele>
        <time>2015-06-26T12:42:15Z</time>
      </trkpt>
      <trkpt lat="46.2243" lon="6.86171">
        <ele>1796.36</ele>
        <time>2015-06-26T12:42:19Z</time>
      </trkpt>
      <trkpt lat="46.22414" lon="6.86183">
        <ele>1793.48</ele>
        <time>2015-06-26T12:42:22Z</time>
      </trkpt>
      <trkpt lat="46.22408" lon="6.86184">
        <ele>1793</ele>
        <time>2015-06-26T12:42:23Z</time>
      </trkpt>
      <trkpt lat="46.2237" lon="6.86181">
        <ele>1788.67</ele>
        <time>2015-06-26T12:42:28Z</time>
      </trkpt>
      <trkpt lat="46.22363" lon="6.8618">
        <ele>1787.23</ele>
        <time>2015-06-26T12:42:29Z</time>
      </trkpt>
      <trkpt lat="46.22343" lon="6.86174">
        <ele>1782.42</ele>
        <time>2015-06-26T12:42:32Z</time>
      </trkpt>
      <trkpt lat="46.2233" lon="6.86167">
        <ele>1778.1</ele>
        <time>2015-06-26T12:42:34Z</time>
      </trkpt>
      <trkpt lat="46.22313" lon="6.86166">
        <ele>1770.89</ele>
        <time>2015-06-26T12:42:37Z</time>
      </trkpt>
      <trkpt lat="46.22305" lon="6.86167">
        <ele>1767.52</ele>
        <time>2015-06-26T12:42:39Z</time>
      </trkpt>
      <trkpt lat="46.22287" lon="6.86168">
        <ele>1766.56</ele>
        <time>2015-06-26T12:42:45Z</time>
      </trkpt>
      <trkpt lat="46.22248" lon="6.86175">
        <ele>1762.71</ele>
        <time>2015-06-26T12:42:55Z</time>
      </trkpt>
      <trkpt lat="46.22239" lon="6.86178">
        <ele>1759.35</ele>
        <time>2015-06-26T12:42:57Z</time>
      </trkpt>
      <trkpt lat="46.22231" lon="6.8618">
        <ele>1755.99</ele>
        <time>2015-06-26T12:42:59Z</time>
      </trkpt>
      <trkpt lat="46.2222" lon="6.86183">
        <ele>1750.22</ele>
        <time>2015-06-26T12:43:02Z</time>
      </trkpt>
      <trkpt lat="46.22215" lon="6.86184">
        <ele>1746.85</ele>
        <time>2015-06-26T12:43:04Z</time>
      </trkpt>
      <trkpt lat="46.2221" lon="6.86185">
        <ele>1743.97</ele>
        <time>2015-06-26T12:43:06Z</time>
      </trkpt>
      <trkpt lat="46.22184" lon="6.86193">
        <ele>1742.53</ele>
        <time>2015-06-26T12:43:11Z</time>
      </trkpt>
      <trkpt lat="46.22162" lon="6.8621">
        <ele>1737.72</ele>
        <time>2015-06-26T12:43:16Z</time>
      </trkpt>
      <trkpt lat="46.22148" lon="6.86222">
        <ele>1733.39</ele>
        <time>2015-06-26T12:43:19Z</time>
      </trkpt>
      <trkpt lat="46.22137" lon="6.86225">
        <ele>1728.59</ele>
        <time>2015-06-26T12:43:22Z</time>
      </trkpt>
      <trkpt lat="46.22133" lon="6.86218">
        <ele>1726.67</ele>
        <time>2015-06-26T12:43:24Z</time>
      </trkpt>
      <trkpt lat="46.22121" lon="6.86193">
        <ele>1725.22</ele>
        <time>2015-06-26T12:43:28Z</time>
      </trkpt>
      <trkpt lat="46.22096" lon="6.86172">
        <ele>1721.86</ele>
        <time>2015-06-26T12:43:34Z</time>
      </trkpt>
      <trkpt lat="46.22086" lon="6.86171">
        <ele>1719.46</ele>
        <time>2015-06-26T12:43:37Z</time>
      </trkpt>
      <trkpt lat="46.22075" lon="6.86157">
        <ele>1716.57</ele>
        <time>2015-06-26T12:43:41Z</time>
      </trkpt>
      <trkpt lat="46.22071" lon="6.86117">
        <ele>1717.53</ele>
        <time>2015-06-26T12:43:50Z</time>
      </trkpt>
      <trkpt lat="46.22071" lon="6.86112">
        <ele>1718.49</ele>
        <time>2015-06-26T12:44:02Z</time>
      </trkpt>
      <trkpt lat="46.22071" lon="6.86112">
        <ele>1718.49</ele>
        <time>2015-06-26T12:44:06Z</time>
      </trkpt>
      <trkpt lat="46.22063" lon="6.86071">
        <ele>1719.46</ele>
        <time>2015-06-26T12:44:18Z</time>
      </trkpt>
      <trkpt lat="46.22025" lon="6.86014">
        <ele>1722.34</ele>
        <time>2015-06-26T12:44:32Z</time>
      </trkpt>
      <trkpt lat="46.22012" lon="6.8597">
        <ele>1724.26</ele>
        <time>2015-06-26T12:44:41Z</time>
      </trkpt>
      <trkpt lat="46.21996" lon="6.85953">
        <ele>1725.22</ele>
        <time>2015-06-26T12:44:46Z</time>
      </trkpt>
      <trkpt lat="46.21954" lon="6.8593">
        <ele>1726.18</ele>
        <time>2015-06-26T12:44:56Z</time>
      </trkpt>
      <trkpt lat="46.21927" lon="6.8593">
        <ele>1726.18</ele>
        <time>2015-06-26T12:45:02Z</time>
      </trkpt>
      <trkpt lat="46.21879" lon="6.85943">
        <ele>1728.11</ele>
        <time>2015-06-26T12:45:14Z</time>
      </trkpt>
      <trkpt lat="46.21855" lon="6.85944">
        <ele>1729.07</ele>
        <time>2015-06-26T12:45:19Z</time>
      </trkpt>
      <trkpt lat="46.21812" lon="6.85959">
        <ele>1729.55</ele>
        <time>2015-06-26T12:45:28Z</time>
      </trkpt>
      <trkpt lat="46.21802" lon="6.85965">
        <ele>1729.55</ele>
        <time>2015-06-26T12:45:30Z</time>
      </trkpt>
      <trkpt lat="46.21785" lon="6.85986">
        <ele>1729.55</ele>
        <time>2015-06-26T12:45:34Z</time>
      </trkpt>
      <trkpt lat="46.21773" lon="6.86023">
        <ele>1730.03</ele>
        <time>2015-06-26T12:45:39Z</time>
      </trkpt>
      <trkpt lat="46.21762" lon="6.86046">
        <ele>1730.03</ele>
        <time>2015-06-26T12:45:43Z</time>
      </trkpt>
      <trkpt lat="46.21711" lon="6.86115">
        <ele>1730.51</ele>
        <time>2015-06-26T12:45:56Z</time>
      </trkpt>
      <trkpt lat="46.21692" lon="6.86116">
        <ele>1730.51</ele>
        <time>2015-06-26T12:46:01Z</time>
      </trkpt>
      <trkpt lat="46.21649" lon="6.86073">
        <ele>1730.51</ele>
        <time>2015-06-26T12:46:12Z</time>
      </trkpt>
      <trkpt lat="46.2163" lon="6.86046">
        <ele>1730.99</ele>
        <time>2015-06-26T12:46:18Z</time>
      </trkpt>
      <trkpt lat="46.21571" lon="6.85952">
        <ele>1734.84</ele>
        <time>2015-06-26T12:46:35Z</time>
      </trkpt>
      <trkpt lat="46.21556" lon="6.85931">
        <ele>1735.32</ele>
        <time>2015-06-26T12:46:39Z</time>
      </trkpt>
      <trkpt lat="46.21538" lon="6.85873">
        <ele>1736.76</ele>
        <time>2015-06-26T12:46:48Z</time>
      </trkpt>
      <trkpt lat="46.21515" lon="6.85824">
        <ele>1738.2</ele>
        <time>2015-06-26T12:46:57Z</time>
      </trkpt>
      <trkpt lat="46.21469" lon="6.85759">
        <ele>1741.57</ele>
        <time>2015-06-26T12:47:13Z</time>
      </trkpt>
      <trkpt lat="46.21464" lon="6.8575">
        <ele>1742.05</ele>
        <time>2015-06-26T12:47:15Z</time>
      </trkpt>
      <trkpt lat="46.21437" lon="6.8571">
        <ele>1743.01</ele>
        <time>2015-06-26T12:47:23Z</time>
      </trkpt>
      <trkpt lat="46.21419" lon="6.85686">
        <ele>1743.01</ele>
        <time>2015-06-26T12:47:28Z</time>
      </trkpt>
      <trkpt lat="46.21359" lon="6.85632">
        <ele>1743.49</ele>
        <time>2015-06-26T12:47:41Z</time>
      </trkpt>
      <trkpt lat="46.21349" lon="6.85619">
        <ele>1743.49</ele>
        <time>2015-06-26T12:47:43Z</time>
      </trkpt>
      <trkpt lat="46.21332" lon="6.8559">
        <ele>1742.05</ele>
        <time>2015-06-26T12:47:47Z</time>
      </trkpt>
      <trkpt lat="46.21314" lon="6.85571">
        <ele>1742.05</ele>
        <time>2015-06-26T12:47:51Z</time>
      </trkpt>
      <trkpt lat="46.21284" lon="6.85547">
        <ele>1742.53</ele>
        <time>2015-06-26T12:47:58Z</time>
      </trkpt>
      <trkpt lat="46.21269" lon="6.85525">
        <ele>1742.53</ele>
        <time>2015-06-26T12:48:02Z</time>
      </trkpt>
      <trkpt lat="46.21245" lon="6.85487">
        <ele>1743.49</ele>
        <time>2015-06-26T12:48:09Z</time>
      </trkpt>
      <trkpt lat="46.21235" lon="6.85472">
        <ele>1743.49</ele>
        <time>2015-06-26T12:48:12Z</time>
      </trkpt>
      <trkpt lat="46.21215" lon="6.85452">
        <ele>1743.49</ele>
        <time>2015-06-26T12:48:17Z</time>
      </trkpt>
      <trkpt lat="46.21199" lon="6.85433">
        <ele>1743.49</ele>
        <time>2015-06-26T12:48:21Z</time>
      </trkpt>
      <trkpt lat="46.21169" lon="6.85415">
        <ele>1739.64</ele>
        <time>2015-06-26T12:48:26Z</time>
      </trkpt>
      <trkpt lat="46.21157" lon="6.85401">
        <ele>1736.28</ele>
        <time>2015-06-26T12:48:28Z</time>
      </trkpt>
      <trkpt lat="46.21138" lon="6.85375">
        <ele>1732.43</ele>
        <time>2015-06-26T12:48:31Z</time>
      </trkpt>
      <trkpt lat="46.21122" lon="6.85353">
        <ele>1728.11</ele>
        <time>2015-06-26T12:48:34Z</time>
      </trkpt>
      <trkpt lat="46.21119" lon="6.85345">
        <ele>1727.15</ele>
        <time>2015-06-26T12:48:35Z</time>
      </trkpt>
      <trkpt lat="46.21114" lon="6.85353">
        <ele>1725.22</ele>
        <time>2015-06-26T12:48:41Z</time>
      </trkpt>
      <trkpt lat="46.21128" lon="6.85409">
        <ele>1725.22</ele>
        <time>2015-06-26T12:48:46Z</time>
      </trkpt>
      <trkpt lat="46.21134" lon="6.85427">
        <ele>1724.74</ele>
        <time>2015-06-26T12:48:48Z</time>
      </trkpt>
      <trkpt lat="46.21135" lon="6.85459">
        <ele>1718.49</ele>
        <time>2015-06-26T12:48:52Z</time>
      </trkpt>
      <trkpt lat="46.21126" lon="6.8547">
        <ele>1716.57</ele>
        <time>2015-06-26T12:48:54Z</time>
      </trkpt>
      <trkpt lat="46.21089" lon="6.85501">
        <ele>1710.8</ele>
        <time>2015-06-26T12:49:00Z</time>
      </trkpt>
      <trkpt lat="46.21065" lon="6.85524">
        <ele>1708.88</ele>
        <time>2015-06-26T12:49:04Z</time>
      </trkpt>
      <trkpt lat="46.2104" lon="6.85541">
        <ele>1706</ele>
        <time>2015-06-26T12:49:08Z</time>
      </trkpt>
      <trkpt lat="46.21024" lon="6.85555">
        <ele>1702.15</ele>
        <time>2015-06-26T12:49:11Z</time>
      </trkpt>
      <trkpt lat="46.21007" lon="6.85569">
        <ele>1697.83</ele>
        <time>2015-06-26T12:49:14Z</time>
      </trkpt>
      <trkpt lat="46.20976" lon="6.85608">
        <ele>1694.94</ele>
        <time>2015-06-26T12:49:19Z</time>
      </trkpt>
      <trkpt lat="46.20966" lon="6.85627">
        <ele>1695.42</ele>
        <time>2015-06-26T12:49:21Z</time>
      </trkpt>
      <trkpt lat="46.20921" lon="6.8567">
        <ele>1695.42</ele>
        <time>2015-06-26T12:49:27Z</time>
      </trkpt>
      <trkpt lat="46.20878" lon="6.85656">
        <ele>1693.5</ele>
        <time>2015-06-26T12:49:33Z</time>
      </trkpt>
      <trkpt lat="46.20833" lon="6.85646">
        <ele>1688.69</ele>
        <time>2015-06-26T12:49:40Z</time>
      </trkpt>
      <trkpt lat="46.20828" lon="6.85655">
        <ele>1688.21</ele>
        <time>2015-06-26T12:49:41Z</time>
      </trkpt>
      <trkpt lat="46.20817" lon="6.85671">
        <ele>1688.21</ele>
        <time>2015-06-26T12:49:43Z</time>
      </trkpt>
      <trkpt lat="46.20794" lon="6.85705">
        <ele>1692.54</ele>
        <time>2015-06-26T12:49:48Z</time>
      </trkpt>
      <trkpt lat="46.20773" lon="6.8573">
        <ele>1695.9</ele>
        <time>2015-06-26T12:49:52Z</time>
      </trkpt>
      <trkpt lat="46.20762" lon="6.85742">
        <ele>1696.38</ele>
        <time>2015-06-26T12:49:54Z</time>
      </trkpt>
      <trkpt lat="46.20739" lon="6.85757">
        <ele>1696.86</ele>
        <time>2015-06-26T12:49:59Z</time>
      </trkpt>
      <trkpt lat="46.20688" lon="6.85781">
        <ele>1699.75</ele>
        <time>2015-06-26T12:50:15Z</time>
      </trkpt>
      <trkpt lat="46.20673" lon="6.85798">
        <ele>1700.23</ele>
        <time>2015-06-26T12:50:20Z</time>
      </trkpt>
      <trkpt lat="46.20663" lon="6.85822">
        <ele>1700.71</ele>
        <time>2015-06-26T12:50:24Z</time>
      </trkpt>
      <trkpt lat="46.20639" lon="6.85845">
        <ele>1700.71</ele>
        <time>2015-06-26T12:50:29Z</time>
      </trkpt>
      <trkpt lat="46.20623" lon="6.85845">
        <ele>1700.71</ele>
        <time>2015-06-26T12:50:32Z</time>
      </trkpt>
      <trkpt lat="46.20568" lon="6.85829">
        <ele>1700.71</ele>
        <time>2015-06-26T12:50:46Z</time>
      </trkpt>
      <trkpt lat="46.20564" lon="6.85828">
        <ele>1700.71</ele>
        <time>2015-06-26T12:50:47Z</time>
      </trkpt>
      <trkpt lat="46.20533" lon="6.85833">
        <ele>1700.71</ele>
        <time>2015-06-26T12:50:54Z</time>
      </trkpt>
      <trkpt lat="46.20504" lon="6.85839">
        <ele>1697.83</ele>
        <time>2015-06-26T12:51:02Z</time>
      </trkpt>
      <trkpt lat="46.20513" lon="6.85858">
        <ele>1694.46</ele>
        <time>2015-06-26T12:51:05Z</time>
      </trkpt>
      <trkpt lat="46.20531" lon="6.85865">
        <ele>1691.58</ele>
        <time>2015-06-26T12:51:08Z</time>
      </trkpt>
      <trkpt lat="46.20559" lon="6.85867">
        <ele>1687.25</ele>
        <time>2015-06-26T12:51:12Z</time>
      </trkpt>
      <trkpt lat="46.20583" lon="6.85888">
        <ele>1682.44</ele>
        <time>2015-06-26T12:51:17Z</time>
      </trkpt>
      <trkpt lat="46.20605" lon="6.85907">
        <ele>1679.56</ele>
        <time>2015-06-26T12:51:23Z</time>
      </trkpt>
      <trkpt lat="46.2066" lon="6.85923">
        <ele>1675.23</ele>
        <time>2015-06-26T12:51:31Z</time>
      </trkpt>
      <trkpt lat="46.20668" lon="6.85925">
        <ele>1674.27</ele>
        <time>2015-06-26T12:51:32Z</time>
      </trkpt>
      <trkpt lat="46.20702" lon="6.85938">
        <ele>1670.43</ele>
        <time>2015-06-26T12:51:36Z</time>
      </trkpt>
      <trkpt lat="46.20725" lon="6.8595">
        <ele>1666.58</ele>
        <time>2015-06-26T12:51:39Z</time>
      </trkpt>
      <trkpt lat="46.2074" lon="6.85989">
        <ele>1662.26</ele>
        <time>2015-06-26T12:51:46Z</time>
      </trkpt>
      <trkpt lat="46.20722" lon="6.86004">
        <ele>1662.26</ele>
        <time>2015-06-26T12:51:54Z</time>
      </trkpt>
      <trkpt lat="46.20722" lon="6.86004">
        <ele>1661.78</ele>
        <time>2015-06-26T12:52:08Z</time>
      </trkpt>
      <trkpt lat="46.20721" lon="6.86005">
        <ele>1661.3</ele>
        <time>2015-06-26T12:52:27Z</time>
      </trkpt>
      <trkpt lat="46.20721" lon="6.86005">
        <ele>1661.3</ele>
        <time>2015-06-26T12:52:43Z</time>
      </trkpt>
      <trkpt lat="46.20721" lon="6.86005">
        <ele>1661.3</ele>
        <time>2015-06-26T12:53:05Z</time>
      </trkpt>
      <trkpt lat="46.20721" lon="6.86005">
        <ele>1661.3</ele>
        <time>2015-06-26T12:53:30Z</time>
      </trkpt>
      <trkpt lat="46.20721" lon="6.86005">
        <ele>1661.3</ele>
        <time>2015-06-26T12:53:56Z</time>
      </trkpt>
      <trkpt lat="46.20721" lon="6.86005">
        <ele>1661.3</ele>
        <time>2015-06-26T12:54:15Z</time>
      </trkpt>
      <trkpt lat="46.20721" lon="6.86006">
        <ele>1661.3</ele>
        <time>2015-06-26T12:54:31Z</time>
      </trkpt>
      <trkpt lat="46.20719" lon="6.86006">
        <ele>1661.3</ele>
        <time>2015-06-26T12:54:49Z</time>
      </trkpt>
      <trkpt lat="46.20719" lon="6.86006">
        <ele>1661.3</ele>
        <time>2015-06-26T12:55:15Z</time>
      </trkpt>
      <trkpt lat="46.20716" lon="6.86009">
        <ele>1660.81</ele>
        <time>2015-06-26T12:55:34Z</time>
      </trkpt>
      <trkpt lat="46.20716" lon="6.86009">
        <ele>1660.81</ele>
        <time>2015-06-26T12:55:50Z</time>
      </trkpt>
      <trkpt lat="46.20716" lon="6.86009">
        <ele>1660.81</ele>
        <time>2015-06-26T12:56:09Z</time>
      </trkpt>
      <trkpt lat="46.20716" lon="6.86009">
        <ele>1660.81</ele>
        <time>2015-06-26T12:56:36Z</time>
      </trkpt>
      <trkpt lat="46.20716" lon="6.86009">
        <ele>1660.81</ele>
        <time>2015-06-26T12:57:06Z</time>
      </trkpt>
      <trkpt lat="46.20716" lon="6.86009">
        <ele>1660.81</ele>
        <time>2015-06-26T12:57:34Z</time>
      </trkpt>
      <trkpt lat="46.20716" lon="6.86009">
        <ele>1660.81</ele>
        <time>2015-06-26T12:58:02Z</time>
      </trkpt>
      <trkpt lat="46.20716" lon="6.86009">
        <ele>1660.33</ele>
        <time>2015-06-26T12:58:31Z</time>
      </trkpt>
      <trkpt lat="46.20716" lon="6.86009">
        <ele>1660.33</ele>
        <time>2015-06-26T12:58:51Z</time>
      </trkpt>
      <trkpt lat="46.20716" lon="6.86009">
        <ele>1660.33</ele>
        <time>2015-06-26T12:59:12Z</time>
      </trkpt>
      <trkpt lat="46.20715" lon="6.8601">
        <ele>1659.85</ele>
        <time>2015-06-26T12:59:39Z</time>
      </trkpt>
      <trkpt lat="46.20715" lon="6.8601">
        <ele>1659.85</ele>
        <time>2015-06-26T13:00:03Z</time>
      </trkpt>
      <trkpt lat="46.20715" lon="6.86011">
        <ele>1659.85</ele>
        <time>2015-06-26T13:00:33Z</time>
      </trkpt>
      <trkpt lat="46.20715" lon="6.86012">
        <ele>1659.85</ele>
        <time>2015-06-26T13:00:55Z</time>
      </trkpt>
      <trkpt lat="46.20715" lon="6.86012">
        <ele>1659.85</ele>
        <time>2015-06-26T13:01:21Z</time>
      </trkpt>
      <trkpt lat="46.20714" lon="6.86012">
        <ele>1659.85</ele>
        <time>2015-06-26T13:01:45Z</time>
      </trkpt>
      <trkpt lat="46.20713" lon="6.86013">
        <ele>1659.85</ele>
        <time>2015-06-26T13:02:06Z</time>
      </trkpt>
      <trkpt lat="46.20713" lon="6.86013">
        <ele>1659.85</ele>
        <time>2015-06-26T13:02:38Z</time>
      </trkpt>
      <trkpt lat="46.20713" lon="6.86013">
        <ele>1659.37</ele>
        <time>2015-06-26T13:02:57Z</time>
      </trkpt>
      <trkpt lat="46.20713" lon="6.86013">
        <ele>1659.37</ele>
        <time>2015-06-26T13:03:26Z</time>
      </trkpt>
      <trkpt lat="46.20713" lon="6.86013">
        <ele>1659.37</ele>
        <time>2015-06-26T13:03:44Z</time>
      </trkpt>
      <trkpt lat="46.20712" lon="6.86013">
        <ele>1659.37</ele>
        <time>2015-06-26T13:04:14Z</time>
      </trkpt>
      <trkpt lat="46.2071" lon="6.86014">
        <ele>1659.37</ele>
        <time>2015-06-26T13:04:35Z</time>
      </trkpt>
      <trkpt lat="46.20706" lon="6.86014">
        <ele>1659.37</ele>
        <time>2015-06-26T13:04:58Z</time>
      </trkpt>
      <trkpt lat="46.20706" lon="6.86014">
        <ele>1659.37</ele>
        <time>2015-06-26T13:05:23Z</time>
      </trkpt>
      <trkpt lat="46.20706" lon="6.86014">
        <ele>1659.37</ele>
        <time>2015-06-26T13:05:47Z</time>
      </trkpt>
      <trkpt lat="46.20706" lon="6.86014">
        <ele>1659.37</ele>
        <time>2015-06-26T13:06:14Z</time>
      </trkpt>
      <trkpt lat="46.20705" lon="6.86014">
        <ele>1659.37</ele>
        <time>2015-06-26T13:06:39Z</time>
      </trkpt>
      <trkpt lat="46.20705" lon="6.86013">
        <ele>1659.37</ele>
        <time>2015-06-26T13:07:00Z</time>
      </trkpt>
      <trkpt lat="46.20705" lon="6.86013">
        <ele>1659.37</ele>
        <time>2015-06-26T13:07:30Z</time>
      </trkpt>
      <trkpt lat="46.20703" lon="6.86013">
        <ele>1659.37</ele>
        <time>2015-06-26T13:07:54Z</time>
      </trkpt>
      <trkpt lat="46.20703" lon="6.86013">
        <ele>1659.37</ele>
        <time>2015-06-26T13:08:15Z</time>
      </trkpt>
      <trkpt lat="46.20703" lon="6.86013">
        <ele>1659.37</ele>
        <time>2015-06-26T13:08:43Z</time>
      </trkpt>
      <trkpt lat="46.20703" lon="6.86013">
        <ele>1659.37</ele>
        <time>2015-06-26T13:09:11Z</time>
      </trkpt>
      <trkpt lat="46.20703" lon="6.86013">
        <ele>1659.37</ele>
        <time>2015-06-26T13:09:38Z</time>
      </trkpt>
      <trkpt lat="46.20703" lon="6.86013">
        <ele>1659.37</ele>
        <time>2015-06-26T13:10:15Z</time>
      </trkpt>
      <trkpt lat="46.20702" lon="6.86013">
        <ele>1659.37</ele>
        <time>2015-06-26T13:10:52Z</time>
      </trkpt>
      <trkpt lat="46.20702" lon="6.86013">
        <ele>1659.37</ele>
        <time>2015-06-26T13:11:20Z</time>
      </trkpt>
      <trkpt lat="46.20702" lon="6.86013">
        <ele>1659.37</ele>
        <time>2015-06-26T13:11:46Z</time>
      </trkpt>
      <trkpt lat="46.20702" lon="6.86013">
        <ele>1659.37</ele>
        <time>2015-06-26T13:12:13Z</time>
      </trkpt>
      <trkpt lat="46.20699" lon="6.86012">
        <ele>1659.37</ele>
        <time>2015-06-26T13:12:30Z</time>
      </trkpt>
      <trkpt lat="46.20699" lon="6.86012">
        <ele>1659.37</ele>
        <time>2015-06-26T13:12:57Z</time>
      </trkpt>
      <trkpt lat="46.20698" lon="6.86011">
        <ele>1659.37</ele>
        <time>2015-06-26T13:13:17Z</time>
      </trkpt>
      <trkpt lat="46.20698" lon="6.86011">
        <ele>1659.37</ele>
        <time>2015-06-26T13:13:40Z</time>
      </trkpt>
      <trkpt lat="46.20698" lon="6.8601">
        <ele>1659.37</ele>
        <time>2015-06-26T13:14:08Z</time>
      </trkpt>
      <trkpt lat="46.20698" lon="6.8601">
        <ele>1659.37</ele>
        <time>2015-06-26T13:14:29Z</time>
      </trkpt>
      <trkpt lat="46.20697" lon="6.8601">
        <ele>1659.37</ele>
        <time>2015-06-26T13:14:58Z</time>
      </trkpt>
      <trkpt lat="46.20694" lon="6.8601">
        <ele>1659.37</ele>
        <time>2015-06-26T13:15:18Z</time>
      </trkpt>
      <trkpt lat="46.20694" lon="6.8601">
        <ele>1659.37</ele>
        <time>2015-06-26T13:15:46Z</time>
      </trkpt>
      <trkpt lat="46.20691" lon="6.86008">
        <ele>1659.37</ele>
        <time>2015-06-26T13:16:11Z</time>
      </trkpt>
      <trkpt lat="46.20691" lon="6.86008">
        <ele>1660.33</ele>
        <time>2015-06-26T13:16:35Z</time>
      </trkpt>
      <trkpt lat="46.2069" lon="6.86008">
        <ele>1660.81</ele>
        <time>2015-06-26T13:17:01Z</time>
      </trkpt>
      <trkpt lat="46.20688" lon="6.86008">
        <ele>1660.81</ele>
        <time>2015-06-26T13:17:19Z</time>
      </trkpt>
      <trkpt lat="46.20685" lon="6.86008">
        <ele>1661.3</ele>
        <time>2015-06-26T13:17:38Z</time>
      </trkpt>
      <trkpt lat="46.20685" lon="6.86008">
        <ele>1661.3</ele>
        <time>2015-06-26T13:18:01Z</time>
      </trkpt>
      <trkpt lat="46.20685" lon="6.86008">
        <ele>1661.78</ele>
        <time>2015-06-26T13:18:29Z</time>
      </trkpt>
      <trkpt lat="46.20685" lon="6.86008">
        <ele>1661.78</ele>
        <time>2015-06-26T13:18:54Z</time>
      </trkpt>
      <trkpt lat="46.20685" lon="6.86008">
        <ele>1661.78</ele>
        <time>2015-06-26T13:19:21Z</time>
      </trkpt>
      <trkpt lat="46.20684" lon="6.86007">
        <ele>1661.78</ele>
        <time>2015-06-26T13:19:39Z</time>
      </trkpt>
      <trkpt lat="46.20684" lon="6.86007">
        <ele>1661.78</ele>
        <time>2015-06-26T13:20:02Z</time>
      </trkpt>
      <trkpt lat="46.20684" lon="6.86007">
        <ele>1661.78</ele>
        <time>2015-06-26T13:20:32Z</time>
      </trkpt>
      <trkpt lat="46.20684" lon="6.86007">
        <ele>1661.78</ele>
        <time>2015-06-26T13:21:01Z</time>
      </trkpt>
      <trkpt lat="46.20684" lon="6.86007">
        <ele>1661.78</ele>
        <time>2015-06-26T13:21:19Z</time>
      </trkpt>
      <trkpt lat="46.20684" lon="6.86007">
        <ele>1661.78</ele>
        <time>2015-06-26T13:21:35Z</time>
      </trkpt>
      <trkpt lat="46.20684" lon="6.86007">
        <ele>1661.78</ele>
        <time>2015-06-26T13:21:54Z</time>
      </trkpt>
      <trkpt lat="46.20683" lon="6.86007">
        <ele>1661.78</ele>
        <time>2015-06-26T13:22:19Z</time>
      </trkpt>
      <trkpt lat="46.20683" lon="6.86007">
        <ele>1661.78</ele>
        <time>2015-06-26T13:22:38Z</time>
      </trkpt>
      <trkpt lat="46.20683" lon="6.86007">
        <ele>1661.78</ele>
        <time>2015-06-26T13:22:57Z</time>
      </trkpt>
      <trkpt lat="46.20681" lon="6.86007">
        <ele>1661.78</ele>
        <time>2015-06-26T13:23:25Z</time>
      </trkpt>
      <trkpt lat="46.20681" lon="6.86007">
        <ele>1661.78</ele>
        <time>2015-06-26T13:23:53Z</time>
      </trkpt>
      <trkpt lat="46.2068" lon="6.86007">
        <ele>1661.78</ele>
        <time>2015-06-26T13:24:16Z</time>
      </trkpt>
      <trkpt lat="46.2068" lon="6.86007">
        <ele>1661.78</ele>
        <time>2015-06-26T13:24:38Z</time>
      </trkpt>
      <trkpt lat="46.2068" lon="6.86008">
        <ele>1661.78</ele>
        <time>2015-06-26T13:25:01Z</time>
      </trkpt>
      <trkpt lat="46.2068" lon="6.86008">
        <ele>1662.26</ele>
        <time>2015-06-26T13:25:19Z</time>
      </trkpt>
      <trkpt lat="46.20678" lon="6.86008">
        <ele>1662.26</ele>
        <time>2015-06-26T13:25:32Z</time>
      </trkpt>
      <trkpt lat="46.20678" lon="6.86007">
        <ele>1662.26</ele>
        <time>2015-06-26T13:25:51Z</time>
      </trkpt>
      <trkpt lat="46.20677" lon="6.86009">
        <ele>1662.26</ele>
        <time>2015-06-26T13:26:10Z</time>
      </trkpt>
      <trkpt lat="46.20677" lon="6.86009">
        <ele>1662.26</ele>
        <time>2015-06-26T13:26:25Z</time>
      </trkpt>
      <trkpt lat="46.20668" lon="6.85995">
        <ele>1662.74</ele>
        <time>2015-06-26T13:26:40Z</time>
      </trkpt>
      <trkpt lat="46.2066" lon="6.85969">
        <ele>1666.1</ele>
        <time>2015-06-26T13:26:53Z</time>
      </trkpt>
      <trkpt lat="46.20659" lon="6.85963">
        <ele>1669.95</ele>
        <time>2015-06-26T13:26:57Z</time>
      </trkpt>
      <trkpt lat="46.20657" lon="6.85955">
        <ele>1673.31</ele>
        <time>2015-06-26T13:27:02Z</time>
      </trkpt>
      <trkpt lat="46.20652" lon="6.8593">
        <ele>1676.68</ele>
        <time>2015-06-26T13:27:19Z</time>
      </trkpt>
      <trkpt lat="46.20652" lon="6.85925">
        <ele>1680.04</ele>
        <time>2015-06-26T13:27:22Z</time>
      </trkpt>
      <trkpt lat="46.20651" lon="6.85921">
        <ele>1682.93</ele>
        <time>2015-06-26T13:27:25Z</time>
      </trkpt>
      <trkpt lat="46.20648" lon="6.859">
        <ele>1686.29</ele>
        <time>2015-06-26T13:27:39Z</time>
      </trkpt>
      <trkpt lat="46.20646" lon="6.8589">
        <ele>1690.14</ele>
        <time>2015-06-26T13:27:46Z</time>
      </trkpt>
      <trkpt lat="46.20645" lon="6.85886">
        <ele>1693.5</ele>
        <time>2015-06-26T13:27:49Z</time>
      </trkpt>
      <trkpt lat="46.20644" lon="6.85882">
        <ele>1696.86</ele>
        <time>2015-06-26T13:27:52Z</time>
      </trkpt>
      <trkpt lat="46.20643" lon="6.85876">
        <ele>1698.79</ele>
        <time>2015-06-26T13:27:56Z</time>
      </trkpt>
      <trkpt lat="46.20638" lon="6.85857">
        <ele>1702.15</ele>
        <time>2015-06-26T13:28:10Z</time>
      </trkpt>
      <trkpt lat="46.20636" lon="6.85851">
        <ele>1706</ele>
        <time>2015-06-26T13:28:14Z</time>
      </trkpt>
      <trkpt lat="46.2063" lon="6.85814">
        <ele>1709.84</ele>
        <time>2015-06-26T13:28:38Z</time>
      </trkpt>
      <trkpt lat="46.20625" lon="6.85784">
        <ele>1713.21</ele>
        <time>2015-06-26T13:28:58Z</time>
      </trkpt>
      <trkpt lat="46.20621" lon="6.8576">
        <ele>1716.09</ele>
        <time>2015-06-26T13:29:13Z</time>
      </trkpt>
      <trkpt lat="46.20617" lon="6.85737">
        <ele>1719.46</ele>
        <time>2015-06-26T13:29:28Z</time>
      </trkpt>
      <trkpt lat="46.20615" lon="6.85721">
        <ele>1722.82</ele>
        <time>2015-06-26T13:29:38Z</time>
      </trkpt>
      <trkpt lat="46.20614" lon="6.85715">
        <ele>1726.67</ele>
        <time>2015-06-26T13:29:42Z</time>
      </trkpt>
      <trkpt lat="46.20613" lon="6.85713">
        <ele>1727.15</ele>
        <time>2015-06-26T13:29:44Z</time>
      </trkpt>
      <trkpt lat="46.20609" lon="6.85685">
        <ele>1730.99</ele>
        <time>2015-06-26T13:30:02Z</time>
      </trkpt>
      <trkpt lat="46.20608" lon="6.85681">
        <ele>1734.36</ele>
        <time>2015-06-26T13:30:05Z</time>
      </trkpt>
      <trkpt lat="46.20607" lon="6.85677">
        <ele>1738.2</ele>
        <time>2015-06-26T13:30:08Z</time>
      </trkpt>
      <trkpt lat="46.20607" lon="6.85673">
        <ele>1739.64</ele>
        <time>2015-06-26T13:30:11Z</time>
      </trkpt>
      <trkpt lat="46.20605" lon="6.85661">
        <ele>1743.01</ele>
        <time>2015-06-26T13:30:19Z</time>
      </trkpt>
      <trkpt lat="46.20604" lon="6.85651">
        <ele>1746.85</ele>
        <time>2015-06-26T13:30:26Z</time>
      </trkpt>
      <trkpt lat="46.20603" lon="6.85645">
        <ele>1750.22</ele>
        <time>2015-06-26T13:30:30Z</time>
      </trkpt>
      <trkpt lat="46.20602" lon="6.85639">
        <ele>1753.58</ele>
        <time>2015-06-26T13:30:35Z</time>
      </trkpt>
      <trkpt lat="46.206" lon="6.85627">
        <ele>1757.43</ele>
        <time>2015-06-26T13:30:43Z</time>
      </trkpt>
      <trkpt lat="46.20599" lon="6.85619">
        <ele>1760.79</ele>
        <time>2015-06-26T13:30:49Z</time>
      </trkpt>
      <trkpt lat="46.20597" lon="6.85611">
        <ele>1764.16</ele>
        <time>2015-06-26T13:30:55Z</time>
      </trkpt>
      <trkpt lat="46.20595" lon="6.85603">
        <ele>1767.04</ele>
        <time>2015-06-26T13:31:01Z</time>
      </trkpt>
      <trkpt lat="46.20595" lon="6.85601">
        <ele>1767.04</ele>
        <time>2015-06-26T13:31:02Z</time>
      </trkpt>
      <trkpt lat="46.20594" lon="6.85597">
        <ele>1768.96</ele>
        <time>2015-06-26T13:31:05Z</time>
      </trkpt>
      <trkpt lat="46.20593" lon="6.85588">
        <ele>1772.33</ele>
        <time>2015-06-26T13:31:11Z</time>
      </trkpt>
      <trkpt lat="46.20591" lon="6.8558">
        <ele>1775.69</ele>
        <time>2015-06-26T13:31:17Z</time>
      </trkpt>
      <trkpt lat="46.2059" lon="6.85572">
        <ele>1779.06</ele>
        <time>2015-06-26T13:31:23Z</time>
      </trkpt>
      <trkpt lat="46.20588" lon="6.85563">
        <ele>1782.42</ele>
        <time>2015-06-26T13:31:29Z</time>
      </trkpt>
      <trkpt lat="46.20588" lon="6.85559">
        <ele>1783.86</ele>
        <time>2015-06-26T13:31:32Z</time>
      </trkpt>
      <trkpt lat="46.20586" lon="6.8555">
        <ele>1787.23</ele>
        <time>2015-06-26T13:31:38Z</time>
      </trkpt>
      <trkpt lat="46.20585" lon="6.85543">
        <ele>1790.59</ele>
        <time>2015-06-26T13:31:43Z</time>
      </trkpt>
      <trkpt lat="46.20584" lon="6.85537">
        <ele>1793.48</ele>
        <time>2015-06-26T13:31:48Z</time>
      </trkpt>
      <trkpt lat="46.20583" lon="6.8553">
        <ele>1796.36</ele>
        <time>2015-06-26T13:31:53Z</time>
      </trkpt>
      <trkpt lat="46.20581" lon="6.85523">
        <ele>1799.24</ele>
        <time>2015-06-26T13:31:58Z</time>
      </trkpt>
      <trkpt lat="46.2058" lon="6.85516">
        <ele>1802.13</ele>
        <time>2015-06-26T13:32:03Z</time>
      </trkpt>
      <trkpt lat="46.2058" lon="6.8551">
        <ele>1805.49</ele>
        <time>2015-06-26T13:32:08Z</time>
      </trkpt>
      <trkpt lat="46.20578" lon="6.85503">
        <ele>1808.86</ele>
        <time>2015-06-26T13:32:13Z</time>
      </trkpt>
      <trkpt lat="46.20577" lon="6.85496">
        <ele>1811.74</ele>
        <time>2015-06-26T13:32:18Z</time>
      </trkpt>
      <trkpt lat="46.20576" lon="6.85489">
        <ele>1815.11</ele>
        <time>2015-06-26T13:32:23Z</time>
      </trkpt>
      <trkpt lat="46.20573" lon="6.85477">
        <ele>1818.47</ele>
        <time>2015-06-26T13:32:32Z</time>
      </trkpt>
      <trkpt lat="46.20569" lon="6.85447">
        <ele>1821.35</ele>
        <time>2015-06-26T13:32:51Z</time>
      </trkpt>
      <trkpt lat="46.20565" lon="6.85424">
        <ele>1824.72</ele>
        <time>2015-06-26T13:33:06Z</time>
      </trkpt>
      <trkpt lat="46.20562" lon="6.85406">
        <ele>1828.08</ele>
        <time>2015-06-26T13:33:18Z</time>
      </trkpt>
      <trkpt lat="46.20561" lon="6.85399">
        <ele>1831.45</ele>
        <time>2015-06-26T13:33:22Z</time>
      </trkpt>
      <trkpt lat="46.20559" lon="6.8539">
        <ele>1834.33</ele>
        <time>2015-06-26T13:33:28Z</time>
      </trkpt>
      <trkpt lat="46.20554" lon="6.85356">
        <ele>1838.18</ele>
        <time>2015-06-26T13:33:50Z</time>
      </trkpt>
      <trkpt lat="46.20553" lon="6.85352">
        <ele>1841.06</ele>
        <time>2015-06-26T13:33:53Z</time>
      </trkpt>
      <trkpt lat="46.20552" lon="6.85347">
        <ele>1844.91</ele>
        <time>2015-06-26T13:33:56Z</time>
      </trkpt>
      <trkpt lat="46.20551" lon="6.85342">
        <ele>1847.79</ele>
        <time>2015-06-26T13:34:00Z</time>
      </trkpt>
      <trkpt lat="46.20549" lon="6.85325">
        <ele>1851.64</ele>
        <time>2015-06-26T13:34:12Z</time>
      </trkpt>
      <trkpt lat="46.20548" lon="6.85317">
        <ele>1854.52</ele>
        <time>2015-06-26T13:34:17Z</time>
      </trkpt>
      <trkpt lat="46.20546" lon="6.8531">
        <ele>1857.89</ele>
        <time>2015-06-26T13:34:22Z</time>
      </trkpt>
      <trkpt lat="46.20545" lon="6.853">
        <ele>1861.25</ele>
        <time>2015-06-26T13:34:29Z</time>
      </trkpt>
      <trkpt lat="46.20543" lon="6.85291">
        <ele>1864.13</ele>
        <time>2015-06-26T13:34:35Z</time>
      </trkpt>
      <trkpt lat="46.20541" lon="6.85281">
        <ele>1867.5</ele>
        <time>2015-06-26T13:34:42Z</time>
      </trkpt>
      <trkpt lat="46.2054" lon="6.85274">
        <ele>1870.86</ele>
        <time>2015-06-26T13:34:47Z</time>
      </trkpt>
      <trkpt lat="46.20538" lon="6.85266">
        <ele>1873.75</ele>
        <time>2015-06-26T13:34:53Z</time>
      </trkpt>
      <trkpt lat="46.20537" lon="6.85258">
        <ele>1877.59</ele>
        <time>2015-06-26T13:34:59Z</time>
      </trkpt>
      <trkpt lat="46.20536" lon="6.8525">
        <ele>1880</ele>
        <time>2015-06-26T13:35:04Z</time>
      </trkpt>
      <trkpt lat="46.20535" lon="6.85242">
        <ele>1883.36</ele>
        <time>2015-06-26T13:35:10Z</time>
      </trkpt>
      <trkpt lat="46.20533" lon="6.85234">
        <ele>1886.72</ele>
        <time>2015-06-26T13:35:16Z</time>
      </trkpt>
      <trkpt lat="46.20532" lon="6.85225">
        <ele>1890.09</ele>
        <time>2015-06-26T13:35:22Z</time>
      </trkpt>
      <trkpt lat="46.20531" lon="6.85218">
        <ele>1893.45</ele>
        <time>2015-06-26T13:35:27Z</time>
      </trkpt>
      <trkpt lat="46.2053" lon="6.85213">
        <ele>1895.38</ele>
        <time>2015-06-26T13:35:31Z</time>
      </trkpt>
      <trkpt lat="46.20528" lon="6.85206">
        <ele>1898.26</ele>
        <time>2015-06-26T13:35:36Z</time>
      </trkpt>
      <trkpt lat="46.20527" lon="6.85198">
        <ele>1902.11</ele>
        <time>2015-06-26T13:35:42Z</time>
      </trkpt>
      <trkpt lat="46.20526" lon="6.85191">
        <ele>1904.99</ele>
        <time>2015-06-26T13:35:47Z</time>
      </trkpt>
      <trkpt lat="46.20525" lon="6.85184">
        <ele>1908.35</ele>
        <time>2015-06-26T13:35:52Z</time>
      </trkpt>
      <trkpt lat="46.20524" lon="6.85177">
        <ele>1911.72</ele>
        <time>2015-06-26T13:35:57Z</time>
      </trkpt>
      <trkpt lat="46.20524" lon="6.85176">
        <ele>1911.72</ele>
        <time>2015-06-26T13:35:58Z</time>
      </trkpt>
      <trkpt lat="46.20523" lon="6.85169">
        <ele>1914.6</ele>
        <time>2015-06-26T13:36:03Z</time>
      </trkpt>
      <trkpt lat="46.20522" lon="6.85161">
        <ele>1917.97</ele>
        <time>2015-06-26T13:36:08Z</time>
      </trkpt>
      <trkpt lat="46.20521" lon="6.85154">
        <ele>1921.33</ele>
        <time>2015-06-26T13:36:13Z</time>
      </trkpt>
      <trkpt lat="46.2052" lon="6.85147">
        <ele>1924.7</ele>
        <time>2015-06-26T13:36:18Z</time>
      </trkpt>
      <trkpt lat="46.20519" lon="6.8514">
        <ele>1928.06</ele>
        <time>2015-06-26T13:36:23Z</time>
      </trkpt>
      <trkpt lat="46.20519" lon="6.85139">
        <ele>1928.54</ele>
        <time>2015-06-26T13:36:24Z</time>
      </trkpt>
      <trkpt lat="46.20518" lon="6.85132">
        <ele>1931.43</ele>
        <time>2015-06-26T13:36:29Z</time>
      </trkpt>
      <trkpt lat="46.20517" lon="6.85125">
        <ele>1934.79</ele>
        <time>2015-06-26T13:36:34Z</time>
      </trkpt>
      <trkpt lat="46.20515" lon="6.85118">
        <ele>1938.16</ele>
        <time>2015-06-26T13:36:39Z</time>
      </trkpt>
      <trkpt lat="46.20514" lon="6.85112">
        <ele>1941.52</ele>
        <time>2015-06-26T13:36:44Z</time>
      </trkpt>
      <trkpt lat="46.20513" lon="6.85105">
        <ele>1945.36</ele>
        <time>2015-06-26T13:36:49Z</time>
      </trkpt>
      <trkpt lat="46.20512" lon="6.85104">
        <ele>1945.36</ele>
        <time>2015-06-26T13:36:50Z</time>
      </trkpt>
      <trkpt lat="46.20512" lon="6.85098">
        <ele>1948.73</ele>
        <time>2015-06-26T13:36:55Z</time>
      </trkpt>
      <trkpt lat="46.20511" lon="6.85091">
        <ele>1952.09</ele>
        <time>2015-06-26T13:37:00Z</time>
      </trkpt>
      <trkpt lat="46.20509" lon="6.85083">
        <ele>1955.46</ele>
        <time>2015-06-26T13:37:06Z</time>
      </trkpt>
      <trkpt lat="46.20507" lon="6.85075">
        <ele>1958.82</ele>
        <time>2015-06-26T13:37:12Z</time>
      </trkpt>
      <trkpt lat="46.20504" lon="6.85058">
        <ele>1961.71</ele>
        <time>2015-06-26T13:37:23Z</time>
      </trkpt>
      <trkpt lat="46.20501" lon="6.85045">
        <ele>1965.55</ele>
        <time>2015-06-26T13:37:32Z</time>
      </trkpt>
      <trkpt lat="46.20499" lon="6.85034">
        <ele>1968.44</ele>
        <time>2015-06-26T13:37:40Z</time>
      </trkpt>
      <trkpt lat="46.20496" lon="6.8502">
        <ele>1971.8</ele>
        <time>2015-06-26T13:37:49Z</time>
      </trkpt>
      <trkpt lat="46.20495" lon="6.8501">
        <ele>1974.69</ele>
        <time>2015-06-26T13:37:56Z</time>
      </trkpt>
      <trkpt lat="46.20493" lon="6.84997">
        <ele>1978.53</ele>
        <time>2015-06-26T13:38:04Z</time>
      </trkpt>
      <trkpt lat="46.20491" lon="6.84983">
        <ele>1981.41</ele>
        <time>2015-06-26T13:38:13Z</time>
      </trkpt>
      <trkpt lat="46.20489" lon="6.84972">
        <ele>1984.78</ele>
        <time>2015-06-26T13:38:20Z</time>
      </trkpt>
      <trkpt lat="46.20487" lon="6.84961">
        <ele>1988.62</ele>
        <time>2015-06-26T13:38:28Z</time>
      </trkpt>
      <trkpt lat="46.20485" lon="6.84951">
        <ele>1991.51</ele>
        <time>2015-06-26T13:38:35Z</time>
      </trkpt>
      <trkpt lat="46.20483" lon="6.84939">
        <ele>1994.87</ele>
        <time>2015-06-26T13:38:43Z</time>
      </trkpt>
      <trkpt lat="46.20481" lon="6.84931">
        <ele>1997.76</ele>
        <time>2015-06-26T13:38:49Z</time>
      </trkpt>
      <trkpt lat="46.20479" lon="6.84919">
        <ele>2001.12</ele>
        <time>2015-06-26T13:38:57Z</time>
      </trkpt>
      <trkpt lat="46.20473" lon="6.84883">
        <ele>2004.49</ele>
        <time>2015-06-26T13:39:20Z</time>
      </trkpt>
      <trkpt lat="46.20469" lon="6.84855">
        <ele>2008.33</ele>
        <time>2015-06-26T13:39:38Z</time>
      </trkpt>
      <trkpt lat="46.20466" lon="6.84835">
        <ele>2011.22</ele>
        <time>2015-06-26T13:39:51Z</time>
      </trkpt>
      <trkpt lat="46.20464" lon="6.84824">
        <ele>2014.58</ele>
        <time>2015-06-26T13:39:58Z</time>
      </trkpt>
      <trkpt lat="46.20463" lon="6.84815">
        <ele>2017.46</ele>
        <time>2015-06-26T13:40:04Z</time>
      </trkpt>
      <trkpt lat="46.20462" lon="6.84804">
        <ele>2016.02</ele>
        <time>2015-06-26T13:40:16Z</time>
      </trkpt>
      <trkpt lat="46.20457" lon="6.84777">
        <ele>2014.58</ele>
        <time>2015-06-26T13:40:31Z</time>
      </trkpt>
      <trkpt lat="46.20453" lon="6.84763">
        <ele>2014.58</ele>
        <time>2015-06-26T13:40:43Z</time>
      </trkpt>
      <trkpt lat="46.20453" lon="6.84762">
        <ele>2014.58</ele>
        <time>2015-06-26T13:40:57Z</time>
      </trkpt>
      <trkpt lat="46.20453" lon="6.84761">
        <ele>2014.58</ele>
        <time>2015-06-26T13:41:28Z</time>
      </trkpt>
      <trkpt lat="46.20453" lon="6.84761">
        <ele>2014.58</ele>
        <time>2015-06-26T13:41:45Z</time>
      </trkpt>
      <trkpt lat="46.20453" lon="6.84761">
        <ele>2014.58</ele>
        <time>2015-06-26T13:42:04Z</time>
      </trkpt>
      <trkpt lat="46.20453" lon="6.84761">
        <ele>2014.58</ele>
        <time>2015-06-26T13:42:08Z</time>
      </trkpt>
      <trkpt lat="46.20453" lon="6.8476">
        <ele>2014.58</ele>
        <time>2015-06-26T13:42:10Z</time>
      </trkpt>
      <trkpt lat="46.20442" lon="6.84736">
        <ele>2016.02</ele>
        <time>2015-06-26T13:42:21Z</time>
      </trkpt>
      <trkpt lat="46.20435" lon="6.84718">
        <ele>2016.5</ele>
        <time>2015-06-26T13:42:28Z</time>
      </trkpt>
      <trkpt lat="46.20433" lon="6.84712">
        <ele>2017.46</ele>
        <time>2015-06-26T13:42:31Z</time>
      </trkpt>
      <trkpt lat="46.20421" lon="6.84694">
        <ele>2020.35</ele>
        <time>2015-06-26T13:42:43Z</time>
      </trkpt>
      <trkpt lat="46.20414" lon="6.84687">
        <ele>2021.31</ele>
        <time>2015-06-26T13:42:49Z</time>
      </trkpt>
      <trkpt lat="46.20402" lon="6.84668">
        <ele>2024.19</ele>
        <time>2015-06-26T13:43:03Z</time>
      </trkpt>
      <trkpt lat="46.20401" lon="6.84667">
        <ele>2024.19</ele>
        <time>2015-06-26T13:43:04Z</time>
      </trkpt>
      <trkpt lat="46.20398" lon="6.8466">
        <ele>2025.15</ele>
        <time>2015-06-26T13:43:08Z</time>
      </trkpt>
      <trkpt lat="46.20389" lon="6.8465">
        <ele>2026.12</ele>
        <time>2015-06-26T13:43:15Z</time>
      </trkpt>
      <trkpt lat="46.20385" lon="6.84644">
        <ele>2027.08</ele>
        <time>2015-06-26T13:43:19Z</time>
      </trkpt>
      <trkpt lat="46.20365" lon="6.84623">
        <ele>2028.52</ele>
        <time>2015-06-26T13:43:36Z</time>
      </trkpt>
      <trkpt lat="46.20337" lon="6.84594">
        <ele>2028.52</ele>
        <time>2015-06-26T13:43:47Z</time>
      </trkpt>
      <trkpt lat="46.20314" lon="6.84572">
        <ele>2024.19</ele>
        <time>2015-06-26T13:43:52Z</time>
      </trkpt>
      <trkpt lat="46.20303" lon="6.84563">
        <ele>2020.83</ele>
        <time>2015-06-26T13:43:54Z</time>
      </trkpt>
      <trkpt lat="46.20284" lon="6.84551">
        <ele>2016.98</ele>
        <time>2015-06-26T13:43:57Z</time>
      </trkpt>
      <trkpt lat="46.20279" lon="6.84548">
        <ele>2016.02</ele>
        <time>2015-06-26T13:43:58Z</time>
      </trkpt>
      <trkpt lat="46.20241" lon="6.84519">
        <ele>2015.06</ele>
        <time>2015-06-26T13:44:05Z</time>
      </trkpt>
      <trkpt lat="46.20216" lon="6.84496">
        <ele>2015.06</ele>
        <time>2015-06-26T13:44:11Z</time>
      </trkpt>
      <trkpt lat="46.20197" lon="6.8447">
        <ele>2016.02</ele>
        <time>2015-06-26T13:44:21Z</time>
      </trkpt>
      <trkpt lat="46.20184" lon="6.8446">
        <ele>2019.87</ele>
        <time>2015-06-26T13:44:35Z</time>
      </trkpt>
      <trkpt lat="46.20182" lon="6.84458">
        <ele>2022.75</ele>
        <time>2015-06-26T13:44:40Z</time>
      </trkpt>
      <trkpt lat="46.20163" lon="6.84439">
        <ele>2025.64</ele>
        <time>2015-06-26T13:45:00Z</time>
      </trkpt>
      <trkpt lat="46.20157" lon="6.84435">
        <ele>2028.52</ele>
        <time>2015-06-26T13:45:13Z</time>
      </trkpt>
      <trkpt lat="46.20157" lon="6.84435">
        <ele>2029.48</ele>
        <time>2015-06-26T13:45:31Z</time>
      </trkpt>
      <trkpt lat="46.20156" lon="6.84435">
        <ele>2029.48</ele>
        <time>2015-06-26T13:45:58Z</time>
      </trkpt>
      <trkpt lat="46.20155" lon="6.84436">
        <ele>2029.48</ele>
        <time>2015-06-26T13:46:18Z</time>
      </trkpt>
      <trkpt lat="46.20155" lon="6.84436">
        <ele>2029.48</ele>
        <time>2015-06-26T13:46:48Z</time>
      </trkpt>
      <trkpt lat="46.20155" lon="6.84435">
        <ele>2029.48</ele>
        <time>2015-06-26T13:47:29Z</time>
      </trkpt>
      <trkpt lat="46.20154" lon="6.84435">
        <ele>2029.48</ele>
        <time>2015-06-26T13:47:54Z</time>
      </trkpt>
      <trkpt lat="46.20154" lon="6.84434">
        <ele>2029.48</ele>
        <time>2015-06-26T13:48:25Z</time>
      </trkpt>
      <trkpt lat="46.20153" lon="6.84434">
        <ele>2029.48</ele>
        <time>2015-06-26T13:49:05Z</time>
      </trkpt>
      <trkpt lat="46.20153" lon="6.84433">
        <ele>2029.48</ele>
        <time>2015-06-26T13:49:36Z</time>
      </trkpt>
      <trkpt lat="46.20153" lon="6.84433">
        <ele>2029.48</ele>
        <time>2015-06-26T13:50:07Z</time>
      </trkpt>
      <trkpt lat="46.20153" lon="6.84433">
        <ele>2029.48</ele>
        <time>2015-06-26T13:50:37Z</time>
      </trkpt>
      <trkpt lat="46.20152" lon="6.84433">
        <ele>2029.48</ele>
        <time>2015-06-26T13:51:10Z</time>
      </trkpt>
      <trkpt lat="46.20152" lon="6.84433">
        <ele>2029.48</ele>
        <time>2015-06-26T13:51:38Z</time>
      </trkpt>
      <trkpt lat="46.20152" lon="6.84433">
        <ele>2028.52</ele>
        <time>2015-06-26T13:52:14Z</time>
      </trkpt>
      <trkpt lat="46.20152" lon="6.84433">
        <ele>2028.52</ele>
        <time>2015-06-26T13:52:58Z</time>
      </trkpt>
      <trkpt lat="46.20152" lon="6.84433">
        <ele>2028.52</ele>
        <time>2015-06-26T13:53:26Z</time>
      </trkpt>
      <trkpt lat="46.20152" lon="6.84433">
        <ele>2028.52</ele>
        <time>2015-06-26T13:54:02Z</time>
      </trkpt>
      <trkpt lat="46.20152" lon="6.84433">
        <ele>2028.52</ele>
        <time>2015-06-26T13:54:25Z</time>
      </trkpt>
      <trkpt lat="46.20152" lon="6.84433">
        <ele>2028.52</ele>
        <time>2015-06-26T13:54:59Z</time>
      </trkpt>
      <trkpt lat="46.20152" lon="6.84433">
        <ele>2028.52</ele>
        <time>2015-06-26T13:55:37Z</time>
      </trkpt>
      <trkpt lat="46.20152" lon="6.84433">
        <ele>2028.52</ele>
        <time>2015-06-26T13:56:12Z</time>
      </trkpt>
      <trkpt lat="46.20152" lon="6.84433">
        <ele>2028.52</ele>
        <time>2015-06-26T13:56:46Z</time>
      </trkpt>
      <trkpt lat="46.20152" lon="6.84433">
        <ele>2028.52</ele>
        <time>2015-06-26T13:57:19Z</time>
      </trkpt>
      <trkpt lat="46.20152" lon="6.84433">
        <ele>2028.52</ele>
        <time>2015-06-26T13:57:58Z</time>
      </trkpt>
      <trkpt lat="46.20152" lon="6.84433">
        <ele>2028.52</ele>
        <time>2015-06-26T13:58:39Z</time>
      </trkpt>
      <trkpt lat="46.20152" lon="6.84433">
        <ele>2028.52</ele>
        <time>2015-06-26T13:59:10Z</time>
      </trkpt>
      <trkpt lat="46.20151" lon="6.84433">
        <ele>2028.52</ele>
        <time>2015-06-26T13:59:38Z</time>
      </trkpt>
      <trkpt lat="46.20151" lon="6.84433">
        <ele>2028.52</ele>
        <time>2015-06-26T14:00:10Z</time>
      </trkpt>
      <trkpt lat="46.20151" lon="6.84433">
        <ele>2028.52</ele>
        <time>2015-06-26T14:00:37Z</time>
      </trkpt>
      <trkpt lat="46.20151" lon="6.84433">
        <ele>2028.52</ele>
        <time>2015-06-26T14:01:10Z</time>
      </trkpt>
      <trkpt lat="46.20151" lon="6.84433">
        <ele>2028.52</ele>
        <time>2015-06-26T14:01:48Z</time>
      </trkpt>
      <trkpt lat="46.20151" lon="6.84433">
        <ele>2028.52</ele>
        <time>2015-06-26T14:02:16Z</time>
      </trkpt>
      <trkpt lat="46.20151" lon="6.84433">
        <ele>2028.52</ele>
        <time>2015-06-26T14:02:46Z</time>
      </trkpt>
      <trkpt lat="46.20151" lon="6.84433">
        <ele>2028.52</ele>
        <time>2015-06-26T14:03:17Z</time>
      </trkpt>
      <trkpt lat="46.20151" lon="6.84433">
        <ele>2028.52</ele>
        <time>2015-06-26T14:03:54Z</time>
      </trkpt>
      <trkpt lat="46.20151" lon="6.84433">
        <ele>2028.52</ele>
        <time>2015-06-26T14:04:27Z</time>
      </trkpt>
      <trkpt lat="46.20151" lon="6.84433">
        <ele>2028.52</ele>
        <time>2015-06-26T14:05:09Z</time>
      </trkpt>
      <trkpt lat="46.20151" lon="6.84433">
        <ele>2028.52</ele>
        <time>2015-06-26T14:05:53Z</time>
      </trkpt>
      <trkpt lat="46.20151" lon="6.84433">
        <ele>2028.52</ele>
        <time>2015-06-26T14:06:30Z</time>
      </trkpt>
      <trkpt lat="46.2015" lon="6.84433">
        <ele>2028.52</ele>
        <time>2015-06-26T14:07:08Z</time>
      </trkpt>
      <trkpt lat="46.2015" lon="6.84433">
        <ele>2028.52</ele>
        <time>2015-06-26T14:07:38Z</time>
      </trkpt>
      <trkpt lat="46.2015" lon="6.84433">
        <ele>2028.52</ele>
        <time>2015-06-26T14:08:17Z</time>
      </trkpt>
      <trkpt lat="46.2015" lon="6.84433">
        <ele>2028.52</ele>
        <time>2015-06-26T14:08:43Z</time>
      </trkpt>
      <trkpt lat="46.2015" lon="6.84433">
        <ele>2028.52</ele>
        <time>2015-06-26T14:09:14Z</time>
      </trkpt>
      <trkpt lat="46.2015" lon="6.84433">
        <ele>2028.52</ele>
        <time>2015-06-26T14:09:43Z</time>
      </trkpt>
      <trkpt lat="46.20151" lon="6.84433">
        <ele>2028.52</ele>
        <time>2015-06-26T14:10:14Z</time>
      </trkpt>
      <trkpt lat="46.20151" lon="6.84433">
        <ele>2028.52</ele>
        <time>2015-06-26T14:10:56Z</time>
      </trkpt>
      <trkpt lat="46.20151" lon="6.84433">
        <ele>2028.52</ele>
        <time>2015-06-26T14:11:24Z</time>
      </trkpt>
      <trkpt lat="46.20151" lon="6.84433">
        <ele>2028.52</ele>
        <time>2015-06-26T14:12:00Z</time>
      </trkpt>
      <trkpt lat="46.20151" lon="6.84433">
        <ele>2028.52</ele>
        <time>2015-06-26T14:12:30Z</time>
      </trkpt>
      <trkpt lat="46.20151" lon="6.84433">
        <ele>2028.52</ele>
        <time>2015-06-26T14:13:06Z</time>
      </trkpt>
      <trkpt lat="46.20151" lon="6.84433">
        <ele>2028.52</ele>
        <time>2015-06-26T14:13:41Z</time>
      </trkpt>
      <trkpt lat="46.20151" lon="6.84433">
        <ele>2028.52</ele>
        <time>2015-06-26T14:14:14Z</time>
      </trkpt>
      <trkpt lat="46.20151" lon="6.84433">
        <ele>2028.52</ele>
        <time>2015-06-26T14:14:45Z</time>
      </trkpt>
      <trkpt lat="46.20151" lon="6.84433">
        <ele>2028.52</ele>
        <time>2015-06-26T14:15:03Z</time>
      </trkpt>
      <trkpt lat="46.20151" lon="6.84433">
        <ele>2028.52</ele>
        <time>2015-06-26T14:15:20Z</time>
      </trkpt>
      <trkpt lat="46.20151" lon="6.84433">
        <ele>2029.96</ele>
        <time>2015-06-26T14:15:50Z</time>
      </trkpt>
      <trkpt lat="46.2015" lon="6.84432">
        <ele>2029.96</ele>
        <time>2015-06-26T14:16:14Z</time>
      </trkpt>
      <trkpt lat="46.2015" lon="6.84432">
        <ele>2029.96</ele>
        <time>2015-06-26T14:16:21Z</time>
      </trkpt>
      <trkpt lat="46.20123" lon="6.84423">
        <ele>2029.96</ele>
        <time>2015-06-26T14:16:31Z</time>
      </trkpt>
      <trkpt lat="46.20101" lon="6.84413">
        <ele>2030.44</ele>
        <time>2015-06-26T14:16:41Z</time>
      </trkpt>
      <trkpt lat="46.20076" lon="6.844">
        <ele>2031.88</ele>
        <time>2015-06-26T14:16:53Z</time>
      </trkpt>
      <trkpt lat="46.20062" lon="6.84391">
        <ele>2033.33</ele>
        <time>2015-06-26T14:17:00Z</time>
      </trkpt>
      <trkpt lat="46.20049" lon="6.84387">
        <ele>2037.17</ele>
        <time>2015-06-26T14:17:06Z</time>
      </trkpt>
      <trkpt lat="46.2002" lon="6.84398">
        <ele>2036.69</ele>
        <time>2015-06-26T14:17:16Z</time>
      </trkpt>
      <trkpt lat="46.19994" lon="6.84398">
        <ele>2036.69</ele>
        <time>2015-06-26T14:17:25Z</time>
      </trkpt>
      <trkpt lat="46.19979" lon="6.84377">
        <ele>2037.17</ele>
        <time>2015-06-26T14:17:31Z</time>
      </trkpt>
      <trkpt lat="46.19963" lon="6.8436">
        <ele>2037.17</ele>
        <time>2015-06-26T14:17:37Z</time>
      </trkpt>
      <trkpt lat="46.19939" lon="6.84349">
        <ele>2037.17</ele>
        <time>2015-06-26T14:17:47Z</time>
      </trkpt>
      <trkpt lat="46.1992" lon="6.84327">
        <ele>2037.65</ele>
        <time>2015-06-26T14:17:59Z</time>
      </trkpt>
      <trkpt lat="46.19918" lon="6.84324">
        <ele>2037.65</ele>
        <time>2015-06-26T14:18:01Z</time>
      </trkpt>
      <trkpt lat="46.19913" lon="6.84316">
        <ele>2038.13</ele>
        <time>2015-06-26T14:18:06Z</time>
      </trkpt>
      <trkpt lat="46.199" lon="6.84286">
        <ele>2040.05</ele>
        <time>2015-06-26T14:18:20Z</time>
      </trkpt>
      <trkpt lat="46.19873" lon="6.84273">
        <ele>2040.54</ele>
        <time>2015-06-26T14:18:33Z</time>
      </trkpt>
      <trkpt lat="46.19857" lon="6.84262">
        <ele>2040.54</ele>
        <time>2015-06-26T14:18:39Z</time>
      </trkpt>
      <trkpt lat="46.19838" lon="6.8425">
        <ele>2040.54</ele>
        <time>2015-06-26T14:18:44Z</time>
      </trkpt>
      <trkpt lat="46.1983" lon="6.84248">
        <ele>2040.54</ele>
        <time>2015-06-26T14:18:46Z</time>
      </trkpt>
      <trkpt lat="46.19817" lon="6.84248">
        <ele>2039.09</ele>
        <time>2015-06-26T14:18:49Z</time>
      </trkpt>
      <trkpt lat="46.19799" lon="6.84239">
        <ele>2035.73</ele>
        <time>2015-06-26T14:18:53Z</time>
      </trkpt>
      <trkpt lat="46.19793" lon="6.84234">
        <ele>2034.29</ele>
        <time>2015-06-26T14:18:55Z</time>
      </trkpt>
      <trkpt lat="46.1977" lon="6.84236">
        <ele>2031.88</ele>
        <time>2015-06-26T14:19:02Z</time>
      </trkpt>
      <trkpt lat="46.19753" lon="6.84239">
        <ele>2029.96</ele>
        <time>2015-06-26T14:19:05Z</time>
      </trkpt>
      <trkpt lat="46.19742" lon="6.84241">
        <ele>2028.04</ele>
        <time>2015-06-26T14:19:07Z</time>
      </trkpt>
      <trkpt lat="46.19717" lon="6.84241">
        <ele>2025.64</ele>
        <time>2015-06-26T14:19:13Z</time>
      </trkpt>
      <trkpt lat="46.19709" lon="6.84235">
        <ele>2023.71</ele>
        <time>2015-06-26T14:19:16Z</time>
      </trkpt>
      <trkpt lat="46.19706" lon="6.84206">
        <ele>2019.87</ele>
        <time>2015-06-26T14:19:22Z</time>
      </trkpt>
      <trkpt lat="46.19696" lon="6.84202">
        <ele>2017.94</ele>
        <time>2015-06-26T14:19:24Z</time>
      </trkpt>
      <trkpt lat="46.19681" lon="6.84201">
        <ele>2014.1</ele>
        <time>2015-06-26T14:19:29Z</time>
      </trkpt>
      <trkpt lat="46.19681" lon="6.842">
        <ele>2014.58</ele>
        <time>2015-06-26T14:19:46Z</time>
      </trkpt>
      <trkpt lat="46.19682" lon="6.842">
        <ele>2014.58</ele>
        <time>2015-06-26T14:20:22Z</time>
      </trkpt>
      <trkpt lat="46.19682" lon="6.842">
        <ele>2014.58</ele>
        <time>2015-06-26T14:20:58Z</time>
      </trkpt>
      <trkpt lat="46.19682" lon="6.842">
        <ele>2015.54</ele>
        <time>2015-06-26T14:21:32Z</time>
      </trkpt>
      <trkpt lat="46.19682" lon="6.842">
        <ele>2015.54</ele>
        <time>2015-06-26T14:22:17Z</time>
      </trkpt>
      <trkpt lat="46.19682" lon="6.842">
        <ele>2015.54</ele>
        <time>2015-06-26T14:22:50Z</time>
      </trkpt>
      <trkpt lat="46.19682" lon="6.842">
        <ele>2015.54</ele>
        <time>2015-06-26T14:23:27Z</time>
      </trkpt>
      <trkpt lat="46.19682" lon="6.842">
        <ele>2015.54</ele>
        <time>2015-06-26T14:24:09Z</time>
      </trkpt>
      <trkpt lat="46.19682" lon="6.84201">
        <ele>2015.54</ele>
        <time>2015-06-26T14:24:44Z</time>
      </trkpt>
      <trkpt lat="46.19682" lon="6.84201">
        <ele>2015.54</ele>
        <time>2015-06-26T14:24:49Z</time>
      </trkpt>
      <trkpt lat="46.1966" lon="6.84226">
        <ele>2011.22</ele>
        <time>2015-06-26T14:25:01Z</time>
      </trkpt>
      <trkpt lat="46.19653" lon="6.84233">
        <ele>2006.89</ele>
        <time>2015-06-26T14:25:04Z</time>
      </trkpt>
      <trkpt lat="46.19647" lon="6.84239">
        <ele>2002.56</ele>
        <time>2015-06-26T14:25:07Z</time>
      </trkpt>
      <trkpt lat="46.1964" lon="6.84245">
        <ele>1999.68</ele>
        <time>2015-06-26T14:25:10Z</time>
      </trkpt>
      <trkpt lat="46.19619" lon="6.8425">
        <ele>1997.76</ele>
        <time>2015-06-26T14:25:14Z</time>
      </trkpt>
      <trkpt lat="46.19613" lon="6.84249">
        <ele>1996.8</ele>
        <time>2015-06-26T14:25:15Z</time>
      </trkpt>
      <trkpt lat="46.19588" lon="6.84232">
        <ele>1991.99</ele>
        <time>2015-06-26T14:25:23Z</time>
      </trkpt>
      <trkpt lat="46.19587" lon="6.84227">
        <ele>1991.51</ele>
        <time>2015-06-26T14:25:25Z</time>
      </trkpt>
      <trkpt lat="46.19575" lon="6.84177">
        <ele>1991.99</ele>
        <time>2015-06-26T14:25:35Z</time>
      </trkpt>
      <trkpt lat="46.19571" lon="6.84148">
        <ele>1991.99</ele>
        <time>2015-06-26T14:25:39Z</time>
      </trkpt>
      <trkpt lat="46.19563" lon="6.84117">
        <ele>1988.62</ele>
        <time>2015-06-26T14:25:43Z</time>
      </trkpt>
      <trkpt lat="46.19558" lon="6.84092">
        <ele>1983.82</ele>
        <time>2015-06-26T14:25:47Z</time>
      </trkpt>
      <trkpt lat="46.19556" lon="6.84079">
        <ele>1980.45</ele>
        <time>2015-06-26T14:25:50Z</time>
      </trkpt>
      <trkpt lat="46.19545" lon="6.84032">
        <ele>1979.01</ele>
        <time>2015-06-26T14:26:03Z</time>
      </trkpt>
      <trkpt lat="46.19545" lon="6.84032">
        <ele>1978.53</ele>
        <time>2015-06-26T14:26:22Z</time>
      </trkpt>
      <trkpt lat="46.19542" lon="6.84002">
        <ele>1977.09</ele>
        <time>2015-06-26T14:26:34Z</time>
      </trkpt>
      <trkpt lat="46.19541" lon="6.83971">
        <ele>1974.2</ele>
        <time>2015-06-26T14:26:41Z</time>
      </trkpt>
      <trkpt lat="46.19539" lon="6.8396">
        <ele>1970.84</ele>
        <time>2015-06-26T14:26:44Z</time>
      </trkpt>
      <trkpt lat="46.19535" lon="6.83945">
        <ele>1967.48</ele>
        <time>2015-06-26T14:26:48Z</time>
      </trkpt>
      <trkpt lat="46.19528" lon="6.83926">
        <ele>1964.11</ele>
        <time>2015-06-26T14:26:54Z</time>
      </trkpt>
      <trkpt lat="46.19524" lon="6.83915">
        <ele>1962.19</ele>
        <time>2015-06-26T14:26:57Z</time>
      </trkpt>
      <trkpt lat="46.19511" lon="6.83905">
        <ele>1958.34</ele>
        <time>2015-06-26T14:27:02Z</time>
      </trkpt>
      <trkpt lat="46.19503" lon="6.83903">
        <ele>1954.5</ele>
        <time>2015-06-26T14:27:05Z</time>
      </trkpt>
      <trkpt lat="46.19496" lon="6.83899">
        <ele>1950.17</ele>
        <time>2015-06-26T14:27:08Z</time>
      </trkpt>
      <trkpt lat="46.19491" lon="6.83897">
        <ele>1947.77</ele>
        <time>2015-06-26T14:27:21Z</time>
      </trkpt>
      <trkpt lat="46.19485" lon="6.83899">
        <ele>1949.69</ele>
        <time>2015-06-26T14:27:43Z</time>
      </trkpt>
      <trkpt lat="46.19478" lon="6.83903">
        <ele>1949.69</ele>
        <time>2015-06-26T14:27:48Z</time>
      </trkpt>
      <trkpt lat="46.19471" lon="6.83913">
        <ele>1948.25</ele>
        <time>2015-06-26T14:27:51Z</time>
      </trkpt>
      <trkpt lat="46.19469" lon="6.83918">
        <ele>1947.77</ele>
        <time>2015-06-26T14:27:52Z</time>
      </trkpt>
      <trkpt lat="46.19465" lon="6.83942">
        <ele>1943.44</ele>
        <time>2015-06-26T14:27:56Z</time>
      </trkpt>
      <trkpt lat="46.19463" lon="6.83956">
        <ele>1940.56</ele>
        <time>2015-06-26T14:27:58Z</time>
      </trkpt>
      <trkpt lat="46.19455" lon="6.83974">
        <ele>1935.75</ele>
        <time>2015-06-26T14:28:01Z</time>
      </trkpt>
      <trkpt lat="46.19443" lon="6.83976">
        <ele>1932.39</ele>
        <time>2015-06-26T14:28:04Z</time>
      </trkpt>
      <trkpt lat="46.19429" lon="6.83969">
        <ele>1930.46</ele>
        <time>2015-06-26T14:28:07Z</time>
      </trkpt>
      <trkpt lat="46.19421" lon="6.8396">
        <ele>1930.95</ele>
        <time>2015-06-26T14:28:09Z</time>
      </trkpt>
      <trkpt lat="46.19407" lon="6.83928">
        <ele>1926.14</ele>
        <time>2015-06-26T14:28:15Z</time>
      </trkpt>
      <trkpt lat="46.19392" lon="6.83899">
        <ele>1921.33</ele>
        <time>2015-06-26T14:28:20Z</time>
      </trkpt>
      <trkpt lat="46.19386" lon="6.83884">
        <ele>1917.97</ele>
        <time>2015-06-26T14:28:24Z</time>
      </trkpt>
      <trkpt lat="46.19383" lon="6.83873">
        <ele>1917.01</ele>
        <time>2015-06-26T14:28:26Z</time>
      </trkpt>
      <trkpt lat="46.19376" lon="6.83858">
        <ele>1916.53</ele>
        <time>2015-06-26T14:28:29Z</time>
      </trkpt>
      <trkpt lat="46.19355" lon="6.83816">
        <ele>1915.08</ele>
        <time>2015-06-26T14:28:40Z</time>
      </trkpt>
      <trkpt lat="46.19352" lon="6.83802">
        <ele>1911.72</ele>
        <time>2015-06-26T14:28:45Z</time>
      </trkpt>
      <trkpt lat="46.19352" lon="6.83802">
        <ele>1909.32</ele>
        <time>2015-06-26T14:29:02Z</time>
      </trkpt>
      <trkpt lat="46.19352" lon="6.83802">
        <ele>1910.76</ele>
        <time>2015-06-26T14:29:22Z</time>
      </trkpt>
      <trkpt lat="46.19352" lon="6.83802">
        <ele>1910.76</ele>
        <time>2015-06-26T14:30:03Z</time>
      </trkpt>
      <trkpt lat="46.19352" lon="6.8379">
        <ele>1910.76</ele>
        <time>2015-06-26T14:30:29Z</time>
      </trkpt>
      <trkpt lat="46.19364" lon="6.83737">
        <ele>1909.32</ele>
        <time>2015-06-26T14:30:40Z</time>
      </trkpt>
      <trkpt lat="46.19376" lon="6.83716">
        <ele>1908.83</ele>
        <time>2015-06-26T14:30:45Z</time>
      </trkpt>
      <trkpt lat="46.19382" lon="6.8369">
        <ele>1905.47</ele>
        <time>2015-06-26T14:30:49Z</time>
      </trkpt>
      <trkpt lat="46.19381" lon="6.83686">
        <ele>1901.14</ele>
        <time>2015-06-26T14:30:52Z</time>
      </trkpt>
      <trkpt lat="46.19379" lon="6.83685">
        <ele>1899.7</ele>
        <time>2015-06-26T14:30:54Z</time>
      </trkpt>
      <trkpt lat="46.1937" lon="6.83685">
        <ele>1897.78</ele>
        <time>2015-06-26T14:30:58Z</time>
      </trkpt>
      <trkpt lat="46.19367" lon="6.83684">
        <ele>1897.78</ele>
        <time>2015-06-26T14:31:09Z</time>
      </trkpt>
      <trkpt lat="46.19366" lon="6.83682">
        <ele>1897.78</ele>
        <time>2015-06-26T14:31:26Z</time>
      </trkpt>
      <trkpt lat="46.19366" lon="6.83682">
        <ele>1897.78</ele>
        <time>2015-06-26T14:32:01Z</time>
      </trkpt>
      <trkpt lat="46.19365" lon="6.83682">
        <ele>1897.78</ele>
        <time>2015-06-26T14:32:43Z</time>
      </trkpt>
      <trkpt lat="46.19365" lon="6.83682">
        <ele>1897.78</ele>
        <time>2015-06-26T14:33:14Z</time>
      </trkpt>
      <trkpt lat="46.19365" lon="6.83682">
        <ele>1897.78</ele>
        <time>2015-06-26T14:33:45Z</time>
      </trkpt>
      <trkpt lat="46.19365" lon="6.83682">
        <ele>1897.78</ele>
        <time>2015-06-26T14:34:17Z</time>
      </trkpt>
      <trkpt lat="46.19366" lon="6.83682">
        <ele>1897.78</ele>
        <time>2015-06-26T14:35:04Z</time>
      </trkpt>
      <trkpt lat="46.19366" lon="6.83682">
        <ele>1897.78</ele>
        <time>2015-06-26T14:35:47Z</time>
      </trkpt>
      <trkpt lat="46.19365" lon="6.83681">
        <ele>1897.78</ele>
        <time>2015-06-26T14:36:12Z</time>
      </trkpt>
      <trkpt lat="46.19365" lon="6.83681">
        <ele>1897.78</ele>
        <time>2015-06-26T14:36:20Z</time>
      </trkpt>
      <trkpt lat="46.19357" lon="6.8369">
        <ele>1897.78</ele>
        <time>2015-06-26T14:36:24Z</time>
      </trkpt>
      <trkpt lat="46.19326" lon="6.8372">
        <ele>1893.93</ele>
        <time>2015-06-26T14:36:36Z</time>
      </trkpt>
      <trkpt lat="46.19309" lon="6.8373">
        <ele>1889.61</ele>
        <time>2015-06-26T14:36:40Z</time>
      </trkpt>
      <trkpt lat="46.19304" lon="6.83732">
        <ele>1888.65</ele>
        <time>2015-06-26T14:36:41Z</time>
      </trkpt>
      <trkpt lat="46.19288" lon="6.83759">
        <ele>1885.76</ele>
        <time>2015-06-26T14:36:46Z</time>
      </trkpt>
      <trkpt lat="46.19289" lon="6.83777">
        <ele>1885.28</ele>
        <time>2015-06-26T14:36:48Z</time>
      </trkpt>
      <trkpt lat="46.19267" lon="6.83827">
        <ele>1880.96</ele>
        <time>2015-06-26T14:36:55Z</time>
      </trkpt>
      <trkpt lat="46.19252" lon="6.83831">
        <ele>1877.59</ele>
        <time>2015-06-26T14:36:58Z</time>
      </trkpt>
      <trkpt lat="46.19239" lon="6.83813">
        <ele>1873.27</ele>
        <time>2015-06-26T14:37:01Z</time>
      </trkpt>
      <trkpt lat="46.19233" lon="6.83805">
        <ele>1872.3</ele>
        <time>2015-06-26T14:37:02Z</time>
      </trkpt>
      <trkpt lat="46.19224" lon="6.83768">
        <ele>1867.02</ele>
        <time>2015-06-26T14:37:07Z</time>
      </trkpt>
      <trkpt lat="46.19227" lon="6.83703">
        <ele>1862.21</ele>
        <time>2015-06-26T14:37:13Z</time>
      </trkpt>
      <trkpt lat="46.19227" lon="6.83667">
        <ele>1860.77</ele>
        <time>2015-06-26T14:37:16Z</time>
      </trkpt>
      <trkpt lat="46.19227" lon="6.83643">
        <ele>1859.33</ele>
        <time>2015-06-26T14:37:18Z</time>
      </trkpt>
      <trkpt lat="46.19231" lon="6.83595">
        <ele>1854.52</ele>
        <time>2015-06-26T14:37:22Z</time>
      </trkpt>
      <trkpt lat="46.19235" lon="6.83584">
        <ele>1853.08</ele>
        <time>2015-06-26T14:37:23Z</time>
      </trkpt>
      <trkpt lat="46.19234" lon="6.83556">
        <ele>1846.83</ele>
        <time>2015-06-26T14:37:27Z</time>
      </trkpt>
      <trkpt lat="46.1923" lon="6.83556">
        <ele>1845.39</ele>
        <time>2015-06-26T14:37:28Z</time>
      </trkpt>
      <trkpt lat="46.19154" lon="6.83567">
        <ele>1843.47</ele>
        <time>2015-06-26T14:37:40Z</time>
      </trkpt>
      <trkpt lat="46.19139" lon="6.83562">
        <ele>1841.06</ele>
        <time>2015-06-26T14:37:42Z</time>
      </trkpt>
      <trkpt lat="46.1912" lon="6.83564">
        <ele>1835.77</ele>
        <time>2015-06-26T14:37:45Z</time>
      </trkpt>
      <trkpt lat="46.19111" lon="6.83574">
        <ele>1831.45</ele>
        <time>2015-06-26T14:37:47Z</time>
      </trkpt>
      <trkpt lat="46.19103" lon="6.83588">
        <ele>1827.6</ele>
        <time>2015-06-26T14:37:49Z</time>
      </trkpt>
      <trkpt lat="46.19093" lon="6.83603">
        <ele>1823.76</ele>
        <time>2015-06-26T14:37:51Z</time>
      </trkpt>
      <trkpt lat="46.1908" lon="6.83627">
        <ele>1818.47</ele>
        <time>2015-06-26T14:37:54Z</time>
      </trkpt>
      <trkpt lat="46.19072" lon="6.83641">
        <ele>1817.03</ele>
        <time>2015-06-26T14:37:56Z</time>
      </trkpt>
      <trkpt lat="46.19045" lon="6.83648">
        <ele>1812.7</ele>
        <time>2015-06-26T14:38:01Z</time>
      </trkpt>
      <trkpt lat="46.19013" lon="6.83614">
        <ele>1816.07</ele>
        <time>2015-06-26T14:38:08Z</time>
      </trkpt>
      <trkpt lat="46.18978" lon="6.83567">
        <ele>1817.03</ele>
        <time>2015-06-26T14:38:15Z</time>
      </trkpt>
      <trkpt lat="46.18969" lon="6.83525">
        <ele>1812.22</ele>
        <time>2015-06-26T14:38:19Z</time>
      </trkpt>
      <trkpt lat="46.18964" lon="6.83503">
        <ele>1809.82</ele>
        <time>2015-06-26T14:38:21Z</time>
      </trkpt>
      <trkpt lat="46.18941" lon="6.83461">
        <ele>1808.38</ele>
        <time>2015-06-26T14:38:26Z</time>
      </trkpt>
      <trkpt lat="46.18922" lon="6.83447">
        <ele>1808.38</ele>
        <time>2015-06-26T14:38:34Z</time>
      </trkpt>
      <trkpt lat="46.18921" lon="6.83446">
        <ele>1808.38</ele>
        <time>2015-06-26T14:38:49Z</time>
      </trkpt>
      <trkpt lat="46.18922" lon="6.83447">
        <ele>1808.38</ele>
        <time>2015-06-26T14:39:10Z</time>
      </trkpt>
      <trkpt lat="46.18921" lon="6.83446">
        <ele>1808.38</ele>
        <time>2015-06-26T14:39:13Z</time>
      </trkpt>
      <trkpt lat="46.18898" lon="6.83457">
        <ele>1808.38</ele>
        <time>2015-06-26T14:39:21Z</time>
      </trkpt>
      <trkpt lat="46.18898" lon="6.83464">
        <ele>1807.42</ele>
        <time>2015-06-26T14:39:22Z</time>
      </trkpt>
      <trkpt lat="46.18888" lon="6.83482">
        <ele>1800.69</ele>
        <time>2015-06-26T14:39:27Z</time>
      </trkpt>
      <trkpt lat="46.18885" lon="6.83477">
        <ele>1799.24</ele>
        <time>2015-06-26T14:39:28Z</time>
      </trkpt>
      <trkpt lat="46.18859" lon="6.83446">
        <ele>1793.48</ele>
        <time>2015-06-26T14:39:34Z</time>
      </trkpt>
      <trkpt lat="46.18825" lon="6.83413">
        <ele>1791.07</ele>
        <time>2015-06-26T14:39:41Z</time>
      </trkpt>
      <trkpt lat="46.18818" lon="6.83376">
        <ele>1787.71</ele>
        <time>2015-06-26T14:39:45Z</time>
      </trkpt>
      <trkpt lat="46.18808" lon="6.83364">
        <ele>1785.31</ele>
        <time>2015-06-26T14:39:47Z</time>
      </trkpt>
      <trkpt lat="46.18796" lon="6.83355">
        <ele>1782.42</ele>
        <time>2015-06-26T14:39:49Z</time>
      </trkpt>
      <trkpt lat="46.18765" lon="6.83345">
        <ele>1776.65</ele>
        <time>2015-06-26T14:39:53Z</time>
      </trkpt>
      <trkpt lat="46.18742" lon="6.83332">
        <ele>1772.81</ele>
        <time>2015-06-26T14:39:56Z</time>
      </trkpt>
      <trkpt lat="46.18727" lon="6.83327">
        <ele>1770.41</ele>
        <time>2015-06-26T14:39:58Z</time>
      </trkpt>
      <trkpt lat="46.18714" lon="6.83303">
        <ele>1765.6</ele>
        <time>2015-06-26T14:40:02Z</time>
      </trkpt>
      <trkpt lat="46.18685" lon="6.83298">
        <ele>1762.23</ele>
        <time>2015-06-26T14:40:07Z</time>
      </trkpt>
      <trkpt lat="46.1868" lon="6.83292">
        <ele>1762.23</ele>
        <time>2015-06-26T14:40:08Z</time>
      </trkpt>
      <trkpt lat="46.18646" lon="6.83273">
        <ele>1756.95</ele>
        <time>2015-06-26T14:40:15Z</time>
      </trkpt>
      <trkpt lat="46.18634" lon="6.83254">
        <ele>1754.06</ele>
        <time>2015-06-26T14:40:18Z</time>
      </trkpt>
      <trkpt lat="46.18606" lon="6.83227">
        <ele>1747.81</ele>
        <time>2015-06-26T14:40:23Z</time>
      </trkpt>
      <trkpt lat="46.1859" lon="6.83219">
        <ele>1743.97</ele>
        <time>2015-06-26T14:40:26Z</time>
      </trkpt>
      <trkpt lat="46.18572" lon="6.83218">
        <ele>1740.6</ele>
        <time>2015-06-26T14:40:30Z</time>
      </trkpt>
      <trkpt lat="46.1856" lon="6.83228">
        <ele>1739.16</ele>
        <time>2015-06-26T14:40:34Z</time>
      </trkpt>
      <trkpt lat="46.18561" lon="6.83291">
        <ele>1734.84</ele>
        <time>2015-06-26T14:40:40Z</time>
      </trkpt>
      <trkpt lat="46.18567" lon="6.83319">
        <ele>1730.99</ele>
        <time>2015-06-26T14:40:43Z</time>
      </trkpt>
      <trkpt lat="46.18569" lon="6.8335">
        <ele>1726.18</ele>
        <time>2015-06-26T14:40:46Z</time>
      </trkpt>
      <trkpt lat="46.18572" lon="6.83369">
        <ele>1723.3</ele>
        <time>2015-06-26T14:40:48Z</time>
      </trkpt>
      <trkpt lat="46.1857" lon="6.83378">
        <ele>1721.86</ele>
        <time>2015-06-26T14:40:49Z</time>
      </trkpt>
      <trkpt lat="46.18564" lon="6.83433">
        <ele>1715.61</ele>
        <time>2015-06-26T14:40:55Z</time>
      </trkpt>
      <trkpt lat="46.18568" lon="6.83438">
        <ele>1714.65</ele>
        <time>2015-06-26T14:40:56Z</time>
      </trkpt>
      <trkpt lat="46.18569" lon="6.8349">
        <ele>1710.32</ele>
        <time>2015-06-26T14:41:03Z</time>
      </trkpt>
      <trkpt lat="46.1857" lon="6.83525">
        <ele>1706.96</ele>
        <time>2015-06-26T14:41:08Z</time>
      </trkpt>
      <trkpt lat="46.18566" lon="6.83554">
        <ele>1702.63</ele>
        <time>2015-06-26T14:41:14Z</time>
      </trkpt>
      <trkpt lat="46.18576" lon="6.8359">
        <ele>1700.71</ele>
        <time>2015-06-26T14:41:21Z</time>
      </trkpt>
      <trkpt lat="46.1859" lon="6.83607">
        <ele>1698.79</ele>
        <time>2015-06-26T14:41:25Z</time>
      </trkpt>
      <trkpt lat="46.18625" lon="6.83635">
        <ele>1694.94</ele>
        <time>2015-06-26T14:41:33Z</time>
      </trkpt>
      <trkpt lat="46.18638" lon="6.83645">
        <ele>1693.02</ele>
        <time>2015-06-26T14:41:36Z</time>
      </trkpt>
      <trkpt lat="46.18646" lon="6.83674">
        <ele>1689.65</ele>
        <time>2015-06-26T14:41:41Z</time>
      </trkpt>
      <trkpt lat="46.18633" lon="6.83687">
        <ele>1687.25</ele>
        <time>2015-06-26T14:41:44Z</time>
      </trkpt>
      <trkpt lat="46.18616" lon="6.83701">
        <ele>1685.33</ele>
        <time>2015-06-26T14:41:47Z</time>
      </trkpt>
      <trkpt lat="46.18562" lon="6.837">
        <ele>1682.44</ele>
        <time>2015-06-26T14:41:55Z</time>
      </trkpt>
      <trkpt lat="46.18556" lon="6.83694">
        <ele>1681</ele>
        <time>2015-06-26T14:41:56Z</time>
      </trkpt>
      <trkpt lat="46.18543" lon="6.83682">
        <ele>1680.04</ele>
        <time>2015-06-26T14:41:58Z</time>
      </trkpt>
      <trkpt lat="46.18513" lon="6.83671">
        <ele>1676.2</ele>
        <time>2015-06-26T14:42:03Z</time>
      </trkpt>
      <trkpt lat="46.18504" lon="6.83662">
        <ele>1674.75</ele>
        <time>2015-06-26T14:42:05Z</time>
      </trkpt>
      <trkpt lat="46.18466" lon="6.83612">
        <ele>1678.6</ele>
        <time>2015-06-26T14:42:12Z</time>
      </trkpt>
      <trkpt lat="46.1846" lon="6.83604">
        <ele>1679.56</ele>
        <time>2015-06-26T14:42:13Z</time>
      </trkpt>
      <trkpt lat="46.18448" lon="6.83575">
        <ele>1682.44</ele>
        <time>2015-06-26T14:42:16Z</time>
      </trkpt>
      <trkpt lat="46.18447" lon="6.83551">
        <ele>1683.89</ele>
        <time>2015-06-26T14:42:18Z</time>
      </trkpt>
      <trkpt lat="46.18448" lon="6.83527">
        <ele>1683.89</ele>
        <time>2015-06-26T14:42:20Z</time>
      </trkpt>
      <trkpt lat="46.1844" lon="6.83469">
        <ele>1681</ele>
        <time>2015-06-26T14:42:25Z</time>
      </trkpt>
      <trkpt lat="46.18422" lon="6.83436">
        <ele>1678.6</ele>
        <time>2015-06-26T14:42:29Z</time>
      </trkpt>
      <trkpt lat="46.18388" lon="6.83434">
        <ele>1678.12</ele>
        <time>2015-06-26T14:42:35Z</time>
      </trkpt>
      <trkpt lat="46.18376" lon="6.83477">
        <ele>1678.12</ele>
        <time>2015-06-26T14:42:40Z</time>
      </trkpt>
      <trkpt lat="46.18361" lon="6.83514">
        <ele>1678.12</ele>
        <time>2015-06-26T14:42:44Z</time>
      </trkpt>
      <trkpt lat="46.18352" lon="6.83517">
        <ele>1681.48</ele>
        <time>2015-06-26T14:42:49Z</time>
      </trkpt>
      <trkpt lat="46.18345" lon="6.83511">
        <ele>1685.33</ele>
        <time>2015-06-26T14:42:53Z</time>
      </trkpt>
      <trkpt lat="46.18328" lon="6.83488">
        <ele>1686.77</ele>
        <time>2015-06-26T14:43:04Z</time>
      </trkpt>
      <trkpt lat="46.18341" lon="6.83436">
        <ele>1685.33</ele>
        <time>2015-06-26T14:43:17Z</time>
      </trkpt>
      <trkpt lat="46.18347" lon="6.8343">
        <ele>1685.33</ele>
        <time>2015-06-26T14:43:19Z</time>
      </trkpt>
      <trkpt lat="46.18364" lon="6.83435">
        <ele>1685.33</ele>
        <time>2015-06-26T14:43:25Z</time>
      </trkpt>
      <trkpt lat="46.18369" lon="6.83433">
        <ele>1685.33</ele>
        <time>2015-06-26T14:43:36Z</time>
      </trkpt>
      <trkpt lat="46.1837" lon="6.83432">
        <ele>1685.33</ele>
        <time>2015-06-26T14:43:43Z</time>
      </trkpt>
      <trkpt lat="46.18375" lon="6.83424">
        <ele>1685.33</ele>
        <time>2015-06-26T14:43:55Z</time>
      </trkpt>
      <trkpt lat="46.18376" lon="6.83424">
        <ele>1685.33</ele>
        <time>2015-06-26T14:44:07Z</time>
      </trkpt>
      <trkpt lat="46.18376" lon="6.83424">
        <ele>1685.33</ele>
        <time>2015-06-26T14:44:24Z</time>
      </trkpt>
      <trkpt lat="46.18376" lon="6.83424">
        <ele>1685.33</ele>
        <time>2015-06-26T14:44:29Z</time>
      </trkpt>
      <trkpt lat="46.18393" lon="6.83383">
        <ele>1685.33</ele>
        <time>2015-06-26T14:44:41Z</time>
      </trkpt>
      <trkpt lat="46.18404" lon="6.83361">
        <ele>1689.17</ele>
        <time>2015-06-26T14:44:47Z</time>
      </trkpt>
      <trkpt lat="46.18408" lon="6.8335">
        <ele>1693.02</ele>
        <time>2015-06-26T14:44:50Z</time>
      </trkpt>
      <trkpt lat="46.18413" lon="6.8334">
        <ele>1697.34</ele>
        <time>2015-06-26T14:44:53Z</time>
      </trkpt>
      <trkpt lat="46.18414" lon="6.83337">
        <ele>1697.34</ele>
        <time>2015-06-26T14:44:54Z</time>
      </trkpt>
      <trkpt lat="46.1842" lon="6.83324">
        <ele>1700.23</ele>
        <time>2015-06-26T14:44:58Z</time>
      </trkpt>
      <trkpt lat="46.18429" lon="6.83304">
        <ele>1703.59</ele>
        <time>2015-06-26T14:45:04Z</time>
      </trkpt>
      <trkpt lat="46.18435" lon="6.83291">
        <ele>1706.48</ele>
        <time>2015-06-26T14:45:08Z</time>
      </trkpt>
      <trkpt lat="46.18441" lon="6.83277">
        <ele>1709.84</ele>
        <time>2015-06-26T14:45:12Z</time>
      </trkpt>
      <trkpt lat="46.18464" lon="6.83225">
        <ele>1713.21</ele>
        <time>2015-06-26T14:45:28Z</time>
      </trkpt>
      <trkpt lat="46.18469" lon="6.83215">
        <ele>1716.57</ele>
        <time>2015-06-26T14:45:31Z</time>
      </trkpt>
      <trkpt lat="46.18473" lon="6.83206">
        <ele>1720.42</ele>
        <time>2015-06-26T14:45:34Z</time>
      </trkpt>
      <trkpt lat="46.18478" lon="6.83197">
        <ele>1723.3</ele>
        <time>2015-06-26T14:45:37Z</time>
      </trkpt>
      <trkpt lat="46.18485" lon="6.83181">
        <ele>1726.67</ele>
        <time>2015-06-26T14:45:42Z</time>
      </trkpt>
      <trkpt lat="46.18501" lon="6.83145">
        <ele>1730.03</ele>
        <time>2015-06-26T14:45:53Z</time>
      </trkpt>
      <trkpt lat="46.1851" lon="6.83122">
        <ele>1732.91</ele>
        <time>2015-06-26T14:46:00Z</time>
      </trkpt>
      <trkpt lat="46.18518" lon="6.83105">
        <ele>1736.28</ele>
        <time>2015-06-26T14:46:05Z</time>
      </trkpt>
      <trkpt lat="46.18526" lon="6.83086">
        <ele>1739.16</ele>
        <time>2015-06-26T14:46:11Z</time>
      </trkpt>
      <trkpt lat="46.18534" lon="6.8307">
        <ele>1742.05</ele>
        <time>2015-06-26T14:46:16Z</time>
      </trkpt>
      <trkpt lat="46.18559" lon="6.83013">
        <ele>1745.89</ele>
        <time>2015-06-26T14:46:33Z</time>
      </trkpt>
      <trkpt lat="46.18566" lon="6.82997">
        <ele>1749.26</ele>
        <time>2015-06-26T14:46:38Z</time>
      </trkpt>
      <trkpt lat="46.18571" lon="6.82987">
        <ele>1752.14</ele>
        <time>2015-06-26T14:46:41Z</time>
      </trkpt>
      <trkpt lat="46.18575" lon="6.82977">
        <ele>1755.5</ele>
        <time>2015-06-26T14:46:44Z</time>
      </trkpt>
      <trkpt lat="46.18583" lon="6.82958">
        <ele>1758.39</ele>
        <time>2015-06-26T14:46:50Z</time>
      </trkpt>
      <trkpt lat="46.18589" lon="6.82945">
        <ele>1759.83</ele>
        <time>2015-06-26T14:46:54Z</time>
      </trkpt>
      <trkpt lat="46.18594" lon="6.82932">
        <ele>1763.68</ele>
        <time>2015-06-26T14:46:58Z</time>
      </trkpt>
      <trkpt lat="46.18598" lon="6.82922">
        <ele>1767.52</ele>
        <time>2015-06-26T14:47:01Z</time>
      </trkpt>
      <trkpt lat="46.18604" lon="6.82909">
        <ele>1770.89</ele>
        <time>2015-06-26T14:47:05Z</time>
      </trkpt>
      <trkpt lat="46.18608" lon="6.829">
        <ele>1773.77</ele>
        <time>2015-06-26T14:47:08Z</time>
      </trkpt>
      <trkpt lat="46.18614" lon="6.82887">
        <ele>1777.61</ele>
        <time>2015-06-26T14:47:12Z</time>
      </trkpt>
      <trkpt lat="46.1862" lon="6.82875">
        <ele>1781.46</ele>
        <time>2015-06-26T14:47:16Z</time>
      </trkpt>
      <trkpt lat="46.18624" lon="6.82866">
        <ele>1784.34</ele>
        <time>2015-06-26T14:47:19Z</time>
      </trkpt>
      <trkpt lat="46.18628" lon="6.82857">
        <ele>1788.19</ele>
        <time>2015-06-26T14:47:22Z</time>
      </trkpt>
      <trkpt lat="46.18632" lon="6.82848">
        <ele>1792.03</ele>
        <time>2015-06-26T14:47:25Z</time>
      </trkpt>
      <trkpt lat="46.18636" lon="6.82839">
        <ele>1795.88</ele>
        <time>2015-06-26T14:47:28Z</time>
      </trkpt>
      <trkpt lat="46.18639" lon="6.82833">
        <ele>1796.84</ele>
        <time>2015-06-26T14:47:30Z</time>
      </trkpt>
      <trkpt lat="46.18644" lon="6.82819">
        <ele>1800.21</ele>
        <time>2015-06-26T14:47:34Z</time>
      </trkpt>
      <trkpt lat="46.18652" lon="6.828">
        <ele>1803.57</ele>
        <time>2015-06-26T14:47:40Z</time>
      </trkpt>
      <trkpt lat="46.18658" lon="6.82787">
        <ele>1806.94</ele>
        <time>2015-06-26T14:47:44Z</time>
      </trkpt>
      <trkpt lat="46.18663" lon="6.82778">
        <ele>1810.3</ele>
        <time>2015-06-26T14:47:47Z</time>
      </trkpt>
      <trkpt lat="46.18668" lon="6.82768">
        <ele>1813.66</ele>
        <time>2015-06-26T14:47:50Z</time>
      </trkpt>
      <trkpt lat="46.18672" lon="6.82759">
        <ele>1817.03</ele>
        <time>2015-06-26T14:47:53Z</time>
      </trkpt>
      <trkpt lat="46.18676" lon="6.8275">
        <ele>1819.91</ele>
        <time>2015-06-26T14:47:56Z</time>
      </trkpt>
      <trkpt lat="46.18678" lon="6.82747">
        <ele>1820.39</ele>
        <time>2015-06-26T14:47:57Z</time>
      </trkpt>
      <trkpt lat="46.18683" lon="6.82734">
        <ele>1824.24</ele>
        <time>2015-06-26T14:48:01Z</time>
      </trkpt>
      <trkpt lat="46.18687" lon="6.82725">
        <ele>1827.12</ele>
        <time>2015-06-26T14:48:04Z</time>
      </trkpt>
      <trkpt lat="46.18691" lon="6.82716">
        <ele>1830.49</ele>
        <time>2015-06-26T14:48:07Z</time>
      </trkpt>
      <trkpt lat="46.18696" lon="6.82706">
        <ele>1833.85</ele>
        <time>2015-06-26T14:48:10Z</time>
      </trkpt>
      <trkpt lat="46.18702" lon="6.82693">
        <ele>1837.22</ele>
        <time>2015-06-26T14:48:14Z</time>
      </trkpt>
      <trkpt lat="46.18709" lon="6.82678">
        <ele>1840.1</ele>
        <time>2015-06-26T14:48:19Z</time>
      </trkpt>
      <trkpt lat="46.18714" lon="6.82665">
        <ele>1842.98</ele>
        <time>2015-06-26T14:48:23Z</time>
      </trkpt>
      <trkpt lat="46.18719" lon="6.82652">
        <ele>1846.83</ele>
        <time>2015-06-26T14:48:27Z</time>
      </trkpt>
      <trkpt lat="46.18723" lon="6.82642">
        <ele>1850.19</ele>
        <time>2015-06-26T14:48:30Z</time>
      </trkpt>
      <trkpt lat="46.18728" lon="6.82633">
        <ele>1853.08</ele>
        <time>2015-06-26T14:48:33Z</time>
      </trkpt>
      <trkpt lat="46.18732" lon="6.82623">
        <ele>1856.44</ele>
        <time>2015-06-26T14:48:36Z</time>
      </trkpt>
      <trkpt lat="46.18737" lon="6.82611">
        <ele>1860.29</ele>
        <time>2015-06-26T14:48:40Z</time>
      </trkpt>
      <trkpt lat="46.18741" lon="6.82602">
        <ele>1863.17</ele>
        <time>2015-06-26T14:48:43Z</time>
      </trkpt>
      <trkpt lat="46.18745" lon="6.82593">
        <ele>1867.02</ele>
        <time>2015-06-26T14:48:46Z</time>
      </trkpt>
      <trkpt lat="46.18749" lon="6.82583">
        <ele>1870.86</ele>
        <time>2015-06-26T14:48:49Z</time>
      </trkpt>
      <trkpt lat="46.18755" lon="6.82571">
        <ele>1875.19</ele>
        <time>2015-06-26T14:48:53Z</time>
      </trkpt>
      <trkpt lat="46.18759" lon="6.82562">
        <ele>1879.51</ele>
        <time>2015-06-26T14:48:56Z</time>
      </trkpt>
      <trkpt lat="46.18763" lon="6.82553">
        <ele>1883.36</ele>
        <time>2015-06-26T14:48:59Z</time>
      </trkpt>
      <trkpt lat="46.18766" lon="6.82544">
        <ele>1887.21</ele>
        <time>2015-06-26T14:49:02Z</time>
      </trkpt>
      <trkpt lat="46.18771" lon="6.82535">
        <ele>1891.05</ele>
        <time>2015-06-26T14:49:05Z</time>
      </trkpt>
      <trkpt lat="46.18774" lon="6.82527">
        <ele>1895.38</ele>
        <time>2015-06-26T14:49:08Z</time>
      </trkpt>
      <trkpt lat="46.18778" lon="6.82518">
        <ele>1899.7</ele>
        <time>2015-06-26T14:49:11Z</time>
      </trkpt>
      <trkpt lat="46.18781" lon="6.82513">
        <ele>1903.07</ele>
        <time>2015-06-26T14:49:13Z</time>
      </trkpt>
      <trkpt lat="46.18784" lon="6.82506">
        <ele>1904.51</ele>
        <time>2015-06-26T14:49:15Z</time>
      </trkpt>
      <trkpt lat="46.18787" lon="6.82497">
        <ele>1908.35</ele>
        <time>2015-06-26T14:49:18Z</time>
      </trkpt>
      <trkpt lat="46.18792" lon="6.82488">
        <ele>1911.72</ele>
        <time>2015-06-26T14:49:21Z</time>
      </trkpt>
      <trkpt lat="46.18795" lon="6.82479">
        <ele>1915.08</ele>
        <time>2015-06-26T14:49:24Z</time>
      </trkpt>
      <trkpt lat="46.188" lon="6.8247">
        <ele>1917.97</ele>
        <time>2015-06-26T14:49:27Z</time>
      </trkpt>
      <trkpt lat="46.18803" lon="6.82461">
        <ele>1921.81</ele>
        <time>2015-06-26T14:49:30Z</time>
      </trkpt>
      <trkpt lat="46.18807" lon="6.82452">
        <ele>1925.66</ele>
        <time>2015-06-26T14:49:33Z</time>
      </trkpt>
      <trkpt lat="46.18811" lon="6.82443">
        <ele>1929.98</ele>
        <time>2015-06-26T14:49:36Z</time>
      </trkpt>
      <trkpt lat="46.18815" lon="6.82433">
        <ele>1934.31</ele>
        <time>2015-06-26T14:49:39Z</time>
      </trkpt>
      <trkpt lat="46.18821" lon="6.82421">
        <ele>1938.64</ele>
        <time>2015-06-26T14:49:43Z</time>
      </trkpt>
      <trkpt lat="46.18824" lon="6.82413">
        <ele>1942.48</ele>
        <time>2015-06-26T14:49:46Z</time>
      </trkpt>
      <trkpt lat="46.18829" lon="6.82404">
        <ele>1946.81</ele>
        <time>2015-06-26T14:49:49Z</time>
      </trkpt>
      <trkpt lat="46.18832" lon="6.82396">
        <ele>1951.13</ele>
        <time>2015-06-26T14:49:52Z</time>
      </trkpt>
      <trkpt lat="46.18836" lon="6.82387">
        <ele>1954.98</ele>
        <time>2015-06-26T14:49:55Z</time>
      </trkpt>
      <trkpt lat="46.18839" lon="6.82381">
        <ele>1958.34</ele>
        <time>2015-06-26T14:49:57Z</time>
      </trkpt>
      <trkpt lat="46.18843" lon="6.82372">
        <ele>1962.67</ele>
        <time>2015-06-26T14:50:00Z</time>
      </trkpt>
      <trkpt lat="46.18849" lon="6.8236">
        <ele>1966.03</ele>
        <time>2015-06-26T14:50:04Z</time>
      </trkpt>
      <trkpt lat="46.18864" lon="6.82324">
        <ele>1969.4</ele>
        <time>2015-06-26T14:50:15Z</time>
      </trkpt>
      <trkpt lat="46.18869" lon="6.82311">
        <ele>1973.72</ele>
        <time>2015-06-26T14:50:19Z</time>
      </trkpt>
      <trkpt lat="46.18874" lon="6.82301">
        <ele>1977.09</ele>
        <time>2015-06-26T14:50:22Z</time>
      </trkpt>
      <trkpt lat="46.18879" lon="6.82289">
        <ele>1980.45</ele>
        <time>2015-06-26T14:50:26Z</time>
      </trkpt>
      <trkpt lat="46.18908" lon="6.82228">
        <ele>1984.3</ele>
        <time>2015-06-26T14:50:45Z</time>
      </trkpt>
      <trkpt lat="46.18912" lon="6.82218">
        <ele>1987.66</ele>
        <time>2015-06-26T14:50:48Z</time>
      </trkpt>
      <trkpt lat="46.18916" lon="6.82207">
        <ele>1991.03</ele>
        <time>2015-06-26T14:50:51Z</time>
      </trkpt>
      <trkpt lat="46.18923" lon="6.8219">
        <ele>1994.39</ele>
        <time>2015-06-26T14:50:56Z</time>
      </trkpt>
      <trkpt lat="46.18935" lon="6.8216">
        <ele>1997.76</ele>
        <time>2015-06-26T14:51:05Z</time>
      </trkpt>
      <trkpt lat="46.18941" lon="6.82147">
        <ele>2000.64</ele>
        <time>2015-06-26T14:51:09Z</time>
      </trkpt>
      <trkpt lat="46.18946" lon="6.82137">
        <ele>2004.01</ele>
        <time>2015-06-26T14:51:12Z</time>
      </trkpt>
      <trkpt lat="46.18951" lon="6.82124">
        <ele>2007.37</ele>
        <time>2015-06-26T14:51:16Z</time>
      </trkpt>
      <trkpt lat="46.18958" lon="6.82108">
        <ele>2011.22</ele>
        <time>2015-06-26T14:51:21Z</time>
      </trkpt>
      <trkpt lat="46.18966" lon="6.82091">
        <ele>2014.1</ele>
        <time>2015-06-26T14:51:26Z</time>
      </trkpt>
      <trkpt lat="46.18971" lon="6.82079">
        <ele>2017.46</ele>
        <time>2015-06-26T14:51:30Z</time>
      </trkpt>
      <trkpt lat="46.18975" lon="6.8207">
        <ele>2020.83</ele>
        <time>2015-06-26T14:51:33Z</time>
      </trkpt>
      <trkpt lat="46.18978" lon="6.82064">
        <ele>2024.19</ele>
        <time>2015-06-26T14:51:35Z</time>
      </trkpt>
      <trkpt lat="46.1898" lon="6.82059">
        <ele>2028.52</ele>
        <time>2015-06-26T14:51:37Z</time>
      </trkpt>
      <trkpt lat="46.18983" lon="6.82053">
        <ele>2032.84</ele>
        <time>2015-06-26T14:51:39Z</time>
      </trkpt>
      <trkpt lat="46.18985" lon="6.82048">
        <ele>2037.17</ele>
        <time>2015-06-26T14:51:41Z</time>
      </trkpt>
      <trkpt lat="46.18988" lon="6.82042">
        <ele>2041.02</ele>
        <time>2015-06-26T14:51:43Z</time>
      </trkpt>
      <trkpt lat="46.1899" lon="6.82036">
        <ele>2044.38</ele>
        <time>2015-06-26T14:51:45Z</time>
      </trkpt>
      <trkpt lat="46.18994" lon="6.82028">
        <ele>2048.23</ele>
        <time>2015-06-26T14:51:48Z</time>
      </trkpt>
      <trkpt lat="46.18998" lon="6.82019">
        <ele>2051.59</ele>
        <time>2015-06-26T14:51:51Z</time>
      </trkpt>
      <trkpt lat="46.18999" lon="6.82016">
        <ele>2051.59</ele>
        <time>2015-06-26T14:51:52Z</time>
      </trkpt>
      <trkpt lat="46.19003" lon="6.82007">
        <ele>2054.96</ele>
        <time>2015-06-26T14:51:55Z</time>
      </trkpt>
      <trkpt lat="46.19007" lon="6.81999">
        <ele>2059.28</ele>
        <time>2015-06-26T14:51:58Z</time>
      </trkpt>
      <trkpt lat="46.19009" lon="6.81994">
        <ele>2062.65</ele>
        <time>2015-06-26T14:52:00Z</time>
      </trkpt>
      <trkpt lat="46.19012" lon="6.81988">
        <ele>2066.01</ele>
        <time>2015-06-26T14:52:02Z</time>
      </trkpt>
      <trkpt lat="46.19014" lon="6.81982">
        <ele>2069.38</ele>
        <time>2015-06-26T14:52:04Z</time>
      </trkpt>
      <trkpt lat="46.19017" lon="6.81977">
        <ele>2073.22</ele>
        <time>2015-06-26T14:52:06Z</time>
      </trkpt>
      <trkpt lat="46.19019" lon="6.81971">
        <ele>2076.1</ele>
        <time>2015-06-26T14:52:08Z</time>
      </trkpt>
      <trkpt lat="46.19021" lon="6.81965">
        <ele>2079.47</ele>
        <time>2015-06-26T14:52:10Z</time>
      </trkpt>
      <trkpt lat="46.19024" lon="6.81959">
        <ele>2082.35</ele>
        <time>2015-06-26T14:52:12Z</time>
      </trkpt>
      <trkpt lat="46.19027" lon="6.81954">
        <ele>2085.72</ele>
        <time>2015-06-26T14:52:14Z</time>
      </trkpt>
      <trkpt lat="46.19029" lon="6.81948">
        <ele>2088.6</ele>
        <time>2015-06-26T14:52:16Z</time>
      </trkpt>
      <trkpt lat="46.19033" lon="6.8194">
        <ele>2091.97</ele>
        <time>2015-06-26T14:52:19Z</time>
      </trkpt>
      <trkpt lat="46.19035" lon="6.81934">
        <ele>2095.33</ele>
        <time>2015-06-26T14:52:21Z</time>
      </trkpt>
      <trkpt lat="46.19038" lon="6.81929">
        <ele>2098.21</ele>
        <time>2015-06-26T14:52:23Z</time>
      </trkpt>
      <trkpt lat="46.1904" lon="6.81923">
        <ele>2101.58</ele>
        <time>2015-06-26T14:52:25Z</time>
      </trkpt>
      <trkpt lat="46.19043" lon="6.81917">
        <ele>2105.42</ele>
        <time>2015-06-26T14:52:27Z</time>
      </trkpt>
      <trkpt lat="46.19045" lon="6.81912">
        <ele>2108.79</ele>
        <time>2015-06-26T14:52:29Z</time>
      </trkpt>
      <trkpt lat="46.19048" lon="6.81906">
        <ele>2112.15</ele>
        <time>2015-06-26T14:52:31Z</time>
      </trkpt>
      <trkpt lat="46.1905" lon="6.81901">
        <ele>2115.52</ele>
        <time>2015-06-26T14:52:33Z</time>
      </trkpt>
      <trkpt lat="46.19053" lon="6.81895">
        <ele>2118.88</ele>
        <time>2015-06-26T14:52:35Z</time>
      </trkpt>
      <trkpt lat="46.19055" lon="6.8189">
        <ele>2122.73</ele>
        <time>2015-06-26T14:52:37Z</time>
      </trkpt>
      <trkpt lat="46.19058" lon="6.81885">
        <ele>2126.09</ele>
        <time>2015-06-26T14:52:39Z</time>
      </trkpt>
      <trkpt lat="46.1906" lon="6.81879">
        <ele>2129.46</ele>
        <time>2015-06-26T14:52:41Z</time>
      </trkpt>
      <trkpt lat="46.19062" lon="6.81874">
        <ele>2132.82</ele>
        <time>2015-06-26T14:52:43Z</time>
      </trkpt>
      <trkpt lat="46.19066" lon="6.81866">
        <ele>2136.67</ele>
        <time>2015-06-26T14:52:46Z</time>
      </trkpt>
      <trkpt lat="46.19069" lon="6.8186">
        <ele>2140.03</ele>
        <time>2015-06-26T14:52:48Z</time>
      </trkpt>
      <trkpt lat="46.19071" lon="6.81854">
        <ele>2143.4</ele>
        <time>2015-06-26T14:52:50Z</time>
      </trkpt>
      <trkpt lat="46.19074" lon="6.81848">
        <ele>2146.28</ele>
        <time>2015-06-26T14:52:52Z</time>
      </trkpt>
      <trkpt lat="46.19077" lon="6.8184">
        <ele>2150.13</ele>
        <time>2015-06-26T14:52:55Z</time>
      </trkpt>
      <trkpt lat="46.19081" lon="6.81832">
        <ele>2154.45</ele>
        <time>2015-06-26T14:52:58Z</time>
      </trkpt>
      <trkpt lat="46.19084" lon="6.81826">
        <ele>2157.34</ele>
        <time>2015-06-26T14:53:00Z</time>
      </trkpt>
      <trkpt lat="46.19087" lon="6.8182">
        <ele>2160.7</ele>
        <time>2015-06-26T14:53:02Z</time>
      </trkpt>
      <trkpt lat="46.19089" lon="6.81815">
        <ele>2164.06</ele>
        <time>2015-06-26T14:53:04Z</time>
      </trkpt>
      <trkpt lat="46.19091" lon="6.81809">
        <ele>2167.43</ele>
        <time>2015-06-26T14:53:06Z</time>
      </trkpt>
      <trkpt lat="46.19094" lon="6.81803">
        <ele>2170.79</ele>
        <time>2015-06-26T14:53:08Z</time>
      </trkpt>
      <trkpt lat="46.19096" lon="6.81798">
        <ele>2173.68</ele>
        <time>2015-06-26T14:53:10Z</time>
      </trkpt>
      <trkpt lat="46.191" lon="6.81789">
        <ele>2177.52</ele>
        <time>2015-06-26T14:53:13Z</time>
      </trkpt>
      <trkpt lat="46.19103" lon="6.81783">
        <ele>2180.41</ele>
        <time>2015-06-26T14:53:15Z</time>
      </trkpt>
      <trkpt lat="46.19106" lon="6.81773">
        <ele>2184.25</ele>
        <time>2015-06-26T14:53:18Z</time>
      </trkpt>
      <trkpt lat="46.19113" lon="6.81758">
        <ele>2187.62</ele>
        <time>2015-06-26T14:53:23Z</time>
      </trkpt>
      <trkpt lat="46.1912" lon="6.81742">
        <ele>2191.46</ele>
        <time>2015-06-26T14:53:28Z</time>
      </trkpt>
      <trkpt lat="46.19123" lon="6.81735">
        <ele>2194.35</ele>
        <time>2015-06-26T14:53:30Z</time>
      </trkpt>
      <trkpt lat="46.19125" lon="6.81729">
        <ele>2198.19</ele>
        <time>2015-06-26T14:53:32Z</time>
      </trkpt>
      <trkpt lat="46.19128" lon="6.81722">
        <ele>2202.52</ele>
        <time>2015-06-26T14:53:34Z</time>
      </trkpt>
      <trkpt lat="46.1913" lon="6.81716">
        <ele>2203.48</ele>
        <time>2015-06-26T14:53:36Z</time>
      </trkpt>
      <trkpt lat="46.19146" lon="6.81681">
        <ele>2207.32</ele>
        <time>2015-06-26T14:53:47Z</time>
      </trkpt>
      <trkpt lat="46.1915" lon="6.81671">
        <ele>2211.65</ele>
        <time>2015-06-26T14:53:50Z</time>
      </trkpt>
      <trkpt lat="46.19153" lon="6.81665">
        <ele>2215.5</ele>
        <time>2015-06-26T14:53:52Z</time>
      </trkpt>
      <trkpt lat="46.19156" lon="6.81659">
        <ele>2219.34</ele>
        <time>2015-06-26T14:53:54Z</time>
      </trkpt>
      <trkpt lat="46.19158" lon="6.81653">
        <ele>2223.19</ele>
        <time>2015-06-26T14:53:56Z</time>
      </trkpt>
      <trkpt lat="46.19162" lon="6.81643">
        <ele>2227.51</ele>
        <time>2015-06-26T14:53:59Z</time>
      </trkpt>
      <trkpt lat="46.19171" lon="6.81625">
        <ele>2230.88</ele>
        <time>2015-06-26T14:54:05Z</time>
      </trkpt>
      <trkpt lat="46.19189" lon="6.81583">
        <ele>2233.28</ele>
        <time>2015-06-26T14:54:20Z</time>
      </trkpt>
      <trkpt lat="46.19192" lon="6.8157">
        <ele>2231.84</ele>
        <time>2015-06-26T14:54:33Z</time>
      </trkpt>
      <trkpt lat="46.19194" lon="6.81554">
        <ele>2230.88</ele>
        <time>2015-06-26T14:54:43Z</time>
      </trkpt>
      <trkpt lat="46.19194" lon="6.81554">
        <ele>2229.92</ele>
        <time>2015-06-26T14:54:59Z</time>
      </trkpt>
      <trkpt lat="46.19194" lon="6.81554">
        <ele>2229.43</ele>
        <time>2015-06-26T14:55:05Z</time>
      </trkpt>
      <trkpt lat="46.19191" lon="6.81541">
        <ele>2229.43</ele>
        <time>2015-06-26T14:55:09Z</time>
      </trkpt>
      <trkpt lat="46.19188" lon="6.81527">
        <ele>2229.43</ele>
        <time>2015-06-26T14:55:11Z</time>
      </trkpt>
      <trkpt lat="46.19178" lon="6.81501">
        <ele>2227.03</ele>
        <time>2015-06-26T14:55:15Z</time>
      </trkpt>
      <trkpt lat="46.19172" lon="6.81491">
        <ele>2225.11</ele>
        <time>2015-06-26T14:55:17Z</time>
      </trkpt>
      <trkpt lat="46.19162" lon="6.81483">
        <ele>2222.71</ele>
        <time>2015-06-26T14:55:19Z</time>
      </trkpt>
      <trkpt lat="46.19127" lon="6.81471">
        <ele>2217.42</ele>
        <time>2015-06-26T14:55:24Z</time>
      </trkpt>
      <trkpt lat="46.19119" lon="6.81471">
        <ele>2216.46</ele>
        <time>2015-06-26T14:55:25Z</time>
      </trkpt>
      <trkpt lat="46.19087" lon="6.8148">
        <ele>2212.13</ele>
        <time>2015-06-26T14:55:29Z</time>
      </trkpt>
      <trkpt lat="46.19073" lon="6.81493">
        <ele>2210.21</ele>
        <time>2015-06-26T14:55:31Z</time>
      </trkpt>
      <trkpt lat="46.19052" lon="6.81519">
        <ele>2207.32</ele>
        <time>2015-06-26T14:55:34Z</time>
      </trkpt>
      <trkpt lat="46.19033" lon="6.81561">
        <ele>2203</ele>
        <time>2015-06-26T14:55:38Z</time>
      </trkpt>
      <trkpt lat="46.19004" lon="6.81609">
        <ele>2198.67</ele>
        <time>2015-06-26T14:55:43Z</time>
      </trkpt>
      <trkpt lat="46.18973" lon="6.81642">
        <ele>2193.39</ele>
        <time>2015-06-26T14:55:48Z</time>
      </trkpt>
      <trkpt lat="46.18951" lon="6.81666">
        <ele>2189.54</ele>
        <time>2015-06-26T14:55:52Z</time>
      </trkpt>
      <trkpt lat="46.18932" lon="6.81683">
        <ele>2184.73</ele>
        <time>2015-06-26T14:55:55Z</time>
      </trkpt>
      <trkpt lat="46.18918" lon="6.8169">
        <ele>2180.89</ele>
        <time>2015-06-26T14:55:57Z</time>
      </trkpt>
      <trkpt lat="46.18911" lon="6.81693">
        <ele>2178.48</ele>
        <time>2015-06-26T14:55:58Z</time>
      </trkpt>
      <trkpt lat="46.1889" lon="6.81697">
        <ele>2171.76</ele>
        <time>2015-06-26T14:56:01Z</time>
      </trkpt>
      <trkpt lat="46.18875" lon="6.81699">
        <ele>2166.95</ele>
        <time>2015-06-26T14:56:03Z</time>
      </trkpt>
      <trkpt lat="46.18856" lon="6.81706">
        <ele>2162.14</ele>
        <time>2015-06-26T14:56:06Z</time>
      </trkpt>
      <trkpt lat="46.18855" lon="6.81721">
        <ele>2159.26</ele>
        <time>2015-06-26T14:56:10Z</time>
      </trkpt>
      <trkpt lat="46.18863" lon="6.8172">
        <ele>2160.22</ele>
        <time>2015-06-26T14:56:12Z</time>
      </trkpt>
      <trkpt lat="46.18872" lon="6.81717">
        <ele>2161.18</ele>
        <time>2015-06-26T14:56:14Z</time>
      </trkpt>
      <trkpt lat="46.18901" lon="6.81723">
        <ele>2165.51</ele>
        <time>2015-06-26T14:56:19Z</time>
      </trkpt>
      <trkpt lat="46.18937" lon="6.81741">
        <ele>2161.66</ele>
        <time>2015-06-26T14:56:25Z</time>
      </trkpt>
      <trkpt lat="46.18947" lon="6.81757">
        <ele>2158.3</ele>
        <time>2015-06-26T14:56:27Z</time>
      </trkpt>
      <trkpt lat="46.18956" lon="6.8177">
        <ele>2154.93</ele>
        <time>2015-06-26T14:56:29Z</time>
      </trkpt>
      <trkpt lat="46.18968" lon="6.81769">
        <ele>2152.05</ele>
        <time>2015-06-26T14:56:31Z</time>
      </trkpt>
      <trkpt lat="46.18988" lon="6.81767">
        <ele>2149.65</ele>
        <time>2015-06-26T14:56:34Z</time>
      </trkpt>
      <trkpt lat="46.19022" lon="6.81817">
        <ele>2149.65</ele>
        <time>2015-06-26T14:56:42Z</time>
      </trkpt>
      <trkpt lat="46.19047" lon="6.8181">
        <ele>2146.76</ele>
        <time>2015-06-26T14:56:46Z</time>
      </trkpt>
      <trkpt lat="46.19059" lon="6.81817">
        <ele>2144.36</ele>
        <time>2015-06-26T14:56:48Z</time>
      </trkpt>
      <trkpt lat="46.19075" lon="6.81843">
        <ele>2138.11</ele>
        <time>2015-06-26T14:56:52Z</time>
      </trkpt>
      <trkpt lat="46.19076" lon="6.81852">
        <ele>2136.19</ele>
        <time>2015-06-26T14:56:53Z</time>
      </trkpt>
      <trkpt lat="46.19088" lon="6.81875">
        <ele>2132.34</ele>
        <time>2015-06-26T14:56:56Z</time>
      </trkpt>
      <trkpt lat="46.19099" lon="6.81898">
        <ele>2128.98</ele>
        <time>2015-06-26T14:56:59Z</time>
      </trkpt>
      <trkpt lat="46.19107" lon="6.81911">
        <ele>2127.05</ele>
        <time>2015-06-26T14:57:01Z</time>
      </trkpt>
      <trkpt lat="46.19126" lon="6.81928">
        <ele>2123.69</ele>
        <time>2015-06-26T14:57:05Z</time>
      </trkpt>
      <trkpt lat="46.19147" lon="6.81936">
        <ele>2118.88</ele>
        <time>2015-06-26T14:57:09Z</time>
      </trkpt>
      <trkpt lat="46.19158" lon="6.81947">
        <ele>2115.04</ele>
        <time>2015-06-26T14:57:12Z</time>
      </trkpt>
      <trkpt lat="46.19163" lon="6.81966">
        <ele>2110.71</ele>
        <time>2015-06-26T14:57:15Z</time>
      </trkpt>
      <trkpt lat="46.19163" lon="6.81973">
        <ele>2109.27</ele>
        <time>2015-06-26T14:57:16Z</time>
      </trkpt>
      <trkpt lat="46.19162" lon="6.81985">
        <ele>2106.87</ele>
        <time>2015-06-26T14:57:18Z</time>
      </trkpt>
      <trkpt lat="46.19172" lon="6.81987">
        <ele>2102.54</ele>
        <time>2015-06-26T14:57:22Z</time>
      </trkpt>
      <trkpt lat="46.19195" lon="6.81961">
        <ele>2098.21</ele>
        <time>2015-06-26T14:57:30Z</time>
      </trkpt>
      <trkpt lat="46.1919" lon="6.81978">
        <ele>2096.77</ele>
        <time>2015-06-26T14:57:33Z</time>
      </trkpt>
      <trkpt lat="46.19185" lon="6.82001">
        <ele>2095.33</ele>
        <time>2015-06-26T14:57:36Z</time>
      </trkpt>
      <trkpt lat="46.19173" lon="6.82035">
        <ele>2092.93</ele>
        <time>2015-06-26T14:57:41Z</time>
      </trkpt>
      <trkpt lat="46.19177" lon="6.82051">
        <ele>2091.49</ele>
        <time>2015-06-26T14:57:43Z</time>
      </trkpt>
      <trkpt lat="46.19181" lon="6.82095">
        <ele>2087.64</ele>
        <time>2015-06-26T14:57:49Z</time>
      </trkpt>
      <trkpt lat="46.19185" lon="6.82117">
        <ele>2085.24</ele>
        <time>2015-06-26T14:57:53Z</time>
      </trkpt>
      <trkpt lat="46.1919" lon="6.82124">
        <ele>2083.79</ele>
        <time>2015-06-26T14:58:03Z</time>
      </trkpt>
      <trkpt lat="46.1919" lon="6.82124">
        <ele>2083.79</ele>
        <time>2015-06-26T14:58:11Z</time>
      </trkpt>
      <trkpt lat="46.19219" lon="6.82128">
        <ele>2082.35</ele>
        <time>2015-06-26T14:58:19Z</time>
      </trkpt>
      <trkpt lat="46.19227" lon="6.82128">
        <ele>2079.47</ele>
        <time>2015-06-26T14:58:21Z</time>
      </trkpt>
      <trkpt lat="46.19228" lon="6.82117">
        <ele>2075.62</ele>
        <time>2015-06-26T14:58:23Z</time>
      </trkpt>
      <trkpt lat="46.19222" lon="6.82079">
        <ele>2069.86</ele>
        <time>2015-06-26T14:58:27Z</time>
      </trkpt>
      <trkpt lat="46.1923" lon="6.82062">
        <ele>2064.09</ele>
        <time>2015-06-26T14:58:31Z</time>
      </trkpt>
      <trkpt lat="46.19246" lon="6.82086">
        <ele>2060.72</ele>
        <time>2015-06-26T14:58:35Z</time>
      </trkpt>
      <trkpt lat="46.19275" lon="6.82107">
        <ele>2056.88</ele>
        <time>2015-06-26T14:58:40Z</time>
      </trkpt>
      <trkpt lat="46.19297" lon="6.82105">
        <ele>2053.51</ele>
        <time>2015-06-26T14:58:43Z</time>
      </trkpt>
      <trkpt lat="46.19325" lon="6.82098">
        <ele>2047.26</ele>
        <time>2015-06-26T14:58:47Z</time>
      </trkpt>
      <trkpt lat="46.19339" lon="6.82099">
        <ele>2043.9</ele>
        <time>2015-06-26T14:58:49Z</time>
      </trkpt>
      <trkpt lat="46.1936" lon="6.82093">
        <ele>2037.65</ele>
        <time>2015-06-26T14:58:52Z</time>
      </trkpt>
      <trkpt lat="46.19368" lon="6.82089">
        <ele>2035.73</ele>
        <time>2015-06-26T14:58:53Z</time>
      </trkpt>
      <trkpt lat="46.19391" lon="6.8208">
        <ele>2031.4</ele>
        <time>2015-06-26T14:58:56Z</time>
      </trkpt>
      <trkpt lat="46.19404" lon="6.82074">
        <ele>2028.04</ele>
        <time>2015-06-26T14:58:58Z</time>
      </trkpt>
      <trkpt lat="46.1941" lon="6.82071">
        <ele>2026.6</ele>
        <time>2015-06-26T14:58:59Z</time>
      </trkpt>
      <trkpt lat="46.1944" lon="6.82064">
        <ele>2021.31</ele>
        <time>2015-06-26T14:59:03Z</time>
      </trkpt>
      <trkpt lat="46.19463" lon="6.82055">
        <ele>2017.94</ele>
        <time>2015-06-26T14:59:06Z</time>
      </trkpt>
      <trkpt lat="46.19486" lon="6.82048">
        <ele>2013.62</ele>
        <time>2015-06-26T14:59:09Z</time>
      </trkpt>
      <trkpt lat="46.19501" lon="6.82041">
        <ele>2010.25</ele>
        <time>2015-06-26T14:59:11Z</time>
      </trkpt>
      <trkpt lat="46.19516" lon="6.82031">
        <ele>2006.41</ele>
        <time>2015-06-26T14:59:13Z</time>
      </trkpt>
      <trkpt lat="46.19531" lon="6.8202">
        <ele>2002.08</ele>
        <time>2015-06-26T14:59:15Z</time>
      </trkpt>
      <trkpt lat="46.19546" lon="6.82008">
        <ele>1997.76</ele>
        <time>2015-06-26T14:59:17Z</time>
      </trkpt>
      <trkpt lat="46.19562" lon="6.81996">
        <ele>1993.91</ele>
        <time>2015-06-26T14:59:19Z</time>
      </trkpt>
      <trkpt lat="46.1957" lon="6.81991">
        <ele>1993.43</ele>
        <time>2015-06-26T14:59:20Z</time>
      </trkpt>
      <trkpt lat="46.19586" lon="6.81981">
        <ele>1990.07</ele>
        <time>2015-06-26T14:59:22Z</time>
      </trkpt>
      <trkpt lat="46.19609" lon="6.81965">
        <ele>1987.18</ele>
        <time>2015-06-26T14:59:25Z</time>
      </trkpt>
      <trkpt lat="46.19639" lon="6.81928">
        <ele>1987.18</ele>
        <time>2015-06-26T14:59:30Z</time>
      </trkpt>
      <trkpt lat="46.19672" lon="6.8184">
        <ele>1986.22</ele>
        <time>2015-06-26T14:59:38Z</time>
      </trkpt>
      <trkpt lat="46.19692" lon="6.81779">
        <ele>1982.38</ele>
        <time>2015-06-26T14:59:43Z</time>
      </trkpt>
      <trkpt lat="46.19703" lon="6.81735">
        <ele>1979.01</ele>
        <time>2015-06-26T14:59:46Z</time>
      </trkpt>
      <trkpt lat="46.19706" lon="6.81722">
        <ele>1978.05</ele>
        <time>2015-06-26T14:59:47Z</time>
      </trkpt>
      <trkpt lat="46.19707" lon="6.81688">
        <ele>1976.61</ele>
        <time>2015-06-26T14:59:50Z</time>
      </trkpt>
      <trkpt lat="46.19706" lon="6.81651">
        <ele>1979.49</ele>
        <time>2015-06-26T14:59:54Z</time>
      </trkpt>
      <trkpt lat="46.19709" lon="6.81601">
        <ele>1984.78</ele>
        <time>2015-06-26T14:59:59Z</time>
      </trkpt>
      <trkpt lat="46.19714" lon="6.81563">
        <ele>1980.45</ele>
        <time>2015-06-26T15:00:03Z</time>
      </trkpt>
      <trkpt lat="46.19712" lon="6.81554">
        <ele>1966.51</ele>
        <time>2015-06-26T15:00:04Z</time>
      </trkpt>
      <trkpt lat="46.19708" lon="6.81547">
        <ele>1966.51</ele>
        <time>2015-06-26T15:00:05Z</time>
      </trkpt>
      <trkpt lat="46.19695" lon="6.8152">
        <ele>1973.24</ele>
        <time>2015-06-26T15:00:08Z</time>
      </trkpt>
      <trkpt lat="46.19691" lon="6.81498">
        <ele>1969.88</ele>
        <time>2015-06-26T15:00:10Z</time>
      </trkpt>
      <trkpt lat="46.19679" lon="6.81451">
        <ele>1966.99</ele>
        <time>2015-06-26T15:00:15Z</time>
      </trkpt>
      <trkpt lat="46.19675" lon="6.81394">
        <ele>1966.51</ele>
        <time>2015-06-26T15:00:21Z</time>
      </trkpt>
      <trkpt lat="46.19669" lon="6.81377">
        <ele>1966.51</ele>
        <time>2015-06-26T15:00:23Z</time>
      </trkpt>
      <trkpt lat="46.19659" lon="6.81354">
        <ele>1970.36</ele>
        <time>2015-06-26T15:00:27Z</time>
      </trkpt>
      <trkpt lat="46.19654" lon="6.81338">
        <ele>1973.72</ele>
        <time>2015-06-26T15:00:30Z</time>
      </trkpt>
      <trkpt lat="46.19652" lon="6.81319">
        <ele>1976.13</ele>
        <time>2015-06-26T15:00:33Z</time>
      </trkpt>
      <trkpt lat="46.19669" lon="6.81296">
        <ele>1976.61</ele>
        <time>2015-06-26T15:00:43Z</time>
      </trkpt>
      <trkpt lat="46.19698" lon="6.81292">
        <ele>1975.65</ele>
        <time>2015-06-26T15:00:50Z</time>
      </trkpt>
      <trkpt lat="46.1972" lon="6.81294">
        <ele>1974.69</ele>
        <time>2015-06-26T15:00:55Z</time>
      </trkpt>
      <trkpt lat="46.19729" lon="6.81293">
        <ele>1974.2</ele>
        <time>2015-06-26T15:00:57Z</time>
      </trkpt>
      <trkpt lat="46.19741" lon="6.81288">
        <ele>1970.84</ele>
        <time>2015-06-26T15:01:00Z</time>
      </trkpt>
      <trkpt lat="46.19747" lon="6.81282">
        <ele>1967.48</ele>
        <time>2015-06-26T15:01:02Z</time>
      </trkpt>
      <trkpt lat="46.19753" lon="6.81278">
        <ele>1964.11</ele>
        <time>2015-06-26T15:01:04Z</time>
      </trkpt>
      <trkpt lat="46.19756" lon="6.81275">
        <ele>1963.63</ele>
        <time>2015-06-26T15:01:05Z</time>
      </trkpt>
      <trkpt lat="46.19768" lon="6.81262">
        <ele>1960.27</ele>
        <time>2015-06-26T15:01:08Z</time>
      </trkpt>
      <trkpt lat="46.19775" lon="6.81252">
        <ele>1959.78</ele>
        <time>2015-06-26T15:01:10Z</time>
      </trkpt>
      <trkpt lat="46.1978" lon="6.81242">
        <ele>1959.78</ele>
        <time>2015-06-26T15:01:12Z</time>
      </trkpt>
      <trkpt lat="46.19813" lon="6.81186">
        <ele>1962.19</ele>
        <time>2015-06-26T15:01:20Z</time>
      </trkpt>
      <trkpt lat="46.19814" lon="6.81158">
        <ele>1957.38</ele>
        <time>2015-06-26T15:01:24Z</time>
      </trkpt>
      <trkpt lat="46.19804" lon="6.81141">
        <ele>1956.9</ele>
        <time>2015-06-26T15:01:27Z</time>
      </trkpt>
      <trkpt lat="46.19791" lon="6.81126">
        <ele>1957.38</ele>
        <time>2015-06-26T15:01:30Z</time>
      </trkpt>
      <trkpt lat="46.19782" lon="6.81094">
        <ele>1960.75</ele>
        <time>2015-06-26T15:01:35Z</time>
      </trkpt>
      <trkpt lat="46.19772" lon="6.81061">
        <ele>1963.15</ele>
        <time>2015-06-26T15:01:41Z</time>
      </trkpt>
      <trkpt lat="46.19785" lon="6.81026">
        <ele>1963.63</ele>
        <time>2015-06-26T15:01:47Z</time>
      </trkpt>
      <trkpt lat="46.19795" lon="6.81015">
        <ele>1963.63</ele>
        <time>2015-06-26T15:01:49Z</time>
      </trkpt>
      <trkpt lat="46.19803" lon="6.80988">
        <ele>1962.19</ele>
        <time>2015-06-26T15:01:54Z</time>
      </trkpt>
      <trkpt lat="46.19801" lon="6.80983">
        <ele>1962.19</ele>
        <time>2015-06-26T15:01:55Z</time>
      </trkpt>
      <trkpt lat="46.19785" lon="6.80956">
        <ele>1961.71</ele>
        <time>2015-06-26T15:02:02Z</time>
      </trkpt>
      <trkpt lat="46.19779" lon="6.80917">
        <ele>1961.71</ele>
        <time>2015-06-26T15:02:11Z</time>
      </trkpt>
      <trkpt lat="46.19775" lon="6.80909">
        <ele>1961.71</ele>
        <time>2015-06-26T15:02:13Z</time>
      </trkpt>
      <trkpt lat="46.19777" lon="6.80899">
        <ele>1963.15</ele>
        <time>2015-06-26T15:02:16Z</time>
      </trkpt>
      <trkpt lat="46.19785" lon="6.80874">
        <ele>1964.11</ele>
        <time>2015-06-26T15:02:22Z</time>
      </trkpt>
      <trkpt lat="46.19772" lon="6.80844">
        <ele>1967.96</ele>
        <time>2015-06-26T15:02:31Z</time>
      </trkpt>
      <trkpt lat="46.19761" lon="6.8084">
        <ele>1969.88</ele>
        <time>2015-06-26T15:02:35Z</time>
      </trkpt>
      <trkpt lat="46.19758" lon="6.80823">
        <ele>1969.4</ele>
        <time>2015-06-26T15:02:41Z</time>
      </trkpt>
      <trkpt lat="46.19759" lon="6.80806">
        <ele>1969.88</ele>
        <time>2015-06-26T15:02:48Z</time>
      </trkpt>
      <trkpt lat="46.19758" lon="6.80795">
        <ele>1970.36</ele>
        <time>2015-06-26T15:02:52Z</time>
      </trkpt>
      <trkpt lat="46.19754" lon="6.80783">
        <ele>1970.84</ele>
        <time>2015-06-26T15:02:58Z</time>
      </trkpt>
      <trkpt lat="46.19741" lon="6.80757">
        <ele>1973.72</ele>
        <time>2015-06-26T15:03:14Z</time>
      </trkpt>
      <trkpt lat="46.19732" lon="6.80719">
        <ele>1976.61</ele>
        <time>2015-06-26T15:03:30Z</time>
      </trkpt>
      <trkpt lat="46.19725" lon="6.80671">
        <ele>1978.53</ele>
        <time>2015-06-26T15:03:42Z</time>
      </trkpt>
      <trkpt lat="46.19721" lon="6.80657">
        <ele>1979.01</ele>
        <time>2015-06-26T15:03:47Z</time>
      </trkpt>
      <trkpt lat="46.19709" lon="6.80635">
        <ele>1981.41</ele>
        <time>2015-06-26T15:04:00Z</time>
      </trkpt>
      <trkpt lat="46.19697" lon="6.80618">
        <ele>1985.26</ele>
        <time>2015-06-26T15:04:11Z</time>
      </trkpt>
      <trkpt lat="46.19694" lon="6.80609">
        <ele>1988.62</ele>
        <time>2015-06-26T15:04:15Z</time>
      </trkpt>
      <trkpt lat="46.19692" lon="6.80596">
        <ele>1990.07</ele>
        <time>2015-06-26T15:04:19Z</time>
      </trkpt>
      <trkpt lat="46.19688" lon="6.8057">
        <ele>1990.55</ele>
        <time>2015-06-26T15:04:28Z</time>
      </trkpt>
      <trkpt lat="46.19688" lon="6.80567">
        <ele>1990.55</ele>
        <time>2015-06-26T15:04:30Z</time>
      </trkpt>
      <trkpt lat="46.1969" lon="6.80547">
        <ele>1990.55</ele>
        <time>2015-06-26T15:04:36Z</time>
      </trkpt>
      <trkpt lat="46.197" lon="6.80495">
        <ele>1989.1</ele>
        <time>2015-06-26T15:04:47Z</time>
      </trkpt>
      <trkpt lat="46.19708" lon="6.80473">
        <ele>1989.1</ele>
        <time>2015-06-26T15:04:57Z</time>
      </trkpt>
      <trkpt lat="46.19708" lon="6.80473">
        <ele>1988.62</ele>
        <time>2015-06-26T15:05:22Z</time>
      </trkpt>
      <trkpt lat="46.19708" lon="6.80473">
        <ele>1988.14</ele>
        <time>2015-06-26T15:05:30Z</time>
      </trkpt>
      <trkpt lat="46.19716" lon="6.80465">
        <ele>1988.14</ele>
        <time>2015-06-26T15:05:35Z</time>
      </trkpt>
      <trkpt lat="46.19748" lon="6.80422">
        <ele>1986.22</ele>
        <time>2015-06-26T15:05:42Z</time>
      </trkpt>
      <trkpt lat="46.19766" lon="6.80379">
        <ele>1981.9</ele>
        <time>2015-06-26T15:05:46Z</time>
      </trkpt>
      <trkpt lat="46.19782" lon="6.80352">
        <ele>1979.49</ele>
        <time>2015-06-26T15:05:49Z</time>
      </trkpt>
      <trkpt lat="46.19795" lon="6.80326">
        <ele>1979.49</ele>
        <time>2015-06-26T15:05:52Z</time>
      </trkpt>
      <trkpt lat="46.19805" lon="6.80297">
        <ele>1976.61</ele>
        <time>2015-06-26T15:05:56Z</time>
      </trkpt>
      <trkpt lat="46.19808" lon="6.80278">
        <ele>1974.2</ele>
        <time>2015-06-26T15:05:59Z</time>
      </trkpt>
      <trkpt lat="46.19822" lon="6.80242">
        <ele>1969.4</ele>
        <time>2015-06-26T15:06:05Z</time>
      </trkpt>
      <trkpt lat="46.19824" lon="6.80226">
        <ele>1968.92</ele>
        <time>2015-06-26T15:06:07Z</time>
      </trkpt>
      <trkpt lat="46.19832" lon="6.80172">
        <ele>1968.92</ele>
        <time>2015-06-26T15:06:14Z</time>
      </trkpt>
      <trkpt lat="46.19832" lon="6.80156">
        <ele>1968.92</ele>
        <time>2015-06-26T15:06:16Z</time>
      </trkpt>
      <trkpt lat="46.1984" lon="6.80124">
        <ele>1968.44</ele>
        <time>2015-06-26T15:06:20Z</time>
      </trkpt>
      <trkpt lat="46.19847" lon="6.80095">
        <ele>1965.07</ele>
        <time>2015-06-26T15:06:24Z</time>
      </trkpt>
      <trkpt lat="46.19861" lon="6.80066">
        <ele>1960.75</ele>
        <time>2015-06-26T15:06:28Z</time>
      </trkpt>
      <trkpt lat="46.1987" lon="6.80053">
        <ele>1958.82</ele>
        <time>2015-06-26T15:06:30Z</time>
      </trkpt>
      <trkpt lat="46.1988" lon="6.80033">
        <ele>1955.94</ele>
        <time>2015-06-26T15:06:33Z</time>
      </trkpt>
      <trkpt lat="46.19902" lon="6.79995">
        <ele>1952.09</ele>
        <time>2015-06-26T15:06:40Z</time>
      </trkpt>
      <trkpt lat="46.19908" lon="6.7998">
        <ele>1950.65</ele>
        <time>2015-06-26T15:06:42Z</time>
      </trkpt>
      <trkpt lat="46.19918" lon="6.79958">
        <ele>1948.73</ele>
        <time>2015-06-26T15:06:45Z</time>
      </trkpt>
      <trkpt lat="46.19938" lon="6.79931">
        <ele>1943.92</ele>
        <time>2015-06-26T15:06:49Z</time>
      </trkpt>
      <trkpt lat="46.19952" lon="6.79919">
        <ele>1940.08</ele>
        <time>2015-06-26T15:06:52Z</time>
      </trkpt>
      <trkpt lat="46.19967" lon="6.79911">
        <ele>1937.67</ele>
        <time>2015-06-26T15:06:55Z</time>
      </trkpt>
      <trkpt lat="46.19984" lon="6.799">
        <ele>1935.27</ele>
        <time>2015-06-26T15:06:58Z</time>
      </trkpt>
      <trkpt lat="46.19994" lon="6.7989">
        <ele>1934.31</ele>
        <time>2015-06-26T15:07:00Z</time>
      </trkpt>
      <trkpt lat="46.20006" lon="6.7988">
        <ele>1932.87</ele>
        <time>2015-06-26T15:07:02Z</time>
      </trkpt>
      <trkpt lat="46.20017" lon="6.79867">
        <ele>1931.43</ele>
        <time>2015-06-26T15:07:04Z</time>
      </trkpt>
      <trkpt lat="46.20034" lon="6.79835">
        <ele>1929.98</ele>
        <time>2015-06-26T15:07:09Z</time>
      </trkpt>
      <trkpt lat="46.20052" lon="6.79788">
        <ele>1929.02</ele>
        <time>2015-06-26T15:07:15Z</time>
      </trkpt>
      <trkpt lat="46.20072" lon="6.7977">
        <ele>1927.1</ele>
        <time>2015-06-26T15:07:19Z</time>
      </trkpt>
      <trkpt lat="46.20087" lon="6.79768">
        <ele>1924.22</ele>
        <time>2015-06-26T15:07:22Z</time>
      </trkpt>
      <trkpt lat="46.20101" lon="6.79748">
        <ele>1919.41</ele>
        <time>2015-06-26T15:07:27Z</time>
      </trkpt>
      <trkpt lat="46.20101" lon="6.79726">
        <ele>1918.45</ele>
        <time>2015-06-26T15:07:34Z</time>
      </trkpt>
      <trkpt lat="46.20102" lon="6.79714">
        <ele>1917.49</ele>
        <time>2015-06-26T15:07:40Z</time>
      </trkpt>
      <trkpt lat="46.20088" lon="6.79697">
        <ele>1914.12</ele>
        <time>2015-06-26T15:07:44Z</time>
      </trkpt>
      <trkpt lat="46.20083" lon="6.79684">
        <ele>1910.28</ele>
        <time>2015-06-26T15:07:47Z</time>
      </trkpt>
      <trkpt lat="46.20088" lon="6.79683">
        <ele>1908.83</ele>
        <time>2015-06-26T15:07:48Z</time>
      </trkpt>
      <trkpt lat="46.20109" lon="6.79648">
        <ele>1903.07</ele>
        <time>2015-06-26T15:07:55Z</time>
      </trkpt>
      <trkpt lat="46.2013" lon="6.79622">
        <ele>1899.22</ele>
        <time>2015-06-26T15:08:01Z</time>
      </trkpt>
      <trkpt lat="46.2014" lon="6.79594">
        <ele>1892.97</ele>
        <time>2015-06-26T15:08:05Z</time>
      </trkpt>
      <trkpt lat="46.20145" lon="6.79577">
        <ele>1889.61</ele>
        <time>2015-06-26T15:08:07Z</time>
      </trkpt>
      <trkpt lat="46.20157" lon="6.79554">
        <ele>1885.76</ele>
        <time>2015-06-26T15:08:10Z</time>
      </trkpt>
      <trkpt lat="46.20164" lon="6.79537">
        <ele>1884.32</ele>
        <time>2015-06-26T15:08:12Z</time>
      </trkpt>
      <trkpt lat="46.20193" lon="6.79494">
        <ele>1884.32</ele>
        <time>2015-06-26T15:08:18Z</time>
      </trkpt>
      <trkpt lat="46.20218" lon="6.79457">
        <ele>1880.48</ele>
        <time>2015-06-26T15:08:25Z</time>
      </trkpt>
      <trkpt lat="46.20227" lon="6.79448">
        <ele>1877.11</ele>
        <time>2015-06-26T15:08:27Z</time>
      </trkpt>
      <trkpt lat="46.2024" lon="6.79435">
        <ele>1874.71</ele>
        <time>2015-06-26T15:08:30Z</time>
      </trkpt>
      <trkpt lat="46.20254" lon="6.79414">
        <ele>1872.3</ele>
        <time>2015-06-26T15:08:34Z</time>
      </trkpt>
      <trkpt lat="46.20268" lon="6.79396">
        <ele>1872.79</ele>
        <time>2015-06-26T15:08:37Z</time>
      </trkpt>
      <trkpt lat="46.20276" lon="6.79387">
        <ele>1872.79</ele>
        <time>2015-06-26T15:08:39Z</time>
      </trkpt>
      <trkpt lat="46.20302" lon="6.7934">
        <ele>1868.94</ele>
        <time>2015-06-26T15:08:47Z</time>
      </trkpt>
      <trkpt lat="46.20313" lon="6.79322">
        <ele>1866.06</ele>
        <time>2015-06-26T15:08:50Z</time>
      </trkpt>
      <trkpt lat="46.2033" lon="6.79296">
        <ele>1863.17</ele>
        <time>2015-06-26T15:08:54Z</time>
      </trkpt>
      <trkpt lat="46.20341" lon="6.79271">
        <ele>1861.25</ele>
        <time>2015-06-26T15:08:57Z</time>
      </trkpt>
      <trkpt lat="46.2036" lon="6.79261">
        <ele>1860.29</ele>
        <time>2015-06-26T15:09:01Z</time>
      </trkpt>
      <trkpt lat="46.20379" lon="6.79255">
        <ele>1860.29</ele>
        <time>2015-06-26T15:09:05Z</time>
      </trkpt>
      <trkpt lat="46.20395" lon="6.79254">
        <ele>1860.29</ele>
        <time>2015-06-26T15:09:09Z</time>
      </trkpt>
      <trkpt lat="46.20428" lon="6.79235">
        <ele>1860.29</ele>
        <time>2015-06-26T15:09:16Z</time>
      </trkpt>
      <trkpt lat="46.20448" lon="6.79227">
        <ele>1856.92</ele>
        <time>2015-06-26T15:09:19Z</time>
      </trkpt>
      <trkpt lat="46.20462" lon="6.79221">
        <ele>1854.04</ele>
        <time>2015-06-26T15:09:21Z</time>
      </trkpt>
      <trkpt lat="46.20468" lon="6.79216">
        <ele>1852.12</ele>
        <time>2015-06-26T15:09:22Z</time>
      </trkpt>
      <trkpt lat="46.20491" lon="6.792">
        <ele>1844.43</ele>
        <time>2015-06-26T15:09:26Z</time>
      </trkpt>
      <trkpt lat="46.20505" lon="6.79195">
        <ele>1841.54</ele>
        <time>2015-06-26T15:09:28Z</time>
      </trkpt>
      <trkpt lat="46.20524" lon="6.79183">
        <ele>1839.62</ele>
        <time>2015-06-26T15:09:31Z</time>
      </trkpt>
      <trkpt lat="46.20538" lon="6.7916">
        <ele>1840.1</ele>
        <time>2015-06-26T15:09:34Z</time>
      </trkpt>
      <trkpt lat="46.20567" lon="6.79135">
        <ele>1840.1</ele>
        <time>2015-06-26T15:09:39Z</time>
      </trkpt>
      <trkpt lat="46.2058" lon="6.79122">
        <ele>1840.1</ele>
        <time>2015-06-26T15:09:42Z</time>
      </trkpt>
      <trkpt lat="46.20597" lon="6.79098">
        <ele>1839.14</ele>
        <time>2015-06-26T15:09:46Z</time>
      </trkpt>
      <trkpt lat="46.20618" lon="6.7906">
        <ele>1838.66</ele>
        <time>2015-06-26T15:09:51Z</time>
      </trkpt>
      <trkpt lat="46.20628" lon="6.79047">
        <ele>1837.7</ele>
        <time>2015-06-26T15:09:53Z</time>
      </trkpt>
      <trkpt lat="46.20654" lon="6.79024">
        <ele>1831.93</ele>
        <time>2015-06-26T15:09:57Z</time>
      </trkpt>
      <trkpt lat="46.20668" lon="6.79004">
        <ele>1821.35</ele>
        <time>2015-06-26T15:10:01Z</time>
      </trkpt>
      <trkpt lat="46.20673" lon="6.78993">
        <ele>1817.03</ele>
        <time>2015-06-26T15:10:03Z</time>
      </trkpt>
      <trkpt lat="46.20686" lon="6.78979">
        <ele>1813.18</ele>
        <time>2015-06-26T15:10:06Z</time>
      </trkpt>
      <trkpt lat="46.20695" lon="6.78974">
        <ele>1812.22</ele>
        <time>2015-06-26T15:10:08Z</time>
      </trkpt>
      <trkpt lat="46.207" lon="6.78947">
        <ele>1814.15</ele>
        <time>2015-06-26T15:10:13Z</time>
      </trkpt>
      <trkpt lat="46.20704" lon="6.78928">
        <ele>1814.63</ele>
        <time>2015-06-26T15:10:15Z</time>
      </trkpt>
      <trkpt lat="46.20733" lon="6.78857">
        <ele>1813.18</ele>
        <time>2015-06-26T15:10:22Z</time>
      </trkpt>
      <trkpt lat="46.20743" lon="6.78837">
        <ele>1808.86</ele>
        <time>2015-06-26T15:10:26Z</time>
      </trkpt>
      <trkpt lat="46.20744" lon="6.78827">
        <ele>1806.94</ele>
        <time>2015-06-26T15:10:28Z</time>
      </trkpt>
      <trkpt lat="46.20752" lon="6.78778">
        <ele>1805.97</ele>
        <time>2015-06-26T15:10:38Z</time>
      </trkpt>
      <trkpt lat="46.20752" lon="6.78778">
        <ele>1805.97</ele>
        <time>2015-06-26T15:11:05Z</time>
      </trkpt>
      <trkpt lat="46.20752" lon="6.78777">
        <ele>1805.49</ele>
        <time>2015-06-26T15:11:38Z</time>
      </trkpt>
      <trkpt lat="46.20769" lon="6.78767">
        <ele>1805.49</ele>
        <time>2015-06-26T15:11:47Z</time>
      </trkpt>
      <trkpt lat="46.20808" lon="6.78748">
        <ele>1800.21</ele>
        <time>2015-06-26T15:11:53Z</time>
      </trkpt>
      <trkpt lat="46.20821" lon="6.78742">
        <ele>1795.88</ele>
        <time>2015-06-26T15:11:55Z</time>
      </trkpt>
      <trkpt lat="46.20834" lon="6.78734">
        <ele>1791.07</ele>
        <time>2015-06-26T15:11:57Z</time>
      </trkpt>
      <trkpt lat="46.20855" lon="6.78725">
        <ele>1785.79</ele>
        <time>2015-06-26T15:12:00Z</time>
      </trkpt>
      <trkpt lat="46.20868" lon="6.78719">
        <ele>1782.42</ele>
        <time>2015-06-26T15:12:02Z</time>
      </trkpt>
      <trkpt lat="46.20874" lon="6.78716">
        <ele>1780.5</ele>
        <time>2015-06-26T15:12:03Z</time>
      </trkpt>
      <trkpt lat="46.20895" lon="6.78699">
        <ele>1777.13</ele>
        <time>2015-06-26T15:12:06Z</time>
      </trkpt>
      <trkpt lat="46.20916" lon="6.78684">
        <ele>1774.25</ele>
        <time>2015-06-26T15:12:09Z</time>
      </trkpt>
      <trkpt lat="46.20942" lon="6.7868">
        <ele>1769.44</ele>
        <time>2015-06-26T15:12:14Z</time>
      </trkpt>
      <trkpt lat="46.20943" lon="6.78676">
        <ele>1768.96</ele>
        <time>2015-06-26T15:12:15Z</time>
      </trkpt>
      <trkpt lat="46.20946" lon="6.78628">
        <ele>1767.04</ele>
        <time>2015-06-26T15:12:21Z</time>
      </trkpt>
      <trkpt lat="46.20983" lon="6.78585">
        <ele>1761.75</ele>
        <time>2015-06-26T15:12:27Z</time>
      </trkpt>
      <trkpt lat="46.20992" lon="6.78582">
        <ele>1760.31</ele>
        <time>2015-06-26T15:12:28Z</time>
      </trkpt>
      <trkpt lat="46.2102" lon="6.78572">
        <ele>1754.06</ele>
        <time>2015-06-26T15:12:32Z</time>
      </trkpt>
      <trkpt lat="46.21027" lon="6.7856">
        <ele>1750.7</ele>
        <time>2015-06-26T15:12:34Z</time>
      </trkpt>
      <trkpt lat="46.2104" lon="6.78539">
        <ele>1747.33</ele>
        <time>2015-06-26T15:12:37Z</time>
      </trkpt>
      <trkpt lat="46.21044" lon="6.7853">
        <ele>1746.37</ele>
        <time>2015-06-26T15:12:38Z</time>
      </trkpt>
      <trkpt lat="46.21053" lon="6.78509">
        <ele>1745.41</ele>
        <time>2015-06-26T15:12:40Z</time>
      </trkpt>
      <trkpt lat="46.21067" lon="6.78471">
        <ele>1745.41</ele>
        <time>2015-06-26T15:12:43Z</time>
      </trkpt>
      <trkpt lat="46.21076" lon="6.78414">
        <ele>1743.01</ele>
        <time>2015-06-26T15:12:47Z</time>
      </trkpt>
      <trkpt lat="46.21089" lon="6.78354">
        <ele>1737.72</ele>
        <time>2015-06-26T15:12:51Z</time>
      </trkpt>
      <trkpt lat="46.2109" lon="6.78318">
        <ele>1731.47</ele>
        <time>2015-06-26T15:12:54Z</time>
      </trkpt>
      <trkpt lat="46.21095" lon="6.78288">
        <ele>1726.18</ele>
        <time>2015-06-26T15:12:57Z</time>
      </trkpt>
      <trkpt lat="46.21106" lon="6.78262">
        <ele>1722.34</ele>
        <time>2015-06-26T15:13:00Z</time>
      </trkpt>
      <trkpt lat="46.21116" lon="6.78238">
        <ele>1718.01</ele>
        <time>2015-06-26T15:13:03Z</time>
      </trkpt>
      <trkpt lat="46.21121" lon="6.78209">
        <ele>1712.25</ele>
        <time>2015-06-26T15:13:07Z</time>
      </trkpt>
      <trkpt lat="46.21122" lon="6.78192">
        <ele>1709.84</ele>
        <time>2015-06-26T15:13:09Z</time>
      </trkpt>
      <trkpt lat="46.21126" lon="6.78152">
        <ele>1706.48</ele>
        <time>2015-06-26T15:13:13Z</time>
      </trkpt>
      <trkpt lat="46.21137" lon="6.78117">
        <ele>1702.63</ele>
        <time>2015-06-26T15:13:17Z</time>
      </trkpt>
      <trkpt lat="46.21138" lon="6.7809">
        <ele>1698.31</ele>
        <time>2015-06-26T15:13:20Z</time>
      </trkpt>
      <trkpt lat="46.2114" lon="6.78072">
        <ele>1694.94</ele>
        <time>2015-06-26T15:13:22Z</time>
      </trkpt>
      <trkpt lat="46.21142" lon="6.78063">
        <ele>1693.5</ele>
        <time>2015-06-26T15:13:23Z</time>
      </trkpt>
      <trkpt lat="46.21147" lon="6.78045">
        <ele>1690.14</ele>
        <time>2015-06-26T15:13:25Z</time>
      </trkpt>
      <trkpt lat="46.21156" lon="6.78017">
        <ele>1685.33</ele>
        <time>2015-06-26T15:13:28Z</time>
      </trkpt>
      <trkpt lat="46.21164" lon="6.77988">
        <ele>1681.48</ele>
        <time>2015-06-26T15:13:31Z</time>
      </trkpt>
      <trkpt lat="46.21167" lon="6.77978">
        <ele>1680.04</ele>
        <time>2015-06-26T15:13:32Z</time>
      </trkpt>
      <trkpt lat="46.21175" lon="6.77939">
        <ele>1674.27</ele>
        <time>2015-06-26T15:13:36Z</time>
      </trkpt>
      <trkpt lat="46.21184" lon="6.77913">
        <ele>1668.99</ele>
        <time>2015-06-26T15:13:39Z</time>
      </trkpt>
      <trkpt lat="46.21188" lon="6.77904">
        <ele>1667.06</ele>
        <time>2015-06-26T15:13:40Z</time>
      </trkpt>
      <trkpt lat="46.21203" lon="6.77878">
        <ele>1663.7</ele>
        <time>2015-06-26T15:13:43Z</time>
      </trkpt>
      <trkpt lat="46.21215" lon="6.77861">
        <ele>1660.33</ele>
        <time>2015-06-26T15:13:45Z</time>
      </trkpt>
      <trkpt lat="46.21225" lon="6.77845">
        <ele>1656.49</ele>
        <time>2015-06-26T15:13:47Z</time>
      </trkpt>
      <trkpt lat="46.21229" lon="6.77838">
        <ele>1654.57</ele>
        <time>2015-06-26T15:13:48Z</time>
      </trkpt>
      <trkpt lat="46.21246" lon="6.77817">
        <ele>1649.76</ele>
        <time>2015-06-26T15:13:51Z</time>
      </trkpt>
      <trkpt lat="46.21257" lon="6.77802">
        <ele>1646.4</ele>
        <time>2015-06-26T15:13:53Z</time>
      </trkpt>
      <trkpt lat="46.2127" lon="6.77771">
        <ele>1641.11</ele>
        <time>2015-06-26T15:13:57Z</time>
      </trkpt>
      <trkpt lat="46.21263" lon="6.77751">
        <ele>1638.22</ele>
        <time>2015-06-26T15:14:00Z</time>
      </trkpt>
      <trkpt lat="46.21245" lon="6.77751">
        <ele>1635.34</ele>
        <time>2015-06-26T15:14:03Z</time>
      </trkpt>
      <trkpt lat="46.21188" lon="6.77774">
        <ele>1631.01</ele>
        <time>2015-06-26T15:14:10Z</time>
      </trkpt>
      <trkpt lat="46.21164" lon="6.77786">
        <ele>1627.65</ele>
        <time>2015-06-26T15:14:13Z</time>
      </trkpt>
      <trkpt lat="46.21144" lon="6.778">
        <ele>1623.32</ele>
        <time>2015-06-26T15:14:16Z</time>
      </trkpt>
      <trkpt lat="46.21127" lon="6.77812">
        <ele>1619.96</ele>
        <time>2015-06-26T15:14:18Z</time>
      </trkpt>
      <trkpt lat="46.21112" lon="6.77824">
        <ele>1616.59</ele>
        <time>2015-06-26T15:14:20Z</time>
      </trkpt>
      <trkpt lat="46.211" lon="6.77836">
        <ele>1612.75</ele>
        <time>2015-06-26T15:14:22Z</time>
      </trkpt>
      <trkpt lat="46.21075" lon="6.7785">
        <ele>1607.94</ele>
        <time>2015-06-26T15:14:25Z</time>
      </trkpt>
      <trkpt lat="46.21058" lon="6.77857">
        <ele>1605.54</ele>
        <time>2015-06-26T15:14:27Z</time>
      </trkpt>
      <trkpt lat="46.21031" lon="6.77877">
        <ele>1600.25</ele>
        <time>2015-06-26T15:14:31Z</time>
      </trkpt>
      <trkpt lat="46.21009" lon="6.77899">
        <ele>1597.37</ele>
        <time>2015-06-26T15:14:34Z</time>
      </trkpt>
      <trkpt lat="46.2099" lon="6.77924">
        <ele>1594</ele>
        <time>2015-06-26T15:14:37Z</time>
      </trkpt>
      <trkpt lat="46.20973" lon="6.77953">
        <ele>1590.16</ele>
        <time>2015-06-26T15:14:40Z</time>
      </trkpt>
      <trkpt lat="46.20967" lon="6.77962">
        <ele>1589.2</ele>
        <time>2015-06-26T15:14:41Z</time>
      </trkpt>
      <trkpt lat="46.20948" lon="6.7798">
        <ele>1584.39</ele>
        <time>2015-06-26T15:14:44Z</time>
      </trkpt>
      <trkpt lat="46.20936" lon="6.77989">
        <ele>1580.54</ele>
        <time>2015-06-26T15:14:46Z</time>
      </trkpt>
      <trkpt lat="46.20924" lon="6.77998">
        <ele>1577.66</ele>
        <time>2015-06-26T15:14:48Z</time>
      </trkpt>
      <trkpt lat="46.2091" lon="6.78009">
        <ele>1574.3</ele>
        <time>2015-06-26T15:14:50Z</time>
      </trkpt>
      <trkpt lat="46.20889" lon="6.78022">
        <ele>1570.45</ele>
        <time>2015-06-26T15:14:53Z</time>
      </trkpt>
      <trkpt lat="46.20869" lon="6.78032">
        <ele>1566.61</ele>
        <time>2015-06-26T15:14:56Z</time>
      </trkpt>
      <trkpt lat="46.20847" lon="6.78041">
        <ele>1562.76</ele>
        <time>2015-06-26T15:14:59Z</time>
      </trkpt>
      <trkpt lat="46.2084" lon="6.78043">
        <ele>1562.28</ele>
        <time>2015-06-26T15:15:00Z</time>
      </trkpt>
      <trkpt lat="46.20825" lon="6.78046">
        <ele>1559.88</ele>
        <time>2015-06-26T15:15:02Z</time>
      </trkpt>
      <trkpt lat="46.20802" lon="6.78045">
        <ele>1555.07</ele>
        <time>2015-06-26T15:15:05Z</time>
      </trkpt>
      <trkpt lat="46.20787" lon="6.78042">
        <ele>1552.19</ele>
        <time>2015-06-26T15:15:07Z</time>
      </trkpt>
      <trkpt lat="46.20765" lon="6.78046">
        <ele>1546.9</ele>
        <time>2015-06-26T15:15:10Z</time>
      </trkpt>
      <trkpt lat="46.20742" lon="6.78059">
        <ele>1542.09</ele>
        <time>2015-06-26T15:15:13Z</time>
      </trkpt>
      <trkpt lat="46.20726" lon="6.78069">
        <ele>1539.69</ele>
        <time>2015-06-26T15:15:15Z</time>
      </trkpt>
      <trkpt lat="46.20704" lon="6.7805">
        <ele>1536.8</ele>
        <time>2015-06-26T15:15:21Z</time>
      </trkpt>
      <trkpt lat="46.20717" lon="6.78011">
        <ele>1536.32</ele>
        <time>2015-06-26T15:15:26Z</time>
      </trkpt>
      <trkpt lat="46.20728" lon="6.77988">
        <ele>1534.88</ele>
        <time>2015-06-26T15:15:29Z</time>
      </trkpt>
      <trkpt lat="46.20742" lon="6.77957">
        <ele>1529.59</ele>
        <time>2015-06-26T15:15:33Z</time>
      </trkpt>
      <trkpt lat="46.20749" lon="6.77931">
        <ele>1524.31</ele>
        <time>2015-06-26T15:15:36Z</time>
      </trkpt>
      <trkpt lat="46.20746" lon="6.77894">
        <ele>1519.98</ele>
        <time>2015-06-26T15:15:40Z</time>
      </trkpt>
      <trkpt lat="46.20735" lon="6.7785">
        <ele>1519.02</ele>
        <time>2015-06-26T15:15:44Z</time>
      </trkpt>
      <trkpt lat="46.20718" lon="6.77787">
        <ele>1514.69</ele>
        <time>2015-06-26T15:15:50Z</time>
      </trkpt>
      <trkpt lat="46.20716" lon="6.77759">
        <ele>1513.25</ele>
        <time>2015-06-26T15:15:53Z</time>
      </trkpt>
      <trkpt lat="46.20734" lon="6.77724">
        <ele>1510.37</ele>
        <time>2015-06-26T15:16:00Z</time>
      </trkpt>
      <trkpt lat="46.20741" lon="6.7772">
        <ele>1510.85</ele>
        <time>2015-06-26T15:16:02Z</time>
      </trkpt>
      <trkpt lat="46.20746" lon="6.77719">
        <ele>1510.85</ele>
        <time>2015-06-26T15:16:12Z</time>
      </trkpt>
      <trkpt lat="46.20746" lon="6.77719">
        <ele>1510.85</ele>
        <time>2015-06-26T15:16:32Z</time>
      </trkpt>
      <trkpt lat="46.20746" lon="6.77719">
        <ele>1510.85</ele>
        <time>2015-06-26T15:16:53Z</time>
      </trkpt>
      <trkpt lat="46.20746" lon="6.77719">
        <ele>1510.85</ele>
        <time>2015-06-26T15:17:19Z</time>
      </trkpt>
      <trkpt lat="46.20745" lon="6.77718">
        <ele>1510.85</ele>
        <time>2015-06-26T15:17:38Z</time>
      </trkpt>
      <trkpt lat="46.20744" lon="6.77715">
        <ele>1510.37</ele>
        <time>2015-06-26T15:17:58Z</time>
      </trkpt>
      <trkpt lat="46.20744" lon="6.77715">
        <ele>1510.37</ele>
        <time>2015-06-26T15:18:15Z</time>
      </trkpt>
      <trkpt lat="46.20744" lon="6.77715">
        <ele>1510.37</ele>
        <time>2015-06-26T15:18:44Z</time>
      </trkpt>
      <trkpt lat="46.20744" lon="6.77714">
        <ele>1510.37</ele>
        <time>2015-06-26T15:19:05Z</time>
      </trkpt>
      <trkpt lat="46.20744" lon="6.77713">
        <ele>1510.37</ele>
        <time>2015-06-26T15:19:35Z</time>
      </trkpt>
      <trkpt lat="46.20744" lon="6.77713">
        <ele>1510.37</ele>
        <time>2015-06-26T15:19:51Z</time>
      </trkpt>
      <trkpt lat="46.20744" lon="6.77713">
        <ele>1510.37</ele>
        <time>2015-06-26T15:20:12Z</time>
      </trkpt>
      <trkpt lat="46.20744" lon="6.77712">
        <ele>1510.37</ele>
        <time>2015-06-26T15:20:29Z</time>
      </trkpt>
      <trkpt lat="46.20744" lon="6.7771">
        <ele>1510.37</ele>
        <time>2015-06-26T15:20:49Z</time>
      </trkpt>
      <trkpt lat="46.20743" lon="6.77706">
        <ele>1510.37</ele>
        <time>2015-06-26T15:21:13Z</time>
      </trkpt>
      <trkpt lat="46.20743" lon="6.77706">
        <ele>1510.37</ele>
        <time>2015-06-26T15:21:34Z</time>
      </trkpt>
      <trkpt lat="46.20743" lon="6.77706">
        <ele>1510.37</ele>
        <time>2015-06-26T15:21:51Z</time>
      </trkpt>
      <trkpt lat="46.20742" lon="6.77698">
        <ele>1510.37</ele>
        <time>2015-06-26T15:22:03Z</time>
      </trkpt>
      <trkpt lat="46.20742" lon="6.77698">
        <ele>1510.37</ele>
        <time>2015-06-26T15:22:11Z</time>
      </trkpt>
      <trkpt lat="46.20738" lon="6.77689">
        <ele>1510.37</ele>
        <time>2015-06-26T15:22:25Z</time>
      </trkpt>
      <trkpt lat="46.20736" lon="6.77688">
        <ele>1509.89</ele>
        <time>2015-06-26T15:22:32Z</time>
      </trkpt>
      <trkpt lat="46.20708" lon="6.77676">
        <ele>1509.89</ele>
        <time>2015-06-26T15:22:41Z</time>
      </trkpt>
      <trkpt lat="46.20694" lon="6.7767">
        <ele>1511.81</ele>
        <time>2015-06-26T15:22:45Z</time>
      </trkpt>
      <trkpt lat="46.2068" lon="6.77664">
        <ele>1515.18</ele>
        <time>2015-06-26T15:22:49Z</time>
      </trkpt>
      <trkpt lat="46.20673" lon="6.77661">
        <ele>1518.54</ele>
        <time>2015-06-26T15:22:51Z</time>
      </trkpt>
      <trkpt lat="46.20663" lon="6.77657">
        <ele>1522.87</ele>
        <time>2015-06-26T15:22:54Z</time>
      </trkpt>
      <trkpt lat="46.20656" lon="6.77654">
        <ele>1525.75</ele>
        <time>2015-06-26T15:22:56Z</time>
      </trkpt>
      <trkpt lat="46.20647" lon="6.7765">
        <ele>1529.59</ele>
        <time>2015-06-26T15:22:59Z</time>
      </trkpt>
      <trkpt lat="46.20635" lon="6.77646">
        <ele>1532.96</ele>
        <time>2015-06-26T15:23:03Z</time>
      </trkpt>
      <trkpt lat="46.20623" lon="6.77641">
        <ele>1536.32</ele>
        <time>2015-06-26T15:23:07Z</time>
      </trkpt>
      <trkpt lat="46.20614" lon="6.77637">
        <ele>1540.17</ele>
        <time>2015-06-26T15:23:10Z</time>
      </trkpt>
      <trkpt lat="46.20604" lon="6.77634">
        <ele>1544.01</ele>
        <time>2015-06-26T15:23:13Z</time>
      </trkpt>
      <trkpt lat="46.20591" lon="6.77629">
        <ele>1545.94</ele>
        <time>2015-06-26T15:23:17Z</time>
      </trkpt>
      <trkpt lat="46.20553" lon="6.77616">
        <ele>1549.3</ele>
        <time>2015-06-26T15:23:29Z</time>
      </trkpt>
      <trkpt lat="46.20544" lon="6.77613">
        <ele>1554.11</ele>
        <time>2015-06-26T15:23:32Z</time>
      </trkpt>
      <trkpt lat="46.20538" lon="6.77611">
        <ele>1556.99</ele>
        <time>2015-06-26T15:23:34Z</time>
      </trkpt>
      <trkpt lat="46.20528" lon="6.77608">
        <ele>1561.32</ele>
        <time>2015-06-26T15:23:37Z</time>
      </trkpt>
      <trkpt lat="46.20519" lon="6.77605">
        <ele>1564.2</ele>
        <time>2015-06-26T15:23:40Z</time>
      </trkpt>
      <trkpt lat="46.20503" lon="6.776">
        <ele>1567.09</ele>
        <time>2015-06-26T15:23:45Z</time>
      </trkpt>
      <trkpt lat="46.20485" lon="6.77594">
        <ele>1570.45</ele>
        <time>2015-06-26T15:23:51Z</time>
      </trkpt>
      <trkpt lat="46.20469" lon="6.7759">
        <ele>1573.82</ele>
        <time>2015-06-26T15:23:56Z</time>
      </trkpt>
      <trkpt lat="46.20457" lon="6.77586">
        <ele>1578.14</ele>
        <time>2015-06-26T15:24:00Z</time>
      </trkpt>
      <trkpt lat="46.20448" lon="6.77582">
        <ele>1581.03</ele>
        <time>2015-06-26T15:24:03Z</time>
      </trkpt>
      <trkpt lat="46.20438" lon="6.77579">
        <ele>1584.39</ele>
        <time>2015-06-26T15:24:06Z</time>
      </trkpt>
      <trkpt lat="46.2043" lon="6.77576">
        <ele>1588.24</ele>
        <time>2015-06-26T15:24:09Z</time>
      </trkpt>
      <trkpt lat="46.20424" lon="6.77575">
        <ele>1591.6</ele>
        <time>2015-06-26T15:24:11Z</time>
      </trkpt>
      <trkpt lat="46.20415" lon="6.77572">
        <ele>1595.45</ele>
        <time>2015-06-26T15:24:14Z</time>
      </trkpt>
      <trkpt lat="46.20409" lon="6.7757">
        <ele>1599.29</ele>
        <time>2015-06-26T15:24:16Z</time>
      </trkpt>
      <trkpt lat="46.20403" lon="6.77568">
        <ele>1602.66</ele>
        <time>2015-06-26T15:24:18Z</time>
      </trkpt>
      <trkpt lat="46.20394" lon="6.77565">
        <ele>1606.5</ele>
        <time>2015-06-26T15:24:21Z</time>
      </trkpt>
      <trkpt lat="46.20385" lon="6.77562">
        <ele>1609.86</ele>
        <time>2015-06-26T15:24:24Z</time>
      </trkpt>
      <trkpt lat="46.20376" lon="6.77559">
        <ele>1613.71</ele>
        <time>2015-06-26T15:24:27Z</time>
      </trkpt>
      <trkpt lat="46.20367" lon="6.77555">
        <ele>1618.04</ele>
        <time>2015-06-26T15:24:30Z</time>
      </trkpt>
      <trkpt lat="46.20361" lon="6.77553">
        <ele>1620.92</ele>
        <time>2015-06-26T15:24:32Z</time>
      </trkpt>
      <trkpt lat="46.20356" lon="6.7755">
        <ele>1624.28</ele>
        <time>2015-06-26T15:24:34Z</time>
      </trkpt>
      <trkpt lat="46.2035" lon="6.77548">
        <ele>1627.17</ele>
        <time>2015-06-26T15:24:36Z</time>
      </trkpt>
      <trkpt lat="46.20347" lon="6.77547">
        <ele>1627.65</ele>
        <time>2015-06-26T15:24:37Z</time>
      </trkpt>
      <trkpt lat="46.20338" lon="6.77543">
        <ele>1631.01</ele>
        <time>2015-06-26T15:24:40Z</time>
      </trkpt>
      <trkpt lat="46.20329" lon="6.7754">
        <ele>1634.86</ele>
        <time>2015-06-26T15:24:43Z</time>
      </trkpt>
      <trkpt lat="46.2032" lon="6.77537">
        <ele>1638.22</ele>
        <time>2015-06-26T15:24:46Z</time>
      </trkpt>
      <trkpt lat="46.20312" lon="6.77533">
        <ele>1642.55</ele>
        <time>2015-06-26T15:24:49Z</time>
      </trkpt>
      <trkpt lat="46.20306" lon="6.77531">
        <ele>1645.43</ele>
        <time>2015-06-26T15:24:51Z</time>
      </trkpt>
      <trkpt lat="46.20301" lon="6.7753">
        <ele>1648.8</ele>
        <time>2015-06-26T15:24:53Z</time>
      </trkpt>
      <trkpt lat="46.20295" lon="6.77528">
        <ele>1652.16</ele>
        <time>2015-06-26T15:24:55Z</time>
      </trkpt>
      <trkpt lat="46.20289" lon="6.77526">
        <ele>1656.01</ele>
        <time>2015-06-26T15:24:57Z</time>
      </trkpt>
      <trkpt lat="46.20283" lon="6.77523">
        <ele>1659.37</ele>
        <time>2015-06-26T15:24:59Z</time>
      </trkpt>
      <trkpt lat="46.20278" lon="6.77521">
        <ele>1662.74</ele>
        <time>2015-06-26T15:25:01Z</time>
      </trkpt>
      <trkpt lat="46.20272" lon="6.77519">
        <ele>1666.1</ele>
        <time>2015-06-26T15:25:03Z</time>
      </trkpt>
      <trkpt lat="46.20263" lon="6.77516">
        <ele>1669.47</ele>
        <time>2015-06-26T15:25:06Z</time>
      </trkpt>
      <trkpt lat="46.20255" lon="6.77513">
        <ele>1672.83</ele>
        <time>2015-06-26T15:25:09Z</time>
      </trkpt>
      <trkpt lat="46.20239" lon="6.77507">
        <ele>1676.2</ele>
        <time>2015-06-26T15:25:14Z</time>
      </trkpt>
      <trkpt lat="46.20214" lon="6.77499">
        <ele>1679.56</ele>
        <time>2015-06-26T15:25:22Z</time>
      </trkpt>
      <trkpt lat="46.20205" lon="6.77496">
        <ele>1682.93</ele>
        <time>2015-06-26T15:25:25Z</time>
      </trkpt>
      <trkpt lat="46.20195" lon="6.77493">
        <ele>1686.77</ele>
        <time>2015-06-26T15:25:28Z</time>
      </trkpt>
      <trkpt lat="46.20192" lon="6.77492">
        <ele>1687.25</ele>
        <time>2015-06-26T15:25:29Z</time>
      </trkpt>
      <trkpt lat="46.20182" lon="6.77489">
        <ele>1690.14</ele>
        <time>2015-06-26T15:25:32Z</time>
      </trkpt>
      <trkpt lat="46.2017" lon="6.77485">
        <ele>1693.98</ele>
        <time>2015-06-26T15:25:36Z</time>
      </trkpt>
      <trkpt lat="46.20157" lon="6.77481">
        <ele>1697.34</ele>
        <time>2015-06-26T15:25:40Z</time>
      </trkpt>
      <trkpt lat="46.20142" lon="6.77475">
        <ele>1700.71</ele>
        <time>2015-06-26T15:25:45Z</time>
      </trkpt>
      <trkpt lat="46.20126" lon="6.77469">
        <ele>1704.07</ele>
        <time>2015-06-26T15:25:50Z</time>
      </trkpt>
      <trkpt lat="46.20113" lon="6.77465">
        <ele>1707.92</ele>
        <time>2015-06-26T15:25:54Z</time>
      </trkpt>
      <trkpt lat="46.20101" lon="6.7746">
        <ele>1711.28</ele>
        <time>2015-06-26T15:25:58Z</time>
      </trkpt>
      <trkpt lat="46.20092" lon="6.77457">
        <ele>1714.65</ele>
        <time>2015-06-26T15:26:01Z</time>
      </trkpt>
      <trkpt lat="46.20083" lon="6.77454">
        <ele>1717.53</ele>
        <time>2015-06-26T15:26:04Z</time>
      </trkpt>
      <trkpt lat="46.20074" lon="6.7745">
        <ele>1720.9</ele>
        <time>2015-06-26T15:26:07Z</time>
      </trkpt>
      <trkpt lat="46.20065" lon="6.77447">
        <ele>1724.26</ele>
        <time>2015-06-26T15:26:10Z</time>
      </trkpt>
      <trkpt lat="46.20055" lon="6.77444">
        <ele>1727.63</ele>
        <time>2015-06-26T15:26:13Z</time>
      </trkpt>
      <trkpt lat="46.20039" lon="6.77439">
        <ele>1730.99</ele>
        <time>2015-06-26T15:26:18Z</time>
      </trkpt>
      <trkpt lat="46.20024" lon="6.77434">
        <ele>1734.36</ele>
        <time>2015-06-26T15:26:23Z</time>
      </trkpt>
      <trkpt lat="46.20012" lon="6.77429">
        <ele>1737.72</ele>
        <time>2015-06-26T15:26:27Z</time>
      </trkpt>
      <trkpt lat="46.20003" lon="6.77426">
        <ele>1741.57</ele>
        <time>2015-06-26T15:26:30Z</time>
      </trkpt>
      <trkpt lat="46.19994" lon="6.77422">
        <ele>1744.93</ele>
        <time>2015-06-26T15:26:33Z</time>
      </trkpt>
      <trkpt lat="46.19981" lon="6.77418">
        <ele>1748.29</ele>
        <time>2015-06-26T15:26:37Z</time>
      </trkpt>
      <trkpt lat="46.19961" lon="6.77411">
        <ele>1751.18</ele>
        <time>2015-06-26T15:26:43Z</time>
      </trkpt>
      <trkpt lat="46.19946" lon="6.77405">
        <ele>1755.5</ele>
        <time>2015-06-26T15:26:48Z</time>
      </trkpt>
      <trkpt lat="46.19933" lon="6.77401">
        <ele>1759.35</ele>
        <time>2015-06-26T15:26:52Z</time>
      </trkpt>
      <trkpt lat="46.19923" lon="6.77397">
        <ele>1762.71</ele>
        <time>2015-06-26T15:26:55Z</time>
      </trkpt>
      <trkpt lat="46.19914" lon="6.77394">
        <ele>1766.08</ele>
        <time>2015-06-26T15:26:58Z</time>
      </trkpt>
      <trkpt lat="46.19904" lon="6.77391">
        <ele>1769.44</ele>
        <time>2015-06-26T15:27:01Z</time>
      </trkpt>
      <trkpt lat="46.19895" lon="6.77388">
        <ele>1772.33</ele>
        <time>2015-06-26T15:27:04Z</time>
      </trkpt>
      <trkpt lat="46.19886" lon="6.77384">
        <ele>1775.69</ele>
        <time>2015-06-26T15:27:07Z</time>
      </trkpt>
      <trkpt lat="46.19877" lon="6.77381">
        <ele>1779.54</ele>
        <time>2015-06-26T15:27:10Z</time>
      </trkpt>
      <trkpt lat="46.19868" lon="6.77377">
        <ele>1782.9</ele>
        <time>2015-06-26T15:27:13Z</time>
      </trkpt>
      <trkpt lat="46.19859" lon="6.77374">
        <ele>1786.27</ele>
        <time>2015-06-26T15:27:16Z</time>
      </trkpt>
      <trkpt lat="46.1985" lon="6.7737">
        <ele>1790.11</ele>
        <time>2015-06-26T15:27:19Z</time>
      </trkpt>
      <trkpt lat="46.19841" lon="6.77367">
        <ele>1793.48</ele>
        <time>2015-06-26T15:27:22Z</time>
      </trkpt>
      <trkpt lat="46.19832" lon="6.77364">
        <ele>1796.84</ele>
        <time>2015-06-26T15:27:25Z</time>
      </trkpt>
      <trkpt lat="46.19823" lon="6.77361">
        <ele>1800.21</ele>
        <time>2015-06-26T15:27:28Z</time>
      </trkpt>
      <trkpt lat="46.19817" lon="6.77359">
        <ele>1803.57</ele>
        <time>2015-06-26T15:27:30Z</time>
      </trkpt>
      <trkpt lat="46.19811" lon="6.77357">
        <ele>1806.94</ele>
        <time>2015-06-26T15:27:32Z</time>
      </trkpt>
      <trkpt lat="46.19805" lon="6.77355">
        <ele>1810.3</ele>
        <time>2015-06-26T15:27:34Z</time>
      </trkpt>
      <trkpt lat="46.19799" lon="6.77353">
        <ele>1814.15</ele>
        <time>2015-06-26T15:27:36Z</time>
      </trkpt>
      <trkpt lat="46.19793" lon="6.7735">
        <ele>1817.51</ele>
        <time>2015-06-26T15:27:38Z</time>
      </trkpt>
      <trkpt lat="46.19788" lon="6.77349">
        <ele>1821.35</ele>
        <time>2015-06-26T15:27:40Z</time>
      </trkpt>
      <trkpt lat="46.19783" lon="6.77347">
        <ele>1825.2</ele>
        <time>2015-06-26T15:27:42Z</time>
      </trkpt>
      <trkpt lat="46.19775" lon="6.77344">
        <ele>1829.53</ele>
        <time>2015-06-26T15:27:45Z</time>
      </trkpt>
      <trkpt lat="46.19769" lon="6.77342">
        <ele>1833.37</ele>
        <time>2015-06-26T15:27:47Z</time>
      </trkpt>
      <trkpt lat="46.19764" lon="6.7734">
        <ele>1838.18</ele>
        <time>2015-06-26T15:27:49Z</time>
      </trkpt>
      <trkpt lat="46.19759" lon="6.77338">
        <ele>1842.5</ele>
        <time>2015-06-26T15:27:51Z</time>
      </trkpt>
      <trkpt lat="46.19753" lon="6.77336">
        <ele>1847.31</ele>
        <time>2015-06-26T15:27:53Z</time>
      </trkpt>
      <trkpt lat="46.19748" lon="6.77334">
        <ele>1851.64</ele>
        <time>2015-06-26T15:27:55Z</time>
      </trkpt>
      <trkpt lat="46.19743" lon="6.77332">
        <ele>1855.96</ele>
        <time>2015-06-26T15:27:57Z</time>
      </trkpt>
      <trkpt lat="46.19738" lon="6.77331">
        <ele>1859.81</ele>
        <time>2015-06-26T15:27:59Z</time>
      </trkpt>
      <trkpt lat="46.19732" lon="6.77329">
        <ele>1864.13</ele>
        <time>2015-06-26T15:28:01Z</time>
      </trkpt>
      <trkpt lat="46.19727" lon="6.77327">
        <ele>1868.46</ele>
        <time>2015-06-26T15:28:03Z</time>
      </trkpt>
      <trkpt lat="46.19722" lon="6.77324">
        <ele>1872.3</ele>
        <time>2015-06-26T15:28:05Z</time>
      </trkpt>
      <trkpt lat="46.19716" lon="6.77322">
        <ele>1876.15</ele>
        <time>2015-06-26T15:28:07Z</time>
      </trkpt>
      <trkpt lat="46.19709" lon="6.7732">
        <ele>1876.63</ele>
        <time>2015-06-26T15:28:09Z</time>
      </trkpt>
      <trkpt lat="46.19698" lon="6.77317">
        <ele>1873.75</ele>
        <time>2015-06-26T15:28:16Z</time>
      </trkpt>
      <trkpt lat="46.19698" lon="6.77317">
        <ele>1870.38</ele>
        <time>2015-06-26T15:28:19Z</time>
      </trkpt>
      <trkpt lat="46.19688" lon="6.77313">
        <ele>1869.9</ele>
        <time>2015-06-26T15:28:25Z</time>
      </trkpt>
      <trkpt lat="46.19687" lon="6.77305">
        <ele>1871.34</ele>
        <time>2015-06-26T15:28:42Z</time>
      </trkpt>
      <trkpt lat="46.19688" lon="6.77301">
        <ele>1871.34</ele>
        <time>2015-06-26T15:28:54Z</time>
      </trkpt>
      <trkpt lat="46.19688" lon="6.77301">
        <ele>1871.34</ele>
        <time>2015-06-26T15:29:28Z</time>
      </trkpt>
      <trkpt lat="46.19688" lon="6.77301">
        <ele>1870.38</ele>
        <time>2015-06-26T15:29:54Z</time>
      </trkpt>
      <trkpt lat="46.19688" lon="6.77301">
        <ele>1870.38</ele>
        <time>2015-06-26T15:30:30Z</time>
      </trkpt>
      <trkpt lat="46.19688" lon="6.77301">
        <ele>1870.38</ele>
        <time>2015-06-26T15:31:17Z</time>
      </trkpt>
      <trkpt lat="46.19688" lon="6.77301">
        <ele>1870.38</ele>
        <time>2015-06-26T15:31:52Z</time>
      </trkpt>
      <trkpt lat="46.19688" lon="6.77301">
        <ele>1870.38</ele>
        <time>2015-06-26T15:32:23Z</time>
      </trkpt>
      <trkpt lat="46.19688" lon="6.77301">
        <ele>1870.38</ele>
        <time>2015-06-26T15:32:55Z</time>
      </trkpt>
      <trkpt lat="46.19688" lon="6.77302">
        <ele>1870.38</ele>
        <time>2015-06-26T15:33:40Z</time>
      </trkpt>
      <trkpt lat="46.19687" lon="6.77302">
        <ele>1870.38</ele>
        <time>2015-06-26T15:33:51Z</time>
      </trkpt>
      <trkpt lat="46.19687" lon="6.77302">
        <ele>1870.38</ele>
        <time>2015-06-26T15:33:53Z</time>
      </trkpt>
      <trkpt lat="46.19664" lon="6.7731">
        <ele>1870.38</ele>
        <time>2015-06-26T15:34:01Z</time>
      </trkpt>
      <trkpt lat="46.1962" lon="6.77305">
        <ele>1869.9</ele>
        <time>2015-06-26T15:34:10Z</time>
      </trkpt>
      <trkpt lat="46.19616" lon="6.77305">
        <ele>1869.9</ele>
        <time>2015-06-26T15:34:11Z</time>
      </trkpt>
      <trkpt lat="46.19579" lon="6.77308">
        <ele>1866.54</ele>
        <time>2015-06-26T15:34:16Z</time>
      </trkpt>
      <trkpt lat="46.19561" lon="6.77307">
        <ele>1862.69</ele>
        <time>2015-06-26T15:34:18Z</time>
      </trkpt>
      <trkpt lat="46.19545" lon="6.77305">
        <ele>1857.89</ele>
        <time>2015-06-26T15:34:20Z</time>
      </trkpt>
      <trkpt lat="46.19529" lon="6.77303">
        <ele>1854.52</ele>
        <time>2015-06-26T15:34:22Z</time>
      </trkpt>
      <trkpt lat="46.1951" lon="6.77301">
        <ele>1849.71</ele>
        <time>2015-06-26T15:34:24Z</time>
      </trkpt>
      <trkpt lat="46.1949" lon="6.77299">
        <ele>1844.43</ele>
        <time>2015-06-26T15:34:26Z</time>
      </trkpt>
      <trkpt lat="46.19471" lon="6.77294">
        <ele>1840.1</ele>
        <time>2015-06-26T15:34:28Z</time>
      </trkpt>
      <trkpt lat="46.19452" lon="6.77287">
        <ele>1836.26</ele>
        <time>2015-06-26T15:34:30Z</time>
      </trkpt>
      <trkpt lat="46.19434" lon="6.7728">
        <ele>1833.37</ele>
        <time>2015-06-26T15:34:32Z</time>
      </trkpt>
      <trkpt lat="46.19411" lon="6.77278">
        <ele>1830.49</ele>
        <time>2015-06-26T15:34:35Z</time>
      </trkpt>
      <trkpt lat="46.19403" lon="6.77265">
        <ele>1828.08</ele>
        <time>2015-06-26T15:34:40Z</time>
      </trkpt>
      <trkpt lat="46.19463" lon="6.77178">
        <ele>1828.08</ele>
        <time>2015-06-26T15:34:53Z</time>
      </trkpt>
      <trkpt lat="46.19514" lon="6.77043">
        <ele>1827.12</ele>
        <time>2015-06-26T15:35:06Z</time>
      </trkpt>
      <trkpt lat="46.19529" lon="6.76999">
        <ele>1826.64</ele>
        <time>2015-06-26T15:35:10Z</time>
      </trkpt>
      <trkpt lat="46.19544" lon="6.76897">
        <ele>1825.2</ele>
        <time>2015-06-26T15:35:18Z</time>
      </trkpt>
      <trkpt lat="46.1956" lon="6.7684">
        <ele>1820.87</ele>
        <time>2015-06-26T15:35:23Z</time>
      </trkpt>
      <trkpt lat="46.19573" lon="6.76825">
        <ele>1818.47</ele>
        <time>2015-06-26T15:35:25Z</time>
      </trkpt>
      <trkpt lat="46.19618" lon="6.76796">
        <ele>1815.59</ele>
        <time>2015-06-26T15:35:31Z</time>
      </trkpt>
      <trkpt lat="46.19629" lon="6.76773">
        <ele>1814.15</ele>
        <time>2015-06-26T15:35:35Z</time>
      </trkpt>
      <trkpt lat="46.19627" lon="6.76754">
        <ele>1814.15</ele>
        <time>2015-06-26T15:35:37Z</time>
      </trkpt>
      <trkpt lat="46.19655" lon="6.76692">
        <ele>1811.74</ele>
        <time>2015-06-26T15:35:44Z</time>
      </trkpt>
      <trkpt lat="46.19689" lon="6.76671">
        <ele>1806.94</ele>
        <time>2015-06-26T15:35:49Z</time>
      </trkpt>
      <trkpt lat="46.19698" lon="6.76669">
        <ele>1805.49</ele>
        <time>2015-06-26T15:35:50Z</time>
      </trkpt>
      <trkpt lat="46.19724" lon="6.7666">
        <ele>1800.69</ele>
        <time>2015-06-26T15:35:53Z</time>
      </trkpt>
      <trkpt lat="46.19741" lon="6.7665">
        <ele>1797.32</ele>
        <time>2015-06-26T15:35:55Z</time>
      </trkpt>
      <trkpt lat="46.19759" lon="6.76637">
        <ele>1793.96</ele>
        <time>2015-06-26T15:35:57Z</time>
      </trkpt>
      <trkpt lat="46.19785" lon="6.76617">
        <ele>1790.11</ele>
        <time>2015-06-26T15:36:00Z</time>
      </trkpt>
      <trkpt lat="46.1982" lon="6.76594">
        <ele>1786.75</ele>
        <time>2015-06-26T15:36:04Z</time>
      </trkpt>
      <trkpt lat="46.19828" lon="6.76588">
        <ele>1785.79</ele>
        <time>2015-06-26T15:36:05Z</time>
      </trkpt>
      <trkpt lat="46.19856" lon="6.76551">
        <ele>1783.38</ele>
        <time>2015-06-26T15:36:09Z</time>
      </trkpt>
      <trkpt lat="46.19861" lon="6.76539">
        <ele>1782.42</ele>
        <time>2015-06-26T15:36:10Z</time>
      </trkpt>
      <trkpt lat="46.19878" lon="6.76463">
        <ele>1778.58</ele>
        <time>2015-06-26T15:36:16Z</time>
      </trkpt>
      <trkpt lat="46.19892" lon="6.76275">
        <ele>1776.65</ele>
        <time>2015-06-26T15:36:29Z</time>
      </trkpt>
      <trkpt lat="46.19894" lon="6.76214">
        <ele>1772.33</ele>
        <time>2015-06-26T15:36:33Z</time>
      </trkpt>
      <trkpt lat="46.19905" lon="6.76151">
        <ele>1766.56</ele>
        <time>2015-06-26T15:36:37Z</time>
      </trkpt>
      <trkpt lat="46.19923" lon="6.76092">
        <ele>1761.27</ele>
        <time>2015-06-26T15:36:41Z</time>
      </trkpt>
      <trkpt lat="46.19928" lon="6.76078">
        <ele>1760.79</ele>
        <time>2015-06-26T15:36:42Z</time>
      </trkpt>
      <trkpt lat="46.19981" lon="6.75896">
        <ele>1758.87</ele>
        <time>2015-06-26T15:36:55Z</time>
      </trkpt>
      <trkpt lat="46.19992" lon="6.75871">
        <ele>1755.99</ele>
        <time>2015-06-26T15:36:57Z</time>
      </trkpt>
      <trkpt lat="46.20015" lon="6.75834">
        <ele>1753.1</ele>
        <time>2015-06-26T15:37:01Z</time>
      </trkpt>
      <trkpt lat="46.20019" lon="6.75827">
        <ele>1754.06</ele>
        <time>2015-06-26T15:37:02Z</time>
      </trkpt>
      <trkpt lat="46.20026" lon="6.75819">
        <ele>1754.54</ele>
        <time>2015-06-26T15:37:04Z</time>
      </trkpt>
      <trkpt lat="46.20036" lon="6.75805">
        <ele>1758.39</ele>
        <time>2015-06-26T15:37:07Z</time>
      </trkpt>
      <trkpt lat="46.20053" lon="6.75789">
        <ele>1760.31</ele>
        <time>2015-06-26T15:37:11Z</time>
      </trkpt>
      <trkpt lat="46.20074" lon="6.75751">
        <ele>1760.79</ele>
        <time>2015-06-26T15:37:21Z</time>
      </trkpt>
      <trkpt lat="46.20081" lon="6.75736">
        <ele>1760.79</ele>
        <time>2015-06-26T15:37:24Z</time>
      </trkpt>
      <trkpt lat="46.20087" lon="6.75724">
        <ele>1760.79</ele>
        <time>2015-06-26T15:37:26Z</time>
      </trkpt>
      <trkpt lat="46.20099" lon="6.75677">
        <ele>1759.35</ele>
        <time>2015-06-26T15:37:31Z</time>
      </trkpt>
      <trkpt lat="46.20103" lon="6.75646">
        <ele>1759.35</ele>
        <time>2015-06-26T15:37:34Z</time>
      </trkpt>
      <trkpt lat="46.20107" lon="6.75571">
        <ele>1758.39</ele>
        <time>2015-06-26T15:37:41Z</time>
      </trkpt>
      <trkpt lat="46.20111" lon="6.75471">
        <ele>1756.47</ele>
        <time>2015-06-26T15:37:49Z</time>
      </trkpt>
      <trkpt lat="46.20115" lon="6.75445">
        <ele>1755.02</ele>
        <time>2015-06-26T15:37:51Z</time>
      </trkpt>
      <trkpt lat="46.20121" lon="6.75379">
        <ele>1750.7</ele>
        <time>2015-06-26T15:37:56Z</time>
      </trkpt>
      <trkpt lat="46.20132" lon="6.75278">
        <ele>1749.74</ele>
        <time>2015-06-26T15:38:05Z</time>
      </trkpt>
      <trkpt lat="46.20133" lon="6.75204">
        <ele>1750.7</ele>
        <time>2015-06-26T15:38:13Z</time>
      </trkpt>
      <trkpt lat="46.20132" lon="6.75163">
        <ele>1750.7</ele>
        <time>2015-06-26T15:38:17Z</time>
      </trkpt>
      <trkpt lat="46.20124" lon="6.75102">
        <ele>1750.7</ele>
        <time>2015-06-26T15:38:23Z</time>
      </trkpt>
      <trkpt lat="46.20116" lon="6.75037">
        <ele>1750.7</ele>
        <time>2015-06-26T15:38:29Z</time>
      </trkpt>
      <trkpt lat="46.20104" lon="6.74973">
        <ele>1749.74</ele>
        <time>2015-06-26T15:38:35Z</time>
      </trkpt>
      <trkpt lat="46.20098" lon="6.74927">
        <ele>1745.89</ele>
        <time>2015-06-26T15:38:39Z</time>
      </trkpt>
      <trkpt lat="46.20096" lon="6.7488">
        <ele>1742.53</ele>
        <time>2015-06-26T15:38:43Z</time>
      </trkpt>
      <trkpt lat="46.20093" lon="6.74825">
        <ele>1742.53</ele>
        <time>2015-06-26T15:38:48Z</time>
      </trkpt>
      <trkpt lat="46.20089" lon="6.7478">
        <ele>1742.53</ele>
        <time>2015-06-26T15:38:52Z</time>
      </trkpt>
      <trkpt lat="46.20086" lon="6.74759">
        <ele>1742.53</ele>
        <time>2015-06-26T15:38:54Z</time>
      </trkpt>
      <trkpt lat="46.20076" lon="6.7473">
        <ele>1741.57</ele>
        <time>2015-06-26T15:39:02Z</time>
      </trkpt>
      <trkpt lat="46.20074" lon="6.74727">
        <ele>1741.57</ele>
        <time>2015-06-26T15:39:03Z</time>
      </trkpt>
      <trkpt lat="46.20067" lon="6.74711">
        <ele>1741.08</ele>
        <time>2015-06-26T15:39:06Z</time>
      </trkpt>
      <trkpt lat="46.20047" lon="6.74668">
        <ele>1736.28</ele>
        <time>2015-06-26T15:39:11Z</time>
      </trkpt>
      <trkpt lat="46.20036" lon="6.74635">
        <ele>1732.91</ele>
        <time>2015-06-26T15:39:14Z</time>
      </trkpt>
      <trkpt lat="46.20025" lon="6.74607">
        <ele>1729.55</ele>
        <time>2015-06-26T15:39:17Z</time>
      </trkpt>
      <trkpt lat="46.20009" lon="6.74575">
        <ele>1727.63</ele>
        <time>2015-06-26T15:39:21Z</time>
      </trkpt>
      <trkpt lat="46.19984" lon="6.74537">
        <ele>1727.15</ele>
        <time>2015-06-26T15:39:26Z</time>
      </trkpt>
      <trkpt lat="46.19966" lon="6.74497">
        <ele>1726.67</ele>
        <time>2015-06-26T15:39:31Z</time>
      </trkpt>
      <trkpt lat="46.19946" lon="6.74453">
        <ele>1722.34</ele>
        <time>2015-06-26T15:39:40Z</time>
      </trkpt>
      <trkpt lat="46.19939" lon="6.74442">
        <ele>1722.34</ele>
        <time>2015-06-26T15:39:42Z</time>
      </trkpt>
      <trkpt lat="46.19933" lon="6.74426">
        <ele>1722.34</ele>
        <time>2015-06-26T15:39:44Z</time>
      </trkpt>
      <trkpt lat="46.19914" lon="6.74374">
        <ele>1722.34</ele>
        <time>2015-06-26T15:39:49Z</time>
      </trkpt>
      <trkpt lat="46.19904" lon="6.74334">
        <ele>1718.01</ele>
        <time>2015-06-26T15:39:55Z</time>
      </trkpt>
      <trkpt lat="46.19896" lon="6.74326">
        <ele>1715.61</ele>
        <time>2015-06-26T15:39:57Z</time>
      </trkpt>
      <trkpt lat="46.19867" lon="6.74314">
        <ele>1710.8</ele>
        <time>2015-06-26T15:40:02Z</time>
      </trkpt>
      <trkpt lat="46.19841" lon="6.74294">
        <ele>1710.8</ele>
        <time>2015-06-26T15:40:06Z</time>
      </trkpt>
      <trkpt lat="46.19815" lon="6.7426">
        <ele>1710.8</ele>
        <time>2015-06-26T15:40:10Z</time>
      </trkpt>
      <trkpt lat="46.19799" lon="6.7423">
        <ele>1708.4</ele>
        <time>2015-06-26T15:40:13Z</time>
      </trkpt>
      <trkpt lat="46.19779" lon="6.74208">
        <ele>1703.59</ele>
        <time>2015-06-26T15:40:17Z</time>
      </trkpt>
      <trkpt lat="46.19758" lon="6.74176">
        <ele>1700.23</ele>
        <time>2015-06-26T15:40:22Z</time>
      </trkpt>
      <trkpt lat="46.19739" lon="6.74135">
        <ele>1698.79</ele>
        <time>2015-06-26T15:40:28Z</time>
      </trkpt>
      <trkpt lat="46.19696" lon="6.74068">
        <ele>1698.79</ele>
        <time>2015-06-26T15:40:38Z</time>
      </trkpt>
      <trkpt lat="46.1969" lon="6.74061">
        <ele>1698.79</ele>
        <time>2015-06-26T15:40:39Z</time>
      </trkpt>
      <trkpt lat="46.19679" lon="6.74044">
        <ele>1698.79</ele>
        <time>2015-06-26T15:40:41Z</time>
      </trkpt>
      <trkpt lat="46.19663" lon="6.74012">
        <ele>1698.31</ele>
        <time>2015-06-26T15:40:45Z</time>
      </trkpt>
      <trkpt lat="46.19658" lon="6.73995">
        <ele>1697.83</ele>
        <time>2015-06-26T15:40:47Z</time>
      </trkpt>
      <trkpt lat="46.19651" lon="6.73978">
        <ele>1695.42</ele>
        <time>2015-06-26T15:40:49Z</time>
      </trkpt>
      <trkpt lat="46.1964" lon="6.73949">
        <ele>1691.58</ele>
        <time>2015-06-26T15:40:52Z</time>
      </trkpt>
      <trkpt lat="46.19628" lon="6.73923">
        <ele>1688.21</ele>
        <time>2015-06-26T15:40:55Z</time>
      </trkpt>
      <trkpt lat="46.196" lon="6.73889">
        <ele>1686.29</ele>
        <time>2015-06-26T15:40:59Z</time>
      </trkpt>
      <trkpt lat="46.19578" lon="6.73875">
        <ele>1685.81</ele>
        <time>2015-06-26T15:41:02Z</time>
      </trkpt>
      <trkpt lat="46.19535" lon="6.73845">
        <ele>1685.33</ele>
        <time>2015-06-26T15:41:08Z</time>
      </trkpt>
      <trkpt lat="46.19508" lon="6.73796">
        <ele>1680.52</ele>
        <time>2015-06-26T15:41:15Z</time>
      </trkpt>
      <trkpt lat="46.195" lon="6.73776">
        <ele>1677.64</ele>
        <time>2015-06-26T15:41:18Z</time>
      </trkpt>
      <trkpt lat="46.19484" lon="6.73744">
        <ele>1674.27</ele>
        <time>2015-06-26T15:41:23Z</time>
      </trkpt>
      <trkpt lat="46.19475" lon="6.73733">
        <ele>1674.27</ele>
        <time>2015-06-26T15:41:26Z</time>
      </trkpt>
      <trkpt lat="46.19441" lon="6.73706">
        <ele>1672.35</ele>
        <time>2015-06-26T15:41:32Z</time>
      </trkpt>
      <trkpt lat="46.19415" lon="6.73671">
        <ele>1668.02</ele>
        <time>2015-06-26T15:41:37Z</time>
      </trkpt>
      <trkpt lat="46.19397" lon="6.73635">
        <ele>1664.18</ele>
        <time>2015-06-26T15:41:42Z</time>
      </trkpt>
      <trkpt lat="46.19394" lon="6.73629">
        <ele>1663.7</ele>
        <time>2015-06-26T15:41:43Z</time>
      </trkpt>
      <trkpt lat="46.1939" lon="6.73616">
        <ele>1663.22</ele>
        <time>2015-06-26T15:41:45Z</time>
      </trkpt>
      <trkpt lat="46.19379" lon="6.73596">
        <ele>1663.7</ele>
        <time>2015-06-26T15:41:48Z</time>
      </trkpt>
      <trkpt lat="46.1936" lon="6.73543">
        <ele>1663.22</ele>
        <time>2015-06-26T15:41:55Z</time>
      </trkpt>
      <trkpt lat="46.19353" lon="6.73522">
        <ele>1661.78</ele>
        <time>2015-06-26T15:41:58Z</time>
      </trkpt>
      <trkpt lat="46.19345" lon="6.73495">
        <ele>1659.85</ele>
        <time>2015-06-26T15:42:02Z</time>
      </trkpt>
      <trkpt lat="46.19322" lon="6.73469">
        <ele>1654.09</ele>
        <time>2015-06-26T15:42:07Z</time>
      </trkpt>
      <trkpt lat="46.19307" lon="6.73453">
        <ele>1650.24</ele>
        <time>2015-06-26T15:42:10Z</time>
      </trkpt>
      <trkpt lat="46.19295" lon="6.73439">
        <ele>1647.36</ele>
        <time>2015-06-26T15:42:12Z</time>
      </trkpt>
      <trkpt lat="46.19269" lon="6.73392">
        <ele>1646.4</ele>
        <time>2015-06-26T15:42:18Z</time>
      </trkpt>
      <trkpt lat="46.19257" lon="6.73351">
        <ele>1651.2</ele>
        <time>2015-06-26T15:42:23Z</time>
      </trkpt>
      <trkpt lat="46.19242" lon="6.73292">
        <ele>1649.76</ele>
        <time>2015-06-26T15:42:29Z</time>
      </trkpt>
      <trkpt lat="46.19234" lon="6.73244">
        <ele>1644.47</ele>
        <time>2015-06-26T15:42:33Z</time>
      </trkpt>
      <trkpt lat="46.19228" lon="6.7321">
        <ele>1640.63</ele>
        <time>2015-06-26T15:42:36Z</time>
      </trkpt>
      <trkpt lat="46.19226" lon="6.73198">
        <ele>1639.67</ele>
        <time>2015-06-26T15:42:37Z</time>
      </trkpt>
      <trkpt lat="46.19224" lon="6.73114">
        <ele>1643.03</ele>
        <time>2015-06-26T15:42:44Z</time>
      </trkpt>
      <trkpt lat="46.19225" lon="6.73101">
        <ele>1643.03</ele>
        <time>2015-06-26T15:42:45Z</time>
      </trkpt>
      <trkpt lat="46.19231" lon="6.7294">
        <ele>1639.19</ele>
        <time>2015-06-26T15:42:57Z</time>
      </trkpt>
      <trkpt lat="46.19233" lon="6.72894">
        <ele>1634.86</ele>
        <time>2015-06-26T15:43:00Z</time>
      </trkpt>
      <trkpt lat="46.19235" lon="6.72847">
        <ele>1630.05</ele>
        <time>2015-06-26T15:43:03Z</time>
      </trkpt>
      <trkpt lat="46.19235" lon="6.72791">
        <ele>1625.73</ele>
        <time>2015-06-26T15:43:07Z</time>
      </trkpt>
      <trkpt lat="46.19244" lon="6.72723">
        <ele>1625.25</ele>
        <time>2015-06-26T15:43:12Z</time>
      </trkpt>
      <trkpt lat="46.19246" lon="6.72668">
        <ele>1625.25</ele>
        <time>2015-06-26T15:43:16Z</time>
      </trkpt>
      <trkpt lat="46.19246" lon="6.72637">
        <ele>1623.8</ele>
        <time>2015-06-26T15:43:19Z</time>
      </trkpt>
      <trkpt lat="46.1924" lon="6.72595">
        <ele>1619.96</ele>
        <time>2015-06-26T15:43:23Z</time>
      </trkpt>
      <trkpt lat="46.19239" lon="6.72583">
        <ele>1619</ele>
        <time>2015-06-26T15:43:24Z</time>
      </trkpt>
      <trkpt lat="46.19244" lon="6.72533">
        <ele>1616.59</ele>
        <time>2015-06-26T15:43:28Z</time>
      </trkpt>
      <trkpt lat="46.19249" lon="6.72508">
        <ele>1615.63</ele>
        <time>2015-06-26T15:43:30Z</time>
      </trkpt>
      <trkpt lat="46.19266" lon="6.72453">
        <ele>1615.63</ele>
        <time>2015-06-26T15:43:35Z</time>
      </trkpt>
      <trkpt lat="46.19289" lon="6.72409">
        <ele>1615.63</ele>
        <time>2015-06-26T15:43:40Z</time>
      </trkpt>
      <trkpt lat="46.19309" lon="6.72376">
        <ele>1613.71</ele>
        <time>2015-06-26T15:43:48Z</time>
      </trkpt>
      <trkpt lat="46.19323" lon="6.72355">
        <ele>1612.27</ele>
        <time>2015-06-26T15:44:00Z</time>
      </trkpt>
      <trkpt lat="46.19323" lon="6.72355">
        <ele>1611.79</ele>
        <time>2015-06-26T15:44:17Z</time>
      </trkpt>
      <trkpt lat="46.19327" lon="6.7235">
        <ele>1611.79</ele>
        <time>2015-06-26T15:44:31Z</time>
      </trkpt>
      <trkpt lat="46.19336" lon="6.72342">
        <ele>1611.79</ele>
        <time>2015-06-26T15:44:56Z</time>
      </trkpt>
      <trkpt lat="46.1936" lon="6.72325">
        <ele>1611.79</ele>
        <time>2015-06-26T15:45:03Z</time>
      </trkpt>
      <trkpt lat="46.19368" lon="6.72321">
        <ele>1611.79</ele>
        <time>2015-06-26T15:45:05Z</time>
      </trkpt>
      <trkpt lat="46.19394" lon="6.72322">
        <ele>1611.79</ele>
        <time>2015-06-26T15:45:11Z</time>
      </trkpt>
      <trkpt lat="46.19399" lon="6.72324">
        <ele>1611.79</ele>
        <time>2015-06-26T15:45:13Z</time>
      </trkpt>
      <trkpt lat="46.19416" lon="6.72311">
        <ele>1613.23</ele>
        <time>2015-06-26T15:45:21Z</time>
      </trkpt>
      <trkpt lat="46.19423" lon="6.72303">
        <ele>1614.19</ele>
        <time>2015-06-26T15:45:27Z</time>
      </trkpt>
      <trkpt lat="46.19422" lon="6.72282">
        <ele>1614.67</ele>
        <time>2015-06-26T15:45:34Z</time>
      </trkpt>
      <trkpt lat="46.1942" lon="6.72282">
        <ele>1614.67</ele>
        <time>2015-06-26T15:45:35Z</time>
      </trkpt>
      <trkpt lat="46.19404" lon="6.72272">
        <ele>1611.31</ele>
        <time>2015-06-26T15:45:42Z</time>
      </trkpt>
      <trkpt lat="46.19406" lon="6.72268">
        <ele>1610.35</ele>
        <time>2015-06-26T15:45:43Z</time>
      </trkpt>
      <trkpt lat="46.19406" lon="6.72256">
        <ele>1604.1</ele>
        <time>2015-06-26T15:45:48Z</time>
      </trkpt>
      <trkpt lat="46.19405" lon="6.72257">
        <ele>1604.1</ele>
        <time>2015-06-26T15:45:49Z</time>
      </trkpt>
      <trkpt lat="46.19405" lon="6.72257">
        <ele>1603.62</ele>
        <time>2015-06-26T15:45:55Z</time>
      </trkpt>
      <trkpt lat="46.19408" lon="6.72234">
        <ele>1606.98</ele>
        <time>2015-06-26T15:46:02Z</time>
      </trkpt>
      <trkpt lat="46.19415" lon="6.72218">
        <ele>1603.14</ele>
        <time>2015-06-26T15:46:05Z</time>
      </trkpt>
      <trkpt lat="46.19412" lon="6.72211">
        <ele>1599.29</ele>
        <time>2015-06-26T15:46:07Z</time>
      </trkpt>
      <trkpt lat="46.19406" lon="6.72212">
        <ele>1595.45</ele>
        <time>2015-06-26T15:46:09Z</time>
      </trkpt>
      <trkpt lat="46.194" lon="6.7221">
        <ele>1592.56</ele>
        <time>2015-06-26T15:46:11Z</time>
      </trkpt>
      <trkpt lat="46.19375" lon="6.72193">
        <ele>1590.64</ele>
        <time>2015-06-26T15:46:18Z</time>
      </trkpt>
      <trkpt lat="46.19378" lon="6.72172">
        <ele>1589.68</ele>
        <time>2015-06-26T15:46:24Z</time>
      </trkpt>
      <trkpt lat="46.1937" lon="6.72155">
        <ele>1585.83</ele>
        <time>2015-06-26T15:46:30Z</time>
      </trkpt>
      <trkpt lat="46.19383" lon="6.72149">
        <ele>1581.99</ele>
        <time>2015-06-26T15:46:33Z</time>
      </trkpt>
      <trkpt lat="46.19377" lon="6.72135">
        <ele>1578.14</ele>
        <time>2015-06-26T15:46:36Z</time>
      </trkpt>
      <trkpt lat="46.19362" lon="6.7213">
        <ele>1574.3</ele>
        <time>2015-06-26T15:46:39Z</time>
      </trkpt>
      <trkpt lat="46.19348" lon="6.72134">
        <ele>1572.37</ele>
        <time>2015-06-26T15:46:42Z</time>
      </trkpt>
      <trkpt lat="46.19331" lon="6.72128">
        <ele>1574.3</ele>
        <time>2015-06-26T15:46:49Z</time>
      </trkpt>
      <trkpt lat="46.19336" lon="6.7212">
        <ele>1574.3</ele>
        <time>2015-06-26T15:46:51Z</time>
      </trkpt>
      <trkpt lat="46.1934" lon="6.72113">
        <ele>1572.37</ele>
        <time>2015-06-26T15:46:53Z</time>
      </trkpt>
      <trkpt lat="46.1936" lon="6.721">
        <ele>1568.53</ele>
        <time>2015-06-26T15:46:58Z</time>
      </trkpt>
      <trkpt lat="46.19363" lon="6.72094">
        <ele>1567.57</ele>
        <time>2015-06-26T15:47:00Z</time>
      </trkpt>
      <trkpt lat="46.19369" lon="6.72084">
        <ele>1564.68</ele>
        <time>2015-06-26T15:47:05Z</time>
      </trkpt>
      <trkpt lat="46.19393" lon="6.72077">
        <ele>1563.72</ele>
        <time>2015-06-26T15:47:11Z</time>
      </trkpt>
      <trkpt lat="46.19402" lon="6.72073">
        <ele>1561.8</ele>
        <time>2015-06-26T15:47:13Z</time>
      </trkpt>
      <trkpt lat="46.19416" lon="6.7207">
        <ele>1559.4</ele>
        <time>2015-06-26T15:47:16Z</time>
      </trkpt>
      <trkpt lat="46.19416" lon="6.72047">
        <ele>1555.07</ele>
        <time>2015-06-26T15:47:22Z</time>
      </trkpt>
      <trkpt lat="46.19397" lon="6.72042">
        <ele>1552.19</ele>
        <time>2015-06-26T15:47:25Z</time>
      </trkpt>
      <trkpt lat="46.19381" lon="6.72021">
        <ele>1545.94</ele>
        <time>2015-06-26T15:47:29Z</time>
      </trkpt>
      <trkpt lat="46.19376" lon="6.72015">
        <ele>1544.5</ele>
        <time>2015-06-26T15:47:30Z</time>
      </trkpt>
      <trkpt lat="46.1936" lon="6.71996">
        <ele>1539.69</ele>
        <time>2015-06-26T15:47:33Z</time>
      </trkpt>
      <trkpt lat="46.19348" lon="6.71985">
        <ele>1536.32</ele>
        <time>2015-06-26T15:47:35Z</time>
      </trkpt>
      <trkpt lat="46.19333" lon="6.71972">
        <ele>1532</ele>
        <time>2015-06-26T15:47:38Z</time>
      </trkpt>
      <trkpt lat="46.19326" lon="6.71963">
        <ele>1528.63</ele>
        <time>2015-06-26T15:47:40Z</time>
      </trkpt>
      <trkpt lat="46.1933" lon="6.71953">
        <ele>1523.35</ele>
        <time>2015-06-26T15:47:44Z</time>
      </trkpt>
      <trkpt lat="46.19355" lon="6.71942">
        <ele>1523.35</ele>
        <time>2015-06-26T15:47:50Z</time>
      </trkpt>
      <trkpt lat="46.19367" lon="6.71934">
        <ele>1523.35</ele>
        <time>2015-06-26T15:47:52Z</time>
      </trkpt>
      <trkpt lat="46.19415" lon="6.7194">
        <ele>1519.5</ele>
        <time>2015-06-26T15:47:59Z</time>
      </trkpt>
      <trkpt lat="46.19423" lon="6.71937">
        <ele>1518.06</ele>
        <time>2015-06-26T15:48:00Z</time>
      </trkpt>
      <trkpt lat="46.19434" lon="6.7193">
        <ele>1515.18</ele>
        <time>2015-06-26T15:48:02Z</time>
      </trkpt>
      <trkpt lat="46.1945" lon="6.71921">
        <ele>1510.37</ele>
        <time>2015-06-26T15:48:05Z</time>
      </trkpt>
      <trkpt lat="46.1947" lon="6.71911">
        <ele>1507.48</ele>
        <time>2015-06-26T15:48:08Z</time>
      </trkpt>
      <trkpt lat="46.19507" lon="6.71897">
        <ele>1506.52</ele>
        <time>2015-06-26T15:48:13Z</time>
      </trkpt>
      <trkpt lat="46.19551" lon="6.71867">
        <ele>1503.16</ele>
        <time>2015-06-26T15:48:20Z</time>
      </trkpt>
      <trkpt lat="46.19557" lon="6.71862">
        <ele>1501.72</ele>
        <time>2015-06-26T15:48:21Z</time>
      </trkpt>
      <trkpt lat="46.19576" lon="6.71852">
        <ele>1496.91</ele>
        <time>2015-06-26T15:48:24Z</time>
      </trkpt>
      <trkpt lat="46.19597" lon="6.71832">
        <ele>1491.62</ele>
        <time>2015-06-26T15:48:28Z</time>
      </trkpt>
      <trkpt lat="46.19601" lon="6.71825">
        <ele>1492.1</ele>
        <time>2015-06-26T15:48:29Z</time>
      </trkpt>
      <trkpt lat="46.19634" lon="6.71785">
        <ele>1489.7</ele>
        <time>2015-06-26T15:48:36Z</time>
      </trkpt>
      <trkpt lat="46.19648" lon="6.71778">
        <ele>1488.26</ele>
        <time>2015-06-26T15:48:38Z</time>
      </trkpt>
      <trkpt lat="46.19674" lon="6.71769">
        <ele>1484.41</ele>
        <time>2015-06-26T15:48:43Z</time>
      </trkpt>
      <trkpt lat="46.19675" lon="6.71741">
        <ele>1481.53</ele>
        <time>2015-06-26T15:48:47Z</time>
      </trkpt>
      <trkpt lat="46.19706" lon="6.71696">
        <ele>1478.65</ele>
        <time>2015-06-26T15:48:54Z</time>
      </trkpt>
      <trkpt lat="46.1974" lon="6.71671">
        <ele>1474.8</ele>
        <time>2015-06-26T15:48:59Z</time>
      </trkpt>
      <trkpt lat="46.19772" lon="6.71653">
        <ele>1470.47</ele>
        <time>2015-06-26T15:49:04Z</time>
      </trkpt>
      <trkpt lat="46.19768" lon="6.71627">
        <ele>1466.63</ele>
        <time>2015-06-26T15:49:08Z</time>
      </trkpt>
      <trkpt lat="46.19765" lon="6.7161">
        <ele>1465.67</ele>
        <time>2015-06-26T15:49:10Z</time>
      </trkpt>
      <trkpt lat="46.19762" lon="6.7159">
        <ele>1465.19</ele>
        <time>2015-06-26T15:49:12Z</time>
      </trkpt>
      <trkpt lat="46.19774" lon="6.71533">
        <ele>1462.3</ele>
        <time>2015-06-26T15:49:18Z</time>
      </trkpt>
      <trkpt lat="46.1978" lon="6.71527">
        <ele>1461.34</ele>
        <time>2015-06-26T15:49:19Z</time>
      </trkpt>
      <trkpt lat="46.19808" lon="6.71484">
        <ele>1456.53</ele>
        <time>2015-06-26T15:49:25Z</time>
      </trkpt>
      <trkpt lat="46.19816" lon="6.7146">
        <ele>1455.09</ele>
        <time>2015-06-26T15:49:28Z</time>
      </trkpt>
      <trkpt lat="46.19819" lon="6.71425">
        <ele>1455.09</ele>
        <time>2015-06-26T15:49:32Z</time>
      </trkpt>
      <trkpt lat="46.19825" lon="6.71387">
        <ele>1455.09</ele>
        <time>2015-06-26T15:49:37Z</time>
      </trkpt>
      <trkpt lat="46.19841" lon="6.71335">
        <ele>1455.09</ele>
        <time>2015-06-26T15:49:43Z</time>
      </trkpt>
      <trkpt lat="46.19854" lon="6.71273">
        <ele>1450.77</ele>
        <time>2015-06-26T15:49:49Z</time>
      </trkpt>
      <trkpt lat="46.19856" lon="6.71251">
        <ele>1447.88</ele>
        <time>2015-06-26T15:49:51Z</time>
      </trkpt>
      <trkpt lat="46.19855" lon="6.7123">
        <ele>1443.08</ele>
        <time>2015-06-26T15:49:54Z</time>
      </trkpt>
      <trkpt lat="46.19854" lon="6.71218">
        <ele>1439.71</ele>
        <time>2015-06-26T15:49:57Z</time>
      </trkpt>
      <trkpt lat="46.19843" lon="6.71247">
        <ele>1438.75</ele>
        <time>2015-06-26T15:50:03Z</time>
      </trkpt>
      <trkpt lat="46.19836" lon="6.71262">
        <ele>1438.75</ele>
        <time>2015-06-26T15:50:05Z</time>
      </trkpt>
      <trkpt lat="46.19832" lon="6.71288">
        <ele>1438.75</ele>
        <time>2015-06-26T15:50:08Z</time>
      </trkpt>
      <trkpt lat="46.1982" lon="6.71317">
        <ele>1434.91</ele>
        <time>2015-06-26T15:50:12Z</time>
      </trkpt>
      <trkpt lat="46.19817" lon="6.71323">
        <ele>1433.46</ele>
        <time>2015-06-26T15:50:13Z</time>
      </trkpt>
      <trkpt lat="46.198" lon="6.71331">
        <ele>1427.7</ele>
        <time>2015-06-26T15:50:16Z</time>
      </trkpt>
      <trkpt lat="46.19788" lon="6.71332">
        <ele>1422.89</ele>
        <time>2015-06-26T15:50:18Z</time>
      </trkpt>
      <trkpt lat="46.1978" lon="6.7132">
        <ele>1418.56</ele>
        <time>2015-06-26T15:50:20Z</time>
      </trkpt>
      <trkpt lat="46.19772" lon="6.713">
        <ele>1414.24</ele>
        <time>2015-06-26T15:50:23Z</time>
      </trkpt>
      <trkpt lat="46.19768" lon="6.71243">
        <ele>1411.35</ele>
        <time>2015-06-26T15:50:30Z</time>
      </trkpt>
      <trkpt lat="46.19768" lon="6.71222">
        <ele>1408.95</ele>
        <time>2015-06-26T15:50:33Z</time>
      </trkpt>
      <trkpt lat="46.19771" lon="6.71204">
        <ele>1405.58</ele>
        <time>2015-06-26T15:50:36Z</time>
      </trkpt>
      <trkpt lat="46.1977" lon="6.71175">
        <ele>1401.26</ele>
        <time>2015-06-26T15:50:40Z</time>
      </trkpt>
      <trkpt lat="46.19764" lon="6.7115">
        <ele>1395.97</ele>
        <time>2015-06-26T15:50:44Z</time>
      </trkpt>
      <trkpt lat="46.19763" lon="6.71145">
        <ele>1395.01</ele>
        <time>2015-06-26T15:50:45Z</time>
      </trkpt>
      <trkpt lat="46.19758" lon="6.71116">
        <ele>1391.17</ele>
        <time>2015-06-26T15:50:49Z</time>
      </trkpt>
      <trkpt lat="46.19751" lon="6.71076">
        <ele>1386.84</ele>
        <time>2015-06-26T15:50:53Z</time>
      </trkpt>
      <trkpt lat="46.19746" lon="6.7105">
        <ele>1382.99</ele>
        <time>2015-06-26T15:50:56Z</time>
      </trkpt>
      <trkpt lat="46.19739" lon="6.71041">
        <ele>1377.71</ele>
        <time>2015-06-26T15:51:00Z</time>
      </trkpt>
      <trkpt lat="46.19727" lon="6.71057">
        <ele>1374.82</ele>
        <time>2015-06-26T15:51:04Z</time>
      </trkpt>
      <trkpt lat="46.19695" lon="6.71066">
        <ele>1370.5</ele>
        <time>2015-06-26T15:51:11Z</time>
      </trkpt>
      <trkpt lat="46.19694" lon="6.71061">
        <ele>1369.54</ele>
        <time>2015-06-26T15:51:12Z</time>
      </trkpt>
      <trkpt lat="46.19687" lon="6.71034">
        <ele>1364.73</ele>
        <time>2015-06-26T15:51:16Z</time>
      </trkpt>
      <trkpt lat="46.19684" lon="6.71009">
        <ele>1359.92</ele>
        <time>2015-06-26T15:51:20Z</time>
      </trkpt>
      <trkpt lat="46.19683" lon="6.71005">
        <ele>1358.48</ele>
        <time>2015-06-26T15:51:21Z</time>
      </trkpt>
      <trkpt lat="46.19683" lon="6.70976">
        <ele>1353.19</ele>
        <time>2015-06-26T15:51:25Z</time>
      </trkpt>
      <trkpt lat="46.19684" lon="6.70962">
        <ele>1351.27</ele>
        <time>2015-06-26T15:51:27Z</time>
      </trkpt>
      <trkpt lat="46.19687" lon="6.7094">
        <ele>1348.39</ele>
        <time>2015-06-26T15:51:30Z</time>
      </trkpt>
      <trkpt lat="46.19682" lon="6.70901">
        <ele>1343.1</ele>
        <time>2015-06-26T15:51:35Z</time>
      </trkpt>
      <trkpt lat="46.19676" lon="6.70869">
        <ele>1337.81</ele>
        <time>2015-06-26T15:51:39Z</time>
      </trkpt>
      <trkpt lat="46.19672" lon="6.7084">
        <ele>1333.49</ele>
        <time>2015-06-26T15:51:42Z</time>
      </trkpt>
      <trkpt lat="46.1967" lon="6.70797">
        <ele>1327.24</ele>
        <time>2015-06-26T15:51:46Z</time>
      </trkpt>
      <trkpt lat="46.19666" lon="6.70756">
        <ele>1321.47</ele>
        <time>2015-06-26T15:51:50Z</time>
      </trkpt>
      <trkpt lat="46.1966" lon="6.7072">
        <ele>1316.66</ele>
        <time>2015-06-26T15:51:54Z</time>
      </trkpt>
      <trkpt lat="46.19644" lon="6.707">
        <ele>1312.34</ele>
        <time>2015-06-26T15:51:59Z</time>
      </trkpt>
      <trkpt lat="46.19643" lon="6.70691">
        <ele>1313.3</ele>
        <time>2015-06-26T15:52:00Z</time>
      </trkpt>
      <trkpt lat="46.19641" lon="6.70633">
        <ele>1308.97</ele>
        <time>2015-06-26T15:52:06Z</time>
      </trkpt>
      <trkpt lat="46.19641" lon="6.70614">
        <ele>1306.09</ele>
        <time>2015-06-26T15:52:08Z</time>
      </trkpt>
      <trkpt lat="46.19642" lon="6.70598">
        <ele>1302.72</ele>
        <time>2015-06-26T15:52:10Z</time>
      </trkpt>
      <trkpt lat="46.19636" lon="6.70591">
        <ele>1297.92</ele>
        <time>2015-06-26T15:52:13Z</time>
      </trkpt>
      <trkpt lat="46.19633" lon="6.70596">
        <ele>1296.48</ele>
        <time>2015-06-26T15:52:14Z</time>
      </trkpt>
      <trkpt lat="46.19622" lon="6.70616">
        <ele>1293.59</ele>
        <time>2015-06-26T15:52:17Z</time>
      </trkpt>
      <trkpt lat="46.19611" lon="6.70601">
        <ele>1289.75</ele>
        <time>2015-06-26T15:52:22Z</time>
      </trkpt>
      <trkpt lat="46.19611" lon="6.70591">
        <ele>1289.27</ele>
        <time>2015-06-26T15:52:23Z</time>
      </trkpt>
      <trkpt lat="46.19609" lon="6.70536">
        <ele>1284.94</ele>
        <time>2015-06-26T15:52:28Z</time>
      </trkpt>
      <trkpt lat="46.19609" lon="6.70512">
        <ele>1280.13</ele>
        <time>2015-06-26T15:52:31Z</time>
      </trkpt>
      <trkpt lat="46.196" lon="6.70517">
        <ele>1275.33</ele>
        <time>2015-06-26T15:52:34Z</time>
      </trkpt>
      <trkpt lat="46.1959" lon="6.70528">
        <ele>1272.92</ele>
        <time>2015-06-26T15:52:36Z</time>
      </trkpt>
      <trkpt lat="46.19569" lon="6.7055">
        <ele>1269.08</ele>
        <time>2015-06-26T15:52:40Z</time>
      </trkpt>
      <trkpt lat="46.19555" lon="6.70568">
        <ele>1266.67</ele>
        <time>2015-06-26T15:52:43Z</time>
      </trkpt>
      <trkpt lat="46.19544" lon="6.70561">
        <ele>1262.35</ele>
        <time>2015-06-26T15:52:47Z</time>
      </trkpt>
      <trkpt lat="46.19543" lon="6.70537">
        <ele>1258.5</ele>
        <time>2015-06-26T15:52:50Z</time>
      </trkpt>
      <trkpt lat="46.19542" lon="6.70528">
        <ele>1257.54</ele>
        <time>2015-06-26T15:52:51Z</time>
      </trkpt>
      <trkpt lat="46.19539" lon="6.70489">
        <ele>1253.22</ele>
        <time>2015-06-26T15:52:55Z</time>
      </trkpt>
      <trkpt lat="46.19536" lon="6.70451">
        <ele>1247.45</ele>
        <time>2015-06-26T15:52:59Z</time>
      </trkpt>
      <trkpt lat="46.19537" lon="6.70418">
        <ele>1241.68</ele>
        <time>2015-06-26T15:53:03Z</time>
      </trkpt>
      <trkpt lat="46.19528" lon="6.70416">
        <ele>1238.32</ele>
        <time>2015-06-26T15:53:06Z</time>
      </trkpt>
      <trkpt lat="46.19514" lon="6.70426">
        <ele>1234.95</ele>
        <time>2015-06-26T15:53:10Z</time>
      </trkpt>
      <trkpt lat="46.19507" lon="6.70433">
        <ele>1233.51</ele>
        <time>2015-06-26T15:53:12Z</time>
      </trkpt>
      <trkpt lat="46.1949" lon="6.70459">
        <ele>1229.18</ele>
        <time>2015-06-26T15:53:16Z</time>
      </trkpt>
      <trkpt lat="46.19479" lon="6.70492">
        <ele>1223.9</ele>
        <time>2015-06-26T15:53:20Z</time>
      </trkpt>
      <trkpt lat="46.19474" lon="6.70507">
        <ele>1220.53</ele>
        <time>2015-06-26T15:53:22Z</time>
      </trkpt>
      <trkpt lat="46.19462" lon="6.70536">
        <ele>1214.76</ele>
        <time>2015-06-26T15:53:26Z</time>
      </trkpt>
      <trkpt lat="46.19459" lon="6.70551">
        <ele>1212.36</ele>
        <time>2015-06-26T15:53:28Z</time>
      </trkpt>
      <trkpt lat="46.19451" lon="6.70547">
        <ele>1208.03</ele>
        <time>2015-06-26T15:53:33Z</time>
      </trkpt>
      <trkpt lat="46.1945" lon="6.7054">
        <ele>1207.55</ele>
        <time>2015-06-26T15:53:34Z</time>
      </trkpt>
      <trkpt lat="46.19439" lon="6.70506">
        <ele>1204.67</ele>
        <time>2015-06-26T15:53:38Z</time>
      </trkpt>
      <trkpt lat="46.19434" lon="6.70478">
        <ele>1198.9</ele>
        <time>2015-06-26T15:53:42Z</time>
      </trkpt>
      <trkpt lat="46.19434" lon="6.70471">
        <ele>1196.98</ele>
        <time>2015-06-26T15:53:43Z</time>
      </trkpt>
      <trkpt lat="46.19431" lon="6.70454">
        <ele>1193.61</ele>
        <time>2015-06-26T15:53:46Z</time>
      </trkpt>
      <trkpt lat="46.19428" lon="6.70432">
        <ele>1189.77</ele>
        <time>2015-06-26T15:53:49Z</time>
      </trkpt>
      <trkpt lat="46.19425" lon="6.70407">
        <ele>1185.92</ele>
        <time>2015-06-26T15:53:52Z</time>
      </trkpt>
      <trkpt lat="46.19425" lon="6.70372">
        <ele>1181.6</ele>
        <time>2015-06-26T15:53:56Z</time>
      </trkpt>
      <trkpt lat="46.19432" lon="6.70335">
        <ele>1175.35</ele>
        <time>2015-06-26T15:54:01Z</time>
      </trkpt>
      <trkpt lat="46.19428" lon="6.7033">
        <ele>1171.98</ele>
        <time>2015-06-26T15:54:04Z</time>
      </trkpt>
      <trkpt lat="46.19419" lon="6.70338">
        <ele>1168.14</ele>
        <time>2015-06-26T15:54:08Z</time>
      </trkpt>
      <trkpt lat="46.19412" lon="6.70348">
        <ele>1166.7</ele>
        <time>2015-06-26T15:54:10Z</time>
      </trkpt>
      <trkpt lat="46.19404" lon="6.70357">
        <ele>1165.26</ele>
        <time>2015-06-26T15:54:12Z</time>
      </trkpt>
      <trkpt lat="46.19384" lon="6.70382">
        <ele>1160.93</ele>
        <time>2015-06-26T15:54:16Z</time>
      </trkpt>
      <trkpt lat="46.19374" lon="6.70396">
        <ele>1158.05</ele>
        <time>2015-06-26T15:54:18Z</time>
      </trkpt>
      <trkpt lat="46.19362" lon="6.70421">
        <ele>1153.72</ele>
        <time>2015-06-26T15:54:21Z</time>
      </trkpt>
      <trkpt lat="46.19356" lon="6.7044">
        <ele>1150.84</ele>
        <time>2015-06-26T15:54:23Z</time>
      </trkpt>
      <trkpt lat="46.19349" lon="6.70461">
        <ele>1146.99</ele>
        <time>2015-06-26T15:54:26Z</time>
      </trkpt>
      <trkpt lat="46.19339" lon="6.70478">
        <ele>1142.66</ele>
        <time>2015-06-26T15:54:30Z</time>
      </trkpt>
      <trkpt lat="46.19335" lon="6.70463">
        <ele>1139.78</ele>
        <time>2015-06-26T15:54:34Z</time>
      </trkpt>
      <trkpt lat="46.1933" lon="6.70446">
        <ele>1136.9</ele>
        <time>2015-06-26T15:54:38Z</time>
      </trkpt>
      <trkpt lat="46.19323" lon="6.70431">
        <ele>1134.49</ele>
        <time>2015-06-26T15:54:41Z</time>
      </trkpt>
      <trkpt lat="46.19314" lon="6.70404">
        <ele>1129.21</ele>
        <time>2015-06-26T15:54:45Z</time>
      </trkpt>
      <trkpt lat="46.1931" lon="6.70392">
        <ele>1126.32</ele>
        <time>2015-06-26T15:54:47Z</time>
      </trkpt>
      <trkpt lat="46.19309" lon="6.70386">
        <ele>1124.88</ele>
        <time>2015-06-26T15:54:48Z</time>
      </trkpt>
      <trkpt lat="46.19306" lon="6.70363">
        <ele>1120.55</ele>
        <time>2015-06-26T15:54:51Z</time>
      </trkpt>
      <trkpt lat="46.19304" lon="6.70327">
        <ele>1115.75</ele>
        <time>2015-06-26T15:54:55Z</time>
      </trkpt>
      <trkpt lat="46.19307" lon="6.70298">
        <ele>1111.42</ele>
        <time>2015-06-26T15:54:59Z</time>
      </trkpt>
      <trkpt lat="46.19314" lon="6.70263">
        <ele>1107.1</ele>
        <time>2015-06-26T15:55:04Z</time>
      </trkpt>
      <trkpt lat="46.19326" lon="6.70237">
        <ele>1102.77</ele>
        <time>2015-06-26T15:55:08Z</time>
      </trkpt>
      <trkpt lat="46.19338" lon="6.70213">
        <ele>1098.44</ele>
        <time>2015-06-26T15:55:11Z</time>
      </trkpt>
      <trkpt lat="46.19345" lon="6.7019">
        <ele>1094.12</ele>
        <time>2015-06-26T15:55:14Z</time>
      </trkpt>
      <trkpt lat="46.19346" lon="6.70165">
        <ele>1089.79</ele>
        <time>2015-06-26T15:55:18Z</time>
      </trkpt>
      <trkpt lat="46.19327" lon="6.70178">
        <ele>1086.43</ele>
        <time>2015-06-26T15:55:24Z</time>
      </trkpt>
      <trkpt lat="46.19304" lon="6.70189">
        <ele>1082.58</ele>
        <time>2015-06-26T15:55:29Z</time>
      </trkpt>
      <trkpt lat="46.19299" lon="6.70192">
        <ele>1081.62</ele>
        <time>2015-06-26T15:55:30Z</time>
      </trkpt>
      <trkpt lat="46.19281" lon="6.70202">
        <ele>1077.29</ele>
        <time>2015-06-26T15:55:34Z</time>
      </trkpt>
      <trkpt lat="46.1927" lon="6.70209">
        <ele>1072.97</ele>
        <time>2015-06-26T15:55:37Z</time>
      </trkpt>
      <trkpt lat="46.19256" lon="6.70219">
        <ele>1069.12</ele>
        <time>2015-06-26T15:55:40Z</time>
      </trkpt>
      <trkpt lat="46.1924" lon="6.7023">
        <ele>1065.76</ele>
        <time>2015-06-26T15:55:43Z</time>
      </trkpt>
      <trkpt lat="46.19223" lon="6.70244">
        <ele>1061.91</ele>
        <time>2015-06-26T15:55:47Z</time>
      </trkpt>
      <trkpt lat="46.19219" lon="6.70233">
        <ele>1058.07</ele>
        <time>2015-06-26T15:55:51Z</time>
      </trkpt>
      <trkpt lat="46.19223" lon="6.70223">
        <ele>1056.63</ele>
        <time>2015-06-26T15:55:53Z</time>
      </trkpt>
      <trkpt lat="46.19228" lon="6.702">
        <ele>1054.22</ele>
        <time>2015-06-26T15:55:57Z</time>
      </trkpt>
      <trkpt lat="46.19229" lon="6.70194">
        <ele>1053.26</ele>
        <time>2015-06-26T15:55:58Z</time>
      </trkpt>
      <trkpt lat="46.19244" lon="6.70151">
        <ele>1048.45</ele>
        <time>2015-06-26T15:56:03Z</time>
      </trkpt>
      <trkpt lat="46.19247" lon="6.70142">
        <ele>1047.01</ele>
        <time>2015-06-26T15:56:04Z</time>
      </trkpt>
      <trkpt lat="46.19259" lon="6.70118">
        <ele>1042.21</ele>
        <time>2015-06-26T15:56:07Z</time>
      </trkpt>
      <trkpt lat="46.19265" lon="6.70105">
        <ele>1038.84</ele>
        <time>2015-06-26T15:56:09Z</time>
      </trkpt>
      <trkpt lat="46.1927" lon="6.70095">
        <ele>1035.96</ele>
        <time>2015-06-26T15:56:11Z</time>
      </trkpt>
      <trkpt lat="46.19268" lon="6.7009">
        <ele>1037.88</ele>
        <time>2015-06-26T15:56:21Z</time>
      </trkpt>
      <trkpt lat="46.19268" lon="6.7009">
        <ele>1038.84</ele>
        <time>2015-06-26T15:56:41Z</time>
      </trkpt>
      <trkpt lat="46.19268" lon="6.7009">
        <ele>1037.88</ele>
        <time>2015-06-26T15:57:06Z</time>
      </trkpt>
      <trkpt lat="46.19268" lon="6.7009">
        <ele>1037.88</ele>
        <time>2015-06-26T15:57:38Z</time>
      </trkpt>
      <trkpt lat="46.19268" lon="6.70091">
        <ele>1037.88</ele>
        <time>2015-06-26T15:58:04Z</time>
      </trkpt>
      <trkpt lat="46.19268" lon="6.70091">
        <ele>1037.88</ele>
        <time>2015-06-26T15:58:27Z</time>
      </trkpt>
      <trkpt lat="46.19267" lon="6.70091">
        <ele>1037.88</ele>
        <time>2015-06-26T15:58:57Z</time>
      </trkpt>
      <trkpt lat="46.19267" lon="6.70091">
        <ele>1037.88</ele>
        <time>2015-06-26T15:59:33Z</time>
      </trkpt>
      <trkpt lat="46.19267" lon="6.70091">
        <ele>1037.88</ele>
        <time>2015-06-26T16:00:01Z</time>
      </trkpt>
      <trkpt lat="46.19267" lon="6.70091">
        <ele>1037.88</ele>
        <time>2015-06-26T16:00:27Z</time>
      </trkpt>
      <trkpt lat="46.19267" lon="6.70091">
        <ele>1037.88</ele>
        <time>2015-06-26T16:01:04Z</time>
      </trkpt>
      <trkpt lat="46.19267" lon="6.7009">
        <ele>1037.88</ele>
        <time>2015-06-26T16:01:33Z</time>
      </trkpt>
      <trkpt lat="46.19267" lon="6.70091">
        <ele>1037.88</ele>
        <time>2015-06-26T16:02:01Z</time>
      </trkpt>
      <trkpt lat="46.19267" lon="6.70091">
        <ele>1037.88</ele>
        <time>2015-06-26T16:02:34Z</time>
      </trkpt>
      <trkpt lat="46.19267" lon="6.70091">
        <ele>1037.88</ele>
        <time>2015-06-26T16:03:01Z</time>
      </trkpt>
      <trkpt lat="46.19267" lon="6.70091">
        <ele>1037.88</ele>
        <time>2015-06-26T16:03:31Z</time>
      </trkpt>
      <trkpt lat="46.19267" lon="6.70091">
        <ele>1037.88</ele>
        <time>2015-06-26T16:03:45Z</time>
      </trkpt>
      <trkpt lat="46.19267" lon="6.7009">
        <ele>1037.88</ele>
        <time>2015-06-26T16:04:05Z</time>
      </trkpt>
      <trkpt lat="46.19267" lon="6.7009">
        <ele>1037.88</ele>
        <time>2015-06-26T16:04:15Z</time>
      </trkpt>
      <trkpt lat="46.19259" lon="6.70096">
        <ele>1037.88</ele>
        <time>2015-06-26T16:04:19Z</time>
      </trkpt>
      <trkpt lat="46.19198" lon="6.70135">
        <ele>1034.52</ele>
        <time>2015-06-26T16:04:29Z</time>
      </trkpt>
      <trkpt lat="46.19182" lon="6.70148">
        <ele>1031.63</ele>
        <time>2015-06-26T16:04:31Z</time>
      </trkpt>
      <trkpt lat="46.19167" lon="6.70164">
        <ele>1026.34</ele>
        <time>2015-06-26T16:04:34Z</time>
      </trkpt>
      <trkpt lat="46.19165" lon="6.70155">
        <ele>1022.5</ele>
        <time>2015-06-26T16:04:37Z</time>
      </trkpt>
      <trkpt lat="46.19169" lon="6.70151">
        <ele>1022.98</ele>
        <time>2015-06-26T16:04:38Z</time>
      </trkpt>
      <trkpt lat="46.19178" lon="6.7014">
        <ele>1022.98</ele>
        <time>2015-06-26T16:04:40Z</time>
      </trkpt>
      <trkpt lat="46.1924" lon="6.70046">
        <ele>1022.98</ele>
        <time>2015-06-26T16:04:50Z</time>
      </trkpt>
      <trkpt lat="46.19262" lon="6.70003">
        <ele>1018.17</ele>
        <time>2015-06-26T16:04:54Z</time>
      </trkpt>
      <trkpt lat="46.19267" lon="6.69993">
        <ele>1017.21</ele>
        <time>2015-06-26T16:04:55Z</time>
      </trkpt>
      <trkpt lat="46.19311" lon="6.69948">
        <ele>1014.33</ele>
        <time>2015-06-26T16:05:01Z</time>
      </trkpt>
      <trkpt lat="46.19383" lon="6.69842">
        <ele>1011.93</ele>
        <time>2015-06-26T16:05:12Z</time>
      </trkpt>
      <trkpt lat="46.19376" lon="6.69814">
        <ele>1010.96</ele>
        <time>2015-06-26T16:05:17Z</time>
      </trkpt>
      <trkpt lat="46.19355" lon="6.69833">
        <ele>1007.6</ele>
        <time>2015-06-26T16:05:20Z</time>
      </trkpt>
      <trkpt lat="46.19347" lon="6.69843">
        <ele>1006.16</ele>
        <time>2015-06-26T16:05:21Z</time>
      </trkpt>
      <trkpt lat="46.19326" lon="6.69871">
        <ele>1000.39</ele>
        <time>2015-06-26T16:05:24Z</time>
      </trkpt>
      <trkpt lat="46.19308" lon="6.69875">
        <ele>994.14</ele>
        <time>2015-06-26T16:05:27Z</time>
      </trkpt>
      <trkpt lat="46.19303" lon="6.69869">
        <ele>992.22</ele>
        <time>2015-06-26T16:05:28Z</time>
      </trkpt>
      <trkpt lat="46.19297" lon="6.69837">
        <ele>990.3</ele>
        <time>2015-06-26T16:05:33Z</time>
      </trkpt>
      <trkpt lat="46.19321" lon="6.69805">
        <ele>993.18</ele>
        <time>2015-06-26T16:05:39Z</time>
      </trkpt>
      <trkpt lat="46.1933" lon="6.69792">
        <ele>994.62</ele>
        <time>2015-06-26T16:05:41Z</time>
      </trkpt>
      <trkpt lat="46.1933" lon="6.69769">
        <ele>992.22</ele>
        <time>2015-06-26T16:05:47Z</time>
      </trkpt>
      <trkpt lat="46.19321" lon="6.69775">
        <ele>988.85</ele>
        <time>2015-06-26T16:05:50Z</time>
      </trkpt>
      <trkpt lat="46.19279" lon="6.69823">
        <ele>992.22</ele>
        <time>2015-06-26T16:05:59Z</time>
      </trkpt>
      <trkpt lat="46.19249" lon="6.69856">
        <ele>995.1</ele>
        <time>2015-06-26T16:06:05Z</time>
      </trkpt>
      <trkpt lat="46.19175" lon="6.69934">
        <ele>994.62</ele>
        <time>2015-06-26T16:06:21Z</time>
      </trkpt>
      <trkpt lat="46.19129" lon="6.69976">
        <ele>995.1</ele>
        <time>2015-06-26T16:06:34Z</time>
      </trkpt>
      <trkpt lat="46.19101" lon="6.6998">
        <ele>995.1</ele>
        <time>2015-06-26T16:06:40Z</time>
      </trkpt>
      <trkpt lat="46.19094" lon="6.69942">
        <ele>986.45</ele>
        <time>2015-06-26T16:06:44Z</time>
      </trkpt>
      <trkpt lat="46.19094" lon="6.69934">
        <ele>984.05</ele>
        <time>2015-06-26T16:06:45Z</time>
      </trkpt>
      <trkpt lat="46.19091" lon="6.69922">
        <ele>979.72</ele>
        <time>2015-06-26T16:06:47Z</time>
      </trkpt>
      <trkpt lat="46.19086" lon="6.69899">
        <ele>976.36</ele>
        <time>2015-06-26T16:06:50Z</time>
      </trkpt>
      <trkpt lat="46.19064" lon="6.69876">
        <ele>972.03</ele>
        <time>2015-06-26T16:06:55Z</time>
      </trkpt>
      <trkpt lat="46.19048" lon="6.69859">
        <ele>970.59</ele>
        <time>2015-06-26T16:06:58Z</time>
      </trkpt>
      <trkpt lat="46.19004" lon="6.69835">
        <ele>967.7</ele>
        <time>2015-06-26T16:07:04Z</time>
      </trkpt>
      <trkpt lat="46.18985" lon="6.69809">
        <ele>963.86</ele>
        <time>2015-06-26T16:07:08Z</time>
      </trkpt>
      <trkpt lat="46.18982" lon="6.698">
        <ele>962.42</ele>
        <time>2015-06-26T16:07:09Z</time>
      </trkpt>
      <trkpt lat="46.18984" lon="6.69752">
        <ele>956.17</ele>
        <time>2015-06-26T16:07:14Z</time>
      </trkpt>
      <trkpt lat="46.18988" lon="6.69745">
        <ele>956.17</ele>
        <time>2015-06-26T16:07:15Z</time>
      </trkpt>
      <trkpt lat="46.18999" lon="6.69721">
        <ele>952.8</ele>
        <time>2015-06-26T16:07:18Z</time>
      </trkpt>
      <trkpt lat="46.19" lon="6.69704">
        <ele>951.84</ele>
        <time>2015-06-26T16:07:20Z</time>
      </trkpt>
      <trkpt lat="46.18985" lon="6.69663">
        <ele>953.28</ele>
        <time>2015-06-26T16:07:25Z</time>
      </trkpt>
      <trkpt lat="46.18977" lon="6.69638">
        <ele>956.65</ele>
        <time>2015-06-26T16:07:28Z</time>
      </trkpt>
      <trkpt lat="46.18973" lon="6.69627">
        <ele>959.05</ele>
        <time>2015-06-26T16:07:30Z</time>
      </trkpt>
      <trkpt lat="46.18975" lon="6.69615">
        <ele>963.38</ele>
        <time>2015-06-26T16:07:34Z</time>
      </trkpt>
      <trkpt lat="46.18977" lon="6.69612">
        <ele>963.86</ele>
        <time>2015-06-26T16:07:35Z</time>
      </trkpt>
      <trkpt lat="46.19017" lon="6.69573">
        <ele>963.86</ele>
        <time>2015-06-26T16:07:50Z</time>
      </trkpt>
      <trkpt lat="46.19047" lon="6.69531">
        <ele>963.86</ele>
        <time>2015-06-26T16:08:03Z</time>
      </trkpt>
      <trkpt lat="46.1909" lon="6.69495">
        <ele>964.82</ele>
        <time>2015-06-26T16:08:16Z</time>
      </trkpt>
      <trkpt lat="46.19106" lon="6.69461">
        <ele>964.82</ele>
        <time>2015-06-26T16:08:23Z</time>
      </trkpt>
      <trkpt lat="46.19116" lon="6.69449">
        <ele>964.82</ele>
        <time>2015-06-26T16:08:26Z</time>
      </trkpt>
      <trkpt lat="46.19153" lon="6.69404">
        <ele>965.3</ele>
        <time>2015-06-26T16:08:38Z</time>
      </trkpt>
      <trkpt lat="46.1919" lon="6.69364">
        <ele>967.7</ele>
        <time>2015-06-26T16:08:51Z</time>
      </trkpt>
      <trkpt lat="46.19209" lon="6.69321">
        <ele>971.55</ele>
        <time>2015-06-26T16:09:03Z</time>
      </trkpt>
      <trkpt lat="46.19203" lon="6.69307">
        <ele>974.91</ele>
        <time>2015-06-26T16:09:07Z</time>
      </trkpt>
      <trkpt lat="46.19167" lon="6.6929">
        <ele>976.36</ele>
        <time>2015-06-26T16:09:21Z</time>
      </trkpt>
      <trkpt lat="46.19154" lon="6.69288">
        <ele>975.88</ele>
        <time>2015-06-26T16:09:28Z</time>
      </trkpt>
      <trkpt lat="46.19146" lon="6.69274">
        <ele>977.32</ele>
        <time>2015-06-26T16:09:34Z</time>
      </trkpt>
      <trkpt lat="46.19158" lon="6.69252">
        <ele>979.72</ele>
        <time>2015-06-26T16:09:45Z</time>
      </trkpt>
      <trkpt lat="46.19157" lon="6.69248">
        <ele>981.16</ele>
        <time>2015-06-26T16:09:56Z</time>
      </trkpt>
      <trkpt lat="46.19141" lon="6.69248">
        <ele>981.64</ele>
        <time>2015-06-26T16:10:06Z</time>
      </trkpt>
      <trkpt lat="46.19128" lon="6.69248">
        <ele>982.12</ele>
        <time>2015-06-26T16:10:11Z</time>
      </trkpt>
      <trkpt lat="46.19066" lon="6.69268">
        <ele>984.05</ele>
        <time>2015-06-26T16:10:26Z</time>
      </trkpt>
      <trkpt lat="46.18996" lon="6.69282">
        <ele>985.01</ele>
        <time>2015-06-26T16:10:39Z</time>
      </trkpt>
      <trkpt lat="46.18979" lon="6.69286">
        <ele>985.49</ele>
        <time>2015-06-26T16:10:42Z</time>
      </trkpt>
      <trkpt lat="46.18962" lon="6.69295">
        <ele>985.49</ele>
        <time>2015-06-26T16:10:45Z</time>
      </trkpt>
      <trkpt lat="46.18877" lon="6.69382">
        <ele>986.45</ele>
        <time>2015-06-26T16:11:02Z</time>
      </trkpt>
      <trkpt lat="46.188" lon="6.6947">
        <ele>987.41</ele>
        <time>2015-06-26T16:11:18Z</time>
      </trkpt>
      <trkpt lat="46.18724" lon="6.69583">
        <ele>988.37</ele>
        <time>2015-06-26T16:11:36Z</time>
      </trkpt>
      <trkpt lat="46.18688" lon="6.69636">
        <ele>988.85</ele>
        <time>2015-06-26T16:11:44Z</time>
      </trkpt>
      <trkpt lat="46.18628" lon="6.69721">
        <ele>989.33</ele>
        <time>2015-06-26T16:11:58Z</time>
      </trkpt>
      <trkpt lat="46.1856" lon="6.69821">
        <ele>990.78</ele>
        <time>2015-06-26T16:12:13Z</time>
      </trkpt>
      <trkpt lat="46.18501" lon="6.69911">
        <ele>992.22</ele>
        <time>2015-06-26T16:12:25Z</time>
      </trkpt>
      <trkpt lat="46.18411" lon="6.70038">
        <ele>994.14</ele>
        <time>2015-06-26T16:12:43Z</time>
      </trkpt>
      <trkpt lat="46.18395" lon="6.7006">
        <ele>994.62</ele>
        <time>2015-06-26T16:12:47Z</time>
      </trkpt>
      <trkpt lat="46.1838" lon="6.70078">
        <ele>995.1</ele>
        <time>2015-06-26T16:12:51Z</time>
      </trkpt>
      <trkpt lat="46.18327" lon="6.70158">
        <ele>996.06</ele>
        <time>2015-06-26T16:13:07Z</time>
      </trkpt>
      <trkpt lat="46.183" lon="6.70197">
        <ele>996.54</ele>
        <time>2015-06-26T16:13:15Z</time>
      </trkpt>
      <trkpt lat="46.1827" lon="6.70204">
        <ele>997.02</ele>
        <time>2015-06-26T16:13:23Z</time>
      </trkpt>
      <trkpt lat="46.18264" lon="6.70197">
        <ele>997.02</ele>
        <time>2015-06-26T16:13:25Z</time>
      </trkpt>
      <trkpt lat="46.18211" lon="6.7011">
        <ele>998.47</ele>
        <time>2015-06-26T16:13:40Z</time>
      </trkpt>
      <trkpt lat="46.18164" lon="6.70032">
        <ele>1002.31</ele>
        <time>2015-06-26T16:13:54Z</time>
      </trkpt>
      <trkpt lat="46.18156" lon="6.70034">
        <ele>1005.2</ele>
        <time>2015-06-26T16:13:58Z</time>
      </trkpt>
      <trkpt lat="46.1814" lon="6.70071">
        <ele>1006.16</ele>
        <time>2015-06-26T16:14:04Z</time>
      </trkpt>
      <trkpt lat="46.18065" lon="6.7019">
        <ele>1004.72</ele>
        <time>2015-06-26T16:14:23Z</time>
      </trkpt>
      <trkpt lat="46.18048" lon="6.7022">
        <ele>1004.72</ele>
        <time>2015-06-26T16:14:28Z</time>
      </trkpt>
      <trkpt lat="46.18041" lon="6.70222">
        <ele>1004.72</ele>
        <time>2015-06-26T16:14:32Z</time>
      </trkpt>
      <trkpt lat="46.18027" lon="6.70201">
        <ele>1006.16</ele>
        <time>2015-06-26T16:14:40Z</time>
      </trkpt>
      <trkpt lat="46.18003" lon="6.70178">
        <ele>1008.08</ele>
        <time>2015-06-26T16:14:50Z</time>
      </trkpt>
      <trkpt lat="46.17996" lon="6.70166">
        <ele>1008.56</ele>
        <time>2015-06-26T16:14:54Z</time>
      </trkpt>
      <trkpt lat="46.17994" lon="6.70167">
        <ele>1010.96</ele>
        <time>2015-06-26T16:15:08Z</time>
      </trkpt>
      <trkpt lat="46.17994" lon="6.70168">
        <ele>1011.44</ele>
        <time>2015-06-26T16:15:23Z</time>
      </trkpt>
      <trkpt lat="46.17996" lon="6.70168">
        <ele>1011.44</ele>
        <time>2015-06-26T16:15:47Z</time>
      </trkpt>
      <trkpt lat="46.17996" lon="6.70168">
        <ele>1011.44</ele>
        <time>2015-06-26T16:16:07Z</time>
      </trkpt>
      <trkpt lat="46.17995" lon="6.70168">
        <ele>1011.44</ele>
        <time>2015-06-26T16:16:29Z</time>
      </trkpt>
      <trkpt lat="46.17995" lon="6.70168">
        <ele>1011.44</ele>
        <time>2015-06-26T16:16:50Z</time>
      </trkpt>
      <trkpt lat="46.17995" lon="6.70168">
        <ele>1011.44</ele>
        <time>2015-06-26T16:17:16Z</time>
      </trkpt>
      <trkpt lat="46.17995" lon="6.70167">
        <ele>1011.44</ele>
        <time>2015-06-26T16:17:44Z</time>
      </trkpt>
      <trkpt lat="46.17995" lon="6.70167">
        <ele>1011.44</ele>
        <time>2015-06-26T16:18:02Z</time>
      </trkpt>
      <trkpt lat="46.17995" lon="6.70167">
        <ele>1011.44</ele>
        <time>2015-06-26T16:18:30Z</time>
      </trkpt>
      <trkpt lat="46.17995" lon="6.70167">
        <ele>1011.44</ele>
        <time>2015-06-26T16:18:47Z</time>
      </trkpt>
      <trkpt lat="46.17995" lon="6.70167">
        <ele>1011.44</ele>
        <time>2015-06-26T16:19:10Z</time>
      </trkpt>
      <trkpt lat="46.17995" lon="6.70166">
        <ele>1011.44</ele>
        <time>2015-06-26T16:19:35Z</time>
      </trkpt>
      <trkpt lat="46.17995" lon="6.70166">
        <ele>1011.44</ele>
        <time>2015-06-26T16:20:02Z</time>
      </trkpt>
      <trkpt lat="46.17994" lon="6.70165">
        <ele>1011.44</ele>
        <time>2015-06-26T16:20:19Z</time>
      </trkpt>
      <trkpt lat="46.1801" lon="6.70185">
        <ele>1010.96</ele>
        <time>2015-06-26T16:20:30Z</time>
      </trkpt>
      <trkpt lat="46.18033" lon="6.70205">
        <ele>1008.56</ele>
        <time>2015-06-26T16:20:40Z</time>
      </trkpt>
      <trkpt lat="46.18042" lon="6.70217">
        <ele>1007.6</ele>
        <time>2015-06-26T16:20:46Z</time>
      </trkpt>
      <trkpt lat="46.18044" lon="6.70231">
        <ele>1006.64</ele>
        <time>2015-06-26T16:20:57Z</time>
      </trkpt>
      <trkpt lat="46.18042" lon="6.70238">
        <ele>1006.16</ele>
        <time>2015-06-26T16:21:11Z</time>
      </trkpt>
      <trkpt lat="46.18042" lon="6.70244">
        <ele>1006.16</ele>
        <time>2015-06-26T16:21:28Z</time>
      </trkpt>
      <trkpt lat="46.18041" lon="6.70251">
        <ele>1005.68</ele>
        <time>2015-06-26T16:21:40Z</time>
      </trkpt>
      <trkpt lat="46.18041" lon="6.70251">
        <ele>1005.68</ele>
        <time>2015-06-26T16:22:07Z</time>
      </trkpt>
      <trkpt lat="46.1804" lon="6.70251">
        <ele>1005.68</ele>
        <time>2015-06-26T16:22:36Z</time>
      </trkpt>
    </trkseg>
  </trk>
</gpx>